<?xml version="1.0" encoding="UTF-8" standalone="no" ?>
<gpx xmlns="http://www.topografix.com/GPX/1/1" creator="Cyclopedia.no" version="1.1" xmlns:xsi="http://www.w3.org/2001/XMLSchema-instance" xsi:schemaLocation="http://www.topografix.com/GPX/1/1 http://www.topografix.com/GPX/1/1/gpx.xsd">
	<metadata>
		<link href="http://www.cyclopedia.no"><text>Cyclopedia.no</text></link>
		<time>2026-05-06T16:46:02Z</time>	</metadata>
	<wpt lat="58.149965" lon="7.99514199999999"><ele>17</ele><time>0001-01-01T00:00:00Z</time><name>Start</name></wpt>
	<wpt lat="58.28538" lon="7.356255"><ele>77</ele><time>0001-01-01T00:00:00Z</time><name>Konsmo</name></wpt>
	<wpt lat="58.261971" lon="7.19831099999999"><ele>58</ele><time>0001-01-01T00:00:00Z</time><name>Kvås (Lyngdal)</name></wpt>
	<wpt lat="58.314215" lon="6.964235"><ele>17</ele><time>0001-01-01T00:00:00Z</time><name>Liknes (Kvinesdal)</name></wpt>
	<wpt lat="58.297037" lon="6.66066000000001"><ele>4</ele><time>0001-01-01T00:00:00Z</time><name>Flekkefjord</name></wpt>
	<wpt lat="58.292982" lon="6.44392099999999"><ele>7</ele><time>0001-01-01T00:00:00Z</time><name>Åna-Sira / fylkesgrense Rogaland</name></wpt>
	<wpt lat="58.344818" lon="6.29059699999999"><ele>6</ele><time>0001-01-01T00:00:00Z</time><name>Hauge i Dalane</name></wpt>
	<wpt lat="58.454057" lon="6.00301400000001"><ele>4</ele><time>0001-01-01T00:00:00Z</time><name>Egersund</name></wpt>
	<wpt lat="58.737804" lon="5.64031"><ele>23</ele><time>0001-01-01T00:00:00Z</time><name>Bryne</name></wpt>
	<wpt lat="58.973071" lon="5.749448"><ele>8</ele><time>0001-01-01T00:00:00Z</time><name>Stavanger</name></wpt>
	<trk>
		<name>Kristiansand - Stavanger</name>
		<trkseg>
				<trkpt lat="58.14997" lon="7.99514">
					<ele>17</ele>
					<time>0001-01-01T00:00:00Z</time>
				</trkpt>
				<trkpt lat="58.15041" lon="7.99410">
					<ele>30</ele>
					<time>0001-01-01T00:00:00Z</time>
				</trkpt>
				<trkpt lat="58.15044" lon="7.99405">
					<ele>28</ele>
					<time>0001-01-01T00:00:00Z</time>
				</trkpt>
				<trkpt lat="58.15021" lon="7.99351">
					<ele>26</ele>
					<time>0001-01-01T00:00:00Z</time>
				</trkpt>
				<trkpt lat="58.14946" lon="7.99231">
					<ele>24</ele>
					<time>0001-01-01T00:00:00Z</time>
				</trkpt>
				<trkpt lat="58.14825" lon="7.99007">
					<ele>18</ele>
					<time>0001-01-01T00:00:00Z</time>
				</trkpt>
				<trkpt lat="58.14754" lon="7.98868">
					<ele>16</ele>
					<time>0001-01-01T00:00:00Z</time>
				</trkpt>
				<trkpt lat="58.14731" lon="7.98826">
					<ele>15</ele>
					<time>0001-01-01T00:00:00Z</time>
				</trkpt>
				<trkpt lat="58.14735" lon="7.98807">
					<ele>15</ele>
					<time>0001-01-01T00:00:00Z</time>
				</trkpt>
				<trkpt lat="58.14730" lon="7.98762">
					<ele>15</ele>
					<time>0001-01-01T00:00:00Z</time>
				</trkpt>
				<trkpt lat="58.14750" lon="7.98685">
					<ele>12</ele>
					<time>0001-01-01T00:00:00Z</time>
				</trkpt>
				<trkpt lat="58.14738" lon="7.98661">
					<ele>11</ele>
					<time>0001-01-01T00:00:00Z</time>
				</trkpt>
				<trkpt lat="58.14727" lon="7.98605">
					<ele>11</ele>
					<time>0001-01-01T00:00:00Z</time>
				</trkpt>
				<trkpt lat="58.14724" lon="7.98582">
					<ele>12</ele>
					<time>0001-01-01T00:00:00Z</time>
				</trkpt>
				<trkpt lat="58.14706" lon="7.98531">
					<ele>12</ele>
					<time>0001-01-01T00:00:00Z</time>
				</trkpt>
				<trkpt lat="58.14620" lon="7.98375">
					<ele>20</ele>
					<time>0001-01-01T00:00:00Z</time>
				</trkpt>
				<trkpt lat="58.14577" lon="7.98312">
					<ele>20</ele>
					<time>0001-01-01T00:00:00Z</time>
				</trkpt>
				<trkpt lat="58.14551" lon="7.98260">
					<ele>22</ele>
					<time>0001-01-01T00:00:00Z</time>
				</trkpt>
				<trkpt lat="58.14499" lon="7.98221">
					<ele>19</ele>
					<time>0001-01-01T00:00:00Z</time>
				</trkpt>
				<trkpt lat="58.14485" lon="7.98206">
					<ele>20</ele>
					<time>0001-01-01T00:00:00Z</time>
				</trkpt>
				<trkpt lat="58.14402" lon="7.98153">
					<ele>22</ele>
					<time>0001-01-01T00:00:00Z</time>
				</trkpt>
				<trkpt lat="58.14332" lon="7.98124">
					<ele>25</ele>
					<time>0001-01-01T00:00:00Z</time>
				</trkpt>
				<trkpt lat="58.14288" lon="7.98104">
					<ele>24</ele>
					<time>0001-01-01T00:00:00Z</time>
				</trkpt>
				<trkpt lat="58.14246" lon="7.98101">
					<ele>26</ele>
					<time>0001-01-01T00:00:00Z</time>
				</trkpt>
				<trkpt lat="58.14225" lon="7.98080">
					<ele>27</ele>
					<time>0001-01-01T00:00:00Z</time>
				</trkpt>
				<trkpt lat="58.14160" lon="7.97954">
					<ele>27</ele>
					<time>0001-01-01T00:00:00Z</time>
				</trkpt>
				<trkpt lat="58.14120" lon="7.97780">
					<ele>26</ele>
					<time>0001-01-01T00:00:00Z</time>
				</trkpt>
				<trkpt lat="58.14116" lon="7.97750">
					<ele>26</ele>
					<time>0001-01-01T00:00:00Z</time>
				</trkpt>
				<trkpt lat="58.14108" lon="7.97611">
					<ele>26</ele>
					<time>0001-01-01T00:00:00Z</time>
				</trkpt>
				<trkpt lat="58.14089" lon="7.97540">
					<ele>26</ele>
					<time>0001-01-01T00:00:00Z</time>
				</trkpt>
				<trkpt lat="58.14086" lon="7.97490">
					<ele>26</ele>
					<time>0001-01-01T00:00:00Z</time>
				</trkpt>
				<trkpt lat="58.14085" lon="7.97465">
					<ele>26</ele>
					<time>0001-01-01T00:00:00Z</time>
				</trkpt>
				<trkpt lat="58.14104" lon="7.97364">
					<ele>27</ele>
					<time>0001-01-01T00:00:00Z</time>
				</trkpt>
				<trkpt lat="58.14101" lon="7.97128">
					<ele>29</ele>
					<time>0001-01-01T00:00:00Z</time>
				</trkpt>
				<trkpt lat="58.14077" lon="7.96876">
					<ele>28</ele>
					<time>0001-01-01T00:00:00Z</time>
				</trkpt>
				<trkpt lat="58.14044" lon="7.96767">
					<ele>27</ele>
					<time>0001-01-01T00:00:00Z</time>
				</trkpt>
				<trkpt lat="58.14006" lon="7.96720">
					<ele>25</ele>
					<time>0001-01-01T00:00:00Z</time>
				</trkpt>
				<trkpt lat="58.13980" lon="7.96702">
					<ele>24</ele>
					<time>0001-01-01T00:00:00Z</time>
				</trkpt>
				<trkpt lat="58.13923" lon="7.96713">
					<ele>21</ele>
					<time>0001-01-01T00:00:00Z</time>
				</trkpt>
				<trkpt lat="58.13832" lon="7.96733">
					<ele>21</ele>
					<time>0001-01-01T00:00:00Z</time>
				</trkpt>
				<trkpt lat="58.13825" lon="7.96736">
					<ele>20</ele>
					<time>0001-01-01T00:00:00Z</time>
				</trkpt>
				<trkpt lat="58.13792" lon="7.96719">
					<ele>19</ele>
					<time>0001-01-01T00:00:00Z</time>
				</trkpt>
				<trkpt lat="58.13773" lon="7.96708">
					<ele>17</ele>
					<time>0001-01-01T00:00:00Z</time>
				</trkpt>
				<trkpt lat="58.13754" lon="7.96630">
					<ele>16</ele>
					<time>0001-01-01T00:00:00Z</time>
				</trkpt>
				<trkpt lat="58.13706" lon="7.96550">
					<ele>14</ele>
					<time>0001-01-01T00:00:00Z</time>
				</trkpt>
				<trkpt lat="58.13631" lon="7.96426">
					<ele>15</ele>
					<time>0001-01-01T00:00:00Z</time>
				</trkpt>
				<trkpt lat="58.13614" lon="7.96391">
					<ele>15</ele>
					<time>0001-01-01T00:00:00Z</time>
				</trkpt>
				<trkpt lat="58.13635" lon="7.96341">
					<ele>17</ele>
					<time>0001-01-01T00:00:00Z</time>
				</trkpt>
				<trkpt lat="58.13637" lon="7.96336">
					<ele>17</ele>
					<time>0001-01-01T00:00:00Z</time>
				</trkpt>
				<trkpt lat="58.13633" lon="7.96263">
					<ele>16</ele>
					<time>0001-01-01T00:00:00Z</time>
				</trkpt>
				<trkpt lat="58.13649" lon="7.96227">
					<ele>16</ele>
					<time>0001-01-01T00:00:00Z</time>
				</trkpt>
				<trkpt lat="58.13716" lon="7.96170">
					<ele>18</ele>
					<time>0001-01-01T00:00:00Z</time>
				</trkpt>
				<trkpt lat="58.13700" lon="7.96111">
					<ele>18</ele>
					<time>0001-01-01T00:00:00Z</time>
				</trkpt>
				<trkpt lat="58.13693" lon="7.96073">
					<ele>18</ele>
					<time>0001-01-01T00:00:00Z</time>
				</trkpt>
				<trkpt lat="58.13693" lon="7.96006">
					<ele>18</ele>
					<time>0001-01-01T00:00:00Z</time>
				</trkpt>
				<trkpt lat="58.13698" lon="7.95971">
					<ele>18</ele>
					<time>0001-01-01T00:00:00Z</time>
				</trkpt>
				<trkpt lat="58.13743" lon="7.95854">
					<ele>21</ele>
					<time>0001-01-01T00:00:00Z</time>
				</trkpt>
				<trkpt lat="58.13759" lon="7.95788">
					<ele>21</ele>
					<time>0001-01-01T00:00:00Z</time>
				</trkpt>
				<trkpt lat="58.13760" lon="7.95779">
					<ele>23</ele>
					<time>0001-01-01T00:00:00Z</time>
				</trkpt>
				<trkpt lat="58.13762" lon="7.95769">
					<ele>24</ele>
					<time>0001-01-01T00:00:00Z</time>
				</trkpt>
				<trkpt lat="58.13776" lon="7.95580">
					<ele>27</ele>
					<time>0001-01-01T00:00:00Z</time>
				</trkpt>
				<trkpt lat="58.13782" lon="7.95525">
					<ele>27</ele>
					<time>0001-01-01T00:00:00Z</time>
				</trkpt>
				<trkpt lat="58.13796" lon="7.95398">
					<ele>28</ele>
					<time>0001-01-01T00:00:00Z</time>
				</trkpt>
				<trkpt lat="58.13811" lon="7.95362">
					<ele>28</ele>
					<time>0001-01-01T00:00:00Z</time>
				</trkpt>
				<trkpt lat="58.13816" lon="7.95348">
					<ele>28</ele>
					<time>0001-01-01T00:00:00Z</time>
				</trkpt>
				<trkpt lat="58.13812" lon="7.95320">
					<ele>28</ele>
					<time>0001-01-01T00:00:00Z</time>
				</trkpt>
				<trkpt lat="58.13808" lon="7.95305">
					<ele>28</ele>
					<time>0001-01-01T00:00:00Z</time>
				</trkpt>
				<trkpt lat="58.13806" lon="7.95269">
					<ele>28</ele>
					<time>0001-01-01T00:00:00Z</time>
				</trkpt>
				<trkpt lat="58.13810" lon="7.95093">
					<ele>31</ele>
					<time>0001-01-01T00:00:00Z</time>
				</trkpt>
				<trkpt lat="58.13802" lon="7.94936">
					<ele>30</ele>
					<time>0001-01-01T00:00:00Z</time>
				</trkpt>
				<trkpt lat="58.13832" lon="7.94716">
					<ele>37</ele>
					<time>0001-01-01T00:00:00Z</time>
				</trkpt>
				<trkpt lat="58.13892" lon="7.94552">
					<ele>40</ele>
					<time>0001-01-01T00:00:00Z</time>
				</trkpt>
				<trkpt lat="58.13970" lon="7.94389">
					<ele>45</ele>
					<time>0001-01-01T00:00:00Z</time>
				</trkpt>
				<trkpt lat="58.14002" lon="7.94323">
					<ele>47</ele>
					<time>0001-01-01T00:00:00Z</time>
				</trkpt>
				<trkpt lat="58.14058" lon="7.94218">
					<ele>51</ele>
					<time>0001-01-01T00:00:00Z</time>
				</trkpt>
				<trkpt lat="58.14095" lon="7.94089">
					<ele>55</ele>
					<time>0001-01-01T00:00:00Z</time>
				</trkpt>
				<trkpt lat="58.14116" lon="7.93954">
					<ele>56</ele>
					<time>0001-01-01T00:00:00Z</time>
				</trkpt>
				<trkpt lat="58.14139" lon="7.93928">
					<ele>55</ele>
					<time>0001-01-01T00:00:00Z</time>
				</trkpt>
				<trkpt lat="58.14137" lon="7.93886">
					<ele>55</ele>
					<time>0001-01-01T00:00:00Z</time>
				</trkpt>
				<trkpt lat="58.14233" lon="7.93897">
					<ele>59</ele>
					<time>0001-01-01T00:00:00Z</time>
				</trkpt>
				<trkpt lat="58.14222" lon="7.93809">
					<ele>61</ele>
					<time>0001-01-01T00:00:00Z</time>
				</trkpt>
				<trkpt lat="58.14267" lon="7.93715">
					<ele>58</ele>
					<time>0001-01-01T00:00:00Z</time>
				</trkpt>
				<trkpt lat="58.14270" lon="7.93719">
					<ele>58</ele>
					<time>0001-01-01T00:00:00Z</time>
				</trkpt>
				<trkpt lat="58.14303" lon="7.93560">
					<ele>63</ele>
					<time>0001-01-01T00:00:00Z</time>
				</trkpt>
				<trkpt lat="58.14310" lon="7.93496">
					<ele>64</ele>
					<time>0001-01-01T00:00:00Z</time>
				</trkpt>
				<trkpt lat="58.14330" lon="7.93432">
					<ele>68</ele>
					<time>0001-01-01T00:00:00Z</time>
				</trkpt>
				<trkpt lat="58.14364" lon="7.93320">
					<ele>73</ele>
					<time>0001-01-01T00:00:00Z</time>
				</trkpt>
				<trkpt lat="58.14389" lon="7.93202">
					<ele>77</ele>
					<time>0001-01-01T00:00:00Z</time>
				</trkpt>
				<trkpt lat="58.14406" lon="7.93045">
					<ele>82</ele>
					<time>0001-01-01T00:00:00Z</time>
				</trkpt>
				<trkpt lat="58.14420" lon="7.92849">
					<ele>83</ele>
					<time>0001-01-01T00:00:00Z</time>
				</trkpt>
				<trkpt lat="58.14427" lon="7.92579">
					<ele>83</ele>
					<time>0001-01-01T00:00:00Z</time>
				</trkpt>
				<trkpt lat="58.14459" lon="7.92308">
					<ele>83</ele>
					<time>0001-01-01T00:00:00Z</time>
				</trkpt>
				<trkpt lat="58.14480" lon="7.92177">
					<ele>85</ele>
					<time>0001-01-01T00:00:00Z</time>
				</trkpt>
				<trkpt lat="58.14476" lon="7.92101">
					<ele>86</ele>
					<time>0001-01-01T00:00:00Z</time>
				</trkpt>
				<trkpt lat="58.14481" lon="7.92092">
					<ele>87</ele>
					<time>0001-01-01T00:00:00Z</time>
				</trkpt>
				<trkpt lat="58.14570" lon="7.91883">
					<ele>95</ele>
					<time>0001-01-01T00:00:00Z</time>
				</trkpt>
				<trkpt lat="58.14570" lon="7.91865">
					<ele>94</ele>
					<time>0001-01-01T00:00:00Z</time>
				</trkpt>
				<trkpt lat="58.14558" lon="7.91788">
					<ele>95</ele>
					<time>0001-01-01T00:00:00Z</time>
				</trkpt>
				<trkpt lat="58.14532" lon="7.91714">
					<ele>94</ele>
					<time>0001-01-01T00:00:00Z</time>
				</trkpt>
				<trkpt lat="58.14527" lon="7.91669">
					<ele>95</ele>
					<time>0001-01-01T00:00:00Z</time>
				</trkpt>
				<trkpt lat="58.14525" lon="7.91607">
					<ele>95</ele>
					<time>0001-01-01T00:00:00Z</time>
				</trkpt>
				<trkpt lat="58.14520" lon="7.91383">
					<ele>91</ele>
					<time>0001-01-01T00:00:00Z</time>
				</trkpt>
				<trkpt lat="58.14510" lon="7.91341">
					<ele>91</ele>
					<time>0001-01-01T00:00:00Z</time>
				</trkpt>
				<trkpt lat="58.14487" lon="7.91208">
					<ele>90</ele>
					<time>0001-01-01T00:00:00Z</time>
				</trkpt>
				<trkpt lat="58.14485" lon="7.91174">
					<ele>89</ele>
					<time>0001-01-01T00:00:00Z</time>
				</trkpt>
				<trkpt lat="58.14472" lon="7.91125">
					<ele>88</ele>
					<time>0001-01-01T00:00:00Z</time>
				</trkpt>
				<trkpt lat="58.14399" lon="7.90782">
					<ele>85</ele>
					<time>0001-01-01T00:00:00Z</time>
				</trkpt>
				<trkpt lat="58.14318" lon="7.90573">
					<ele>88</ele>
					<time>0001-01-01T00:00:00Z</time>
				</trkpt>
				<trkpt lat="58.14286" lon="7.90401">
					<ele>91</ele>
					<time>0001-01-01T00:00:00Z</time>
				</trkpt>
				<trkpt lat="58.14279" lon="7.90157">
					<ele>98</ele>
					<time>0001-01-01T00:00:00Z</time>
				</trkpt>
				<trkpt lat="58.14306" lon="7.89880">
					<ele>98</ele>
					<time>0001-01-01T00:00:00Z</time>
				</trkpt>
				<trkpt lat="58.14363" lon="7.89668">
					<ele>96</ele>
					<time>0001-01-01T00:00:00Z</time>
				</trkpt>
				<trkpt lat="58.14382" lon="7.89618">
					<ele>96</ele>
					<time>0001-01-01T00:00:00Z</time>
				</trkpt>
				<trkpt lat="58.14410" lon="7.89587">
					<ele>96</ele>
					<time>0001-01-01T00:00:00Z</time>
				</trkpt>
				<trkpt lat="58.14441" lon="7.89571">
					<ele>95</ele>
					<time>0001-01-01T00:00:00Z</time>
				</trkpt>
				<trkpt lat="58.14482" lon="7.89456">
					<ele>94</ele>
					<time>0001-01-01T00:00:00Z</time>
				</trkpt>
				<trkpt lat="58.14472" lon="7.89336">
					<ele>93</ele>
					<time>0001-01-01T00:00:00Z</time>
				</trkpt>
				<trkpt lat="58.14485" lon="7.89171">
					<ele>85</ele>
					<time>0001-01-01T00:00:00Z</time>
				</trkpt>
				<trkpt lat="58.14482" lon="7.88804">
					<ele>76</ele>
					<time>0001-01-01T00:00:00Z</time>
				</trkpt>
				<trkpt lat="58.14480" lon="7.88738">
					<ele>75</ele>
					<time>0001-01-01T00:00:00Z</time>
				</trkpt>
				<trkpt lat="58.14470" lon="7.88457">
					<ele>67</ele>
					<time>0001-01-01T00:00:00Z</time>
				</trkpt>
				<trkpt lat="58.14460" lon="7.88093">
					<ele>63</ele>
					<time>0001-01-01T00:00:00Z</time>
				</trkpt>
				<trkpt lat="58.14463" lon="7.87992">
					<ele>63</ele>
					<time>0001-01-01T00:00:00Z</time>
				</trkpt>
				<trkpt lat="58.14511" lon="7.87627">
					<ele>58</ele>
					<time>0001-01-01T00:00:00Z</time>
				</trkpt>
				<trkpt lat="58.14546" lon="7.87341">
					<ele>49</ele>
					<time>0001-01-01T00:00:00Z</time>
				</trkpt>
				<trkpt lat="58.14539" lon="7.87104">
					<ele>42</ele>
					<time>0001-01-01T00:00:00Z</time>
				</trkpt>
				<trkpt lat="58.14535" lon="7.87071">
					<ele>41</ele>
					<time>0001-01-01T00:00:00Z</time>
				</trkpt>
				<trkpt lat="58.14530" lon="7.87027">
					<ele>40</ele>
					<time>0001-01-01T00:00:00Z</time>
				</trkpt>
				<trkpt lat="58.14524" lon="7.87002">
					<ele>38</ele>
					<time>0001-01-01T00:00:00Z</time>
				</trkpt>
				<trkpt lat="58.14506" lon="7.86808">
					<ele>31</ele>
					<time>0001-01-01T00:00:00Z</time>
				</trkpt>
				<trkpt lat="58.14494" lon="7.86673">
					<ele>30</ele>
					<time>0001-01-01T00:00:00Z</time>
				</trkpt>
				<trkpt lat="58.14439" lon="7.86509">
					<ele>28</ele>
					<time>0001-01-01T00:00:00Z</time>
				</trkpt>
				<trkpt lat="58.14335" lon="7.86336">
					<ele>24</ele>
					<time>0001-01-01T00:00:00Z</time>
				</trkpt>
				<trkpt lat="58.14175" lon="7.86144">
					<ele>22</ele>
					<time>0001-01-01T00:00:00Z</time>
				</trkpt>
				<trkpt lat="58.14006" lon="7.85938">
					<ele>21</ele>
					<time>0001-01-01T00:00:00Z</time>
				</trkpt>
				<trkpt lat="58.13971" lon="7.85897">
					<ele>20</ele>
					<time>0001-01-01T00:00:00Z</time>
				</trkpt>
				<trkpt lat="58.13929" lon="7.85694">
					<ele>18</ele>
					<time>0001-01-01T00:00:00Z</time>
				</trkpt>
				<trkpt lat="58.13917" lon="7.85638">
					<ele>18</ele>
					<time>0001-01-01T00:00:00Z</time>
				</trkpt>
				<trkpt lat="58.13940" lon="7.85558">
					<ele>18</ele>
					<time>0001-01-01T00:00:00Z</time>
				</trkpt>
				<trkpt lat="58.14017" lon="7.85315">
					<ele>16</ele>
					<time>0001-01-01T00:00:00Z</time>
				</trkpt>
				<trkpt lat="58.14059" lon="7.85263">
					<ele>15</ele>
					<time>0001-01-01T00:00:00Z</time>
				</trkpt>
				<trkpt lat="58.14097" lon="7.85236">
					<ele>14</ele>
					<time>0001-01-01T00:00:00Z</time>
				</trkpt>
				<trkpt lat="58.14149" lon="7.85193">
					<ele>12</ele>
					<time>0001-01-01T00:00:00Z</time>
				</trkpt>
				<trkpt lat="58.14175" lon="7.85151">
					<ele>11</ele>
					<time>0001-01-01T00:00:00Z</time>
				</trkpt>
				<trkpt lat="58.14287" lon="7.85094">
					<ele>7</ele>
					<time>0001-01-01T00:00:00Z</time>
				</trkpt>
				<trkpt lat="58.14335" lon="7.85057">
					<ele>7</ele>
					<time>0001-01-01T00:00:00Z</time>
				</trkpt>
				<trkpt lat="58.14362" lon="7.84996">
					<ele>7</ele>
					<time>0001-01-01T00:00:00Z</time>
				</trkpt>
				<trkpt lat="58.14439" lon="7.84755">
					<ele>10</ele>
					<time>0001-01-01T00:00:00Z</time>
				</trkpt>
				<trkpt lat="58.14536" lon="7.84623">
					<ele>9</ele>
					<time>0001-01-01T00:00:00Z</time>
				</trkpt>
				<trkpt lat="58.14651" lon="7.84515">
					<ele>13</ele>
					<time>0001-01-01T00:00:00Z</time>
				</trkpt>
				<trkpt lat="58.14697" lon="7.84496">
					<ele>15</ele>
					<time>0001-01-01T00:00:00Z</time>
				</trkpt>
				<trkpt lat="58.14835" lon="7.84439">
					<ele>13</ele>
					<time>0001-01-01T00:00:00Z</time>
				</trkpt>
				<trkpt lat="58.14990" lon="7.84319">
					<ele>12</ele>
					<time>0001-01-01T00:00:00Z</time>
				</trkpt>
				<trkpt lat="58.15062" lon="7.84192">
					<ele>12</ele>
					<time>0001-01-01T00:00:00Z</time>
				</trkpt>
				<trkpt lat="58.15161" lon="7.83909">
					<ele>13</ele>
					<time>0001-01-01T00:00:00Z</time>
				</trkpt>
				<trkpt lat="58.15233" lon="7.83786">
					<ele>14</ele>
					<time>0001-01-01T00:00:00Z</time>
				</trkpt>
				<trkpt lat="58.15248" lon="7.83772">
					<ele>15</ele>
					<time>0001-01-01T00:00:00Z</time>
				</trkpt>
				<trkpt lat="58.15356" lon="7.83697">
					<ele>17</ele>
					<time>0001-01-01T00:00:00Z</time>
				</trkpt>
				<trkpt lat="58.15483" lon="7.83605">
					<ele>18</ele>
					<time>0001-01-01T00:00:00Z</time>
				</trkpt>
				<trkpt lat="58.15498" lon="7.83600">
					<ele>18</ele>
					<time>0001-01-01T00:00:00Z</time>
				</trkpt>
				<trkpt lat="58.15534" lon="7.83582">
					<ele>17</ele>
					<time>0001-01-01T00:00:00Z</time>
				</trkpt>
				<trkpt lat="58.15652" lon="7.83492">
					<ele>18</ele>
					<time>0001-01-01T00:00:00Z</time>
				</trkpt>
				<trkpt lat="58.15790" lon="7.83391">
					<ele>16</ele>
					<time>0001-01-01T00:00:00Z</time>
				</trkpt>
				<trkpt lat="58.15820" lon="7.83357">
					<ele>15</ele>
					<time>0001-01-01T00:00:00Z</time>
				</trkpt>
				<trkpt lat="58.15857" lon="7.83351">
					<ele>13</ele>
					<time>0001-01-01T00:00:00Z</time>
				</trkpt>
				<trkpt lat="58.15904" lon="7.83333">
					<ele>15</ele>
					<time>0001-01-01T00:00:00Z</time>
				</trkpt>
				<trkpt lat="58.16027" lon="7.83219">
					<ele>18</ele>
					<time>0001-01-01T00:00:00Z</time>
				</trkpt>
				<trkpt lat="58.16164" lon="7.83099">
					<ele>16</ele>
					<time>0001-01-01T00:00:00Z</time>
				</trkpt>
				<trkpt lat="58.16284" lon="7.83064">
					<ele>15</ele>
					<time>0001-01-01T00:00:00Z</time>
				</trkpt>
				<trkpt lat="58.16461" lon="7.83084">
					<ele>14</ele>
					<time>0001-01-01T00:00:00Z</time>
				</trkpt>
				<trkpt lat="58.16615" lon="7.83103">
					<ele>11</ele>
					<time>0001-01-01T00:00:00Z</time>
				</trkpt>
				<trkpt lat="58.16738" lon="7.83148">
					<ele>10</ele>
					<time>0001-01-01T00:00:00Z</time>
				</trkpt>
				<trkpt lat="58.16878" lon="7.83329">
					<ele>11</ele>
					<time>0001-01-01T00:00:00Z</time>
				</trkpt>
				<trkpt lat="58.16896" lon="7.83351">
					<ele>11</ele>
					<time>0001-01-01T00:00:00Z</time>
				</trkpt>
				<trkpt lat="58.16894" lon="7.83349">
					<ele>11</ele>
					<time>0001-01-01T00:00:00Z</time>
				</trkpt>
				<trkpt lat="58.17013" lon="7.83380">
					<ele>9</ele>
					<time>0001-01-01T00:00:00Z</time>
				</trkpt>
				<trkpt lat="58.17037" lon="7.83317">
					<ele>9</ele>
					<time>0001-01-01T00:00:00Z</time>
				</trkpt>
				<trkpt lat="58.17127" lon="7.82963">
					<ele>10</ele>
					<time>0001-01-01T00:00:00Z</time>
				</trkpt>
				<trkpt lat="58.17186" lon="7.82835">
					<ele>13</ele>
					<time>0001-01-01T00:00:00Z</time>
				</trkpt>
				<trkpt lat="58.17278" lon="7.82761">
					<ele>15</ele>
					<time>0001-01-01T00:00:00Z</time>
				</trkpt>
				<trkpt lat="58.17338" lon="7.82613">
					<ele>14</ele>
					<time>0001-01-01T00:00:00Z</time>
				</trkpt>
				<trkpt lat="58.17388" lon="7.82402">
					<ele>14</ele>
					<time>0001-01-01T00:00:00Z</time>
				</trkpt>
				<trkpt lat="58.17464" lon="7.82075">
					<ele>13</ele>
					<time>0001-01-01T00:00:00Z</time>
				</trkpt>
				<trkpt lat="58.17545" lon="7.81889">
					<ele>14</ele>
					<time>0001-01-01T00:00:00Z</time>
				</trkpt>
				<trkpt lat="58.17614" lon="7.81686">
					<ele>13</ele>
					<time>0001-01-01T00:00:00Z</time>
				</trkpt>
				<trkpt lat="58.17651" lon="7.81587">
					<ele>13</ele>
					<time>0001-01-01T00:00:00Z</time>
				</trkpt>
				<trkpt lat="58.17666" lon="7.81571">
					<ele>13</ele>
					<time>0001-01-01T00:00:00Z</time>
				</trkpt>
				<trkpt lat="58.17763" lon="7.81535">
					<ele>12</ele>
					<time>0001-01-01T00:00:00Z</time>
				</trkpt>
				<trkpt lat="58.17917" lon="7.81578">
					<ele>11</ele>
					<time>0001-01-01T00:00:00Z</time>
				</trkpt>
				<trkpt lat="58.17960" lon="7.81549">
					<ele>10</ele>
					<time>0001-01-01T00:00:00Z</time>
				</trkpt>
				<trkpt lat="58.18015" lon="7.81448">
					<ele>8</ele>
					<time>0001-01-01T00:00:00Z</time>
				</trkpt>
				<trkpt lat="58.18034" lon="7.81353">
					<ele>7</ele>
					<time>0001-01-01T00:00:00Z</time>
				</trkpt>
				<trkpt lat="58.18047" lon="7.81300">
					<ele>7</ele>
					<time>0001-01-01T00:00:00Z</time>
				</trkpt>
				<trkpt lat="58.18099" lon="7.81214">
					<ele>7</ele>
					<time>0001-01-01T00:00:00Z</time>
				</trkpt>
				<trkpt lat="58.18172" lon="7.81007">
					<ele>4</ele>
					<time>0001-01-01T00:00:00Z</time>
				</trkpt>
				<trkpt lat="58.18392" lon="7.80622">
					<ele>8</ele>
					<time>0001-01-01T00:00:00Z</time>
				</trkpt>
				<trkpt lat="58.18543" lon="7.80528">
					<ele>10</ele>
					<time>0001-01-01T00:00:00Z</time>
				</trkpt>
				<trkpt lat="58.18716" lon="7.80452">
					<ele>9</ele>
					<time>0001-01-01T00:00:00Z</time>
				</trkpt>
				<trkpt lat="58.18874" lon="7.80381">
					<ele>11</ele>
					<time>0001-01-01T00:00:00Z</time>
				</trkpt>
				<trkpt lat="58.18997" lon="7.80275">
					<ele>11</ele>
					<time>0001-01-01T00:00:00Z</time>
				</trkpt>
				<trkpt lat="58.19054" lon="7.80124">
					<ele>10</ele>
					<time>0001-01-01T00:00:00Z</time>
				</trkpt>
				<trkpt lat="58.19067" lon="7.80036">
					<ele>9</ele>
					<time>0001-01-01T00:00:00Z</time>
				</trkpt>
				<trkpt lat="58.19078" lon="7.79989">
					<ele>9</ele>
					<time>0001-01-01T00:00:00Z</time>
				</trkpt>
				<trkpt lat="58.19171" lon="7.79818">
					<ele>11</ele>
					<time>0001-01-01T00:00:00Z</time>
				</trkpt>
				<trkpt lat="58.19263" lon="7.79766">
					<ele>11</ele>
					<time>0001-01-01T00:00:00Z</time>
				</trkpt>
				<trkpt lat="58.19312" lon="7.79785">
					<ele>12</ele>
					<time>0001-01-01T00:00:00Z</time>
				</trkpt>
				<trkpt lat="58.19311" lon="7.79785">
					<ele>12</ele>
					<time>0001-01-01T00:00:00Z</time>
				</trkpt>
				<trkpt lat="58.19312" lon="7.79785">
					<ele>12</ele>
					<time>0001-01-01T00:00:00Z</time>
				</trkpt>
				<trkpt lat="58.19469" lon="7.79708">
					<ele>15</ele>
					<time>0001-01-01T00:00:00Z</time>
				</trkpt>
				<trkpt lat="58.19569" lon="7.79612">
					<ele>16</ele>
					<time>0001-01-01T00:00:00Z</time>
				</trkpt>
				<trkpt lat="58.19674" lon="7.79520">
					<ele>18</ele>
					<time>0001-01-01T00:00:00Z</time>
				</trkpt>
				<trkpt lat="58.19830" lon="7.79469">
					<ele>16</ele>
					<time>0001-01-01T00:00:00Z</time>
				</trkpt>
				<trkpt lat="58.19972" lon="7.79410">
					<ele>18</ele>
					<time>0001-01-01T00:00:00Z</time>
				</trkpt>
				<trkpt lat="58.20000" lon="7.79363">
					<ele>18</ele>
					<time>0001-01-01T00:00:00Z</time>
				</trkpt>
				<trkpt lat="58.20098" lon="7.79077">
					<ele>15</ele>
					<time>0001-01-01T00:00:00Z</time>
				</trkpt>
				<trkpt lat="58.20183" lon="7.78851">
					<ele>10</ele>
					<time>0001-01-01T00:00:00Z</time>
				</trkpt>
				<trkpt lat="58.20211" lon="7.78791">
					<ele>12</ele>
					<time>0001-01-01T00:00:00Z</time>
				</trkpt>
				<trkpt lat="58.20239" lon="7.78760">
					<ele>14</ele>
					<time>0001-01-01T00:00:00Z</time>
				</trkpt>
				<trkpt lat="58.20327" lon="7.78664">
					<ele>16</ele>
					<time>0001-01-01T00:00:00Z</time>
				</trkpt>
				<trkpt lat="58.20428" lon="7.78534">
					<ele>15</ele>
					<time>0001-01-01T00:00:00Z</time>
				</trkpt>
				<trkpt lat="58.20550" lon="7.78350">
					<ele>12</ele>
					<time>0001-01-01T00:00:00Z</time>
				</trkpt>
				<trkpt lat="58.20637" lon="7.78052">
					<ele>11</ele>
					<time>0001-01-01T00:00:00Z</time>
				</trkpt>
				<trkpt lat="58.20721" lon="7.77744">
					<ele>13</ele>
					<time>0001-01-01T00:00:00Z</time>
				</trkpt>
				<trkpt lat="58.20778" lon="7.77561">
					<ele>16</ele>
					<time>0001-01-01T00:00:00Z</time>
				</trkpt>
				<trkpt lat="58.20855" lon="7.77444">
					<ele>15</ele>
					<time>0001-01-01T00:00:00Z</time>
				</trkpt>
				<trkpt lat="58.20969" lon="7.77304">
					<ele>14</ele>
					<time>0001-01-01T00:00:00Z</time>
				</trkpt>
				<trkpt lat="58.21002" lon="7.77271">
					<ele>15</ele>
					<time>0001-01-01T00:00:00Z</time>
				</trkpt>
				<trkpt lat="58.21078" lon="7.77254">
					<ele>15</ele>
					<time>0001-01-01T00:00:00Z</time>
				</trkpt>
				<trkpt lat="58.21117" lon="7.77179">
					<ele>14</ele>
					<time>0001-01-01T00:00:00Z</time>
				</trkpt>
				<trkpt lat="58.21118" lon="7.77140">
					<ele>14</ele>
					<time>0001-01-01T00:00:00Z</time>
				</trkpt>
				<trkpt lat="58.21101" lon="7.76821">
					<ele>14</ele>
					<time>0001-01-01T00:00:00Z</time>
				</trkpt>
				<trkpt lat="58.21113" lon="7.76754">
					<ele>14</ele>
					<time>0001-01-01T00:00:00Z</time>
				</trkpt>
				<trkpt lat="58.21137" lon="7.76686">
					<ele>14</ele>
					<time>0001-01-01T00:00:00Z</time>
				</trkpt>
				<trkpt lat="58.21157" lon="7.76649">
					<ele>14</ele>
					<time>0001-01-01T00:00:00Z</time>
				</trkpt>
				<trkpt lat="58.21179" lon="7.76620">
					<ele>15</ele>
					<time>0001-01-01T00:00:00Z</time>
				</trkpt>
				<trkpt lat="58.21192" lon="7.76609">
					<ele>16</ele>
					<time>0001-01-01T00:00:00Z</time>
				</trkpt>
				<trkpt lat="58.21302" lon="7.76577">
					<ele>19</ele>
					<time>0001-01-01T00:00:00Z</time>
				</trkpt>
				<trkpt lat="58.21444" lon="7.76527">
					<ele>21</ele>
					<time>0001-01-01T00:00:00Z</time>
				</trkpt>
				<trkpt lat="58.21552" lon="7.76413">
					<ele>23</ele>
					<time>0001-01-01T00:00:00Z</time>
				</trkpt>
				<trkpt lat="58.21646" lon="7.76294">
					<ele>22</ele>
					<time>0001-01-01T00:00:00Z</time>
				</trkpt>
				<trkpt lat="58.21724" lon="7.76142">
					<ele>22</ele>
					<time>0001-01-01T00:00:00Z</time>
				</trkpt>
				<trkpt lat="58.21791" lon="7.75983">
					<ele>23</ele>
					<time>0001-01-01T00:00:00Z</time>
				</trkpt>
				<trkpt lat="58.21802" lon="7.75917">
					<ele>21</ele>
					<time>0001-01-01T00:00:00Z</time>
				</trkpt>
				<trkpt lat="58.21799" lon="7.75887">
					<ele>22</ele>
					<time>0001-01-01T00:00:00Z</time>
				</trkpt>
				<trkpt lat="58.21754" lon="7.75770">
					<ele>30</ele>
					<time>0001-01-01T00:00:00Z</time>
				</trkpt>
				<trkpt lat="58.21655" lon="7.75620">
					<ele>40</ele>
					<time>0001-01-01T00:00:00Z</time>
				</trkpt>
				<trkpt lat="58.21637" lon="7.75564">
					<ele>42</ele>
					<time>0001-01-01T00:00:00Z</time>
				</trkpt>
				<trkpt lat="58.21643" lon="7.75451">
					<ele>48</ele>
					<time>0001-01-01T00:00:00Z</time>
				</trkpt>
				<trkpt lat="58.21681" lon="7.75389">
					<ele>53</ele>
					<time>0001-01-01T00:00:00Z</time>
				</trkpt>
				<trkpt lat="58.21748" lon="7.75308">
					<ele>59</ele>
					<time>0001-01-01T00:00:00Z</time>
				</trkpt>
				<trkpt lat="58.21804" lon="7.75196">
					<ele>63</ele>
					<time>0001-01-01T00:00:00Z</time>
				</trkpt>
				<trkpt lat="58.21841" lon="7.75077">
					<ele>68</ele>
					<time>0001-01-01T00:00:00Z</time>
				</trkpt>
				<trkpt lat="58.21919" lon="7.74822">
					<ele>75</ele>
					<time>0001-01-01T00:00:00Z</time>
				</trkpt>
				<trkpt lat="58.21989" lon="7.74602">
					<ele>80</ele>
					<time>0001-01-01T00:00:00Z</time>
				</trkpt>
				<trkpt lat="58.22086" lon="7.74362">
					<ele>86</ele>
					<time>0001-01-01T00:00:00Z</time>
				</trkpt>
				<trkpt lat="58.22201" lon="7.74165">
					<ele>90</ele>
					<time>0001-01-01T00:00:00Z</time>
				</trkpt>
				<trkpt lat="58.22310" lon="7.73922">
					<ele>89</ele>
					<time>0001-01-01T00:00:00Z</time>
				</trkpt>
				<trkpt lat="58.22380" lon="7.73713">
					<ele>91</ele>
					<time>0001-01-01T00:00:00Z</time>
				</trkpt>
				<trkpt lat="58.22454" lon="7.73522">
					<ele>92</ele>
					<time>0001-01-01T00:00:00Z</time>
				</trkpt>
				<trkpt lat="58.22556" lon="7.73371">
					<ele>95</ele>
					<time>0001-01-01T00:00:00Z</time>
				</trkpt>
				<trkpt lat="58.22635" lon="7.73277">
					<ele>96</ele>
					<time>0001-01-01T00:00:00Z</time>
				</trkpt>
				<trkpt lat="58.22711" lon="7.73158">
					<ele>97</ele>
					<time>0001-01-01T00:00:00Z</time>
				</trkpt>
				<trkpt lat="58.22792" lon="7.73019">
					<ele>103</ele>
					<time>0001-01-01T00:00:00Z</time>
				</trkpt>
				<trkpt lat="58.22889" lon="7.72902">
					<ele>106</ele>
					<time>0001-01-01T00:00:00Z</time>
				</trkpt>
				<trkpt lat="58.22969" lon="7.72726">
					<ele>107</ele>
					<time>0001-01-01T00:00:00Z</time>
				</trkpt>
				<trkpt lat="58.23019" lon="7.72578">
					<ele>107</ele>
					<time>0001-01-01T00:00:00Z</time>
				</trkpt>
				<trkpt lat="58.23122" lon="7.72421">
					<ele>108</ele>
					<time>0001-01-01T00:00:00Z</time>
				</trkpt>
				<trkpt lat="58.23234" lon="7.72222">
					<ele>109</ele>
					<time>0001-01-01T00:00:00Z</time>
				</trkpt>
				<trkpt lat="58.23327" lon="7.71995">
					<ele>110</ele>
					<time>0001-01-01T00:00:00Z</time>
				</trkpt>
				<trkpt lat="58.23432" lon="7.71667">
					<ele>108</ele>
					<time>0001-01-01T00:00:00Z</time>
				</trkpt>
				<trkpt lat="58.23491" lon="7.71473">
					<ele>108</ele>
					<time>0001-01-01T00:00:00Z</time>
				</trkpt>
				<trkpt lat="58.23573" lon="7.71342">
					<ele>108</ele>
					<time>0001-01-01T00:00:00Z</time>
				</trkpt>
				<trkpt lat="58.23663" lon="7.71196">
					<ele>112</ele>
					<time>0001-01-01T00:00:00Z</time>
				</trkpt>
				<trkpt lat="58.23722" lon="7.70980">
					<ele>113</ele>
					<time>0001-01-01T00:00:00Z</time>
				</trkpt>
				<trkpt lat="58.23804" lon="7.70806">
					<ele>114</ele>
					<time>0001-01-01T00:00:00Z</time>
				</trkpt>
				<trkpt lat="58.23923" lon="7.70550">
					<ele>115</ele>
					<time>0001-01-01T00:00:00Z</time>
				</trkpt>
				<trkpt lat="58.23985" lon="7.70400">
					<ele>117</ele>
					<time>0001-01-01T00:00:00Z</time>
				</trkpt>
				<trkpt lat="58.24034" lon="7.70249">
					<ele>119</ele>
					<time>0001-01-01T00:00:00Z</time>
				</trkpt>
				<trkpt lat="58.24070" lon="7.70117">
					<ele>123</ele>
					<time>0001-01-01T00:00:00Z</time>
				</trkpt>
				<trkpt lat="58.24115" lon="7.69985">
					<ele>129</ele>
					<time>0001-01-01T00:00:00Z</time>
				</trkpt>
				<trkpt lat="58.24155" lon="7.69843">
					<ele>135</ele>
					<time>0001-01-01T00:00:00Z</time>
				</trkpt>
				<trkpt lat="58.24197" lon="7.69763">
					<ele>140</ele>
					<time>0001-01-01T00:00:00Z</time>
				</trkpt>
				<trkpt lat="58.24250" lon="7.69696">
					<ele>141</ele>
					<time>0001-01-01T00:00:00Z</time>
				</trkpt>
				<trkpt lat="58.24285" lon="7.69619">
					<ele>146</ele>
					<time>0001-01-01T00:00:00Z</time>
				</trkpt>
				<trkpt lat="58.24317" lon="7.69506">
					<ele>152</ele>
					<time>0001-01-01T00:00:00Z</time>
				</trkpt>
				<trkpt lat="58.24373" lon="7.69384">
					<ele>158</ele>
					<time>0001-01-01T00:00:00Z</time>
				</trkpt>
				<trkpt lat="58.24422" lon="7.69290">
					<ele>162</ele>
					<time>0001-01-01T00:00:00Z</time>
				</trkpt>
				<trkpt lat="58.24477" lon="7.69187">
					<ele>164</ele>
					<time>0001-01-01T00:00:00Z</time>
				</trkpt>
				<trkpt lat="58.24509" lon="7.69148">
					<ele>165</ele>
					<time>0001-01-01T00:00:00Z</time>
				</trkpt>
				<trkpt lat="58.24583" lon="7.69097">
					<ele>167</ele>
					<time>0001-01-01T00:00:00Z</time>
				</trkpt>
				<trkpt lat="58.24648" lon="7.68999">
					<ele>173</ele>
					<time>0001-01-01T00:00:00Z</time>
				</trkpt>
				<trkpt lat="58.24714" lon="7.68895">
					<ele>174</ele>
					<time>0001-01-01T00:00:00Z</time>
				</trkpt>
				<trkpt lat="58.24798" lon="7.68751">
					<ele>179</ele>
					<time>0001-01-01T00:00:00Z</time>
				</trkpt>
				<trkpt lat="58.24865" lon="7.68617">
					<ele>182</ele>
					<time>0001-01-01T00:00:00Z</time>
				</trkpt>
				<trkpt lat="58.24937" lon="7.68509">
					<ele>189</ele>
					<time>0001-01-01T00:00:00Z</time>
				</trkpt>
				<trkpt lat="58.24980" lon="7.68427">
					<ele>192</ele>
					<time>0001-01-01T00:00:00Z</time>
				</trkpt>
				<trkpt lat="58.25045" lon="7.68298">
					<ele>193</ele>
					<time>0001-01-01T00:00:00Z</time>
				</trkpt>
				<trkpt lat="58.25121" lon="7.68114">
					<ele>198</ele>
					<time>0001-01-01T00:00:00Z</time>
				</trkpt>
				<trkpt lat="58.25223" lon="7.67892">
					<ele>203</ele>
					<time>0001-01-01T00:00:00Z</time>
				</trkpt>
				<trkpt lat="58.25324" lon="7.67652">
					<ele>209</ele>
					<time>0001-01-01T00:00:00Z</time>
				</trkpt>
				<trkpt lat="58.25422" lon="7.67422">
					<ele>211</ele>
					<time>0001-01-01T00:00:00Z</time>
				</trkpt>
				<trkpt lat="58.25522" lon="7.67185">
					<ele>216</ele>
					<time>0001-01-01T00:00:00Z</time>
				</trkpt>
				<trkpt lat="58.25599" lon="7.67045">
					<ele>220</ele>
					<time>0001-01-01T00:00:00Z</time>
				</trkpt>
				<trkpt lat="58.25673" lon="7.66920">
					<ele>223</ele>
					<time>0001-01-01T00:00:00Z</time>
				</trkpt>
				<trkpt lat="58.25758" lon="7.66768">
					<ele>228</ele>
					<time>0001-01-01T00:00:00Z</time>
				</trkpt>
				<trkpt lat="58.25858" lon="7.66565">
					<ele>228</ele>
					<time>0001-01-01T00:00:00Z</time>
				</trkpt>
				<trkpt lat="58.25923" lon="7.66380">
					<ele>229</ele>
					<time>0001-01-01T00:00:00Z</time>
				</trkpt>
				<trkpt lat="58.26006" lon="7.66149">
					<ele>233</ele>
					<time>0001-01-01T00:00:00Z</time>
				</trkpt>
				<trkpt lat="58.26114" lon="7.65984">
					<ele>238</ele>
					<time>0001-01-01T00:00:00Z</time>
				</trkpt>
				<trkpt lat="58.26192" lon="7.65805">
					<ele>238</ele>
					<time>0001-01-01T00:00:00Z</time>
				</trkpt>
				<trkpt lat="58.26339" lon="7.65719">
					<ele>236</ele>
					<time>0001-01-01T00:00:00Z</time>
				</trkpt>
				<trkpt lat="58.26455" lon="7.65775">
					<ele>231</ele>
					<time>0001-01-01T00:00:00Z</time>
				</trkpt>
				<trkpt lat="58.26554" lon="7.65844">
					<ele>227</ele>
					<time>0001-01-01T00:00:00Z</time>
				</trkpt>
				<trkpt lat="58.26585" lon="7.65869">
					<ele>224</ele>
					<time>0001-01-01T00:00:00Z</time>
				</trkpt>
				<trkpt lat="58.26799" lon="7.65934">
					<ele>216</ele>
					<time>0001-01-01T00:00:00Z</time>
				</trkpt>
				<trkpt lat="58.26917" lon="7.65973">
					<ele>205</ele>
					<time>0001-01-01T00:00:00Z</time>
				</trkpt>
				<trkpt lat="58.26989" lon="7.65949">
					<ele>200</ele>
					<time>0001-01-01T00:00:00Z</time>
				</trkpt>
				<trkpt lat="58.27008" lon="7.65887">
					<ele>198</ele>
					<time>0001-01-01T00:00:00Z</time>
				</trkpt>
				<trkpt lat="58.27061" lon="7.65578">
					<ele>194</ele>
					<time>0001-01-01T00:00:00Z</time>
				</trkpt>
				<trkpt lat="58.27115" lon="7.65295">
					<ele>191</ele>
					<time>0001-01-01T00:00:00Z</time>
				</trkpt>
				<trkpt lat="58.27157" lon="7.65102">
					<ele>189</ele>
					<time>0001-01-01T00:00:00Z</time>
				</trkpt>
				<trkpt lat="58.27191" lon="7.64946">
					<ele>189</ele>
					<time>0001-01-01T00:00:00Z</time>
				</trkpt>
				<trkpt lat="58.27219" lon="7.64774">
					<ele>188</ele>
					<time>0001-01-01T00:00:00Z</time>
				</trkpt>
				<trkpt lat="58.27231" lon="7.64547">
					<ele>188</ele>
					<time>0001-01-01T00:00:00Z</time>
				</trkpt>
				<trkpt lat="58.27277" lon="7.64292">
					<ele>187</ele>
					<time>0001-01-01T00:00:00Z</time>
				</trkpt>
				<trkpt lat="58.27335" lon="7.64099">
					<ele>182</ele>
					<time>0001-01-01T00:00:00Z</time>
				</trkpt>
				<trkpt lat="58.27434" lon="7.63825">
					<ele>180</ele>
					<time>0001-01-01T00:00:00Z</time>
				</trkpt>
				<trkpt lat="58.27489" lon="7.63560">
					<ele>179</ele>
					<time>0001-01-01T00:00:00Z</time>
				</trkpt>
				<trkpt lat="58.27568" lon="7.63195">
					<ele>180</ele>
					<time>0001-01-01T00:00:00Z</time>
				</trkpt>
				<trkpt lat="58.27626" lon="7.62926">
					<ele>181</ele>
					<time>0001-01-01T00:00:00Z</time>
				</trkpt>
				<trkpt lat="58.27657" lon="7.62766">
					<ele>181</ele>
					<time>0001-01-01T00:00:00Z</time>
				</trkpt>
				<trkpt lat="58.27670" lon="7.62579">
					<ele>183</ele>
					<time>0001-01-01T00:00:00Z</time>
				</trkpt>
				<trkpt lat="58.27675" lon="7.62441">
					<ele>185</ele>
					<time>0001-01-01T00:00:00Z</time>
				</trkpt>
				<trkpt lat="58.27684" lon="7.62404">
					<ele>185</ele>
					<time>0001-01-01T00:00:00Z</time>
				</trkpt>
				<trkpt lat="58.27689" lon="7.62390">
					<ele>185</ele>
					<time>0001-01-01T00:00:00Z</time>
				</trkpt>
				<trkpt lat="58.27765" lon="7.62233">
					<ele>187</ele>
					<time>0001-01-01T00:00:00Z</time>
				</trkpt>
				<trkpt lat="58.27811" lon="7.62067">
					<ele>189</ele>
					<time>0001-01-01T00:00:00Z</time>
				</trkpt>
				<trkpt lat="58.27835" lon="7.61990">
					<ele>189</ele>
					<time>0001-01-01T00:00:00Z</time>
				</trkpt>
				<trkpt lat="58.27900" lon="7.61875">
					<ele>198</ele>
					<time>0001-01-01T00:00:00Z</time>
				</trkpt>
				<trkpt lat="58.27955" lon="7.61747">
					<ele>203</ele>
					<time>0001-01-01T00:00:00Z</time>
				</trkpt>
				<trkpt lat="58.28007" lon="7.61626">
					<ele>206</ele>
					<time>0001-01-01T00:00:00Z</time>
				</trkpt>
				<trkpt lat="58.28099" lon="7.61471">
					<ele>208</ele>
					<time>0001-01-01T00:00:00Z</time>
				</trkpt>
				<trkpt lat="58.28206" lon="7.61268">
					<ele>213</ele>
					<time>0001-01-01T00:00:00Z</time>
				</trkpt>
				<trkpt lat="58.28226" lon="7.61195">
					<ele>215</ele>
					<time>0001-01-01T00:00:00Z</time>
				</trkpt>
				<trkpt lat="58.28233" lon="7.61081">
					<ele>220</ele>
					<time>0001-01-01T00:00:00Z</time>
				</trkpt>
				<trkpt lat="58.28233" lon="7.61074">
					<ele>221</ele>
					<time>0001-01-01T00:00:00Z</time>
				</trkpt>
				<trkpt lat="58.28234" lon="7.61046">
					<ele>221</ele>
					<time>0001-01-01T00:00:00Z</time>
				</trkpt>
				<trkpt lat="58.28219" lon="7.60830">
					<ele>221</ele>
					<time>0001-01-01T00:00:00Z</time>
				</trkpt>
				<trkpt lat="58.28178" lon="7.60757">
					<ele>219</ele>
					<time>0001-01-01T00:00:00Z</time>
				</trkpt>
				<trkpt lat="58.28105" lon="7.60638">
					<ele>217</ele>
					<time>0001-01-01T00:00:00Z</time>
				</trkpt>
				<trkpt lat="58.28064" lon="7.60561">
					<ele>217</ele>
					<time>0001-01-01T00:00:00Z</time>
				</trkpt>
				<trkpt lat="58.28011" lon="7.60418">
					<ele>213</ele>
					<time>0001-01-01T00:00:00Z</time>
				</trkpt>
				<trkpt lat="58.27945" lon="7.60301">
					<ele>208</ele>
					<time>0001-01-01T00:00:00Z</time>
				</trkpt>
				<trkpt lat="58.27899" lon="7.60220">
					<ele>207</ele>
					<time>0001-01-01T00:00:00Z</time>
				</trkpt>
				<trkpt lat="58.27832" lon="7.60077">
					<ele>207</ele>
					<time>0001-01-01T00:00:00Z</time>
				</trkpt>
				<trkpt lat="58.27767" lon="7.59912">
					<ele>206</ele>
					<time>0001-01-01T00:00:00Z</time>
				</trkpt>
				<trkpt lat="58.27696" lon="7.59760">
					<ele>202</ele>
					<time>0001-01-01T00:00:00Z</time>
				</trkpt>
				<trkpt lat="58.27631" lon="7.59535">
					<ele>199</ele>
					<time>0001-01-01T00:00:00Z</time>
				</trkpt>
				<trkpt lat="58.27577" lon="7.59286">
					<ele>199</ele>
					<time>0001-01-01T00:00:00Z</time>
				</trkpt>
				<trkpt lat="58.27533" lon="7.59071">
					<ele>199</ele>
					<time>0001-01-01T00:00:00Z</time>
				</trkpt>
				<trkpt lat="58.27484" lon="7.58864">
					<ele>200</ele>
					<time>0001-01-01T00:00:00Z</time>
				</trkpt>
				<trkpt lat="58.27408" lon="7.58590">
					<ele>198</ele>
					<time>0001-01-01T00:00:00Z</time>
				</trkpt>
				<trkpt lat="58.27332" lon="7.58322">
					<ele>196</ele>
					<time>0001-01-01T00:00:00Z</time>
				</trkpt>
				<trkpt lat="58.27282" lon="7.58068">
					<ele>196</ele>
					<time>0001-01-01T00:00:00Z</time>
				</trkpt>
				<trkpt lat="58.27229" lon="7.57611">
					<ele>199</ele>
					<time>0001-01-01T00:00:00Z</time>
				</trkpt>
				<trkpt lat="58.27193" lon="7.57264">
					<ele>200</ele>
					<time>0001-01-01T00:00:00Z</time>
				</trkpt>
				<trkpt lat="58.27192" lon="7.57249">
					<ele>200</ele>
					<time>0001-01-01T00:00:00Z</time>
				</trkpt>
				<trkpt lat="58.27200" lon="7.57184">
					<ele>201</ele>
					<time>0001-01-01T00:00:00Z</time>
				</trkpt>
				<trkpt lat="58.27246" lon="7.57046">
					<ele>201</ele>
					<time>0001-01-01T00:00:00Z</time>
				</trkpt>
				<trkpt lat="58.27253" lon="7.56981">
					<ele>201</ele>
					<time>0001-01-01T00:00:00Z</time>
				</trkpt>
				<trkpt lat="58.27249" lon="7.56944">
					<ele>201</ele>
					<time>0001-01-01T00:00:00Z</time>
				</trkpt>
				<trkpt lat="58.27216" lon="7.56765">
					<ele>211</ele>
					<time>0001-01-01T00:00:00Z</time>
				</trkpt>
				<trkpt lat="58.27225" lon="7.56559">
					<ele>223</ele>
					<time>0001-01-01T00:00:00Z</time>
				</trkpt>
				<trkpt lat="58.27239" lon="7.56339">
					<ele>231</ele>
					<time>0001-01-01T00:00:00Z</time>
				</trkpt>
				<trkpt lat="58.27259" lon="7.56125">
					<ele>236</ele>
					<time>0001-01-01T00:00:00Z</time>
				</trkpt>
				<trkpt lat="58.27275" lon="7.55974">
					<ele>241</ele>
					<time>0001-01-01T00:00:00Z</time>
				</trkpt>
				<trkpt lat="58.27277" lon="7.55814">
					<ele>241</ele>
					<time>0001-01-01T00:00:00Z</time>
				</trkpt>
				<trkpt lat="58.27255" lon="7.55710">
					<ele>238</ele>
					<time>0001-01-01T00:00:00Z</time>
				</trkpt>
				<trkpt lat="58.27249" lon="7.55622">
					<ele>236</ele>
					<time>0001-01-01T00:00:00Z</time>
				</trkpt>
				<trkpt lat="58.27226" lon="7.55541">
					<ele>233</ele>
					<time>0001-01-01T00:00:00Z</time>
				</trkpt>
				<trkpt lat="58.27147" lon="7.55117">
					<ele>222</ele>
					<time>0001-01-01T00:00:00Z</time>
				</trkpt>
				<trkpt lat="58.27151" lon="7.55017">
					<ele>219</ele>
					<time>0001-01-01T00:00:00Z</time>
				</trkpt>
				<trkpt lat="58.27180" lon="7.54932">
					<ele>216</ele>
					<time>0001-01-01T00:00:00Z</time>
				</trkpt>
				<trkpt lat="58.27274" lon="7.54753">
					<ele>210</ele>
					<time>0001-01-01T00:00:00Z</time>
				</trkpt>
				<trkpt lat="58.27248" lon="7.54640">
					<ele>205</ele>
					<time>0001-01-01T00:00:00Z</time>
				</trkpt>
				<trkpt lat="58.27219" lon="7.54581">
					<ele>201</ele>
					<time>0001-01-01T00:00:00Z</time>
				</trkpt>
				<trkpt lat="58.27166" lon="7.54439">
					<ele>197</ele>
					<time>0001-01-01T00:00:00Z</time>
				</trkpt>
				<trkpt lat="58.27119" lon="7.54365">
					<ele>194</ele>
					<time>0001-01-01T00:00:00Z</time>
				</trkpt>
				<trkpt lat="58.27090" lon="7.54343">
					<ele>192</ele>
					<time>0001-01-01T00:00:00Z</time>
				</trkpt>
				<trkpt lat="58.27054" lon="7.54259">
					<ele>183</ele>
					<time>0001-01-01T00:00:00Z</time>
				</trkpt>
				<trkpt lat="58.26980" lon="7.53831">
					<ele>169</ele>
					<time>0001-01-01T00:00:00Z</time>
				</trkpt>
				<trkpt lat="58.26825" lon="7.53645">
					<ele>162</ele>
					<time>0001-01-01T00:00:00Z</time>
				</trkpt>
				<trkpt lat="58.26645" lon="7.53242">
					<ele>147</ele>
					<time>0001-01-01T00:00:00Z</time>
				</trkpt>
				<trkpt lat="58.26541" lon="7.53019">
					<ele>136</ele>
					<time>0001-01-01T00:00:00Z</time>
				</trkpt>
				<trkpt lat="58.26500" lon="7.52937">
					<ele>134</ele>
					<time>0001-01-01T00:00:00Z</time>
				</trkpt>
				<trkpt lat="58.26388" lon="7.52587">
					<ele>123</ele>
					<time>0001-01-01T00:00:00Z</time>
				</trkpt>
				<trkpt lat="58.26307" lon="7.52366">
					<ele>120</ele>
					<time>0001-01-01T00:00:00Z</time>
				</trkpt>
				<trkpt lat="58.26258" lon="7.52213">
					<ele>118</ele>
					<time>0001-01-01T00:00:00Z</time>
				</trkpt>
				<trkpt lat="58.26149" lon="7.52050">
					<ele>115</ele>
					<time>0001-01-01T00:00:00Z</time>
				</trkpt>
				<trkpt lat="58.26119" lon="7.52036">
					<ele>115</ele>
					<time>0001-01-01T00:00:00Z</time>
				</trkpt>
				<trkpt lat="58.26051" lon="7.52075">
					<ele>115</ele>
					<time>0001-01-01T00:00:00Z</time>
				</trkpt>
				<trkpt lat="58.26015" lon="7.52107">
					<ele>115</ele>
					<time>0001-01-01T00:00:00Z</time>
				</trkpt>
				<trkpt lat="58.25934" lon="7.52090">
					<ele>115</ele>
					<time>0001-01-01T00:00:00Z</time>
				</trkpt>
				<trkpt lat="58.25909" lon="7.52061">
					<ele>115</ele>
					<time>0001-01-01T00:00:00Z</time>
				</trkpt>
				<trkpt lat="58.25875" lon="7.52040">
					<ele>115</ele>
					<time>0001-01-01T00:00:00Z</time>
				</trkpt>
				<trkpt lat="58.25831" lon="7.52025">
					<ele>115</ele>
					<time>0001-01-01T00:00:00Z</time>
				</trkpt>
				<trkpt lat="58.25659" lon="7.51964">
					<ele>100</ele>
					<time>0001-01-01T00:00:00Z</time>
				</trkpt>
				<trkpt lat="58.25518" lon="7.51934">
					<ele>82</ele>
					<time>0001-01-01T00:00:00Z</time>
				</trkpt>
				<trkpt lat="58.25477" lon="7.51932">
					<ele>82</ele>
					<time>0001-01-01T00:00:00Z</time>
				</trkpt>
				<trkpt lat="58.25454" lon="7.51922">
					<ele>79</ele>
					<time>0001-01-01T00:00:00Z</time>
				</trkpt>
				<trkpt lat="58.25455" lon="7.51808">
					<ele>73</ele>
					<time>0001-01-01T00:00:00Z</time>
				</trkpt>
				<trkpt lat="58.25446" lon="7.51781">
					<ele>70</ele>
					<time>0001-01-01T00:00:00Z</time>
				</trkpt>
				<trkpt lat="58.25337" lon="7.51779">
					<ele>60</ele>
					<time>0001-01-01T00:00:00Z</time>
				</trkpt>
				<trkpt lat="58.25152" lon="7.51731">
					<ele>56</ele>
					<time>0001-01-01T00:00:00Z</time>
				</trkpt>
				<trkpt lat="58.24916" lon="7.51647">
					<ele>56</ele>
					<time>0001-01-01T00:00:00Z</time>
				</trkpt>
				<trkpt lat="58.24839" lon="7.51618">
					<ele>56</ele>
					<time>0001-01-01T00:00:00Z</time>
				</trkpt>
				<trkpt lat="58.24791" lon="7.51583">
					<ele>56</ele>
					<time>0001-01-01T00:00:00Z</time>
				</trkpt>
				<trkpt lat="58.24753" lon="7.51544">
					<ele>56</ele>
					<time>0001-01-01T00:00:00Z</time>
				</trkpt>
				<trkpt lat="58.24706" lon="7.51515">
					<ele>56</ele>
					<time>0001-01-01T00:00:00Z</time>
				</trkpt>
				<trkpt lat="58.24662" lon="7.51474">
					<ele>56</ele>
					<time>0001-01-01T00:00:00Z</time>
				</trkpt>
				<trkpt lat="58.24630" lon="7.51410">
					<ele>55</ele>
					<time>0001-01-01T00:00:00Z</time>
				</trkpt>
				<trkpt lat="58.24610" lon="7.51346">
					<ele>52</ele>
					<time>0001-01-01T00:00:00Z</time>
				</trkpt>
				<trkpt lat="58.24571" lon="7.51281">
					<ele>48</ele>
					<time>0001-01-01T00:00:00Z</time>
				</trkpt>
				<trkpt lat="58.24534" lon="7.51242">
					<ele>47</ele>
					<time>0001-01-01T00:00:00Z</time>
				</trkpt>
				<trkpt lat="58.24475" lon="7.51219">
					<ele>43</ele>
					<time>0001-01-01T00:00:00Z</time>
				</trkpt>
				<trkpt lat="58.24454" lon="7.51152">
					<ele>41</ele>
					<time>0001-01-01T00:00:00Z</time>
				</trkpt>
				<trkpt lat="58.24456" lon="7.50754">
					<ele>42</ele>
					<time>0001-01-01T00:00:00Z</time>
				</trkpt>
				<trkpt lat="58.24452" lon="7.50421">
					<ele>44</ele>
					<time>0001-01-01T00:00:00Z</time>
				</trkpt>
				<trkpt lat="58.24470" lon="7.50167">
					<ele>40</ele>
					<time>0001-01-01T00:00:00Z</time>
				</trkpt>
				<trkpt lat="58.24501" lon="7.50026">
					<ele>39</ele>
					<time>0001-01-01T00:00:00Z</time>
				</trkpt>
				<trkpt lat="58.24567" lon="7.49953">
					<ele>37</ele>
					<time>0001-01-01T00:00:00Z</time>
				</trkpt>
				<trkpt lat="58.24590" lon="7.49955">
					<ele>36</ele>
					<time>0001-01-01T00:00:00Z</time>
				</trkpt>
				<trkpt lat="58.24704" lon="7.49960">
					<ele>36</ele>
					<time>0001-01-01T00:00:00Z</time>
				</trkpt>
				<trkpt lat="58.24800" lon="7.49867">
					<ele>34</ele>
					<time>0001-01-01T00:00:00Z</time>
				</trkpt>
				<trkpt lat="58.24954" lon="7.49706">
					<ele>33</ele>
					<time>0001-01-01T00:00:00Z</time>
				</trkpt>
				<trkpt lat="58.24985" lon="7.49681">
					<ele>33</ele>
					<time>0001-01-01T00:00:00Z</time>
				</trkpt>
				<trkpt lat="58.25069" lon="7.49670">
					<ele>32</ele>
					<time>0001-01-01T00:00:00Z</time>
				</trkpt>
				<trkpt lat="58.25160" lon="7.49757">
					<ele>34</ele>
					<time>0001-01-01T00:00:00Z</time>
				</trkpt>
				<trkpt lat="58.25229" lon="7.49825">
					<ele>35</ele>
					<time>0001-01-01T00:00:00Z</time>
				</trkpt>
				<trkpt lat="58.25299" lon="7.49769">
					<ele>35</ele>
					<time>0001-01-01T00:00:00Z</time>
				</trkpt>
				<trkpt lat="58.25349" lon="7.49666">
					<ele>40</ele>
					<time>0001-01-01T00:00:00Z</time>
				</trkpt>
				<trkpt lat="58.25429" lon="7.49508">
					<ele>45</ele>
					<time>0001-01-01T00:00:00Z</time>
				</trkpt>
				<trkpt lat="58.25527" lon="7.49271">
					<ele>50</ele>
					<time>0001-01-01T00:00:00Z</time>
				</trkpt>
				<trkpt lat="58.25611" lon="7.49041">
					<ele>48</ele>
					<time>0001-01-01T00:00:00Z</time>
				</trkpt>
				<trkpt lat="58.25635" lon="7.48962">
					<ele>48</ele>
					<time>0001-01-01T00:00:00Z</time>
				</trkpt>
				<trkpt lat="58.25710" lon="7.48821">
					<ele>45</ele>
					<time>0001-01-01T00:00:00Z</time>
				</trkpt>
				<trkpt lat="58.25731" lon="7.48754">
					<ele>47</ele>
					<time>0001-01-01T00:00:00Z</time>
				</trkpt>
				<trkpt lat="58.25729" lon="7.48709">
					<ele>47</ele>
					<time>0001-01-01T00:00:00Z</time>
				</trkpt>
				<trkpt lat="58.25710" lon="7.48574">
					<ele>50</ele>
					<time>0001-01-01T00:00:00Z</time>
				</trkpt>
				<trkpt lat="58.25732" lon="7.48492">
					<ele>52</ele>
					<time>0001-01-01T00:00:00Z</time>
				</trkpt>
				<trkpt lat="58.25776" lon="7.48410">
					<ele>52</ele>
					<time>0001-01-01T00:00:00Z</time>
				</trkpt>
				<trkpt lat="58.25805" lon="7.48339">
					<ele>53</ele>
					<time>0001-01-01T00:00:00Z</time>
				</trkpt>
				<trkpt lat="58.25823" lon="7.48287">
					<ele>55</ele>
					<time>0001-01-01T00:00:00Z</time>
				</trkpt>
				<trkpt lat="58.25857" lon="7.48216">
					<ele>56</ele>
					<time>0001-01-01T00:00:00Z</time>
				</trkpt>
				<trkpt lat="58.25907" lon="7.48135">
					<ele>65</ele>
					<time>0001-01-01T00:00:00Z</time>
				</trkpt>
				<trkpt lat="58.25940" lon="7.48025">
					<ele>75</ele>
					<time>0001-01-01T00:00:00Z</time>
				</trkpt>
				<trkpt lat="58.26007" lon="7.47704">
					<ele>95</ele>
					<time>0001-01-01T00:00:00Z</time>
				</trkpt>
				<trkpt lat="58.26023" lon="7.47605">
					<ele>99</ele>
					<time>0001-01-01T00:00:00Z</time>
				</trkpt>
				<trkpt lat="58.26068" lon="7.47522">
					<ele>99</ele>
					<time>0001-01-01T00:00:00Z</time>
				</trkpt>
				<trkpt lat="58.26096" lon="7.47423">
					<ele>98</ele>
					<time>0001-01-01T00:00:00Z</time>
				</trkpt>
				<trkpt lat="58.26123" lon="7.47330">
					<ele>99</ele>
					<time>0001-01-01T00:00:00Z</time>
				</trkpt>
				<trkpt lat="58.26154" lon="7.47227">
					<ele>102</ele>
					<time>0001-01-01T00:00:00Z</time>
				</trkpt>
				<trkpt lat="58.26188" lon="7.47135">
					<ele>108</ele>
					<time>0001-01-01T00:00:00Z</time>
				</trkpt>
				<trkpt lat="58.26235" lon="7.47028">
					<ele>113</ele>
					<time>0001-01-01T00:00:00Z</time>
				</trkpt>
				<trkpt lat="58.26271" lon="7.46901">
					<ele>121</ele>
					<time>0001-01-01T00:00:00Z</time>
				</trkpt>
				<trkpt lat="58.26292" lon="7.46749">
					<ele>133</ele>
					<time>0001-01-01T00:00:00Z</time>
				</trkpt>
				<trkpt lat="58.26322" lon="7.46626">
					<ele>141</ele>
					<time>0001-01-01T00:00:00Z</time>
				</trkpt>
				<trkpt lat="58.26372" lon="7.46504">
					<ele>146</ele>
					<time>0001-01-01T00:00:00Z</time>
				</trkpt>
				<trkpt lat="58.26414" lon="7.46415">
					<ele>148</ele>
					<time>0001-01-01T00:00:00Z</time>
				</trkpt>
				<trkpt lat="58.26432" lon="7.46299">
					<ele>155</ele>
					<time>0001-01-01T00:00:00Z</time>
				</trkpt>
				<trkpt lat="58.26468" lon="7.46193">
					<ele>158</ele>
					<time>0001-01-01T00:00:00Z</time>
				</trkpt>
				<trkpt lat="58.26533" lon="7.46085">
					<ele>165</ele>
					<time>0001-01-01T00:00:00Z</time>
				</trkpt>
				<trkpt lat="58.26587" lon="7.45970">
					<ele>169</ele>
					<time>0001-01-01T00:00:00Z</time>
				</trkpt>
				<trkpt lat="58.26628" lon="7.45821">
					<ele>174</ele>
					<time>0001-01-01T00:00:00Z</time>
				</trkpt>
				<trkpt lat="58.26664" lon="7.45612">
					<ele>178</ele>
					<time>0001-01-01T00:00:00Z</time>
				</trkpt>
				<trkpt lat="58.26706" lon="7.45450">
					<ele>182</ele>
					<time>0001-01-01T00:00:00Z</time>
				</trkpt>
				<trkpt lat="58.26743" lon="7.45378">
					<ele>183</ele>
					<time>0001-01-01T00:00:00Z</time>
				</trkpt>
				<trkpt lat="58.26755" lon="7.45330">
					<ele>184</ele>
					<time>0001-01-01T00:00:00Z</time>
				</trkpt>
				<trkpt lat="58.26774" lon="7.45170">
					<ele>186</ele>
					<time>0001-01-01T00:00:00Z</time>
				</trkpt>
				<trkpt lat="58.26767" lon="7.45062">
					<ele>186</ele>
					<time>0001-01-01T00:00:00Z</time>
				</trkpt>
				<trkpt lat="58.26771" lon="7.44933">
					<ele>191</ele>
					<time>0001-01-01T00:00:00Z</time>
				</trkpt>
				<trkpt lat="58.26804" lon="7.44850">
					<ele>194</ele>
					<time>0001-01-01T00:00:00Z</time>
				</trkpt>
				<trkpt lat="58.26824" lon="7.44802">
					<ele>195</ele>
					<time>0001-01-01T00:00:00Z</time>
				</trkpt>
				<trkpt lat="58.26881" lon="7.44601">
					<ele>198</ele>
					<time>0001-01-01T00:00:00Z</time>
				</trkpt>
				<trkpt lat="58.26920" lon="7.44336">
					<ele>201</ele>
					<time>0001-01-01T00:00:00Z</time>
				</trkpt>
				<trkpt lat="58.26968" lon="7.43963">
					<ele>204</ele>
					<time>0001-01-01T00:00:00Z</time>
				</trkpt>
				<trkpt lat="58.27015" lon="7.43642">
					<ele>209</ele>
					<time>0001-01-01T00:00:00Z</time>
				</trkpt>
				<trkpt lat="58.27047" lon="7.43510">
					<ele>212</ele>
					<time>0001-01-01T00:00:00Z</time>
				</trkpt>
				<trkpt lat="58.27072" lon="7.43352">
					<ele>213</ele>
					<time>0001-01-01T00:00:00Z</time>
				</trkpt>
				<trkpt lat="58.27080" lon="7.43281">
					<ele>214</ele>
					<time>0001-01-01T00:00:00Z</time>
				</trkpt>
				<trkpt lat="58.27108" lon="7.43121">
					<ele>219</ele>
					<time>0001-01-01T00:00:00Z</time>
				</trkpt>
				<trkpt lat="58.27151" lon="7.42910">
					<ele>224</ele>
					<time>0001-01-01T00:00:00Z</time>
				</trkpt>
				<trkpt lat="58.27186" lon="7.42686">
					<ele>230</ele>
					<time>0001-01-01T00:00:00Z</time>
				</trkpt>
				<trkpt lat="58.27215" lon="7.42464">
					<ele>236</ele>
					<time>0001-01-01T00:00:00Z</time>
				</trkpt>
				<trkpt lat="58.27240" lon="7.42226">
					<ele>238</ele>
					<time>0001-01-01T00:00:00Z</time>
				</trkpt>
				<trkpt lat="58.27274" lon="7.41993">
					<ele>236</ele>
					<time>0001-01-01T00:00:00Z</time>
				</trkpt>
				<trkpt lat="58.27323" lon="7.41737">
					<ele>234</ele>
					<time>0001-01-01T00:00:00Z</time>
				</trkpt>
				<trkpt lat="58.27370" lon="7.41423">
					<ele>235</ele>
					<time>0001-01-01T00:00:00Z</time>
				</trkpt>
				<trkpt lat="58.27408" lon="7.41229">
					<ele>236</ele>
					<time>0001-01-01T00:00:00Z</time>
				</trkpt>
				<trkpt lat="58.27479" lon="7.41071">
					<ele>236</ele>
					<time>0001-01-01T00:00:00Z</time>
				</trkpt>
				<trkpt lat="58.27509" lon="7.40983">
					<ele>237</ele>
					<time>0001-01-01T00:00:00Z</time>
				</trkpt>
				<trkpt lat="58.27587" lon="7.40858">
					<ele>234</ele>
					<time>0001-01-01T00:00:00Z</time>
				</trkpt>
				<trkpt lat="58.27628" lon="7.40675">
					<ele>234</ele>
					<time>0001-01-01T00:00:00Z</time>
				</trkpt>
				<trkpt lat="58.27647" lon="7.40411">
					<ele>234</ele>
					<time>0001-01-01T00:00:00Z</time>
				</trkpt>
				<trkpt lat="58.27658" lon="7.40297">
					<ele>234</ele>
					<time>0001-01-01T00:00:00Z</time>
				</trkpt>
				<trkpt lat="58.27703" lon="7.40157">
					<ele>232</ele>
					<time>0001-01-01T00:00:00Z</time>
				</trkpt>
				<trkpt lat="58.27729" lon="7.39936">
					<ele>233</ele>
					<time>0001-01-01T00:00:00Z</time>
				</trkpt>
				<trkpt lat="58.27715" lon="7.39716">
					<ele>229</ele>
					<time>0001-01-01T00:00:00Z</time>
				</trkpt>
				<trkpt lat="58.27744" lon="7.39512">
					<ele>227</ele>
					<time>0001-01-01T00:00:00Z</time>
				</trkpt>
				<trkpt lat="58.27793" lon="7.39410">
					<ele>228</ele>
					<time>0001-01-01T00:00:00Z</time>
				</trkpt>
				<trkpt lat="58.27803" lon="7.39281">
					<ele>227</ele>
					<time>0001-01-01T00:00:00Z</time>
				</trkpt>
				<trkpt lat="58.27773" lon="7.39138">
					<ele>227</ele>
					<time>0001-01-01T00:00:00Z</time>
				</trkpt>
				<trkpt lat="58.27793" lon="7.39012">
					<ele>227</ele>
					<time>0001-01-01T00:00:00Z</time>
				</trkpt>
				<trkpt lat="58.27819" lon="7.38941">
					<ele>228</ele>
					<time>0001-01-01T00:00:00Z</time>
				</trkpt>
				<trkpt lat="58.27829" lon="7.38834">
					<ele>228</ele>
					<time>0001-01-01T00:00:00Z</time>
				</trkpt>
				<trkpt lat="58.27823" lon="7.38600">
					<ele>227</ele>
					<time>0001-01-01T00:00:00Z</time>
				</trkpt>
				<trkpt lat="58.27869" lon="7.38452">
					<ele>227</ele>
					<time>0001-01-01T00:00:00Z</time>
				</trkpt>
				<trkpt lat="58.27969" lon="7.38224">
					<ele>227</ele>
					<time>0001-01-01T00:00:00Z</time>
				</trkpt>
				<trkpt lat="58.28018" lon="7.38006">
					<ele>226</ele>
					<time>0001-01-01T00:00:00Z</time>
				</trkpt>
				<trkpt lat="58.28083" lon="7.37779">
					<ele>224</ele>
					<time>0001-01-01T00:00:00Z</time>
				</trkpt>
				<trkpt lat="58.28162" lon="7.37497">
					<ele>221</ele>
					<time>0001-01-01T00:00:00Z</time>
				</trkpt>
				<trkpt lat="58.28195" lon="7.37422">
					<ele>220</ele>
					<time>0001-01-01T00:00:00Z</time>
				</trkpt>
				<trkpt lat="58.28188" lon="7.37234">
					<ele>217</ele>
					<time>0001-01-01T00:00:00Z</time>
				</trkpt>
				<trkpt lat="58.28179" lon="7.37186">
					<ele>217</ele>
					<time>0001-01-01T00:00:00Z</time>
				</trkpt>
				<trkpt lat="58.28161" lon="7.37116">
					<ele>215</ele>
					<time>0001-01-01T00:00:00Z</time>
				</trkpt>
				<trkpt lat="58.28152" lon="7.37066">
					<ele>214</ele>
					<time>0001-01-01T00:00:00Z</time>
				</trkpt>
				<trkpt lat="58.28159" lon="7.36857">
					<ele>207</ele>
					<time>0001-01-01T00:00:00Z</time>
				</trkpt>
				<trkpt lat="58.28162" lon="7.36833">
					<ele>207</ele>
					<time>0001-01-01T00:00:00Z</time>
				</trkpt>
				<trkpt lat="58.28141" lon="7.36779">
					<ele>205</ele>
					<time>0001-01-01T00:00:00Z</time>
				</trkpt>
				<trkpt lat="58.28115" lon="7.36728">
					<ele>205</ele>
					<time>0001-01-01T00:00:00Z</time>
				</trkpt>
				<trkpt lat="58.28117" lon="7.36680">
					<ele>202</ele>
					<time>0001-01-01T00:00:00Z</time>
				</trkpt>
				<trkpt lat="58.28133" lon="7.36698">
					<ele>202</ele>
					<time>0001-01-01T00:00:00Z</time>
				</trkpt>
				<trkpt lat="58.28183" lon="7.36802">
					<ele>201</ele>
					<time>0001-01-01T00:00:00Z</time>
				</trkpt>
				<trkpt lat="58.28262" lon="7.36927">
					<ele>194</ele>
					<time>0001-01-01T00:00:00Z</time>
				</trkpt>
				<trkpt lat="58.28296" lon="7.36924">
					<ele>192</ele>
					<time>0001-01-01T00:00:00Z</time>
				</trkpt>
				<trkpt lat="58.28294" lon="7.36891">
					<ele>190</ele>
					<time>0001-01-01T00:00:00Z</time>
				</trkpt>
				<trkpt lat="58.28176" lon="7.36536">
					<ele>190</ele>
					<time>0001-01-01T00:00:00Z</time>
				</trkpt>
				<trkpt lat="58.28115" lon="7.36327">
					<ele>189</ele>
					<time>0001-01-01T00:00:00Z</time>
				</trkpt>
				<trkpt lat="58.28098" lon="7.36260">
					<ele>188</ele>
					<time>0001-01-01T00:00:00Z</time>
				</trkpt>
				<trkpt lat="58.28080" lon="7.36218">
					<ele>187</ele>
					<time>0001-01-01T00:00:00Z</time>
				</trkpt>
				<trkpt lat="58.28078" lon="7.36172">
					<ele>179</ele>
					<time>0001-01-01T00:00:00Z</time>
				</trkpt>
				<trkpt lat="58.28104" lon="7.36192">
					<ele>121</ele>
					<time>0001-01-01T00:00:00Z</time>
				</trkpt>
				<trkpt lat="58.28196" lon="7.36395">
					<ele>100</ele>
					<time>0001-01-01T00:00:00Z</time>
				</trkpt>
				<trkpt lat="58.28245" lon="7.36491">
					<ele>100</ele>
					<time>0001-01-01T00:00:00Z</time>
				</trkpt>
				<trkpt lat="58.28343" lon="7.36576">
					<ele>100</ele>
					<time>0001-01-01T00:00:00Z</time>
				</trkpt>
				<trkpt lat="58.28429" lon="7.36574">
					<ele>100</ele>
					<time>0001-01-01T00:00:00Z</time>
				</trkpt>
				<trkpt lat="58.28466" lon="7.36529">
					<ele>99</ele>
					<time>0001-01-01T00:00:00Z</time>
				</trkpt>
				<trkpt lat="58.28491" lon="7.36441">
					<ele>97</ele>
					<time>0001-01-01T00:00:00Z</time>
				</trkpt>
				<trkpt lat="58.28508" lon="7.36402">
					<ele>96</ele>
					<time>0001-01-01T00:00:00Z</time>
				</trkpt>
				<trkpt lat="58.28559" lon="7.36195">
					<ele>86</ele>
					<time>0001-01-01T00:00:00Z</time>
				</trkpt>
				<trkpt lat="58.28559" lon="7.36008">
					<ele>81</ele>
					<time>0001-01-01T00:00:00Z</time>
				</trkpt>
				<trkpt lat="58.28539" lon="7.35787">
					<ele>78</ele>
					<time>0001-01-01T00:00:00Z</time>
				</trkpt>
				<trkpt lat="58.28538" lon="7.35626">
					<ele>77</ele>
					<time>0001-01-01T00:00:00Z</time>
				</trkpt>
				<trkpt lat="58.28538" lon="7.35545">
					<ele>76</ele>
					<time>0001-01-01T00:00:00Z</time>
				</trkpt>
				<trkpt lat="58.28553" lon="7.35314">
					<ele>75</ele>
					<time>0001-01-01T00:00:00Z</time>
				</trkpt>
				<trkpt lat="58.28567" lon="7.35024">
					<ele>75</ele>
					<time>0001-01-01T00:00:00Z</time>
				</trkpt>
				<trkpt lat="58.28568" lon="7.34945">
					<ele>75</ele>
					<time>0001-01-01T00:00:00Z</time>
				</trkpt>
				<trkpt lat="58.28546" lon="7.34894">
					<ele>76</ele>
					<time>0001-01-01T00:00:00Z</time>
				</trkpt>
				<trkpt lat="58.28494" lon="7.34851">
					<ele>84</ele>
					<time>0001-01-01T00:00:00Z</time>
				</trkpt>
				<trkpt lat="58.28430" lon="7.34840">
					<ele>90</ele>
					<time>0001-01-01T00:00:00Z</time>
				</trkpt>
				<trkpt lat="58.28318" lon="7.34733">
					<ele>98</ele>
					<time>0001-01-01T00:00:00Z</time>
				</trkpt>
				<trkpt lat="58.28272" lon="7.34707">
					<ele>101</ele>
					<time>0001-01-01T00:00:00Z</time>
				</trkpt>
				<trkpt lat="58.28227" lon="7.34725">
					<ele>106</ele>
					<time>0001-01-01T00:00:00Z</time>
				</trkpt>
				<trkpt lat="58.28157" lon="7.34787">
					<ele>113</ele>
					<time>0001-01-01T00:00:00Z</time>
				</trkpt>
				<trkpt lat="58.28100" lon="7.34817">
					<ele>119</ele>
					<time>0001-01-01T00:00:00Z</time>
				</trkpt>
				<trkpt lat="58.28075" lon="7.34780">
					<ele>124</ele>
					<time>0001-01-01T00:00:00Z</time>
				</trkpt>
				<trkpt lat="58.28089" lon="7.34722">
					<ele>124</ele>
					<time>0001-01-01T00:00:00Z</time>
				</trkpt>
				<trkpt lat="58.28098" lon="7.34625">
					<ele>128</ele>
					<time>0001-01-01T00:00:00Z</time>
				</trkpt>
				<trkpt lat="58.28078" lon="7.34527">
					<ele>133</ele>
					<time>0001-01-01T00:00:00Z</time>
				</trkpt>
				<trkpt lat="58.28056" lon="7.34440">
					<ele>137</ele>
					<time>0001-01-01T00:00:00Z</time>
				</trkpt>
				<trkpt lat="58.28019" lon="7.34384">
					<ele>140</ele>
					<time>0001-01-01T00:00:00Z</time>
				</trkpt>
				<trkpt lat="58.27958" lon="7.34367">
					<ele>145</ele>
					<time>0001-01-01T00:00:00Z</time>
				</trkpt>
				<trkpt lat="58.27891" lon="7.34349">
					<ele>150</ele>
					<time>0001-01-01T00:00:00Z</time>
				</trkpt>
				<trkpt lat="58.27824" lon="7.34362">
					<ele>154</ele>
					<time>0001-01-01T00:00:00Z</time>
				</trkpt>
				<trkpt lat="58.27770" lon="7.34389">
					<ele>158</ele>
					<time>0001-01-01T00:00:00Z</time>
				</trkpt>
				<trkpt lat="58.27700" lon="7.34393">
					<ele>161</ele>
					<time>0001-01-01T00:00:00Z</time>
				</trkpt>
				<trkpt lat="58.27657" lon="7.34390">
					<ele>164</ele>
					<time>0001-01-01T00:00:00Z</time>
				</trkpt>
				<trkpt lat="58.27663" lon="7.34359">
					<ele>165</ele>
					<time>0001-01-01T00:00:00Z</time>
				</trkpt>
				<trkpt lat="58.27667" lon="7.34360">
					<ele>165</ele>
					<time>0001-01-01T00:00:00Z</time>
				</trkpt>
				<trkpt lat="58.27686" lon="7.34370">
					<ele>165</ele>
					<time>0001-01-01T00:00:00Z</time>
				</trkpt>
				<trkpt lat="58.27690" lon="7.34370">
					<ele>165</ele>
					<time>0001-01-01T00:00:00Z</time>
				</trkpt>
				<trkpt lat="58.27746" lon="7.34326">
					<ele>171</ele>
					<time>0001-01-01T00:00:00Z</time>
				</trkpt>
				<trkpt lat="58.27803" lon="7.34238">
					<ele>177</ele>
					<time>0001-01-01T00:00:00Z</time>
				</trkpt>
				<trkpt lat="58.27875" lon="7.34153">
					<ele>183</ele>
					<time>0001-01-01T00:00:00Z</time>
				</trkpt>
				<trkpt lat="58.27935" lon="7.34103">
					<ele>185</ele>
					<time>0001-01-01T00:00:00Z</time>
				</trkpt>
				<trkpt lat="58.28005" lon="7.34062">
					<ele>192</ele>
					<time>0001-01-01T00:00:00Z</time>
				</trkpt>
				<trkpt lat="58.28046" lon="7.33971">
					<ele>197</ele>
					<time>0001-01-01T00:00:00Z</time>
				</trkpt>
				<trkpt lat="58.28067" lon="7.33855">
					<ele>202</ele>
					<time>0001-01-01T00:00:00Z</time>
				</trkpt>
				<trkpt lat="58.28052" lon="7.33731">
					<ele>205</ele>
					<time>0001-01-01T00:00:00Z</time>
				</trkpt>
				<trkpt lat="58.28064" lon="7.33582">
					<ele>210</ele>
					<time>0001-01-01T00:00:00Z</time>
				</trkpt>
				<trkpt lat="58.28059" lon="7.33448">
					<ele>214</ele>
					<time>0001-01-01T00:00:00Z</time>
				</trkpt>
				<trkpt lat="58.28045" lon="7.33330">
					<ele>215</ele>
					<time>0001-01-01T00:00:00Z</time>
				</trkpt>
				<trkpt lat="58.28039" lon="7.33197">
					<ele>219</ele>
					<time>0001-01-01T00:00:00Z</time>
				</trkpt>
				<trkpt lat="58.28006" lon="7.33024">
					<ele>221</ele>
					<time>0001-01-01T00:00:00Z</time>
				</trkpt>
				<trkpt lat="58.27993" lon="7.32966">
					<ele>223</ele>
					<time>0001-01-01T00:00:00Z</time>
				</trkpt>
				<trkpt lat="58.27974" lon="7.32799">
					<ele>223</ele>
					<time>0001-01-01T00:00:00Z</time>
				</trkpt>
				<trkpt lat="58.27960" lon="7.32701">
					<ele>226</ele>
					<time>0001-01-01T00:00:00Z</time>
				</trkpt>
				<trkpt lat="58.27946" lon="7.32635">
					<ele>227</ele>
					<time>0001-01-01T00:00:00Z</time>
				</trkpt>
				<trkpt lat="58.27909" lon="7.32523">
					<ele>232</ele>
					<time>0001-01-01T00:00:00Z</time>
				</trkpt>
				<trkpt lat="58.27908" lon="7.32443">
					<ele>237</ele>
					<time>0001-01-01T00:00:00Z</time>
				</trkpt>
				<trkpt lat="58.27893" lon="7.32305">
					<ele>243</ele>
					<time>0001-01-01T00:00:00Z</time>
				</trkpt>
				<trkpt lat="58.27875" lon="7.32139">
					<ele>245</ele>
					<time>0001-01-01T00:00:00Z</time>
				</trkpt>
				<trkpt lat="58.27870" lon="7.31758">
					<ele>244</ele>
					<time>0001-01-01T00:00:00Z</time>
				</trkpt>
				<trkpt lat="58.27869" lon="7.31728">
					<ele>245</ele>
					<time>0001-01-01T00:00:00Z</time>
				</trkpt>
				<trkpt lat="58.27864" lon="7.31677">
					<ele>246</ele>
					<time>0001-01-01T00:00:00Z</time>
				</trkpt>
				<trkpt lat="58.27860" lon="7.31613">
					<ele>248</ele>
					<time>0001-01-01T00:00:00Z</time>
				</trkpt>
				<trkpt lat="58.27854" lon="7.31538">
					<ele>255</ele>
					<time>0001-01-01T00:00:00Z</time>
				</trkpt>
				<trkpt lat="58.27833" lon="7.31447">
					<ele>269</ele>
					<time>0001-01-01T00:00:00Z</time>
				</trkpt>
				<trkpt lat="58.27822" lon="7.31410">
					<ele>271</ele>
					<time>0001-01-01T00:00:00Z</time>
				</trkpt>
				<trkpt lat="58.27805" lon="7.31261">
					<ele>270</ele>
					<time>0001-01-01T00:00:00Z</time>
				</trkpt>
				<trkpt lat="58.27787" lon="7.31071">
					<ele>273</ele>
					<time>0001-01-01T00:00:00Z</time>
				</trkpt>
				<trkpt lat="58.27773" lon="7.30897">
					<ele>274</ele>
					<time>0001-01-01T00:00:00Z</time>
				</trkpt>
				<trkpt lat="58.27746" lon="7.30783">
					<ele>276</ele>
					<time>0001-01-01T00:00:00Z</time>
				</trkpt>
				<trkpt lat="58.27732" lon="7.30727">
					<ele>277</ele>
					<time>0001-01-01T00:00:00Z</time>
				</trkpt>
				<trkpt lat="58.27721" lon="7.30687">
					<ele>276</ele>
					<time>0001-01-01T00:00:00Z</time>
				</trkpt>
				<trkpt lat="58.27707" lon="7.30656">
					<ele>277</ele>
					<time>0001-01-01T00:00:00Z</time>
				</trkpt>
				<trkpt lat="58.27703" lon="7.30645">
					<ele>274</ele>
					<time>0001-01-01T00:00:00Z</time>
				</trkpt>
				<trkpt lat="58.27691" lon="7.30623">
					<ele>277</ele>
					<time>0001-01-01T00:00:00Z</time>
				</trkpt>
				<trkpt lat="58.27704" lon="7.30641">
					<ele>276</ele>
					<time>0001-01-01T00:00:00Z</time>
				</trkpt>
				<trkpt lat="58.27690" lon="7.30613">
					<ele>276</ele>
					<time>0001-01-01T00:00:00Z</time>
				</trkpt>
				<trkpt lat="58.27679" lon="7.30585">
					<ele>276</ele>
					<time>0001-01-01T00:00:00Z</time>
				</trkpt>
				<trkpt lat="58.27663" lon="7.30526">
					<ele>278</ele>
					<time>0001-01-01T00:00:00Z</time>
				</trkpt>
				<trkpt lat="58.27631" lon="7.30388">
					<ele>277</ele>
					<time>0001-01-01T00:00:00Z</time>
				</trkpt>
				<trkpt lat="58.27594" lon="7.30181">
					<ele>278</ele>
					<time>0001-01-01T00:00:00Z</time>
				</trkpt>
				<trkpt lat="58.27607" lon="7.30078">
					<ele>277</ele>
					<time>0001-01-01T00:00:00Z</time>
				</trkpt>
				<trkpt lat="58.27608" lon="7.29980">
					<ele>276</ele>
					<time>0001-01-01T00:00:00Z</time>
				</trkpt>
				<trkpt lat="58.27630" lon="7.29871">
					<ele>274</ele>
					<time>0001-01-01T00:00:00Z</time>
				</trkpt>
				<trkpt lat="58.27645" lon="7.29835">
					<ele>275</ele>
					<time>0001-01-01T00:00:00Z</time>
				</trkpt>
				<trkpt lat="58.27662" lon="7.29766">
					<ele>275</ele>
					<time>0001-01-01T00:00:00Z</time>
				</trkpt>
				<trkpt lat="58.27705" lon="7.29562">
					<ele>268</ele>
					<time>0001-01-01T00:00:00Z</time>
				</trkpt>
				<trkpt lat="58.27741" lon="7.29518">
					<ele>263</ele>
					<time>0001-01-01T00:00:00Z</time>
				</trkpt>
				<trkpt lat="58.27766" lon="7.29516">
					<ele>259</ele>
					<time>0001-01-01T00:00:00Z</time>
				</trkpt>
				<trkpt lat="58.27823" lon="7.29466">
					<ele>257</ele>
					<time>0001-01-01T00:00:00Z</time>
				</trkpt>
				<trkpt lat="58.27918" lon="7.29268">
					<ele>255</ele>
					<time>0001-01-01T00:00:00Z</time>
				</trkpt>
				<trkpt lat="58.27964" lon="7.29170">
					<ele>257</ele>
					<time>0001-01-01T00:00:00Z</time>
				</trkpt>
				<trkpt lat="58.27974" lon="7.29084">
					<ele>257</ele>
					<time>0001-01-01T00:00:00Z</time>
				</trkpt>
				<trkpt lat="58.27950" lon="7.28852">
					<ele>258</ele>
					<time>0001-01-01T00:00:00Z</time>
				</trkpt>
				<trkpt lat="58.27945" lon="7.28789">
					<ele>258</ele>
					<time>0001-01-01T00:00:00Z</time>
				</trkpt>
				<trkpt lat="58.27918" lon="7.28709">
					<ele>256</ele>
					<time>0001-01-01T00:00:00Z</time>
				</trkpt>
				<trkpt lat="58.27840" lon="7.28607">
					<ele>255</ele>
					<time>0001-01-01T00:00:00Z</time>
				</trkpt>
				<trkpt lat="58.27808" lon="7.28484">
					<ele>249</ele>
					<time>0001-01-01T00:00:00Z</time>
				</trkpt>
				<trkpt lat="58.27771" lon="7.28275">
					<ele>247</ele>
					<time>0001-01-01T00:00:00Z</time>
				</trkpt>
				<trkpt lat="58.27740" lon="7.28118">
					<ele>252</ele>
					<time>0001-01-01T00:00:00Z</time>
				</trkpt>
				<trkpt lat="58.27739" lon="7.28086">
					<ele>251</ele>
					<time>0001-01-01T00:00:00Z</time>
				</trkpt>
				<trkpt lat="58.27771" lon="7.27879">
					<ele>249</ele>
					<time>0001-01-01T00:00:00Z</time>
				</trkpt>
				<trkpt lat="58.27740" lon="7.27798">
					<ele>247</ele>
					<time>0001-01-01T00:00:00Z</time>
				</trkpt>
				<trkpt lat="58.27721" lon="7.27789">
					<ele>247</ele>
					<time>0001-01-01T00:00:00Z</time>
				</trkpt>
				<trkpt lat="58.27577" lon="7.27739">
					<ele>247</ele>
					<time>0001-01-01T00:00:00Z</time>
				</trkpt>
				<trkpt lat="58.27470" lon="7.27669">
					<ele>250</ele>
					<time>0001-01-01T00:00:00Z</time>
				</trkpt>
				<trkpt lat="58.27423" lon="7.27627">
					<ele>253</ele>
					<time>0001-01-01T00:00:00Z</time>
				</trkpt>
				<trkpt lat="58.27330" lon="7.27621">
					<ele>252</ele>
					<time>0001-01-01T00:00:00Z</time>
				</trkpt>
				<trkpt lat="58.27239" lon="7.27581">
					<ele>257</ele>
					<time>0001-01-01T00:00:00Z</time>
				</trkpt>
				<trkpt lat="58.27209" lon="7.27553">
					<ele>263</ele>
					<time>0001-01-01T00:00:00Z</time>
				</trkpt>
				<trkpt lat="58.27168" lon="7.27503">
					<ele>263</ele>
					<time>0001-01-01T00:00:00Z</time>
				</trkpt>
				<trkpt lat="58.27134" lon="7.27402">
					<ele>262</ele>
					<time>0001-01-01T00:00:00Z</time>
				</trkpt>
				<trkpt lat="58.27097" lon="7.27250">
					<ele>262</ele>
					<time>0001-01-01T00:00:00Z</time>
				</trkpt>
				<trkpt lat="58.27065" lon="7.27198">
					<ele>265</ele>
					<time>0001-01-01T00:00:00Z</time>
				</trkpt>
				<trkpt lat="58.27010" lon="7.27156">
					<ele>273</ele>
					<time>0001-01-01T00:00:00Z</time>
				</trkpt>
				<trkpt lat="58.26974" lon="7.27107">
					<ele>276</ele>
					<time>0001-01-01T00:00:00Z</time>
				</trkpt>
				<trkpt lat="58.26942" lon="7.27013">
					<ele>278</ele>
					<time>0001-01-01T00:00:00Z</time>
				</trkpt>
				<trkpt lat="58.26900" lon="7.26852">
					<ele>276</ele>
					<time>0001-01-01T00:00:00Z</time>
				</trkpt>
				<trkpt lat="58.26856" lon="7.26630">
					<ele>270</ele>
					<time>0001-01-01T00:00:00Z</time>
				</trkpt>
				<trkpt lat="58.26799" lon="7.26369">
					<ele>265</ele>
					<time>0001-01-01T00:00:00Z</time>
				</trkpt>
				<trkpt lat="58.26786" lon="7.26242">
					<ele>270</ele>
					<time>0001-01-01T00:00:00Z</time>
				</trkpt>
				<trkpt lat="58.26785" lon="7.26228">
					<ele>271</ele>
					<time>0001-01-01T00:00:00Z</time>
				</trkpt>
				<trkpt lat="58.26771" lon="7.26143">
					<ele>274</ele>
					<time>0001-01-01T00:00:00Z</time>
				</trkpt>
				<trkpt lat="58.26765" lon="7.26033">
					<ele>280</ele>
					<time>0001-01-01T00:00:00Z</time>
				</trkpt>
				<trkpt lat="58.26748" lon="7.25963">
					<ele>285</ele>
					<time>0001-01-01T00:00:00Z</time>
				</trkpt>
				<trkpt lat="58.26706" lon="7.25842">
					<ele>287</ele>
					<time>0001-01-01T00:00:00Z</time>
				</trkpt>
				<trkpt lat="58.26662" lon="7.25690">
					<ele>289</ele>
					<time>0001-01-01T00:00:00Z</time>
				</trkpt>
				<trkpt lat="58.26625" lon="7.25513">
					<ele>297</ele>
					<time>0001-01-01T00:00:00Z</time>
				</trkpt>
				<trkpt lat="58.26600" lon="7.25369">
					<ele>304</ele>
					<time>0001-01-01T00:00:00Z</time>
				</trkpt>
				<trkpt lat="58.26580" lon="7.25225">
					<ele>306</ele>
					<time>0001-01-01T00:00:00Z</time>
				</trkpt>
				<trkpt lat="58.26589" lon="7.25002">
					<ele>308</ele>
					<time>0001-01-01T00:00:00Z</time>
				</trkpt>
				<trkpt lat="58.26586" lon="7.24815">
					<ele>303</ele>
					<time>0001-01-01T00:00:00Z</time>
				</trkpt>
				<trkpt lat="58.26580" lon="7.24727">
					<ele>301</ele>
					<time>0001-01-01T00:00:00Z</time>
				</trkpt>
				<trkpt lat="58.26594" lon="7.24603">
					<ele>295</ele>
					<time>0001-01-01T00:00:00Z</time>
				</trkpt>
				<trkpt lat="58.26615" lon="7.24507">
					<ele>293</ele>
					<time>0001-01-01T00:00:00Z</time>
				</trkpt>
				<trkpt lat="58.26632" lon="7.24246">
					<ele>283</ele>
					<time>0001-01-01T00:00:00Z</time>
				</trkpt>
				<trkpt lat="58.26675" lon="7.24068">
					<ele>277</ele>
					<time>0001-01-01T00:00:00Z</time>
				</trkpt>
				<trkpt lat="58.26693" lon="7.23938">
					<ele>276</ele>
					<time>0001-01-01T00:00:00Z</time>
				</trkpt>
				<trkpt lat="58.26664" lon="7.23835">
					<ele>275</ele>
					<time>0001-01-01T00:00:00Z</time>
				</trkpt>
				<trkpt lat="58.26634" lon="7.23809">
					<ele>275</ele>
					<time>0001-01-01T00:00:00Z</time>
				</trkpt>
				<trkpt lat="58.26604" lon="7.23721">
					<ele>274</ele>
					<time>0001-01-01T00:00:00Z</time>
				</trkpt>
				<trkpt lat="58.26586" lon="7.23490">
					<ele>276</ele>
					<time>0001-01-01T00:00:00Z</time>
				</trkpt>
				<trkpt lat="58.26585" lon="7.23431">
					<ele>276</ele>
					<time>0001-01-01T00:00:00Z</time>
				</trkpt>
				<trkpt lat="58.26594" lon="7.23375">
					<ele>278</ele>
					<time>0001-01-01T00:00:00Z</time>
				</trkpt>
				<trkpt lat="58.26627" lon="7.23259">
					<ele>279</ele>
					<time>0001-01-01T00:00:00Z</time>
				</trkpt>
				<trkpt lat="58.26646" lon="7.23091">
					<ele>285</ele>
					<time>0001-01-01T00:00:00Z</time>
				</trkpt>
				<trkpt lat="58.26652" lon="7.23054">
					<ele>285</ele>
					<time>0001-01-01T00:00:00Z</time>
				</trkpt>
				<trkpt lat="58.26637" lon="7.22935">
					<ele>283</ele>
					<time>0001-01-01T00:00:00Z</time>
				</trkpt>
				<trkpt lat="58.26592" lon="7.22870">
					<ele>281</ele>
					<time>0001-01-01T00:00:00Z</time>
				</trkpt>
				<trkpt lat="58.26539" lon="7.22831">
					<ele>279</ele>
					<time>0001-01-01T00:00:00Z</time>
				</trkpt>
				<trkpt lat="58.26495" lon="7.22762">
					<ele>277</ele>
					<time>0001-01-01T00:00:00Z</time>
				</trkpt>
				<trkpt lat="58.26483" lon="7.22642">
					<ele>277</ele>
					<time>0001-01-01T00:00:00Z</time>
				</trkpt>
				<trkpt lat="58.26505" lon="7.22584">
					<ele>278</ele>
					<time>0001-01-01T00:00:00Z</time>
				</trkpt>
				<trkpt lat="58.26582" lon="7.22500">
					<ele>287</ele>
					<time>0001-01-01T00:00:00Z</time>
				</trkpt>
				<trkpt lat="58.26593" lon="7.22474">
					<ele>288</ele>
					<time>0001-01-01T00:00:00Z</time>
				</trkpt>
				<trkpt lat="58.26598" lon="7.22459">
					<ele>289</ele>
					<time>0001-01-01T00:00:00Z</time>
				</trkpt>
				<trkpt lat="58.26602" lon="7.22334">
					<ele>291</ele>
					<time>0001-01-01T00:00:00Z</time>
				</trkpt>
				<trkpt lat="58.26604" lon="7.22156">
					<ele>290</ele>
					<time>0001-01-01T00:00:00Z</time>
				</trkpt>
				<trkpt lat="58.26603" lon="7.22141">
					<ele>290</ele>
					<time>0001-01-01T00:00:00Z</time>
				</trkpt>
				<trkpt lat="58.26570" lon="7.22054">
					<ele>285</ele>
					<time>0001-01-01T00:00:00Z</time>
				</trkpt>
				<trkpt lat="58.26549" lon="7.21907">
					<ele>275</ele>
					<time>0001-01-01T00:00:00Z</time>
				</trkpt>
				<trkpt lat="58.26584" lon="7.21811">
					<ele>268</ele>
					<time>0001-01-01T00:00:00Z</time>
				</trkpt>
				<trkpt lat="58.26577" lon="7.21743">
					<ele>263</ele>
					<time>0001-01-01T00:00:00Z</time>
				</trkpt>
				<trkpt lat="58.26564" lon="7.21683">
					<ele>260</ele>
					<time>0001-01-01T00:00:00Z</time>
				</trkpt>
				<trkpt lat="58.26585" lon="7.21621">
					<ele>254</ele>
					<time>0001-01-01T00:00:00Z</time>
				</trkpt>
				<trkpt lat="58.26626" lon="7.21658">
					<ele>249</ele>
					<time>0001-01-01T00:00:00Z</time>
				</trkpt>
				<trkpt lat="58.26642" lon="7.21694">
					<ele>246</ele>
					<time>0001-01-01T00:00:00Z</time>
				</trkpt>
				<trkpt lat="58.26706" lon="7.21733">
					<ele>241</ele>
					<time>0001-01-01T00:00:00Z</time>
				</trkpt>
				<trkpt lat="58.26771" lon="7.21741">
					<ele>239</ele>
					<time>0001-01-01T00:00:00Z</time>
				</trkpt>
				<trkpt lat="58.26796" lon="7.21723">
					<ele>238</ele>
					<time>0001-01-01T00:00:00Z</time>
				</trkpt>
				<trkpt lat="58.26843" lon="7.21627">
					<ele>232</ele>
					<time>0001-01-01T00:00:00Z</time>
				</trkpt>
				<trkpt lat="58.26865" lon="7.21625">
					<ele>231</ele>
					<time>0001-01-01T00:00:00Z</time>
				</trkpt>
				<trkpt lat="58.26889" lon="7.21634">
					<ele>228</ele>
					<time>0001-01-01T00:00:00Z</time>
				</trkpt>
				<trkpt lat="58.26961" lon="7.21578">
					<ele>226</ele>
					<time>0001-01-01T00:00:00Z</time>
				</trkpt>
				<trkpt lat="58.26987" lon="7.21480">
					<ele>217</ele>
					<time>0001-01-01T00:00:00Z</time>
				</trkpt>
				<trkpt lat="58.26937" lon="7.21369">
					<ele>204</ele>
					<time>0001-01-01T00:00:00Z</time>
				</trkpt>
				<trkpt lat="58.26923" lon="7.21365">
					<ele>203</ele>
					<time>0001-01-01T00:00:00Z</time>
				</trkpt>
				<trkpt lat="58.26846" lon="7.21343">
					<ele>194</ele>
					<time>0001-01-01T00:00:00Z</time>
				</trkpt>
				<trkpt lat="58.26801" lon="7.21343">
					<ele>189</ele>
					<time>0001-01-01T00:00:00Z</time>
				</trkpt>
				<trkpt lat="58.26736" lon="7.21287">
					<ele>179</ele>
					<time>0001-01-01T00:00:00Z</time>
				</trkpt>
				<trkpt lat="58.26718" lon="7.21247">
					<ele>175</ele>
					<time>0001-01-01T00:00:00Z</time>
				</trkpt>
				<trkpt lat="58.26711" lon="7.21159">
					<ele>168</ele>
					<time>0001-01-01T00:00:00Z</time>
				</trkpt>
				<trkpt lat="58.26757" lon="7.20879">
					<ele>148</ele>
					<time>0001-01-01T00:00:00Z</time>
				</trkpt>
				<trkpt lat="58.26735" lon="7.20732">
					<ele>144</ele>
					<time>0001-01-01T00:00:00Z</time>
				</trkpt>
				<trkpt lat="58.26724" lon="7.20682">
					<ele>143</ele>
					<time>0001-01-01T00:00:00Z</time>
				</trkpt>
				<trkpt lat="58.26717" lon="7.20505">
					<ele>140</ele>
					<time>0001-01-01T00:00:00Z</time>
				</trkpt>
				<trkpt lat="58.26700" lon="7.20456">
					<ele>137</ele>
					<time>0001-01-01T00:00:00Z</time>
				</trkpt>
				<trkpt lat="58.26678" lon="7.20434">
					<ele>133</ele>
					<time>0001-01-01T00:00:00Z</time>
				</trkpt>
				<trkpt lat="58.26590" lon="7.20560">
					<ele>127</ele>
					<time>0001-01-01T00:00:00Z</time>
				</trkpt>
				<trkpt lat="58.26563" lon="7.20519">
					<ele>125</ele>
					<time>0001-01-01T00:00:00Z</time>
				</trkpt>
				<trkpt lat="58.26517" lon="7.20499">
					<ele>119</ele>
					<time>0001-01-01T00:00:00Z</time>
				</trkpt>
				<trkpt lat="58.26462" lon="7.20521">
					<ele>115</ele>
					<time>0001-01-01T00:00:00Z</time>
				</trkpt>
				<trkpt lat="58.26397" lon="7.20509">
					<ele>101</ele>
					<time>0001-01-01T00:00:00Z</time>
				</trkpt>
				<trkpt lat="58.26373" lon="7.20482">
					<ele>95</ele>
					<time>0001-01-01T00:00:00Z</time>
				</trkpt>
				<trkpt lat="58.26316" lon="7.20332">
					<ele>79</ele>
					<time>0001-01-01T00:00:00Z</time>
				</trkpt>
				<trkpt lat="58.26315" lon="7.20283">
					<ele>76</ele>
					<time>0001-01-01T00:00:00Z</time>
				</trkpt>
				<trkpt lat="58.26331" lon="7.20062">
					<ele>70</ele>
					<time>0001-01-01T00:00:00Z</time>
				</trkpt>
				<trkpt lat="58.26344" lon="7.19940">
					<ele>66</ele>
					<time>0001-01-01T00:00:00Z</time>
				</trkpt>
				<trkpt lat="58.26325" lon="7.19908">
					<ele>64</ele>
					<time>0001-01-01T00:00:00Z</time>
				</trkpt>
				<trkpt lat="58.26197" lon="7.19831">
					<ele>58</ele>
					<time>0001-01-01T00:00:00Z</time>
				</trkpt>
				<trkpt lat="58.26063" lon="7.19737">
					<ele>55</ele>
					<time>0001-01-01T00:00:00Z</time>
				</trkpt>
				<trkpt lat="58.25995" lon="7.19605">
					<ele>53</ele>
					<time>0001-01-01T00:00:00Z</time>
				</trkpt>
				<trkpt lat="58.25943" lon="7.19428">
					<ele>52</ele>
					<time>0001-01-01T00:00:00Z</time>
				</trkpt>
				<trkpt lat="58.25931" lon="7.19371">
					<ele>52</ele>
					<time>0001-01-01T00:00:00Z</time>
				</trkpt>
				<trkpt lat="58.25924" lon="7.19269">
					<ele>51</ele>
					<time>0001-01-01T00:00:00Z</time>
				</trkpt>
				<trkpt lat="58.25876" lon="7.19171">
					<ele>49</ele>
					<time>0001-01-01T00:00:00Z</time>
				</trkpt>
				<trkpt lat="58.25860" lon="7.19158">
					<ele>48</ele>
					<time>0001-01-01T00:00:00Z</time>
				</trkpt>
				<trkpt lat="58.25777" lon="7.19161">
					<ele>47</ele>
					<time>0001-01-01T00:00:00Z</time>
				</trkpt>
				<trkpt lat="58.25706" lon="7.19114">
					<ele>46</ele>
					<time>0001-01-01T00:00:00Z</time>
				</trkpt>
				<trkpt lat="58.25590" lon="7.18929">
					<ele>45</ele>
					<time>0001-01-01T00:00:00Z</time>
				</trkpt>
				<trkpt lat="58.25364" lon="7.18816">
					<ele>43</ele>
					<time>0001-01-01T00:00:00Z</time>
				</trkpt>
				<trkpt lat="58.25126" lon="7.18696">
					<ele>45</ele>
					<time>0001-01-01T00:00:00Z</time>
				</trkpt>
				<trkpt lat="58.24907" lon="7.18585">
					<ele>44</ele>
					<time>0001-01-01T00:00:00Z</time>
				</trkpt>
				<trkpt lat="58.24711" lon="7.18481">
					<ele>41</ele>
					<time>0001-01-01T00:00:00Z</time>
				</trkpt>
				<trkpt lat="58.24503" lon="7.18368">
					<ele>44</ele>
					<time>0001-01-01T00:00:00Z</time>
				</trkpt>
				<trkpt lat="58.24305" lon="7.18263">
					<ele>43</ele>
					<time>0001-01-01T00:00:00Z</time>
				</trkpt>
				<trkpt lat="58.24139" lon="7.18161">
					<ele>39</ele>
					<time>0001-01-01T00:00:00Z</time>
				</trkpt>
				<trkpt lat="58.24030" lon="7.18007">
					<ele>39</ele>
					<time>0001-01-01T00:00:00Z</time>
				</trkpt>
				<trkpt lat="58.23928" lon="7.17821">
					<ele>39</ele>
					<time>0001-01-01T00:00:00Z</time>
				</trkpt>
				<trkpt lat="58.23827" lon="7.17662">
					<ele>37</ele>
					<time>0001-01-01T00:00:00Z</time>
				</trkpt>
				<trkpt lat="58.23803" lon="7.17614">
					<ele>38</ele>
					<time>0001-01-01T00:00:00Z</time>
				</trkpt>
				<trkpt lat="58.23803" lon="7.17529">
					<ele>38</ele>
					<time>0001-01-01T00:00:00Z</time>
				</trkpt>
				<trkpt lat="58.23822" lon="7.17501">
					<ele>38</ele>
					<time>0001-01-01T00:00:00Z</time>
				</trkpt>
				<trkpt lat="58.23847" lon="7.17368">
					<ele>38</ele>
					<time>0001-01-01T00:00:00Z</time>
				</trkpt>
				<trkpt lat="58.23819" lon="7.17062">
					<ele>38</ele>
					<time>0001-01-01T00:00:00Z</time>
				</trkpt>
				<trkpt lat="58.23782" lon="7.16735">
					<ele>34</ele>
					<time>0001-01-01T00:00:00Z</time>
				</trkpt>
				<trkpt lat="58.23706" lon="7.16487">
					<ele>31</ele>
					<time>0001-01-01T00:00:00Z</time>
				</trkpt>
				<trkpt lat="58.23686" lon="7.16447">
					<ele>32</ele>
					<time>0001-01-01T00:00:00Z</time>
				</trkpt>
				<trkpt lat="58.23666" lon="7.16411">
					<ele>32</ele>
					<time>0001-01-01T00:00:00Z</time>
				</trkpt>
				<trkpt lat="58.23631" lon="7.16345">
					<ele>33</ele>
					<time>0001-01-01T00:00:00Z</time>
				</trkpt>
				<trkpt lat="58.23587" lon="7.16262">
					<ele>36</ele>
					<time>0001-01-01T00:00:00Z</time>
				</trkpt>
				<trkpt lat="58.23541" lon="7.16064">
					<ele>38</ele>
					<time>0001-01-01T00:00:00Z</time>
				</trkpt>
				<trkpt lat="58.23531" lon="7.15974">
					<ele>40</ele>
					<time>0001-01-01T00:00:00Z</time>
				</trkpt>
				<trkpt lat="58.23505" lon="7.15914">
					<ele>47</ele>
					<time>0001-01-01T00:00:00Z</time>
				</trkpt>
				<trkpt lat="58.23468" lon="7.15892">
					<ele>57</ele>
					<time>0001-01-01T00:00:00Z</time>
				</trkpt>
				<trkpt lat="58.23414" lon="7.15877">
					<ele>68</ele>
					<time>0001-01-01T00:00:00Z</time>
				</trkpt>
				<trkpt lat="58.23368" lon="7.15865">
					<ele>79</ele>
					<time>0001-01-01T00:00:00Z</time>
				</trkpt>
				<trkpt lat="58.23352" lon="7.15863">
					<ele>84</ele>
					<time>0001-01-01T00:00:00Z</time>
				</trkpt>
				<trkpt lat="58.23350" lon="7.15847">
					<ele>86</ele>
					<time>0001-01-01T00:00:00Z</time>
				</trkpt>
				<trkpt lat="58.23373" lon="7.15811">
					<ele>93</ele>
					<time>0001-01-01T00:00:00Z</time>
				</trkpt>
				<trkpt lat="58.23407" lon="7.15766">
					<ele>102</ele>
					<time>0001-01-01T00:00:00Z</time>
				</trkpt>
				<trkpt lat="58.23433" lon="7.15730">
					<ele>108</ele>
					<time>0001-01-01T00:00:00Z</time>
				</trkpt>
				<trkpt lat="58.23469" lon="7.15679">
					<ele>115</ele>
					<time>0001-01-01T00:00:00Z</time>
				</trkpt>
				<trkpt lat="58.23514" lon="7.15619">
					<ele>119</ele>
					<time>0001-01-01T00:00:00Z</time>
				</trkpt>
				<trkpt lat="58.23568" lon="7.15661">
					<ele>121</ele>
					<time>0001-01-01T00:00:00Z</time>
				</trkpt>
				<trkpt lat="58.23615" lon="7.15721">
					<ele>128</ele>
					<time>0001-01-01T00:00:00Z</time>
				</trkpt>
				<trkpt lat="58.23657" lon="7.15782">
					<ele>135</ele>
					<time>0001-01-01T00:00:00Z</time>
				</trkpt>
				<trkpt lat="58.23742" lon="7.15941">
					<ele>138</ele>
					<time>0001-01-01T00:00:00Z</time>
				</trkpt>
				<trkpt lat="58.23779" lon="7.16058">
					<ele>142</ele>
					<time>0001-01-01T00:00:00Z</time>
				</trkpt>
				<trkpt lat="58.23783" lon="7.16046">
					<ele>142</ele>
					<time>0001-01-01T00:00:00Z</time>
				</trkpt>
				<trkpt lat="58.23769" lon="7.15951">
					<ele>142</ele>
					<time>0001-01-01T00:00:00Z</time>
				</trkpt>
				<trkpt lat="58.23755" lon="7.15832">
					<ele>142</ele>
					<time>0001-01-01T00:00:00Z</time>
				</trkpt>
				<trkpt lat="58.23765" lon="7.15722">
					<ele>144</ele>
					<time>0001-01-01T00:00:00Z</time>
				</trkpt>
				<trkpt lat="58.23776" lon="7.15612">
					<ele>147</ele>
					<time>0001-01-01T00:00:00Z</time>
				</trkpt>
				<trkpt lat="58.23789" lon="7.15499">
					<ele>150</ele>
					<time>0001-01-01T00:00:00Z</time>
				</trkpt>
				<trkpt lat="58.23801" lon="7.15426">
					<ele>150</ele>
					<time>0001-01-01T00:00:00Z</time>
				</trkpt>
				<trkpt lat="58.23796" lon="7.15342">
					<ele>161</ele>
					<time>0001-01-01T00:00:00Z</time>
				</trkpt>
				<trkpt lat="58.23790" lon="7.15265">
					<ele>168</ele>
					<time>0001-01-01T00:00:00Z</time>
				</trkpt>
				<trkpt lat="58.23767" lon="7.15175">
					<ele>176</ele>
					<time>0001-01-01T00:00:00Z</time>
				</trkpt>
				<trkpt lat="58.23756" lon="7.15112">
					<ele>177</ele>
					<time>0001-01-01T00:00:00Z</time>
				</trkpt>
				<trkpt lat="58.23746" lon="7.15060">
					<ele>180</ele>
					<time>0001-01-01T00:00:00Z</time>
				</trkpt>
				<trkpt lat="58.23736" lon="7.15005">
					<ele>185</ele>
					<time>0001-01-01T00:00:00Z</time>
				</trkpt>
				<trkpt lat="58.23733" lon="7.14917">
					<ele>198</ele>
					<time>0001-01-01T00:00:00Z</time>
				</trkpt>
				<trkpt lat="58.23727" lon="7.14860">
					<ele>211</ele>
					<time>0001-01-01T00:00:00Z</time>
				</trkpt>
				<trkpt lat="58.23725" lon="7.14784">
					<ele>219</ele>
					<time>0001-01-01T00:00:00Z</time>
				</trkpt>
				<trkpt lat="58.23745" lon="7.14735">
					<ele>227</ele>
					<time>0001-01-01T00:00:00Z</time>
				</trkpt>
				<trkpt lat="58.23779" lon="7.14726">
					<ele>234</ele>
					<time>0001-01-01T00:00:00Z</time>
				</trkpt>
				<trkpt lat="58.23819" lon="7.14743">
					<ele>240</ele>
					<time>0001-01-01T00:00:00Z</time>
				</trkpt>
				<trkpt lat="58.23855" lon="7.14748">
					<ele>243</ele>
					<time>0001-01-01T00:00:00Z</time>
				</trkpt>
				<trkpt lat="58.23890" lon="7.14719">
					<ele>248</ele>
					<time>0001-01-01T00:00:00Z</time>
				</trkpt>
				<trkpt lat="58.23946" lon="7.14692">
					<ele>254</ele>
					<time>0001-01-01T00:00:00Z</time>
				</trkpt>
				<trkpt lat="58.23978" lon="7.14641">
					<ele>260</ele>
					<time>0001-01-01T00:00:00Z</time>
				</trkpt>
				<trkpt lat="58.24014" lon="7.14560">
					<ele>269</ele>
					<time>0001-01-01T00:00:00Z</time>
				</trkpt>
				<trkpt lat="58.24045" lon="7.14479">
					<ele>274</ele>
					<time>0001-01-01T00:00:00Z</time>
				</trkpt>
				<trkpt lat="58.24074" lon="7.14390">
					<ele>278</ele>
					<time>0001-01-01T00:00:00Z</time>
				</trkpt>
				<trkpt lat="58.24091" lon="7.14329">
					<ele>278</ele>
					<time>0001-01-01T00:00:00Z</time>
				</trkpt>
				<trkpt lat="58.24158" lon="7.14254">
					<ele>279</ele>
					<time>0001-01-01T00:00:00Z</time>
				</trkpt>
				<trkpt lat="58.24176" lon="7.14215">
					<ele>281</ele>
					<time>0001-01-01T00:00:00Z</time>
				</trkpt>
				<trkpt lat="58.24229" lon="7.14064">
					<ele>283</ele>
					<time>0001-01-01T00:00:00Z</time>
				</trkpt>
				<trkpt lat="58.24258" lon="7.13991">
					<ele>282</ele>
					<time>0001-01-01T00:00:00Z</time>
				</trkpt>
				<trkpt lat="58.24268" lon="7.13915">
					<ele>282</ele>
					<time>0001-01-01T00:00:00Z</time>
				</trkpt>
				<trkpt lat="58.24269" lon="7.13826">
					<ele>283</ele>
					<time>0001-01-01T00:00:00Z</time>
				</trkpt>
				<trkpt lat="58.24293" lon="7.13659">
					<ele>283</ele>
					<time>0001-01-01T00:00:00Z</time>
				</trkpt>
				<trkpt lat="58.24354" lon="7.13448">
					<ele>282</ele>
					<time>0001-01-01T00:00:00Z</time>
				</trkpt>
				<trkpt lat="58.24396" lon="7.13330">
					<ele>282</ele>
					<time>0001-01-01T00:00:00Z</time>
				</trkpt>
				<trkpt lat="58.24467" lon="7.13183">
					<ele>288</ele>
					<time>0001-01-01T00:00:00Z</time>
				</trkpt>
				<trkpt lat="58.24519" lon="7.13007">
					<ele>290</ele>
					<time>0001-01-01T00:00:00Z</time>
				</trkpt>
				<trkpt lat="58.24592" lon="7.12678">
					<ele>295</ele>
					<time>0001-01-01T00:00:00Z</time>
				</trkpt>
				<trkpt lat="58.24614" lon="7.12536">
					<ele>298</ele>
					<time>0001-01-01T00:00:00Z</time>
				</trkpt>
				<trkpt lat="58.24628" lon="7.12386">
					<ele>306</ele>
					<time>0001-01-01T00:00:00Z</time>
				</trkpt>
				<trkpt lat="58.24644" lon="7.12237">
					<ele>308</ele>
					<time>0001-01-01T00:00:00Z</time>
				</trkpt>
				<trkpt lat="58.24679" lon="7.12131">
					<ele>313</ele>
					<time>0001-01-01T00:00:00Z</time>
				</trkpt>
				<trkpt lat="58.24682" lon="7.12123">
					<ele>313</ele>
					<time>0001-01-01T00:00:00Z</time>
				</trkpt>
				<trkpt lat="58.24705" lon="7.12016">
					<ele>312</ele>
					<time>0001-01-01T00:00:00Z</time>
				</trkpt>
				<trkpt lat="58.24704" lon="7.11819">
					<ele>317</ele>
					<time>0001-01-01T00:00:00Z</time>
				</trkpt>
				<trkpt lat="58.24704" lon="7.11575">
					<ele>325</ele>
					<time>0001-01-01T00:00:00Z</time>
				</trkpt>
				<trkpt lat="58.24665" lon="7.11411">
					<ele>319</ele>
					<time>0001-01-01T00:00:00Z</time>
				</trkpt>
				<trkpt lat="58.24644" lon="7.11306">
					<ele>320</ele>
					<time>0001-01-01T00:00:00Z</time>
				</trkpt>
				<trkpt lat="58.24643" lon="7.11224">
					<ele>321</ele>
					<time>0001-01-01T00:00:00Z</time>
				</trkpt>
				<trkpt lat="58.24667" lon="7.11136">
					<ele>319</ele>
					<time>0001-01-01T00:00:00Z</time>
				</trkpt>
				<trkpt lat="58.24716" lon="7.10994">
					<ele>314</ele>
					<time>0001-01-01T00:00:00Z</time>
				</trkpt>
				<trkpt lat="58.24757" lon="7.10661">
					<ele>309</ele>
					<time>0001-01-01T00:00:00Z</time>
				</trkpt>
				<trkpt lat="58.24783" lon="7.10580">
					<ele>306</ele>
					<time>0001-01-01T00:00:00Z</time>
				</trkpt>
				<trkpt lat="58.24819" lon="7.10498">
					<ele>305</ele>
					<time>0001-01-01T00:00:00Z</time>
				</trkpt>
				<trkpt lat="58.24826" lon="7.10380">
					<ele>304</ele>
					<time>0001-01-01T00:00:00Z</time>
				</trkpt>
				<trkpt lat="58.24823" lon="7.10246">
					<ele>306</ele>
					<time>0001-01-01T00:00:00Z</time>
				</trkpt>
				<trkpt lat="58.24823" lon="7.10150">
					<ele>304</ele>
					<time>0001-01-01T00:00:00Z</time>
				</trkpt>
				<trkpt lat="58.24799" lon="7.10045">
					<ele>296</ele>
					<time>0001-01-01T00:00:00Z</time>
				</trkpt>
				<trkpt lat="58.24800" lon="7.09970">
					<ele>291</ele>
					<time>0001-01-01T00:00:00Z</time>
				</trkpt>
				<trkpt lat="58.24776" lon="7.09830">
					<ele>287</ele>
					<time>0001-01-01T00:00:00Z</time>
				</trkpt>
				<trkpt lat="58.24737" lon="7.09739">
					<ele>281</ele>
					<time>0001-01-01T00:00:00Z</time>
				</trkpt>
				<trkpt lat="58.24691" lon="7.09556">
					<ele>273</ele>
					<time>0001-01-01T00:00:00Z</time>
				</trkpt>
				<trkpt lat="58.24680" lon="7.09475">
					<ele>270</ele>
					<time>0001-01-01T00:00:00Z</time>
				</trkpt>
				<trkpt lat="58.24697" lon="7.09322">
					<ele>268</ele>
					<time>0001-01-01T00:00:00Z</time>
				</trkpt>
				<trkpt lat="58.24720" lon="7.09259">
					<ele>267</ele>
					<time>0001-01-01T00:00:00Z</time>
				</trkpt>
				<trkpt lat="58.24738" lon="7.09225">
					<ele>267</ele>
					<time>0001-01-01T00:00:00Z</time>
				</trkpt>
				<trkpt lat="58.24783" lon="7.09110">
					<ele>265</ele>
					<time>0001-01-01T00:00:00Z</time>
				</trkpt>
				<trkpt lat="58.24782" lon="7.08924">
					<ele>268</ele>
					<time>0001-01-01T00:00:00Z</time>
				</trkpt>
				<trkpt lat="58.24808" lon="7.08720">
					<ele>265</ele>
					<time>0001-01-01T00:00:00Z</time>
				</trkpt>
				<trkpt lat="58.24830" lon="7.08584">
					<ele>267</ele>
					<time>0001-01-01T00:00:00Z</time>
				</trkpt>
				<trkpt lat="58.24850" lon="7.08531">
					<ele>269</ele>
					<time>0001-01-01T00:00:00Z</time>
				</trkpt>
				<trkpt lat="58.24887" lon="7.08379">
					<ele>277</ele>
					<time>0001-01-01T00:00:00Z</time>
				</trkpt>
				<trkpt lat="58.24913" lon="7.08304">
					<ele>281</ele>
					<time>0001-01-01T00:00:00Z</time>
				</trkpt>
				<trkpt lat="58.24907" lon="7.08119">
					<ele>287</ele>
					<time>0001-01-01T00:00:00Z</time>
				</trkpt>
				<trkpt lat="58.24885" lon="7.07882">
					<ele>292</ele>
					<time>0001-01-01T00:00:00Z</time>
				</trkpt>
				<trkpt lat="58.24872" lon="7.07790">
					<ele>294</ele>
					<time>0001-01-01T00:00:00Z</time>
				</trkpt>
				<trkpt lat="58.24885" lon="7.07616">
					<ele>296</ele>
					<time>0001-01-01T00:00:00Z</time>
				</trkpt>
				<trkpt lat="58.24904" lon="7.07425">
					<ele>298</ele>
					<time>0001-01-01T00:00:00Z</time>
				</trkpt>
				<trkpt lat="58.24914" lon="7.07373">
					<ele>298</ele>
					<time>0001-01-01T00:00:00Z</time>
				</trkpt>
				<trkpt lat="58.24927" lon="7.07309">
					<ele>298</ele>
					<time>0001-01-01T00:00:00Z</time>
				</trkpt>
				<trkpt lat="58.24952" lon="7.07254">
					<ele>300</ele>
					<time>0001-01-01T00:00:00Z</time>
				</trkpt>
				<trkpt lat="58.24976" lon="7.07233">
					<ele>301</ele>
					<time>0001-01-01T00:00:00Z</time>
				</trkpt>
				<trkpt lat="58.24995" lon="7.07229">
					<ele>301</ele>
					<time>0001-01-01T00:00:00Z</time>
				</trkpt>
				<trkpt lat="58.25067" lon="7.07145">
					<ele>303</ele>
					<time>0001-01-01T00:00:00Z</time>
				</trkpt>
				<trkpt lat="58.25074" lon="7.07139">
					<ele>302</ele>
					<time>0001-01-01T00:00:00Z</time>
				</trkpt>
				<trkpt lat="58.25150" lon="7.07181">
					<ele>300</ele>
					<time>0001-01-01T00:00:00Z</time>
				</trkpt>
				<trkpt lat="58.25216" lon="7.07152">
					<ele>300</ele>
					<time>0001-01-01T00:00:00Z</time>
				</trkpt>
				<trkpt lat="58.25225" lon="7.07145">
					<ele>299</ele>
					<time>0001-01-01T00:00:00Z</time>
				</trkpt>
				<trkpt lat="58.25259" lon="7.07083">
					<ele>300</ele>
					<time>0001-01-01T00:00:00Z</time>
				</trkpt>
				<trkpt lat="58.25263" lon="7.06974">
					<ele>301</ele>
					<time>0001-01-01T00:00:00Z</time>
				</trkpt>
				<trkpt lat="58.25254" lon="7.06911">
					<ele>302</ele>
					<time>0001-01-01T00:00:00Z</time>
				</trkpt>
				<trkpt lat="58.25257" lon="7.06853">
					<ele>302</ele>
					<time>0001-01-01T00:00:00Z</time>
				</trkpt>
				<trkpt lat="58.25264" lon="7.06831">
					<ele>301</ele>
					<time>0001-01-01T00:00:00Z</time>
				</trkpt>
				<trkpt lat="58.25280" lon="7.06746">
					<ele>301</ele>
					<time>0001-01-01T00:00:00Z</time>
				</trkpt>
				<trkpt lat="58.25294" lon="7.06581">
					<ele>301</ele>
					<time>0001-01-01T00:00:00Z</time>
				</trkpt>
				<trkpt lat="58.25297" lon="7.06506">
					<ele>301</ele>
					<time>0001-01-01T00:00:00Z</time>
				</trkpt>
				<trkpt lat="58.25337" lon="7.06471">
					<ele>299</ele>
					<time>0001-01-01T00:00:00Z</time>
				</trkpt>
				<trkpt lat="58.25392" lon="7.06503">
					<ele>299</ele>
					<time>0001-01-01T00:00:00Z</time>
				</trkpt>
				<trkpt lat="58.25424" lon="7.06475">
					<ele>299</ele>
					<time>0001-01-01T00:00:00Z</time>
				</trkpt>
				<trkpt lat="58.25442" lon="7.06418">
					<ele>299</ele>
					<time>0001-01-01T00:00:00Z</time>
				</trkpt>
				<trkpt lat="58.25475" lon="7.06265">
					<ele>300</ele>
					<time>0001-01-01T00:00:00Z</time>
				</trkpt>
				<trkpt lat="58.25529" lon="7.06128">
					<ele>303</ele>
					<time>0001-01-01T00:00:00Z</time>
				</trkpt>
				<trkpt lat="58.25522" lon="7.06095">
					<ele>304</ele>
					<time>0001-01-01T00:00:00Z</time>
				</trkpt>
				<trkpt lat="58.25551" lon="7.06074">
					<ele>306</ele>
					<time>0001-01-01T00:00:00Z</time>
				</trkpt>
				<trkpt lat="58.25646" lon="7.06110">
					<ele>307</ele>
					<time>0001-01-01T00:00:00Z</time>
				</trkpt>
				<trkpt lat="58.25733" lon="7.06179">
					<ele>306</ele>
					<time>0001-01-01T00:00:00Z</time>
				</trkpt>
				<trkpt lat="58.25838" lon="7.06370">
					<ele>304</ele>
					<time>0001-01-01T00:00:00Z</time>
				</trkpt>
				<trkpt lat="58.25868" lon="7.06424">
					<ele>302</ele>
					<time>0001-01-01T00:00:00Z</time>
				</trkpt>
				<trkpt lat="58.25888" lon="7.06448">
					<ele>301</ele>
					<time>0001-01-01T00:00:00Z</time>
				</trkpt>
				<trkpt lat="58.25947" lon="7.06447">
					<ele>300</ele>
					<time>0001-01-01T00:00:00Z</time>
				</trkpt>
				<trkpt lat="58.25957" lon="7.06410">
					<ele>299</ele>
					<time>0001-01-01T00:00:00Z</time>
				</trkpt>
				<trkpt lat="58.25957" lon="7.06383">
					<ele>298</ele>
					<time>0001-01-01T00:00:00Z</time>
				</trkpt>
				<trkpt lat="58.25963" lon="7.06220">
					<ele>296</ele>
					<time>0001-01-01T00:00:00Z</time>
				</trkpt>
				<trkpt lat="58.25968" lon="7.05973">
					<ele>289</ele>
					<time>0001-01-01T00:00:00Z</time>
				</trkpt>
				<trkpt lat="58.25974" lon="7.05842">
					<ele>284</ele>
					<time>0001-01-01T00:00:00Z</time>
				</trkpt>
				<trkpt lat="58.25958" lon="7.05699">
					<ele>280</ele>
					<time>0001-01-01T00:00:00Z</time>
				</trkpt>
				<trkpt lat="58.25959" lon="7.05608">
					<ele>278</ele>
					<time>0001-01-01T00:00:00Z</time>
				</trkpt>
				<trkpt lat="58.25990" lon="7.05387">
					<ele>276</ele>
					<time>0001-01-01T00:00:00Z</time>
				</trkpt>
				<trkpt lat="58.25986" lon="7.05193">
					<ele>276</ele>
					<time>0001-01-01T00:00:00Z</time>
				</trkpt>
				<trkpt lat="58.25977" lon="7.05090">
					<ele>277</ele>
					<time>0001-01-01T00:00:00Z</time>
				</trkpt>
				<trkpt lat="58.25984" lon="7.05032">
					<ele>278</ele>
					<time>0001-01-01T00:00:00Z</time>
				</trkpt>
				<trkpt lat="58.26003" lon="7.04919">
					<ele>278</ele>
					<time>0001-01-01T00:00:00Z</time>
				</trkpt>
				<trkpt lat="58.26004" lon="7.04888">
					<ele>279</ele>
					<time>0001-01-01T00:00:00Z</time>
				</trkpt>
				<trkpt lat="58.26006" lon="7.04825">
					<ele>280</ele>
					<time>0001-01-01T00:00:00Z</time>
				</trkpt>
				<trkpt lat="58.25977" lon="7.04705">
					<ele>279</ele>
					<time>0001-01-01T00:00:00Z</time>
				</trkpt>
				<trkpt lat="58.25943" lon="7.04555">
					<ele>278</ele>
					<time>0001-01-01T00:00:00Z</time>
				</trkpt>
				<trkpt lat="58.25932" lon="7.04483">
					<ele>279</ele>
					<time>0001-01-01T00:00:00Z</time>
				</trkpt>
				<trkpt lat="58.25964" lon="7.04276">
					<ele>278</ele>
					<time>0001-01-01T00:00:00Z</time>
				</trkpt>
				<trkpt lat="58.25961" lon="7.04191">
					<ele>280</ele>
					<time>0001-01-01T00:00:00Z</time>
				</trkpt>
				<trkpt lat="58.25938" lon="7.04020">
					<ele>277</ele>
					<time>0001-01-01T00:00:00Z</time>
				</trkpt>
				<trkpt lat="58.25945" lon="7.03877">
					<ele>276</ele>
					<time>0001-01-01T00:00:00Z</time>
				</trkpt>
				<trkpt lat="58.25954" lon="7.03780">
					<ele>275</ele>
					<time>0001-01-01T00:00:00Z</time>
				</trkpt>
				<trkpt lat="58.25956" lon="7.03619">
					<ele>273</ele>
					<time>0001-01-01T00:00:00Z</time>
				</trkpt>
				<trkpt lat="58.25881" lon="7.03419">
					<ele>273</ele>
					<time>0001-01-01T00:00:00Z</time>
				</trkpt>
				<trkpt lat="58.25762" lon="7.03241">
					<ele>275</ele>
					<time>0001-01-01T00:00:00Z</time>
				</trkpt>
				<trkpt lat="58.25756" lon="7.03229">
					<ele>275</ele>
					<time>0001-01-01T00:00:00Z</time>
				</trkpt>
				<trkpt lat="58.25751" lon="7.03159">
					<ele>274</ele>
					<time>0001-01-01T00:00:00Z</time>
				</trkpt>
				<trkpt lat="58.25757" lon="7.03060">
					<ele>274</ele>
					<time>0001-01-01T00:00:00Z</time>
				</trkpt>
				<trkpt lat="58.25783" lon="7.02918">
					<ele>271</ele>
					<time>0001-01-01T00:00:00Z</time>
				</trkpt>
				<trkpt lat="58.25773" lon="7.02763">
					<ele>270</ele>
					<time>0001-01-01T00:00:00Z</time>
				</trkpt>
				<trkpt lat="58.25743" lon="7.02492">
					<ele>267</ele>
					<time>0001-01-01T00:00:00Z</time>
				</trkpt>
				<trkpt lat="58.25742" lon="7.02434">
					<ele>265</ele>
					<time>0001-01-01T00:00:00Z</time>
				</trkpt>
				<trkpt lat="58.25763" lon="7.02394">
					<ele>264</ele>
					<time>0001-01-01T00:00:00Z</time>
				</trkpt>
				<trkpt lat="58.25768" lon="7.02397">
					<ele>263</ele>
					<time>0001-01-01T00:00:00Z</time>
				</trkpt>
				<trkpt lat="58.25866" lon="7.02407">
					<ele>261</ele>
					<time>0001-01-01T00:00:00Z</time>
				</trkpt>
				<trkpt lat="58.25980" lon="7.02372">
					<ele>261</ele>
					<time>0001-01-01T00:00:00Z</time>
				</trkpt>
				<trkpt lat="58.26091" lon="7.02244">
					<ele>263</ele>
					<time>0001-01-01T00:00:00Z</time>
				</trkpt>
				<trkpt lat="58.26206" lon="7.02180">
					<ele>262</ele>
					<time>0001-01-01T00:00:00Z</time>
				</trkpt>
				<trkpt lat="58.26338" lon="7.02144">
					<ele>256</ele>
					<time>0001-01-01T00:00:00Z</time>
				</trkpt>
				<trkpt lat="58.26505" lon="7.02095">
					<ele>253</ele>
					<time>0001-01-01T00:00:00Z</time>
				</trkpt>
				<trkpt lat="58.26658" lon="7.02054">
					<ele>255</ele>
					<time>0001-01-01T00:00:00Z</time>
				</trkpt>
				<trkpt lat="58.26698" lon="7.01996">
					<ele>256</ele>
					<time>0001-01-01T00:00:00Z</time>
				</trkpt>
				<trkpt lat="58.26712" lon="7.01972">
					<ele>256</ele>
					<time>0001-01-01T00:00:00Z</time>
				</trkpt>
				<trkpt lat="58.26780" lon="7.01747">
					<ele>255</ele>
					<time>0001-01-01T00:00:00Z</time>
				</trkpt>
				<trkpt lat="58.26909" lon="7.01490">
					<ele>252</ele>
					<time>0001-01-01T00:00:00Z</time>
				</trkpt>
				<trkpt lat="58.27011" lon="7.01492">
					<ele>252</ele>
					<time>0001-01-01T00:00:00Z</time>
				</trkpt>
				<trkpt lat="58.27055" lon="7.01518">
					<ele>253</ele>
					<time>0001-01-01T00:00:00Z</time>
				</trkpt>
				<trkpt lat="58.27084" lon="7.01558">
					<ele>255</ele>
					<time>0001-01-01T00:00:00Z</time>
				</trkpt>
				<trkpt lat="58.27111" lon="7.01614">
					<ele>255</ele>
					<time>0001-01-01T00:00:00Z</time>
				</trkpt>
				<trkpt lat="58.27143" lon="7.01834">
					<ele>256</ele>
					<time>0001-01-01T00:00:00Z</time>
				</trkpt>
				<trkpt lat="58.27147" lon="7.01858">
					<ele>256</ele>
					<time>0001-01-01T00:00:00Z</time>
				</trkpt>
				<trkpt lat="58.27165" lon="7.01917">
					<ele>257</ele>
					<time>0001-01-01T00:00:00Z</time>
				</trkpt>
				<trkpt lat="58.27181" lon="7.01948">
					<ele>256</ele>
					<time>0001-01-01T00:00:00Z</time>
				</trkpt>
				<trkpt lat="58.27264" lon="7.02064">
					<ele>253</ele>
					<time>0001-01-01T00:00:00Z</time>
				</trkpt>
				<trkpt lat="58.27293" lon="7.02111">
					<ele>255</ele>
					<time>0001-01-01T00:00:00Z</time>
				</trkpt>
				<trkpt lat="58.27353" lon="7.02172">
					<ele>261</ele>
					<time>0001-01-01T00:00:00Z</time>
				</trkpt>
				<trkpt lat="58.27391" lon="7.02307">
					<ele>268</ele>
					<time>0001-01-01T00:00:00Z</time>
				</trkpt>
				<trkpt lat="58.27438" lon="7.02378">
					<ele>270</ele>
					<time>0001-01-01T00:00:00Z</time>
				</trkpt>
				<trkpt lat="58.27542" lon="7.02443">
					<ele>271</ele>
					<time>0001-01-01T00:00:00Z</time>
				</trkpt>
				<trkpt lat="58.27598" lon="7.02478">
					<ele>274</ele>
					<time>0001-01-01T00:00:00Z</time>
				</trkpt>
				<trkpt lat="58.27661" lon="7.02498">
					<ele>277</ele>
					<time>0001-01-01T00:00:00Z</time>
				</trkpt>
				<trkpt lat="58.27709" lon="7.02536">
					<ele>280</ele>
					<time>0001-01-01T00:00:00Z</time>
				</trkpt>
				<trkpt lat="58.27736" lon="7.02628">
					<ele>287</ele>
					<time>0001-01-01T00:00:00Z</time>
				</trkpt>
				<trkpt lat="58.27773" lon="7.02733">
					<ele>292</ele>
					<time>0001-01-01T00:00:00Z</time>
				</trkpt>
				<trkpt lat="58.27818" lon="7.02760">
					<ele>292</ele>
					<time>0001-01-01T00:00:00Z</time>
				</trkpt>
				<trkpt lat="58.27833" lon="7.02757">
					<ele>292</ele>
					<time>0001-01-01T00:00:00Z</time>
				</trkpt>
				<trkpt lat="58.27860" lon="7.02739">
					<ele>293</ele>
					<time>0001-01-01T00:00:00Z</time>
				</trkpt>
				<trkpt lat="58.27877" lon="7.02705">
					<ele>293</ele>
					<time>0001-01-01T00:00:00Z</time>
				</trkpt>
				<trkpt lat="58.27900" lon="7.02652">
					<ele>293</ele>
					<time>0001-01-01T00:00:00Z</time>
				</trkpt>
				<trkpt lat="58.27949" lon="7.02611">
					<ele>292</ele>
					<time>0001-01-01T00:00:00Z</time>
				</trkpt>
				<trkpt lat="58.27987" lon="7.02610">
					<ele>292</ele>
					<time>0001-01-01T00:00:00Z</time>
				</trkpt>
				<trkpt lat="58.28033" lon="7.02658">
					<ele>294</ele>
					<time>0001-01-01T00:00:00Z</time>
				</trkpt>
				<trkpt lat="58.28055" lon="7.02706">
					<ele>296</ele>
					<time>0001-01-01T00:00:00Z</time>
				</trkpt>
				<trkpt lat="58.28094" lon="7.02733">
					<ele>296</ele>
					<time>0001-01-01T00:00:00Z</time>
				</trkpt>
				<trkpt lat="58.28184" lon="7.02754">
					<ele>295</ele>
					<time>0001-01-01T00:00:00Z</time>
				</trkpt>
				<trkpt lat="58.28208" lon="7.02741">
					<ele>296</ele>
					<time>0001-01-01T00:00:00Z</time>
				</trkpt>
				<trkpt lat="58.28252" lon="7.02659">
					<ele>298</ele>
					<time>0001-01-01T00:00:00Z</time>
				</trkpt>
				<trkpt lat="58.28293" lon="7.02500">
					<ele>302</ele>
					<time>0001-01-01T00:00:00Z</time>
				</trkpt>
				<trkpt lat="58.28297" lon="7.02470">
					<ele>302</ele>
					<time>0001-01-01T00:00:00Z</time>
				</trkpt>
				<trkpt lat="58.28334" lon="7.02454">
					<ele>305</ele>
					<time>0001-01-01T00:00:00Z</time>
				</trkpt>
				<trkpt lat="58.28347" lon="7.02471">
					<ele>306</ele>
					<time>0001-01-01T00:00:00Z</time>
				</trkpt>
				<trkpt lat="58.28392" lon="7.02553">
					<ele>311</ele>
					<time>0001-01-01T00:00:00Z</time>
				</trkpt>
				<trkpt lat="58.28461" lon="7.02569">
					<ele>314</ele>
					<time>0001-01-01T00:00:00Z</time>
				</trkpt>
				<trkpt lat="58.28559" lon="7.02586">
					<ele>314</ele>
					<time>0001-01-01T00:00:00Z</time>
				</trkpt>
				<trkpt lat="58.28664" lon="7.02614">
					<ele>315</ele>
					<time>0001-01-01T00:00:00Z</time>
				</trkpt>
				<trkpt lat="58.28796" lon="7.02701">
					<ele>314</ele>
					<time>0001-01-01T00:00:00Z</time>
				</trkpt>
				<trkpt lat="58.28912" lon="7.02777">
					<ele>312</ele>
					<time>0001-01-01T00:00:00Z</time>
				</trkpt>
				<trkpt lat="58.28963" lon="7.02782">
					<ele>310</ele>
					<time>0001-01-01T00:00:00Z</time>
				</trkpt>
				<trkpt lat="58.29063" lon="7.02701">
					<ele>307</ele>
					<time>0001-01-01T00:00:00Z</time>
				</trkpt>
				<trkpt lat="58.29214" lon="7.02578">
					<ele>305</ele>
					<time>0001-01-01T00:00:00Z</time>
				</trkpt>
				<trkpt lat="58.29249" lon="7.02552">
					<ele>305</ele>
					<time>0001-01-01T00:00:00Z</time>
				</trkpt>
				<trkpt lat="58.29367" lon="7.02494">
					<ele>304</ele>
					<time>0001-01-01T00:00:00Z</time>
				</trkpt>
				<trkpt lat="58.29529" lon="7.02399">
					<ele>303</ele>
					<time>0001-01-01T00:00:00Z</time>
				</trkpt>
				<trkpt lat="58.29674" lon="7.02285">
					<ele>303</ele>
					<time>0001-01-01T00:00:00Z</time>
				</trkpt>
				<trkpt lat="58.29705" lon="7.02222">
					<ele>303</ele>
					<time>0001-01-01T00:00:00Z</time>
				</trkpt>
				<trkpt lat="58.29737" lon="7.02003">
					<ele>303</ele>
					<time>0001-01-01T00:00:00Z</time>
				</trkpt>
				<trkpt lat="58.29775" lon="7.01788">
					<ele>303</ele>
					<time>0001-01-01T00:00:00Z</time>
				</trkpt>
				<trkpt lat="58.29841" lon="7.01557">
					<ele>307</ele>
					<time>0001-01-01T00:00:00Z</time>
				</trkpt>
				<trkpt lat="58.29886" lon="7.01378">
					<ele>311</ele>
					<time>0001-01-01T00:00:00Z</time>
				</trkpt>
				<trkpt lat="58.29937" lon="7.01218">
					<ele>317</ele>
					<time>0001-01-01T00:00:00Z</time>
				</trkpt>
				<trkpt lat="58.29959" lon="7.00970">
					<ele>320</ele>
					<time>0001-01-01T00:00:00Z</time>
				</trkpt>
				<trkpt lat="58.29992" lon="7.00843">
					<ele>316</ele>
					<time>0001-01-01T00:00:00Z</time>
				</trkpt>
				<trkpt lat="58.30041" lon="7.00783">
					<ele>312</ele>
					<time>0001-01-01T00:00:00Z</time>
				</trkpt>
				<trkpt lat="58.30190" lon="7.00730">
					<ele>308</ele>
					<time>0001-01-01T00:00:00Z</time>
				</trkpt>
				<trkpt lat="58.30258" lon="7.00672">
					<ele>301</ele>
					<time>0001-01-01T00:00:00Z</time>
				</trkpt>
				<trkpt lat="58.30363" lon="7.00503">
					<ele>293</ele>
					<time>0001-01-01T00:00:00Z</time>
				</trkpt>
				<trkpt lat="58.30433" lon="7.00452">
					<ele>291</ele>
					<time>0001-01-01T00:00:00Z</time>
				</trkpt>
				<trkpt lat="58.30462" lon="7.00469">
					<ele>290</ele>
					<time>0001-01-01T00:00:00Z</time>
				</trkpt>
				<trkpt lat="58.30540" lon="7.00450">
					<ele>289</ele>
					<time>0001-01-01T00:00:00Z</time>
				</trkpt>
				<trkpt lat="58.30615" lon="7.00459">
					<ele>289</ele>
					<time>0001-01-01T00:00:00Z</time>
				</trkpt>
				<trkpt lat="58.30761" lon="7.00460">
					<ele>282</ele>
					<time>0001-01-01T00:00:00Z</time>
				</trkpt>
				<trkpt lat="58.30877" lon="7.00537">
					<ele>277</ele>
					<time>0001-01-01T00:00:00Z</time>
				</trkpt>
				<trkpt lat="58.30938" lon="7.00505">
					<ele>276</ele>
					<time>0001-01-01T00:00:00Z</time>
				</trkpt>
				<trkpt lat="58.30959" lon="7.00419">
					<ele>277</ele>
					<time>0001-01-01T00:00:00Z</time>
				</trkpt>
				<trkpt lat="58.30971" lon="7.00120">
					<ele>278</ele>
					<time>0001-01-01T00:00:00Z</time>
				</trkpt>
				<trkpt lat="58.30941" lon="6.99909">
					<ele>276</ele>
					<time>0001-01-01T00:00:00Z</time>
				</trkpt>
				<trkpt lat="58.30941" lon="6.99891">
					<ele>276</ele>
					<time>0001-01-01T00:00:00Z</time>
				</trkpt>
				<trkpt lat="58.30952" lon="6.99809">
					<ele>277</ele>
					<time>0001-01-01T00:00:00Z</time>
				</trkpt>
				<trkpt lat="58.30969" lon="6.99680">
					<ele>277</ele>
					<time>0001-01-01T00:00:00Z</time>
				</trkpt>
				<trkpt lat="58.30921" lon="6.99518">
					<ele>278</ele>
					<time>0001-01-01T00:00:00Z</time>
				</trkpt>
				<trkpt lat="58.30916" lon="6.99504">
					<ele>278</ele>
					<time>0001-01-01T00:00:00Z</time>
				</trkpt>
				<trkpt lat="58.30874" lon="6.99282">
					<ele>278</ele>
					<time>0001-01-01T00:00:00Z</time>
				</trkpt>
				<trkpt lat="58.30845" lon="6.99141">
					<ele>276</ele>
					<time>0001-01-01T00:00:00Z</time>
				</trkpt>
				<trkpt lat="58.30715" lon="6.98452">
					<ele>267</ele>
					<time>0001-01-01T00:00:00Z</time>
				</trkpt>
				<trkpt lat="58.30693" lon="6.98063">
					<ele>256</ele>
					<time>0001-01-01T00:00:00Z</time>
				</trkpt>
				<trkpt lat="58.30690" lon="6.97693">
					<ele>244</ele>
					<time>0001-01-01T00:00:00Z</time>
				</trkpt>
				<trkpt lat="58.30671" lon="6.97542">
					<ele>240</ele>
					<time>0001-01-01T00:00:00Z</time>
				</trkpt>
				<trkpt lat="58.30619" lon="6.97378">
					<ele>230</ele>
					<time>0001-01-01T00:00:00Z</time>
				</trkpt>
				<trkpt lat="58.30591" lon="6.97285">
					<ele>223</ele>
					<time>0001-01-01T00:00:00Z</time>
				</trkpt>
				<trkpt lat="58.30582" lon="6.97127">
					<ele>213</ele>
					<time>0001-01-01T00:00:00Z</time>
				</trkpt>
				<trkpt lat="58.30601" lon="6.96968">
					<ele>205</ele>
					<time>0001-01-01T00:00:00Z</time>
				</trkpt>
				<trkpt lat="58.30661" lon="6.96861">
					<ele>196</ele>
					<time>0001-01-01T00:00:00Z</time>
				</trkpt>
				<trkpt lat="58.30724" lon="6.96920">
					<ele>188</ele>
					<time>0001-01-01T00:00:00Z</time>
				</trkpt>
				<trkpt lat="58.30791" lon="6.97027">
					<ele>178</ele>
					<time>0001-01-01T00:00:00Z</time>
				</trkpt>
				<trkpt lat="58.30827" lon="6.97144">
					<ele>173</ele>
					<time>0001-01-01T00:00:00Z</time>
				</trkpt>
				<trkpt lat="58.30842" lon="6.97218">
					<ele>169</ele>
					<time>0001-01-01T00:00:00Z</time>
				</trkpt>
				<trkpt lat="58.30903" lon="6.97276">
					<ele>162</ele>
					<time>0001-01-01T00:00:00Z</time>
				</trkpt>
				<trkpt lat="58.30932" lon="6.97271">
					<ele>160</ele>
					<time>0001-01-01T00:00:00Z</time>
				</trkpt>
				<trkpt lat="58.31076" lon="6.97234">
					<ele>154</ele>
					<time>0001-01-01T00:00:00Z</time>
				</trkpt>
				<trkpt lat="58.31145" lon="6.97260">
					<ele>148</ele>
					<time>0001-01-01T00:00:00Z</time>
				</trkpt>
				<trkpt lat="58.31289" lon="6.97345">
					<ele>134</ele>
					<time>0001-01-01T00:00:00Z</time>
				</trkpt>
				<trkpt lat="58.31316" lon="6.97349">
					<ele>131</ele>
					<time>0001-01-01T00:00:00Z</time>
				</trkpt>
				<trkpt lat="58.31367" lon="6.97394">
					<ele>129</ele>
					<time>0001-01-01T00:00:00Z</time>
				</trkpt>
				<trkpt lat="58.31516" lon="6.97742">
					<ele>120</ele>
					<time>0001-01-01T00:00:00Z</time>
				</trkpt>
				<trkpt lat="58.31639" lon="6.97913">
					<ele>106</ele>
					<time>0001-01-01T00:00:00Z</time>
				</trkpt>
				<trkpt lat="58.31842" lon="6.98090">
					<ele>85</ele>
					<time>0001-01-01T00:00:00Z</time>
				</trkpt>
				<trkpt lat="58.31990" lon="6.98268">
					<ele>72</ele>
					<time>0001-01-01T00:00:00Z</time>
				</trkpt>
				<trkpt lat="58.32002" lon="6.98278">
					<ele>71</ele>
					<time>0001-01-01T00:00:00Z</time>
				</trkpt>
				<trkpt lat="58.32065" lon="6.98304">
					<ele>66</ele>
					<time>0001-01-01T00:00:00Z</time>
				</trkpt>
				<trkpt lat="58.32172" lon="6.98246">
					<ele>57</ele>
					<time>0001-01-01T00:00:00Z</time>
				</trkpt>
				<trkpt lat="58.32235" lon="6.98103">
					<ele>51</ele>
					<time>0001-01-01T00:00:00Z</time>
				</trkpt>
				<trkpt lat="58.32249" lon="6.97933">
					<ele>46</ele>
					<time>0001-01-01T00:00:00Z</time>
				</trkpt>
				<trkpt lat="58.32245" lon="6.97858">
					<ele>45</ele>
					<time>0001-01-01T00:00:00Z</time>
				</trkpt>
				<trkpt lat="58.32222" lon="6.97763">
					<ele>43</ele>
					<time>0001-01-01T00:00:00Z</time>
				</trkpt>
				<trkpt lat="58.32203" lon="6.97721">
					<ele>42</ele>
					<time>0001-01-01T00:00:00Z</time>
				</trkpt>
				<trkpt lat="58.32074" lon="6.97383">
					<ele>35</ele>
					<time>0001-01-01T00:00:00Z</time>
				</trkpt>
				<trkpt lat="58.31963" lon="6.97100">
					<ele>28</ele>
					<time>0001-01-01T00:00:00Z</time>
				</trkpt>
				<trkpt lat="58.31847" lon="6.96800">
					<ele>25</ele>
					<time>0001-01-01T00:00:00Z</time>
				</trkpt>
				<trkpt lat="58.31730" lon="6.96538">
					<ele>20</ele>
					<time>0001-01-01T00:00:00Z</time>
				</trkpt>
				<trkpt lat="58.31711" lon="6.96518">
					<ele>19</ele>
					<time>0001-01-01T00:00:00Z</time>
				</trkpt>
				<trkpt lat="58.31568" lon="6.96460">
					<ele>18</ele>
					<time>0001-01-01T00:00:00Z</time>
				</trkpt>
				<trkpt lat="58.31422" lon="6.96424">
					<ele>17</ele>
					<time>0001-01-01T00:00:00Z</time>
				</trkpt>
				<trkpt lat="58.31389" lon="6.96390">
					<ele>17</ele>
					<time>0001-01-01T00:00:00Z</time>
				</trkpt>
				<trkpt lat="58.31252" lon="6.96215">
					<ele>17</ele>
					<time>0001-01-01T00:00:00Z</time>
				</trkpt>
				<trkpt lat="58.31208" lon="6.96175">
					<ele>15</ele>
					<time>0001-01-01T00:00:00Z</time>
				</trkpt>
				<trkpt lat="58.31175" lon="6.96099">
					<ele>14</ele>
					<time>0001-01-01T00:00:00Z</time>
				</trkpt>
				<trkpt lat="58.31130" lon="6.95952">
					<ele>14</ele>
					<time>0001-01-01T00:00:00Z</time>
				</trkpt>
				<trkpt lat="58.31103" lon="6.95912">
					<ele>15</ele>
					<time>0001-01-01T00:00:00Z</time>
				</trkpt>
				<trkpt lat="58.30951" lon="6.95798">
					<ele>15</ele>
					<time>0001-01-01T00:00:00Z</time>
				</trkpt>
				<trkpt lat="58.30767" lon="6.95655">
					<ele>14</ele>
					<time>0001-01-01T00:00:00Z</time>
				</trkpt>
				<trkpt lat="58.30636" lon="6.95489">
					<ele>10</ele>
					<time>0001-01-01T00:00:00Z</time>
				</trkpt>
				<trkpt lat="58.30519" lon="6.95245">
					<ele>8</ele>
					<time>0001-01-01T00:00:00Z</time>
				</trkpt>
				<trkpt lat="58.30358" lon="6.94875">
					<ele>7</ele>
					<time>0001-01-01T00:00:00Z</time>
				</trkpt>
				<trkpt lat="58.30197" lon="6.94505">
					<ele>7</ele>
					<time>0001-01-01T00:00:00Z</time>
				</trkpt>
				<trkpt lat="58.30041" lon="6.94148">
					<ele>6</ele>
					<time>0001-01-01T00:00:00Z</time>
				</trkpt>
				<trkpt lat="58.29887" lon="6.93796">
					<ele>7</ele>
					<time>0001-01-01T00:00:00Z</time>
				</trkpt>
				<trkpt lat="58.29792" lon="6.93559">
					<ele>9</ele>
					<time>0001-01-01T00:00:00Z</time>
				</trkpt>
				<trkpt lat="58.29660" lon="6.93208">
					<ele>5</ele>
					<time>0001-01-01T00:00:00Z</time>
				</trkpt>
				<trkpt lat="58.29511" lon="6.92817">
					<ele>5</ele>
					<time>0001-01-01T00:00:00Z</time>
				</trkpt>
				<trkpt lat="58.29385" lon="6.92486">
					<ele>5</ele>
					<time>0001-01-01T00:00:00Z</time>
				</trkpt>
				<trkpt lat="58.29267" lon="6.92180">
					<ele>7</ele>
					<time>0001-01-01T00:00:00Z</time>
				</trkpt>
				<trkpt lat="58.29146" lon="6.91921">
					<ele>7</ele>
					<time>0001-01-01T00:00:00Z</time>
				</trkpt>
				<trkpt lat="58.29014" lon="6.91659">
					<ele>5</ele>
					<time>0001-01-01T00:00:00Z</time>
				</trkpt>
				<trkpt lat="58.28843" lon="6.91319">
					<ele>5</ele>
					<time>0001-01-01T00:00:00Z</time>
				</trkpt>
				<trkpt lat="58.28634" lon="6.90907">
					<ele>6</ele>
					<time>0001-01-01T00:00:00Z</time>
				</trkpt>
				<trkpt lat="58.28446" lon="6.90541">
					<ele>3</ele>
					<time>0001-01-01T00:00:00Z</time>
				</trkpt>
				<trkpt lat="58.28249" lon="6.90189">
					<ele>4</ele>
					<time>0001-01-01T00:00:00Z</time>
				</trkpt>
				<trkpt lat="58.28119" lon="6.89905">
					<ele>4</ele>
					<time>0001-01-01T00:00:00Z</time>
				</trkpt>
				<trkpt lat="58.27981" lon="6.89509">
					<ele>4</ele>
					<time>0001-01-01T00:00:00Z</time>
				</trkpt>
				<trkpt lat="58.27899" lon="6.89180">
					<ele>4</ele>
					<time>0001-01-01T00:00:00Z</time>
				</trkpt>
				<trkpt lat="58.27807" lon="6.88797">
					<ele>6</ele>
					<time>0001-01-01T00:00:00Z</time>
				</trkpt>
				<trkpt lat="58.27768" lon="6.88554">
					<ele>4</ele>
					<time>0001-01-01T00:00:00Z</time>
				</trkpt>
				<trkpt lat="58.27782" lon="6.88463">
					<ele>4</ele>
					<time>0001-01-01T00:00:00Z</time>
				</trkpt>
				<trkpt lat="58.27832" lon="6.88316">
					<ele>3</ele>
					<time>0001-01-01T00:00:00Z</time>
				</trkpt>
				<trkpt lat="58.27826" lon="6.88237">
					<ele>3</ele>
					<time>0001-01-01T00:00:00Z</time>
				</trkpt>
				<trkpt lat="58.27684" lon="6.87745">
					<ele>4</ele>
					<time>0001-01-01T00:00:00Z</time>
				</trkpt>
				<trkpt lat="58.27601" lon="6.87582">
					<ele>6</ele>
					<time>0001-01-01T00:00:00Z</time>
				</trkpt>
				<trkpt lat="58.27581" lon="6.87528">
					<ele>6</ele>
					<time>0001-01-01T00:00:00Z</time>
				</trkpt>
				<trkpt lat="58.27065" lon="6.86152">
					<ele>6</ele>
					<time>0001-01-01T00:00:00Z</time>
				</trkpt>
				<trkpt lat="58.27013" lon="6.85994">
					<ele>9</ele>
					<time>0001-01-01T00:00:00Z</time>
				</trkpt>
				<trkpt lat="58.27008" lon="6.85985">
					<ele>9</ele>
					<time>0001-01-01T00:00:00Z</time>
				</trkpt>
				<trkpt lat="58.26961" lon="6.85981">
					<ele>12</ele>
					<time>0001-01-01T00:00:00Z</time>
				</trkpt>
				<trkpt lat="58.26940" lon="6.85992">
					<ele>13</ele>
					<time>0001-01-01T00:00:00Z</time>
				</trkpt>
				<trkpt lat="58.26922" lon="6.86008">
					<ele>17</ele>
					<time>0001-01-01T00:00:00Z</time>
				</trkpt>
				<trkpt lat="58.26867" lon="6.86053">
					<ele>15</ele>
					<time>0001-01-01T00:00:00Z</time>
				</trkpt>
				<trkpt lat="58.26823" lon="6.86053">
					<ele>15</ele>
					<time>0001-01-01T00:00:00Z</time>
				</trkpt>
				<trkpt lat="58.26804" lon="6.86045">
					<ele>14</ele>
					<time>0001-01-01T00:00:00Z</time>
				</trkpt>
				<trkpt lat="58.26777" lon="6.86008">
					<ele>14</ele>
					<time>0001-01-01T00:00:00Z</time>
				</trkpt>
				<trkpt lat="58.26684" lon="6.85768">
					<ele>13</ele>
					<time>0001-01-01T00:00:00Z</time>
				</trkpt>
				<trkpt lat="58.26634" lon="6.85586">
					<ele>12</ele>
					<time>0001-01-01T00:00:00Z</time>
				</trkpt>
				<trkpt lat="58.26655" lon="6.85420">
					<ele>11</ele>
					<time>0001-01-01T00:00:00Z</time>
				</trkpt>
				<trkpt lat="58.26629" lon="6.85329">
					<ele>11</ele>
					<time>0001-01-01T00:00:00Z</time>
				</trkpt>
				<trkpt lat="58.26581" lon="6.85244">
					<ele>10</ele>
					<time>0001-01-01T00:00:00Z</time>
				</trkpt>
				<trkpt lat="58.26579" lon="6.85161">
					<ele>9</ele>
					<time>0001-01-01T00:00:00Z</time>
				</trkpt>
				<trkpt lat="58.26588" lon="6.84841">
					<ele>4</ele>
					<time>0001-01-01T00:00:00Z</time>
				</trkpt>
				<trkpt lat="58.26585" lon="6.84679">
					<ele>3</ele>
					<time>0001-01-01T00:00:00Z</time>
				</trkpt>
				<trkpt lat="58.26557" lon="6.84617">
					<ele>4</ele>
					<time>0001-01-01T00:00:00Z</time>
				</trkpt>
				<trkpt lat="58.26533" lon="6.84580">
					<ele>5</ele>
					<time>0001-01-01T00:00:00Z</time>
				</trkpt>
				<trkpt lat="58.26470" lon="6.84527">
					<ele>7</ele>
					<time>0001-01-01T00:00:00Z</time>
				</trkpt>
				<trkpt lat="58.26436" lon="6.84488">
					<ele>8</ele>
					<time>0001-01-01T00:00:00Z</time>
				</trkpt>
				<trkpt lat="58.26418" lon="6.84452">
					<ele>9</ele>
					<time>0001-01-01T00:00:00Z</time>
				</trkpt>
				<trkpt lat="58.26357" lon="6.84229">
					<ele>10</ele>
					<time>0001-01-01T00:00:00Z</time>
				</trkpt>
				<trkpt lat="58.26219" lon="6.84028">
					<ele>7</ele>
					<time>0001-01-01T00:00:00Z</time>
				</trkpt>
				<trkpt lat="58.26192" lon="6.83978">
					<ele>6</ele>
					<time>0001-01-01T00:00:00Z</time>
				</trkpt>
				<trkpt lat="58.26154" lon="6.83834">
					<ele>7</ele>
					<time>0001-01-01T00:00:00Z</time>
				</trkpt>
				<trkpt lat="58.26134" lon="6.83604">
					<ele>15</ele>
					<time>0001-01-01T00:00:00Z</time>
				</trkpt>
				<trkpt lat="58.26075" lon="6.83406">
					<ele>14</ele>
					<time>0001-01-01T00:00:00Z</time>
				</trkpt>
				<trkpt lat="58.25990" lon="6.83135">
					<ele>13</ele>
					<time>0001-01-01T00:00:00Z</time>
				</trkpt>
				<trkpt lat="58.25990" lon="6.83109">
					<ele>13</ele>
					<time>0001-01-01T00:00:00Z</time>
				</trkpt>
				<trkpt lat="58.26001" lon="6.82856">
					<ele>15</ele>
					<time>0001-01-01T00:00:00Z</time>
				</trkpt>
				<trkpt lat="58.26079" lon="6.82652">
					<ele>17</ele>
					<time>0001-01-01T00:00:00Z</time>
				</trkpt>
				<trkpt lat="58.26146" lon="6.82508">
					<ele>15</ele>
					<time>0001-01-01T00:00:00Z</time>
				</trkpt>
				<trkpt lat="58.26198" lon="6.82275">
					<ele>12</ele>
					<time>0001-01-01T00:00:00Z</time>
				</trkpt>
				<trkpt lat="58.26232" lon="6.82080">
					<ele>13</ele>
					<time>0001-01-01T00:00:00Z</time>
				</trkpt>
				<trkpt lat="58.26251" lon="6.81975">
					<ele>15</ele>
					<time>0001-01-01T00:00:00Z</time>
				</trkpt>
				<trkpt lat="58.26274" lon="6.81843">
					<ele>20</ele>
					<time>0001-01-01T00:00:00Z</time>
				</trkpt>
				<trkpt lat="58.26296" lon="6.81715">
					<ele>25</ele>
					<time>0001-01-01T00:00:00Z</time>
				</trkpt>
				<trkpt lat="58.26326" lon="6.81621">
					<ele>32</ele>
					<time>0001-01-01T00:00:00Z</time>
				</trkpt>
				<trkpt lat="58.26371" lon="6.81542">
					<ele>33</ele>
					<time>0001-01-01T00:00:00Z</time>
				</trkpt>
				<trkpt lat="58.26415" lon="6.81465">
					<ele>34</ele>
					<time>0001-01-01T00:00:00Z</time>
				</trkpt>
				<trkpt lat="58.26444" lon="6.81375">
					<ele>38</ele>
					<time>0001-01-01T00:00:00Z</time>
				</trkpt>
				<trkpt lat="58.26453" lon="6.81284">
					<ele>41</ele>
					<time>0001-01-01T00:00:00Z</time>
				</trkpt>
				<trkpt lat="58.26445" lon="6.81125">
					<ele>47</ele>
					<time>0001-01-01T00:00:00Z</time>
				</trkpt>
				<trkpt lat="58.26442" lon="6.81030">
					<ele>50</ele>
					<time>0001-01-01T00:00:00Z</time>
				</trkpt>
				<trkpt lat="58.26462" lon="6.80913">
					<ele>54</ele>
					<time>0001-01-01T00:00:00Z</time>
				</trkpt>
				<trkpt lat="58.26512" lon="6.80813">
					<ele>62</ele>
					<time>0001-01-01T00:00:00Z</time>
				</trkpt>
				<trkpt lat="58.26571" lon="6.80744">
					<ele>68</ele>
					<time>0001-01-01T00:00:00Z</time>
				</trkpt>
				<trkpt lat="58.26635" lon="6.80626">
					<ele>73</ele>
					<time>0001-01-01T00:00:00Z</time>
				</trkpt>
				<trkpt lat="58.26680" lon="6.80524">
					<ele>82</ele>
					<time>0001-01-01T00:00:00Z</time>
				</trkpt>
				<trkpt lat="58.26744" lon="6.80441">
					<ele>84</ele>
					<time>0001-01-01T00:00:00Z</time>
				</trkpt>
				<trkpt lat="58.26808" lon="6.80418">
					<ele>86</ele>
					<time>0001-01-01T00:00:00Z</time>
				</trkpt>
				<trkpt lat="58.26896" lon="6.80409">
					<ele>89</ele>
					<time>0001-01-01T00:00:00Z</time>
				</trkpt>
				<trkpt lat="58.26952" lon="6.80397">
					<ele>92</ele>
					<time>0001-01-01T00:00:00Z</time>
				</trkpt>
				<trkpt lat="58.27012" lon="6.80369">
					<ele>94</ele>
					<time>0001-01-01T00:00:00Z</time>
				</trkpt>
				<trkpt lat="58.27090" lon="6.80295">
					<ele>96</ele>
					<time>0001-01-01T00:00:00Z</time>
				</trkpt>
				<trkpt lat="58.27154" lon="6.80206">
					<ele>98</ele>
					<time>0001-01-01T00:00:00Z</time>
				</trkpt>
				<trkpt lat="58.27244" lon="6.80069">
					<ele>105</ele>
					<time>0001-01-01T00:00:00Z</time>
				</trkpt>
				<trkpt lat="58.27304" lon="6.79974">
					<ele>108</ele>
					<time>0001-01-01T00:00:00Z</time>
				</trkpt>
				<trkpt lat="58.27386" lon="6.79861">
					<ele>112</ele>
					<time>0001-01-01T00:00:00Z</time>
				</trkpt>
				<trkpt lat="58.27426" lon="6.79851">
					<ele>112</ele>
					<time>0001-01-01T00:00:00Z</time>
				</trkpt>
				<trkpt lat="58.27442" lon="6.79819">
					<ele>113</ele>
					<time>0001-01-01T00:00:00Z</time>
				</trkpt>
				<trkpt lat="58.27477" lon="6.79827">
					<ele>112</ele>
					<time>0001-01-01T00:00:00Z</time>
				</trkpt>
				<trkpt lat="58.27495" lon="6.79849">
					<ele>112</ele>
					<time>0001-01-01T00:00:00Z</time>
				</trkpt>
				<trkpt lat="58.27504" lon="6.79935">
					<ele>113</ele>
					<time>0001-01-01T00:00:00Z</time>
				</trkpt>
				<trkpt lat="58.27474" lon="6.79960">
					<ele>114</ele>
					<time>0001-01-01T00:00:00Z</time>
				</trkpt>
				<trkpt lat="58.27451" lon="6.79915">
					<ele>117</ele>
					<time>0001-01-01T00:00:00Z</time>
				</trkpt>
				<trkpt lat="58.27450" lon="6.79893">
					<ele>118</ele>
					<time>0001-01-01T00:00:00Z</time>
				</trkpt>
				<trkpt lat="58.27462" lon="6.79718">
					<ele>125</ele>
					<time>0001-01-01T00:00:00Z</time>
				</trkpt>
				<trkpt lat="58.27416" lon="6.78986">
					<ele>128</ele>
					<time>0001-01-01T00:00:00Z</time>
				</trkpt>
				<trkpt lat="58.27366" lon="6.78787">
					<ele>152</ele>
					<time>0001-01-01T00:00:00Z</time>
				</trkpt>
				<trkpt lat="58.27348" lon="6.78619">
					<ele>154</ele>
					<time>0001-01-01T00:00:00Z</time>
				</trkpt>
				<trkpt lat="58.27360" lon="6.78424">
					<ele>155</ele>
					<time>0001-01-01T00:00:00Z</time>
				</trkpt>
				<trkpt lat="58.27376" lon="6.78163">
					<ele>156</ele>
					<time>0001-01-01T00:00:00Z</time>
				</trkpt>
				<trkpt lat="58.27358" lon="6.77945">
					<ele>159</ele>
					<time>0001-01-01T00:00:00Z</time>
				</trkpt>
				<trkpt lat="58.27309" lon="6.77790">
					<ele>165</ele>
					<time>0001-01-01T00:00:00Z</time>
				</trkpt>
				<trkpt lat="58.27232" lon="6.77644">
					<ele>168</ele>
					<time>0001-01-01T00:00:00Z</time>
				</trkpt>
				<trkpt lat="58.26998" lon="6.76626">
					<ele>170</ele>
					<time>0001-01-01T00:00:00Z</time>
				</trkpt>
				<trkpt lat="58.26963" lon="6.76346">
					<ele>202</ele>
					<time>0001-01-01T00:00:00Z</time>
				</trkpt>
				<trkpt lat="58.26949" lon="6.76067">
					<ele>202</ele>
					<time>0001-01-01T00:00:00Z</time>
				</trkpt>
				<trkpt lat="58.26977" lon="6.75765">
					<ele>202</ele>
					<time>0001-01-01T00:00:00Z</time>
				</trkpt>
				<trkpt lat="58.26988" lon="6.75480">
					<ele>201</ele>
					<time>0001-01-01T00:00:00Z</time>
				</trkpt>
				<trkpt lat="58.26983" lon="6.75131">
					<ele>198</ele>
					<time>0001-01-01T00:00:00Z</time>
				</trkpt>
				<trkpt lat="58.27018" lon="6.74896">
					<ele>194</ele>
					<time>0001-01-01T00:00:00Z</time>
				</trkpt>
				<trkpt lat="58.27077" lon="6.74517">
					<ele>190</ele>
					<time>0001-01-01T00:00:00Z</time>
				</trkpt>
				<trkpt lat="58.27066" lon="6.74250">
					<ele>182</ele>
					<time>0001-01-01T00:00:00Z</time>
				</trkpt>
				<trkpt lat="58.27062" lon="6.74235">
					<ele>182</ele>
					<time>0001-01-01T00:00:00Z</time>
				</trkpt>
				<trkpt lat="58.27125" lon="6.73335">
					<ele>167</ele>
					<time>0001-01-01T00:00:00Z</time>
				</trkpt>
				<trkpt lat="58.27252" lon="6.72858">
					<ele>153</ele>
					<time>0001-01-01T00:00:00Z</time>
				</trkpt>
				<trkpt lat="58.27335" lon="6.72712">
					<ele>142</ele>
					<time>0001-01-01T00:00:00Z</time>
				</trkpt>
				<trkpt lat="58.27432" lon="6.72650">
					<ele>138</ele>
					<time>0001-01-01T00:00:00Z</time>
				</trkpt>
				<trkpt lat="58.27535" lon="6.72603">
					<ele>132</ele>
					<time>0001-01-01T00:00:00Z</time>
				</trkpt>
				<trkpt lat="58.27663" lon="6.72502">
					<ele>128</ele>
					<time>0001-01-01T00:00:00Z</time>
				</trkpt>
				<trkpt lat="58.27775" lon="6.72319">
					<ele>127</ele>
					<time>0001-01-01T00:00:00Z</time>
				</trkpt>
				<trkpt lat="58.27906" lon="6.72120">
					<ele>126</ele>
					<time>0001-01-01T00:00:00Z</time>
				</trkpt>
				<trkpt lat="58.27989" lon="6.72003">
					<ele>119</ele>
					<time>0001-01-01T00:00:00Z</time>
				</trkpt>
				<trkpt lat="58.28070" lon="6.71816">
					<ele>110</ele>
					<time>0001-01-01T00:00:00Z</time>
				</trkpt>
				<trkpt lat="58.28089" lon="6.71629">
					<ele>103</ele>
					<time>0001-01-01T00:00:00Z</time>
				</trkpt>
				<trkpt lat="58.28115" lon="6.71359">
					<ele>94</ele>
					<time>0001-01-01T00:00:00Z</time>
				</trkpt>
				<trkpt lat="58.28123" lon="6.71106">
					<ele>87</ele>
					<time>0001-01-01T00:00:00Z</time>
				</trkpt>
				<trkpt lat="58.28074" lon="6.70888">
					<ele>76</ele>
					<time>0001-01-01T00:00:00Z</time>
				</trkpt>
				<trkpt lat="58.28050" lon="6.70653">
					<ele>65</ele>
					<time>0001-01-01T00:00:00Z</time>
				</trkpt>
				<trkpt lat="58.28054" lon="6.70588">
					<ele>63</ele>
					<time>0001-01-01T00:00:00Z</time>
				</trkpt>
				<trkpt lat="58.28105" lon="6.70398">
					<ele>56</ele>
					<time>0001-01-01T00:00:00Z</time>
				</trkpt>
				<trkpt lat="58.28191" lon="6.70286">
					<ele>53</ele>
					<time>0001-01-01T00:00:00Z</time>
				</trkpt>
				<trkpt lat="58.28233" lon="6.70266">
					<ele>52</ele>
					<time>0001-01-01T00:00:00Z</time>
				</trkpt>
				<trkpt lat="58.28356" lon="6.70292">
					<ele>47</ele>
					<time>0001-01-01T00:00:00Z</time>
				</trkpt>
				<trkpt lat="58.28434" lon="6.70395">
					<ele>47</ele>
					<time>0001-01-01T00:00:00Z</time>
				</trkpt>
				<trkpt lat="58.28507" lon="6.70520">
					<ele>49</ele>
					<time>0001-01-01T00:00:00Z</time>
				</trkpt>
				<trkpt lat="58.28594" lon="6.70629">
					<ele>51</ele>
					<time>0001-01-01T00:00:00Z</time>
				</trkpt>
				<trkpt lat="58.28670" lon="6.70685">
					<ele>54</ele>
					<time>0001-01-01T00:00:00Z</time>
				</trkpt>
				<trkpt lat="58.28736" lon="6.70702">
					<ele>58</ele>
					<time>0001-01-01T00:00:00Z</time>
				</trkpt>
				<trkpt lat="58.28808" lon="6.70687">
					<ele>61</ele>
					<time>0001-01-01T00:00:00Z</time>
				</trkpt>
				<trkpt lat="58.28881" lon="6.70631">
					<ele>65</ele>
					<time>0001-01-01T00:00:00Z</time>
				</trkpt>
				<trkpt lat="58.28959" lon="6.70519">
					<ele>70</ele>
					<time>0001-01-01T00:00:00Z</time>
				</trkpt>
				<trkpt lat="58.29021" lon="6.70413">
					<ele>74</ele>
					<time>0001-01-01T00:00:00Z</time>
				</trkpt>
				<trkpt lat="58.29069" lon="6.70327">
					<ele>77</ele>
					<time>0001-01-01T00:00:00Z</time>
				</trkpt>
				<trkpt lat="58.29086" lon="6.70326">
					<ele>77</ele>
					<time>0001-01-01T00:00:00Z</time>
				</trkpt>
				<trkpt lat="58.29108" lon="6.70298">
					<ele>77</ele>
					<time>0001-01-01T00:00:00Z</time>
				</trkpt>
				<trkpt lat="58.29165" lon="6.70142">
					<ele>76</ele>
					<time>0001-01-01T00:00:00Z</time>
				</trkpt>
				<trkpt lat="58.29259" lon="6.69934">
					<ele>73</ele>
					<time>0001-01-01T00:00:00Z</time>
				</trkpt>
				<trkpt lat="58.29314" lon="6.69715">
					<ele>68</ele>
					<time>0001-01-01T00:00:00Z</time>
				</trkpt>
				<trkpt lat="58.29352" lon="6.69401">
					<ele>65</ele>
					<time>0001-01-01T00:00:00Z</time>
				</trkpt>
				<trkpt lat="58.29356" lon="6.69383">
					<ele>65</ele>
					<time>0001-01-01T00:00:00Z</time>
				</trkpt>
				<trkpt lat="58.29449" lon="6.69117">
					<ele>58</ele>
					<time>0001-01-01T00:00:00Z</time>
				</trkpt>
				<trkpt lat="58.29465" lon="6.69093">
					<ele>57</ele>
					<time>0001-01-01T00:00:00Z</time>
				</trkpt>
				<trkpt lat="58.29494" lon="6.68984">
					<ele>55</ele>
					<time>0001-01-01T00:00:00Z</time>
				</trkpt>
				<trkpt lat="58.29505" lon="6.68940">
					<ele>56</ele>
					<time>0001-01-01T00:00:00Z</time>
				</trkpt>
				<trkpt lat="58.29539" lon="6.68698">
					<ele>55</ele>
					<time>0001-01-01T00:00:00Z</time>
				</trkpt>
				<trkpt lat="58.29562" lon="6.68406">
					<ele>52</ele>
					<time>0001-01-01T00:00:00Z</time>
				</trkpt>
				<trkpt lat="58.29570" lon="6.68296">
					<ele>50</ele>
					<time>0001-01-01T00:00:00Z</time>
				</trkpt>
				<trkpt lat="58.29587" lon="6.68220">
					<ele>47</ele>
					<time>0001-01-01T00:00:00Z</time>
				</trkpt>
				<trkpt lat="58.29668" lon="6.68066">
					<ele>39</ele>
					<time>0001-01-01T00:00:00Z</time>
				</trkpt>
				<trkpt lat="58.29689" lon="6.68043">
					<ele>37</ele>
					<time>0001-01-01T00:00:00Z</time>
				</trkpt>
				<trkpt lat="58.29770" lon="6.68004">
					<ele>32</ele>
					<time>0001-01-01T00:00:00Z</time>
				</trkpt>
				<trkpt lat="58.29777" lon="6.68003">
					<ele>32</ele>
					<time>0001-01-01T00:00:00Z</time>
				</trkpt>
				<trkpt lat="58.29771" lon="6.68013">
					<ele>30</ele>
					<time>0001-01-01T00:00:00Z</time>
				</trkpt>
				<trkpt lat="58.29759" lon="6.68019">
					<ele>29</ele>
					<time>0001-01-01T00:00:00Z</time>
				</trkpt>
				<trkpt lat="58.29767" lon="6.68031">
					<ele>28</ele>
					<time>0001-01-01T00:00:00Z</time>
				</trkpt>
				<trkpt lat="58.29793" lon="6.68020">
					<ele>29</ele>
					<time>0001-01-01T00:00:00Z</time>
				</trkpt>
				<trkpt lat="58.29805" lon="6.67960">
					<ele>28</ele>
					<time>0001-01-01T00:00:00Z</time>
				</trkpt>
				<trkpt lat="58.29827" lon="6.67847">
					<ele>28</ele>
					<time>0001-01-01T00:00:00Z</time>
				</trkpt>
				<trkpt lat="58.29838" lon="6.67815">
					<ele>28</ele>
					<time>0001-01-01T00:00:00Z</time>
				</trkpt>
				<trkpt lat="58.29857" lon="6.67678">
					<ele>27</ele>
					<time>0001-01-01T00:00:00Z</time>
				</trkpt>
				<trkpt lat="58.29859" lon="6.67662">
					<ele>26</ele>
					<time>0001-01-01T00:00:00Z</time>
				</trkpt>
				<trkpt lat="58.29805" lon="6.67479">
					<ele>26</ele>
					<time>0001-01-01T00:00:00Z</time>
				</trkpt>
				<trkpt lat="58.29764" lon="6.67372">
					<ele>26</ele>
					<time>0001-01-01T00:00:00Z</time>
				</trkpt>
				<trkpt lat="58.29682" lon="6.67158">
					<ele>26</ele>
					<time>0001-01-01T00:00:00Z</time>
				</trkpt>
				<trkpt lat="58.29604" lon="6.66939">
					<ele>24</ele>
					<time>0001-01-01T00:00:00Z</time>
				</trkpt>
				<trkpt lat="58.29566" lon="6.66850">
					<ele>21</ele>
					<time>0001-01-01T00:00:00Z</time>
				</trkpt>
				<trkpt lat="58.29569" lon="6.66751">
					<ele>18</ele>
					<time>0001-01-01T00:00:00Z</time>
				</trkpt>
				<trkpt lat="58.29604" lon="6.66582">
					<ele>15</ele>
					<time>0001-01-01T00:00:00Z</time>
				</trkpt>
				<trkpt lat="58.29638" lon="6.66368">
					<ele>13</ele>
					<time>0001-01-01T00:00:00Z</time>
				</trkpt>
				<trkpt lat="58.29678" lon="6.66189">
					<ele>11</ele>
					<time>0001-01-01T00:00:00Z</time>
				</trkpt>
				<trkpt lat="58.29716" lon="6.66036">
					<ele>9</ele>
					<time>0001-01-01T00:00:00Z</time>
				</trkpt>
				<trkpt lat="58.29736" lon="6.65914">
					<ele>9</ele>
					<time>0001-01-01T00:00:00Z</time>
				</trkpt>
				<trkpt lat="58.29734" lon="6.65870">
					<ele>9</ele>
					<time>0001-01-01T00:00:00Z</time>
				</trkpt>
				<trkpt lat="58.29721" lon="6.65765">
					<ele>10</ele>
					<time>0001-01-01T00:00:00Z</time>
				</trkpt>
				<trkpt lat="58.29699" lon="6.65637">
					<ele>13</ele>
					<time>0001-01-01T00:00:00Z</time>
				</trkpt>
				<trkpt lat="58.29696" lon="6.65626">
					<ele>13</ele>
					<time>0001-01-01T00:00:00Z</time>
				</trkpt>
				<trkpt lat="58.29692" lon="6.65634">
					<ele>14</ele>
					<time>0001-01-01T00:00:00Z</time>
				</trkpt>
				<trkpt lat="58.29697" lon="6.65651">
					<ele>15</ele>
					<time>0001-01-01T00:00:00Z</time>
				</trkpt>
				<trkpt lat="58.29718" lon="6.65792">
					<ele>14</ele>
					<time>0001-01-01T00:00:00Z</time>
				</trkpt>
				<trkpt lat="58.29730" lon="6.65912">
					<ele>11</ele>
					<time>0001-01-01T00:00:00Z</time>
				</trkpt>
				<trkpt lat="58.29712" lon="6.66040">
					<ele>11</ele>
					<time>0001-01-01T00:00:00Z</time>
				</trkpt>
				<trkpt lat="58.29688" lon="6.66123">
					<ele>5</ele>
					<time>0001-01-01T00:00:00Z</time>
				</trkpt>
				<trkpt lat="58.29704" lon="6.66066">
					<ele>4</ele>
					<time>0001-01-01T00:00:00Z</time>
				</trkpt>
				<trkpt lat="58.29732" lon="6.65902">
					<ele>5</ele>
					<time>0001-01-01T00:00:00Z</time>
				</trkpt>
				<trkpt lat="58.29716" lon="6.65768">
					<ele>6</ele>
					<time>0001-01-01T00:00:00Z</time>
				</trkpt>
				<trkpt lat="58.29692" lon="6.65612">
					<ele>9</ele>
					<time>0001-01-01T00:00:00Z</time>
				</trkpt>
				<trkpt lat="58.29663" lon="6.65497">
					<ele>10</ele>
					<time>0001-01-01T00:00:00Z</time>
				</trkpt>
				<trkpt lat="58.29654" lon="6.65454">
					<ele>11</ele>
					<time>0001-01-01T00:00:00Z</time>
				</trkpt>
				<trkpt lat="58.29660" lon="6.65366">
					<ele>14</ele>
					<time>0001-01-01T00:00:00Z</time>
				</trkpt>
				<trkpt lat="58.29695" lon="6.65208">
					<ele>15</ele>
					<time>0001-01-01T00:00:00Z</time>
				</trkpt>
				<trkpt lat="58.29696" lon="6.65179">
					<ele>15</ele>
					<time>0001-01-01T00:00:00Z</time>
				</trkpt>
				<trkpt lat="58.29665" lon="6.65109">
					<ele>12</ele>
					<time>0001-01-01T00:00:00Z</time>
				</trkpt>
				<trkpt lat="58.29647" lon="6.65103">
					<ele>12</ele>
					<time>0001-01-01T00:00:00Z</time>
				</trkpt>
				<trkpt lat="58.29592" lon="6.65006">
					<ele>10</ele>
					<time>0001-01-01T00:00:00Z</time>
				</trkpt>
				<trkpt lat="58.29589" lon="6.64970">
					<ele>10</ele>
					<time>0001-01-01T00:00:00Z</time>
				</trkpt>
				<trkpt lat="58.29585" lon="6.64895">
					<ele>9</ele>
					<time>0001-01-01T00:00:00Z</time>
				</trkpt>
				<trkpt lat="58.29569" lon="6.64819">
					<ele>7</ele>
					<time>0001-01-01T00:00:00Z</time>
				</trkpt>
				<trkpt lat="58.29534" lon="6.64743">
					<ele>5</ele>
					<time>0001-01-01T00:00:00Z</time>
				</trkpt>
				<trkpt lat="58.29473" lon="6.64675">
					<ele>4</ele>
					<time>0001-01-01T00:00:00Z</time>
				</trkpt>
				<trkpt lat="58.29417" lon="6.64670">
					<ele>4</ele>
					<time>0001-01-01T00:00:00Z</time>
				</trkpt>
				<trkpt lat="58.29399" lon="6.64676">
					<ele>4</ele>
					<time>0001-01-01T00:00:00Z</time>
				</trkpt>
				<trkpt lat="58.29275" lon="6.64769">
					<ele>5</ele>
					<time>0001-01-01T00:00:00Z</time>
				</trkpt>
				<trkpt lat="58.29252" lon="6.64786">
					<ele>6</ele>
					<time>0001-01-01T00:00:00Z</time>
				</trkpt>
				<trkpt lat="58.29170" lon="6.64825">
					<ele>10</ele>
					<time>0001-01-01T00:00:00Z</time>
				</trkpt>
				<trkpt lat="58.29112" lon="6.64839">
					<ele>15</ele>
					<time>0001-01-01T00:00:00Z</time>
				</trkpt>
				<trkpt lat="58.29034" lon="6.64850">
					<ele>16</ele>
					<time>0001-01-01T00:00:00Z</time>
				</trkpt>
				<trkpt lat="58.28973" lon="6.64854">
					<ele>16</ele>
					<time>0001-01-01T00:00:00Z</time>
				</trkpt>
				<trkpt lat="58.28864" lon="6.64904">
					<ele>15</ele>
					<time>0001-01-01T00:00:00Z</time>
				</trkpt>
				<trkpt lat="58.28835" lon="6.64941">
					<ele>17</ele>
					<time>0001-01-01T00:00:00Z</time>
				</trkpt>
				<trkpt lat="58.28806" lon="6.64985">
					<ele>18</ele>
					<time>0001-01-01T00:00:00Z</time>
				</trkpt>
				<trkpt lat="58.28788" lon="6.65000">
					<ele>19</ele>
					<time>0001-01-01T00:00:00Z</time>
				</trkpt>
				<trkpt lat="58.28710" lon="6.65001">
					<ele>18</ele>
					<time>0001-01-01T00:00:00Z</time>
				</trkpt>
				<trkpt lat="58.28622" lon="6.64968">
					<ele>14</ele>
					<time>0001-01-01T00:00:00Z</time>
				</trkpt>
				<trkpt lat="58.28590" lon="6.64916">
					<ele>13</ele>
					<time>0001-01-01T00:00:00Z</time>
				</trkpt>
				<trkpt lat="58.28534" lon="6.64764">
					<ele>13</ele>
					<time>0001-01-01T00:00:00Z</time>
				</trkpt>
				<trkpt lat="58.28532" lon="6.64755">
					<ele>13</ele>
					<time>0001-01-01T00:00:00Z</time>
				</trkpt>
				<trkpt lat="58.28525" lon="6.64652">
					<ele>18</ele>
					<time>0001-01-01T00:00:00Z</time>
				</trkpt>
				<trkpt lat="58.28510" lon="6.64551">
					<ele>21</ele>
					<time>0001-01-01T00:00:00Z</time>
				</trkpt>
				<trkpt lat="58.28476" lon="6.64482">
					<ele>26</ele>
					<time>0001-01-01T00:00:00Z</time>
				</trkpt>
				<trkpt lat="58.28423" lon="6.64475">
					<ele>28</ele>
					<time>0001-01-01T00:00:00Z</time>
				</trkpt>
				<trkpt lat="58.28404" lon="6.64431">
					<ele>28</ele>
					<time>0001-01-01T00:00:00Z</time>
				</trkpt>
				<trkpt lat="58.28391" lon="6.64347">
					<ele>29</ele>
					<time>0001-01-01T00:00:00Z</time>
				</trkpt>
				<trkpt lat="58.28390" lon="6.64154">
					<ele>33</ele>
					<time>0001-01-01T00:00:00Z</time>
				</trkpt>
				<trkpt lat="58.28361" lon="6.64077">
					<ele>40</ele>
					<time>0001-01-01T00:00:00Z</time>
				</trkpt>
				<trkpt lat="58.28311" lon="6.64033">
					<ele>50</ele>
					<time>0001-01-01T00:00:00Z</time>
				</trkpt>
				<trkpt lat="58.28276" lon="6.64014">
					<ele>58</ele>
					<time>0001-01-01T00:00:00Z</time>
				</trkpt>
				<trkpt lat="58.28227" lon="6.64015">
					<ele>64</ele>
					<time>0001-01-01T00:00:00Z</time>
				</trkpt>
				<trkpt lat="58.28176" lon="6.64005">
					<ele>66</ele>
					<time>0001-01-01T00:00:00Z</time>
				</trkpt>
				<trkpt lat="58.28116" lon="6.63980">
					<ele>71</ele>
					<time>0001-01-01T00:00:00Z</time>
				</trkpt>
				<trkpt lat="58.28060" lon="6.63961">
					<ele>77</ele>
					<time>0001-01-01T00:00:00Z</time>
				</trkpt>
				<trkpt lat="58.27991" lon="6.63961">
					<ele>82</ele>
					<time>0001-01-01T00:00:00Z</time>
				</trkpt>
				<trkpt lat="58.27936" lon="6.63916">
					<ele>88</ele>
					<time>0001-01-01T00:00:00Z</time>
				</trkpt>
				<trkpt lat="58.27881" lon="6.63850">
					<ele>89</ele>
					<time>0001-01-01T00:00:00Z</time>
				</trkpt>
				<trkpt lat="58.27877" lon="6.63847">
					<ele>89</ele>
					<time>0001-01-01T00:00:00Z</time>
				</trkpt>
				<trkpt lat="58.27861" lon="6.63827">
					<ele>88</ele>
					<time>0001-01-01T00:00:00Z</time>
				</trkpt>
				<trkpt lat="58.27880" lon="6.63750">
					<ele>88</ele>
					<time>0001-01-01T00:00:00Z</time>
				</trkpt>
				<trkpt lat="58.27936" lon="6.63639">
					<ele>88</ele>
					<time>0001-01-01T00:00:00Z</time>
				</trkpt>
				<trkpt lat="58.27931" lon="6.63527">
					<ele>88</ele>
					<time>0001-01-01T00:00:00Z</time>
				</trkpt>
				<trkpt lat="58.27826" lon="6.63202">
					<ele>81</ele>
					<time>0001-01-01T00:00:00Z</time>
				</trkpt>
				<trkpt lat="58.27818" lon="6.63072">
					<ele>84</ele>
					<time>0001-01-01T00:00:00Z</time>
				</trkpt>
				<trkpt lat="58.27825" lon="6.63030">
					<ele>85</ele>
					<time>0001-01-01T00:00:00Z</time>
				</trkpt>
				<trkpt lat="58.27860" lon="6.62908">
					<ele>85</ele>
					<time>0001-01-01T00:00:00Z</time>
				</trkpt>
				<trkpt lat="58.27900" lon="6.62815">
					<ele>85</ele>
					<time>0001-01-01T00:00:00Z</time>
				</trkpt>
				<trkpt lat="58.27931" lon="6.62762">
					<ele>85</ele>
					<time>0001-01-01T00:00:00Z</time>
				</trkpt>
				<trkpt lat="58.27933" lon="6.62756">
					<ele>84</ele>
					<time>0001-01-01T00:00:00Z</time>
				</trkpt>
				<trkpt lat="58.27952" lon="6.62675">
					<ele>82</ele>
					<time>0001-01-01T00:00:00Z</time>
				</trkpt>
				<trkpt lat="58.27980" lon="6.62555">
					<ele>84</ele>
					<time>0001-01-01T00:00:00Z</time>
				</trkpt>
				<trkpt lat="58.28008" lon="6.62463">
					<ele>87</ele>
					<time>0001-01-01T00:00:00Z</time>
				</trkpt>
				<trkpt lat="58.28063" lon="6.62376">
					<ele>89</ele>
					<time>0001-01-01T00:00:00Z</time>
				</trkpt>
				<trkpt lat="58.28121" lon="6.62314">
					<ele>92</ele>
					<time>0001-01-01T00:00:00Z</time>
				</trkpt>
				<trkpt lat="58.28186" lon="6.62157">
					<ele>93</ele>
					<time>0001-01-01T00:00:00Z</time>
				</trkpt>
				<trkpt lat="58.28215" lon="6.62005">
					<ele>91</ele>
					<time>0001-01-01T00:00:00Z</time>
				</trkpt>
				<trkpt lat="58.28263" lon="6.61903">
					<ele>91</ele>
					<time>0001-01-01T00:00:00Z</time>
				</trkpt>
				<trkpt lat="58.28393" lon="6.61833">
					<ele>94</ele>
					<time>0001-01-01T00:00:00Z</time>
				</trkpt>
				<trkpt lat="58.28482" lon="6.61635">
					<ele>93</ele>
					<time>0001-01-01T00:00:00Z</time>
				</trkpt>
				<trkpt lat="58.28573" lon="6.61398">
					<ele>93</ele>
					<time>0001-01-01T00:00:00Z</time>
				</trkpt>
				<trkpt lat="58.28624" lon="6.61213">
					<ele>93</ele>
					<time>0001-01-01T00:00:00Z</time>
				</trkpt>
				<trkpt lat="58.28633" lon="6.61097">
					<ele>96</ele>
					<time>0001-01-01T00:00:00Z</time>
				</trkpt>
				<trkpt lat="58.28621" lon="6.60948">
					<ele>96</ele>
					<time>0001-01-01T00:00:00Z</time>
				</trkpt>
				<trkpt lat="58.28612" lon="6.60820">
					<ele>97</ele>
					<time>0001-01-01T00:00:00Z</time>
				</trkpt>
				<trkpt lat="58.28613" lon="6.60765">
					<ele>96</ele>
					<time>0001-01-01T00:00:00Z</time>
				</trkpt>
				<trkpt lat="58.28665" lon="6.60811">
					<ele>96</ele>
					<time>0001-01-01T00:00:00Z</time>
				</trkpt>
				<trkpt lat="58.28613" lon="6.60783">
					<ele>96</ele>
					<time>0001-01-01T00:00:00Z</time>
				</trkpt>
				<trkpt lat="58.28613" lon="6.60744">
					<ele>96</ele>
					<time>0001-01-01T00:00:00Z</time>
				</trkpt>
				<trkpt lat="58.28614" lon="6.60710">
					<ele>96</ele>
					<time>0001-01-01T00:00:00Z</time>
				</trkpt>
				<trkpt lat="58.28614" lon="6.60651">
					<ele>98</ele>
					<time>0001-01-01T00:00:00Z</time>
				</trkpt>
				<trkpt lat="58.28616" lon="6.60531">
					<ele>101</ele>
					<time>0001-01-01T00:00:00Z</time>
				</trkpt>
				<trkpt lat="58.28618" lon="6.60510">
					<ele>102</ele>
					<time>0001-01-01T00:00:00Z</time>
				</trkpt>
				<trkpt lat="58.28626" lon="6.60436">
					<ele>103</ele>
					<time>0001-01-01T00:00:00Z</time>
				</trkpt>
				<trkpt lat="58.28655" lon="6.60153">
					<ele>120</ele>
					<time>0001-01-01T00:00:00Z</time>
				</trkpt>
				<trkpt lat="58.28661" lon="6.59804">
					<ele>135</ele>
					<time>0001-01-01T00:00:00Z</time>
				</trkpt>
				<trkpt lat="58.28659" lon="6.59792">
					<ele>137</ele>
					<time>0001-01-01T00:00:00Z</time>
				</trkpt>
				<trkpt lat="58.28662" lon="6.59701">
					<ele>143</ele>
					<time>0001-01-01T00:00:00Z</time>
				</trkpt>
				<trkpt lat="58.28681" lon="6.59512">
					<ele>152</ele>
					<time>0001-01-01T00:00:00Z</time>
				</trkpt>
				<trkpt lat="58.28687" lon="6.59339">
					<ele>158</ele>
					<time>0001-01-01T00:00:00Z</time>
				</trkpt>
				<trkpt lat="58.28671" lon="6.59060">
					<ele>163</ele>
					<time>0001-01-01T00:00:00Z</time>
				</trkpt>
				<trkpt lat="58.28669" lon="6.59024">
					<ele>164</ele>
					<time>0001-01-01T00:00:00Z</time>
				</trkpt>
				<trkpt lat="58.28679" lon="6.58724">
					<ele>166</ele>
					<time>0001-01-01T00:00:00Z</time>
				</trkpt>
				<trkpt lat="58.28690" lon="6.58507">
					<ele>168</ele>
					<time>0001-01-01T00:00:00Z</time>
				</trkpt>
				<trkpt lat="58.28656" lon="6.58234">
					<ele>168</ele>
					<time>0001-01-01T00:00:00Z</time>
				</trkpt>
				<trkpt lat="58.28644" lon="6.58146">
					<ele>166</ele>
					<time>0001-01-01T00:00:00Z</time>
				</trkpt>
				<trkpt lat="58.28594" lon="6.57901">
					<ele>166</ele>
					<time>0001-01-01T00:00:00Z</time>
				</trkpt>
				<trkpt lat="58.28562" lon="6.57645">
					<ele>165</ele>
					<time>0001-01-01T00:00:00Z</time>
				</trkpt>
				<trkpt lat="58.28527" lon="6.57314">
					<ele>164</ele>
					<time>0001-01-01T00:00:00Z</time>
				</trkpt>
				<trkpt lat="58.28595" lon="6.56877">
					<ele>162</ele>
					<time>0001-01-01T00:00:00Z</time>
				</trkpt>
				<trkpt lat="58.28620" lon="6.56711">
					<ele>161</ele>
					<time>0001-01-01T00:00:00Z</time>
				</trkpt>
				<trkpt lat="58.28604" lon="6.56499">
					<ele>163</ele>
					<time>0001-01-01T00:00:00Z</time>
				</trkpt>
				<trkpt lat="58.28604" lon="6.56485">
					<ele>163</ele>
					<time>0001-01-01T00:00:00Z</time>
				</trkpt>
				<trkpt lat="58.28628" lon="6.56259">
					<ele>162</ele>
					<time>0001-01-01T00:00:00Z</time>
				</trkpt>
				<trkpt lat="58.28626" lon="6.56100">
					<ele>161</ele>
					<time>0001-01-01T00:00:00Z</time>
				</trkpt>
				<trkpt lat="58.28599" lon="6.56025">
					<ele>161</ele>
					<time>0001-01-01T00:00:00Z</time>
				</trkpt>
				<trkpt lat="58.28570" lon="6.56022">
					<ele>160</ele>
					<time>0001-01-01T00:00:00Z</time>
				</trkpt>
				<trkpt lat="58.28529" lon="6.55963">
					<ele>160</ele>
					<time>0001-01-01T00:00:00Z</time>
				</trkpt>
				<trkpt lat="58.28481" lon="6.55710">
					<ele>160</ele>
					<time>0001-01-01T00:00:00Z</time>
				</trkpt>
				<trkpt lat="58.28476" lon="6.55647">
					<ele>161</ele>
					<time>0001-01-01T00:00:00Z</time>
				</trkpt>
				<trkpt lat="58.28475" lon="6.55628">
					<ele>161</ele>
					<time>0001-01-01T00:00:00Z</time>
				</trkpt>
				<trkpt lat="58.28462" lon="6.55489">
					<ele>165</ele>
					<time>0001-01-01T00:00:00Z</time>
				</trkpt>
				<trkpt lat="58.28449" lon="6.55160">
					<ele>167</ele>
					<time>0001-01-01T00:00:00Z</time>
				</trkpt>
				<trkpt lat="58.28458" lon="6.54905">
					<ele>161</ele>
					<time>0001-01-01T00:00:00Z</time>
				</trkpt>
				<trkpt lat="58.28476" lon="6.54406">
					<ele>150</ele>
					<time>0001-01-01T00:00:00Z</time>
				</trkpt>
				<trkpt lat="58.28530" lon="6.53867">
					<ele>152</ele>
					<time>0001-01-01T00:00:00Z</time>
				</trkpt>
				<trkpt lat="58.28552" lon="6.53823">
					<ele>151</ele>
					<time>0001-01-01T00:00:00Z</time>
				</trkpt>
				<trkpt lat="58.28593" lon="6.53770">
					<ele>151</ele>
					<time>0001-01-01T00:00:00Z</time>
				</trkpt>
				<trkpt lat="58.28595" lon="6.53768">
					<ele>151</ele>
					<time>0001-01-01T00:00:00Z</time>
				</trkpt>
				<trkpt lat="58.28567" lon="6.53526">
					<ele>149</ele>
					<time>0001-01-01T00:00:00Z</time>
				</trkpt>
				<trkpt lat="58.28582" lon="6.53276">
					<ele>144</ele>
					<time>0001-01-01T00:00:00Z</time>
				</trkpt>
				<trkpt lat="58.28662" lon="6.52998">
					<ele>133</ele>
					<time>0001-01-01T00:00:00Z</time>
				</trkpt>
				<trkpt lat="58.28717" lon="6.52717">
					<ele>126</ele>
					<time>0001-01-01T00:00:00Z</time>
				</trkpt>
				<trkpt lat="58.28749" lon="6.52389">
					<ele>116</ele>
					<time>0001-01-01T00:00:00Z</time>
				</trkpt>
				<trkpt lat="58.28727" lon="6.52050">
					<ele>111</ele>
					<time>0001-01-01T00:00:00Z</time>
				</trkpt>
				<trkpt lat="58.28597" lon="6.51715">
					<ele>107</ele>
					<time>0001-01-01T00:00:00Z</time>
				</trkpt>
				<trkpt lat="58.28578" lon="6.51688">
					<ele>106</ele>
					<time>0001-01-01T00:00:00Z</time>
				</trkpt>
				<trkpt lat="58.28453" lon="6.50046">
					<ele>72</ele>
					<time>0001-01-01T00:00:00Z</time>
				</trkpt>
				<trkpt lat="58.28481" lon="6.49872">
					<ele>56</ele>
					<time>0001-01-01T00:00:00Z</time>
				</trkpt>
				<trkpt lat="58.28479" lon="6.49760">
					<ele>55</ele>
					<time>0001-01-01T00:00:00Z</time>
				</trkpt>
				<trkpt lat="58.28450" lon="6.49492">
					<ele>55</ele>
					<time>0001-01-01T00:00:00Z</time>
				</trkpt>
				<trkpt lat="58.28446" lon="6.49330">
					<ele>55</ele>
					<time>0001-01-01T00:00:00Z</time>
				</trkpt>
				<trkpt lat="58.28415" lon="6.49155">
					<ele>53</ele>
					<time>0001-01-01T00:00:00Z</time>
				</trkpt>
				<trkpt lat="58.28376" lon="6.48944">
					<ele>47</ele>
					<time>0001-01-01T00:00:00Z</time>
				</trkpt>
				<trkpt lat="58.28334" lon="6.48760">
					<ele>51</ele>
					<time>0001-01-01T00:00:00Z</time>
				</trkpt>
				<trkpt lat="58.28275" lon="6.48665">
					<ele>50</ele>
					<time>0001-01-01T00:00:00Z</time>
				</trkpt>
				<trkpt lat="58.28268" lon="6.48652">
					<ele>49</ele>
					<time>0001-01-01T00:00:00Z</time>
				</trkpt>
				<trkpt lat="58.28235" lon="6.48555">
					<ele>48</ele>
					<time>0001-01-01T00:00:00Z</time>
				</trkpt>
				<trkpt lat="58.28185" lon="6.48339">
					<ele>51</ele>
					<time>0001-01-01T00:00:00Z</time>
				</trkpt>
				<trkpt lat="58.28152" lon="6.48222">
					<ele>49</ele>
					<time>0001-01-01T00:00:00Z</time>
				</trkpt>
				<trkpt lat="58.28091" lon="6.48130">
					<ele>46</ele>
					<time>0001-01-01T00:00:00Z</time>
				</trkpt>
				<trkpt lat="58.27975" lon="6.48079">
					<ele>45</ele>
					<time>0001-01-01T00:00:00Z</time>
				</trkpt>
				<trkpt lat="58.27862" lon="6.47964">
					<ele>47</ele>
					<time>0001-01-01T00:00:00Z</time>
				</trkpt>
				<trkpt lat="58.27851" lon="6.47939">
					<ele>47</ele>
					<time>0001-01-01T00:00:00Z</time>
				</trkpt>
				<trkpt lat="58.27858" lon="6.47917">
					<ele>47</ele>
					<time>0001-01-01T00:00:00Z</time>
				</trkpt>
				<trkpt lat="58.27908" lon="6.47664">
					<ele>47</ele>
					<time>0001-01-01T00:00:00Z</time>
				</trkpt>
				<trkpt lat="58.27962" lon="6.47531">
					<ele>46</ele>
					<time>0001-01-01T00:00:00Z</time>
				</trkpt>
				<trkpt lat="58.28028" lon="6.47377">
					<ele>55</ele>
					<time>0001-01-01T00:00:00Z</time>
				</trkpt>
				<trkpt lat="58.28039" lon="6.47253">
					<ele>60</ele>
					<time>0001-01-01T00:00:00Z</time>
				</trkpt>
				<trkpt lat="58.28064" lon="6.47148">
					<ele>67</ele>
					<time>0001-01-01T00:00:00Z</time>
				</trkpt>
				<trkpt lat="58.28119" lon="6.46905">
					<ele>78</ele>
					<time>0001-01-01T00:00:00Z</time>
				</trkpt>
				<trkpt lat="58.28121" lon="6.46882">
					<ele>79</ele>
					<time>0001-01-01T00:00:00Z</time>
				</trkpt>
				<trkpt lat="58.28081" lon="6.46626">
					<ele>84</ele>
					<time>0001-01-01T00:00:00Z</time>
				</trkpt>
				<trkpt lat="58.28097" lon="6.46318">
					<ele>86</ele>
					<time>0001-01-01T00:00:00Z</time>
				</trkpt>
				<trkpt lat="58.28100" lon="6.46264">
					<ele>87</ele>
					<time>0001-01-01T00:00:00Z</time>
				</trkpt>
				<trkpt lat="58.28101" lon="6.46241">
					<ele>87</ele>
					<time>0001-01-01T00:00:00Z</time>
				</trkpt>
				<trkpt lat="58.28084" lon="6.46202">
					<ele>85</ele>
					<time>0001-01-01T00:00:00Z</time>
				</trkpt>
				<trkpt lat="58.28073" lon="6.46128">
					<ele>83</ele>
					<time>0001-01-01T00:00:00Z</time>
				</trkpt>
				<trkpt lat="58.28070" lon="6.45904">
					<ele>79</ele>
					<time>0001-01-01T00:00:00Z</time>
				</trkpt>
				<trkpt lat="58.28071" lon="6.45885">
					<ele>79</ele>
					<time>0001-01-01T00:00:00Z</time>
				</trkpt>
				<trkpt lat="58.28085" lon="6.45854">
					<ele>78</ele>
					<time>0001-01-01T00:00:00Z</time>
				</trkpt>
				<trkpt lat="58.28087" lon="6.45866">
					<ele>78</ele>
					<time>0001-01-01T00:00:00Z</time>
				</trkpt>
				<trkpt lat="58.28086" lon="6.45963">
					<ele>75</ele>
					<time>0001-01-01T00:00:00Z</time>
				</trkpt>
				<trkpt lat="58.28112" lon="6.45978">
					<ele>74</ele>
					<time>0001-01-01T00:00:00Z</time>
				</trkpt>
				<trkpt lat="58.28125" lon="6.45955">
					<ele>72</ele>
					<time>0001-01-01T00:00:00Z</time>
				</trkpt>
				<trkpt lat="58.28188" lon="6.45819">
					<ele>68</ele>
					<time>0001-01-01T00:00:00Z</time>
				</trkpt>
				<trkpt lat="58.28219" lon="6.45591">
					<ele>58</ele>
					<time>0001-01-01T00:00:00Z</time>
				</trkpt>
				<trkpt lat="58.28256" lon="6.45318">
					<ele>56</ele>
					<time>0001-01-01T00:00:00Z</time>
				</trkpt>
				<trkpt lat="58.28256" lon="6.45146">
					<ele>54</ele>
					<time>0001-01-01T00:00:00Z</time>
				</trkpt>
				<trkpt lat="58.28259" lon="6.45126">
					<ele>54</ele>
					<time>0001-01-01T00:00:00Z</time>
				</trkpt>
				<trkpt lat="58.28299" lon="6.45064">
					<ele>55</ele>
					<time>0001-01-01T00:00:00Z</time>
				</trkpt>
				<trkpt lat="58.28394" lon="6.44997">
					<ele>53</ele>
					<time>0001-01-01T00:00:00Z</time>
				</trkpt>
				<trkpt lat="58.28500" lon="6.44942">
					<ele>53</ele>
					<time>0001-01-01T00:00:00Z</time>
				</trkpt>
				<trkpt lat="58.28593" lon="6.44885">
					<ele>56</ele>
					<time>0001-01-01T00:00:00Z</time>
				</trkpt>
				<trkpt lat="58.28603" lon="6.44894">
					<ele>56</ele>
					<time>0001-01-01T00:00:00Z</time>
				</trkpt>
				<trkpt lat="58.28646" lon="6.44854">
					<ele>59</ele>
					<time>0001-01-01T00:00:00Z</time>
				</trkpt>
				<trkpt lat="58.28708" lon="6.44802">
					<ele>65</ele>
					<time>0001-01-01T00:00:00Z</time>
				</trkpt>
				<trkpt lat="58.28780" lon="6.44734">
					<ele>71</ele>
					<time>0001-01-01T00:00:00Z</time>
				</trkpt>
				<trkpt lat="58.28879" lon="6.44647">
					<ele>77</ele>
					<time>0001-01-01T00:00:00Z</time>
				</trkpt>
				<trkpt lat="58.28887" lon="6.44640">
					<ele>77</ele>
					<time>0001-01-01T00:00:00Z</time>
				</trkpt>
				<trkpt lat="58.28936" lon="6.44577">
					<ele>76</ele>
					<time>0001-01-01T00:00:00Z</time>
				</trkpt>
				<trkpt lat="58.28959" lon="6.44494">
					<ele>75</ele>
					<time>0001-01-01T00:00:00Z</time>
				</trkpt>
				<trkpt lat="58.28984" lon="6.44275">
					<ele>68</ele>
					<time>0001-01-01T00:00:00Z</time>
				</trkpt>
				<trkpt lat="58.28981" lon="6.44213">
					<ele>65</ele>
					<time>0001-01-01T00:00:00Z</time>
				</trkpt>
				<trkpt lat="58.28947" lon="6.44113">
					<ele>61</ele>
					<time>0001-01-01T00:00:00Z</time>
				</trkpt>
				<trkpt lat="58.28951" lon="6.44007">
					<ele>58</ele>
					<time>0001-01-01T00:00:00Z</time>
				</trkpt>
				<trkpt lat="58.28957" lon="6.43989">
					<ele>57</ele>
					<time>0001-01-01T00:00:00Z</time>
				</trkpt>
				<trkpt lat="58.28954" lon="6.43885">
					<ele>51</ele>
					<time>0001-01-01T00:00:00Z</time>
				</trkpt>
				<trkpt lat="58.28944" lon="6.43775">
					<ele>46</ele>
					<time>0001-01-01T00:00:00Z</time>
				</trkpt>
				<trkpt lat="58.28956" lon="6.43793">
					<ele>44</ele>
					<time>0001-01-01T00:00:00Z</time>
				</trkpt>
				<trkpt lat="58.28953" lon="6.43804">
					<ele>43</ele>
					<time>0001-01-01T00:00:00Z</time>
				</trkpt>
				<trkpt lat="58.28960" lon="6.43868">
					<ele>42</ele>
					<time>0001-01-01T00:00:00Z</time>
				</trkpt>
				<trkpt lat="58.28996" lon="6.43959">
					<ele>39</ele>
					<time>0001-01-01T00:00:00Z</time>
				</trkpt>
				<trkpt lat="58.28995" lon="6.44028">
					<ele>37</ele>
					<time>0001-01-01T00:00:00Z</time>
				</trkpt>
				<trkpt lat="58.29011" lon="6.44116">
					<ele>35</ele>
					<time>0001-01-01T00:00:00Z</time>
				</trkpt>
				<trkpt lat="58.29032" lon="6.44188">
					<ele>31</ele>
					<time>0001-01-01T00:00:00Z</time>
				</trkpt>
				<trkpt lat="58.29031" lon="6.44242">
					<ele>28</ele>
					<time>0001-01-01T00:00:00Z</time>
				</trkpt>
				<trkpt lat="58.29079" lon="6.44297">
					<ele>23</ele>
					<time>0001-01-01T00:00:00Z</time>
				</trkpt>
				<trkpt lat="58.29109" lon="6.44308">
					<ele>20</ele>
					<time>0001-01-01T00:00:00Z</time>
				</trkpt>
				<trkpt lat="58.29194" lon="6.44413">
					<ele>13</ele>
					<time>0001-01-01T00:00:00Z</time>
				</trkpt>
				<trkpt lat="58.29250" lon="6.44466">
					<ele>8</ele>
					<time>0001-01-01T00:00:00Z</time>
				</trkpt>
				<trkpt lat="58.29298" lon="6.44392">
					<ele>7</ele>
					<time>0001-01-01T00:00:00Z</time>
				</trkpt>
				<trkpt lat="58.29361" lon="6.44273">
					<ele>4</ele>
					<time>0001-01-01T00:00:00Z</time>
				</trkpt>
				<trkpt lat="58.29366" lon="6.44159">
					<ele>0</ele>
					<time>0001-01-01T00:00:00Z</time>
				</trkpt>
				<trkpt lat="58.29347" lon="6.44077">
					<ele>0</ele>
					<time>0001-01-01T00:00:00Z</time>
				</trkpt>
				<trkpt lat="58.29356" lon="6.43949">
					<ele>0</ele>
					<time>0001-01-01T00:00:00Z</time>
				</trkpt>
				<trkpt lat="58.29439" lon="6.43767">
					<ele>-1</ele>
					<time>0001-01-01T00:00:00Z</time>
				</trkpt>
				<trkpt lat="58.29545" lon="6.43671">
					<ele>-1</ele>
					<time>0001-01-01T00:00:00Z</time>
				</trkpt>
				<trkpt lat="58.29574" lon="6.43688">
					<ele>0</ele>
					<time>0001-01-01T00:00:00Z</time>
				</trkpt>
				<trkpt lat="58.29608" lon="6.43719">
					<ele>2</ele>
					<time>0001-01-01T00:00:00Z</time>
				</trkpt>
				<trkpt lat="58.29638" lon="6.43777">
					<ele>7</ele>
					<time>0001-01-01T00:00:00Z</time>
				</trkpt>
				<trkpt lat="58.29664" lon="6.43847">
					<ele>14</ele>
					<time>0001-01-01T00:00:00Z</time>
				</trkpt>
				<trkpt lat="58.29687" lon="6.43904">
					<ele>16</ele>
					<time>0001-01-01T00:00:00Z</time>
				</trkpt>
				<trkpt lat="58.29707" lon="6.43944">
					<ele>18</ele>
					<time>0001-01-01T00:00:00Z</time>
				</trkpt>
				<trkpt lat="58.29740" lon="6.43937">
					<ele>22</ele>
					<time>0001-01-01T00:00:00Z</time>
				</trkpt>
				<trkpt lat="58.29760" lon="6.43888">
					<ele>27</ele>
					<time>0001-01-01T00:00:00Z</time>
				</trkpt>
				<trkpt lat="58.29777" lon="6.43828">
					<ele>31</ele>
					<time>0001-01-01T00:00:00Z</time>
				</trkpt>
				<trkpt lat="58.29793" lon="6.43777">
					<ele>37</ele>
					<time>0001-01-01T00:00:00Z</time>
				</trkpt>
				<trkpt lat="58.29813" lon="6.43726">
					<ele>42</ele>
					<time>0001-01-01T00:00:00Z</time>
				</trkpt>
				<trkpt lat="58.29837" lon="6.43661">
					<ele>48</ele>
					<time>0001-01-01T00:00:00Z</time>
				</trkpt>
				<trkpt lat="58.29865" lon="6.43598">
					<ele>53</ele>
					<time>0001-01-01T00:00:00Z</time>
				</trkpt>
				<trkpt lat="58.29880" lon="6.43522">
					<ele>54</ele>
					<time>0001-01-01T00:00:00Z</time>
				</trkpt>
				<trkpt lat="58.29881" lon="6.43514">
					<ele>54</ele>
					<time>0001-01-01T00:00:00Z</time>
				</trkpt>
				<trkpt lat="58.29890" lon="6.43531">
					<ele>55</ele>
					<time>0001-01-01T00:00:00Z</time>
				</trkpt>
				<trkpt lat="58.29889" lon="6.43535">
					<ele>55</ele>
					<time>0001-01-01T00:00:00Z</time>
				</trkpt>
				<trkpt lat="58.29876" lon="6.43632">
					<ele>59</ele>
					<time>0001-01-01T00:00:00Z</time>
				</trkpt>
				<trkpt lat="58.29875" lon="6.43662">
					<ele>59</ele>
					<time>0001-01-01T00:00:00Z</time>
				</trkpt>
				<trkpt lat="58.29890" lon="6.43662">
					<ele>60</ele>
					<time>0001-01-01T00:00:00Z</time>
				</trkpt>
				<trkpt lat="58.29934" lon="6.43526">
					<ele>69</ele>
					<time>0001-01-01T00:00:00Z</time>
				</trkpt>
				<trkpt lat="58.29968" lon="6.43472">
					<ele>75</ele>
					<time>0001-01-01T00:00:00Z</time>
				</trkpt>
				<trkpt lat="58.29998" lon="6.43438">
					<ele>79</ele>
					<time>0001-01-01T00:00:00Z</time>
				</trkpt>
				<trkpt lat="58.30017" lon="6.43385">
					<ele>84</ele>
					<time>0001-01-01T00:00:00Z</time>
				</trkpt>
				<trkpt lat="58.30030" lon="6.43337">
					<ele>88</ele>
					<time>0001-01-01T00:00:00Z</time>
				</trkpt>
				<trkpt lat="58.30037" lon="6.43353">
					<ele>90</ele>
					<time>0001-01-01T00:00:00Z</time>
				</trkpt>
				<trkpt lat="58.30051" lon="6.43387">
					<ele>91</ele>
					<time>0001-01-01T00:00:00Z</time>
				</trkpt>
				<trkpt lat="58.30074" lon="6.43349">
					<ele>94</ele>
					<time>0001-01-01T00:00:00Z</time>
				</trkpt>
				<trkpt lat="58.30094" lon="6.43263">
					<ele>101</ele>
					<time>0001-01-01T00:00:00Z</time>
				</trkpt>
				<trkpt lat="58.30113" lon="6.43199">
					<ele>104</ele>
					<time>0001-01-01T00:00:00Z</time>
				</trkpt>
				<trkpt lat="58.30144" lon="6.43144">
					<ele>108</ele>
					<time>0001-01-01T00:00:00Z</time>
				</trkpt>
				<trkpt lat="58.30185" lon="6.43079">
					<ele>115</ele>
					<time>0001-01-01T00:00:00Z</time>
				</trkpt>
				<trkpt lat="58.30221" lon="6.43024">
					<ele>120</ele>
					<time>0001-01-01T00:00:00Z</time>
				</trkpt>
				<trkpt lat="58.30264" lon="6.42958">
					<ele>123</ele>
					<time>0001-01-01T00:00:00Z</time>
				</trkpt>
				<trkpt lat="58.30338" lon="6.42827">
					<ele>127</ele>
					<time>0001-01-01T00:00:00Z</time>
				</trkpt>
				<trkpt lat="58.30415" lon="6.42679">
					<ele>130</ele>
					<time>0001-01-01T00:00:00Z</time>
				</trkpt>
				<trkpt lat="58.30480" lon="6.42531">
					<ele>135</ele>
					<time>0001-01-01T00:00:00Z</time>
				</trkpt>
				<trkpt lat="58.30531" lon="6.42386">
					<ele>141</ele>
					<time>0001-01-01T00:00:00Z</time>
				</trkpt>
				<trkpt lat="58.30573" lon="6.42245">
					<ele>143</ele>
					<time>0001-01-01T00:00:00Z</time>
				</trkpt>
				<trkpt lat="58.30586" lon="6.42226">
					<ele>143</ele>
					<time>0001-01-01T00:00:00Z</time>
				</trkpt>
				<trkpt lat="58.30660" lon="6.42100">
					<ele>147</ele>
					<time>0001-01-01T00:00:00Z</time>
				</trkpt>
				<trkpt lat="58.30672" lon="6.42055">
					<ele>148</ele>
					<time>0001-01-01T00:00:00Z</time>
				</trkpt>
				<trkpt lat="58.30683" lon="6.41996">
					<ele>148</ele>
					<time>0001-01-01T00:00:00Z</time>
				</trkpt>
				<trkpt lat="58.30689" lon="6.41911">
					<ele>151</ele>
					<time>0001-01-01T00:00:00Z</time>
				</trkpt>
				<trkpt lat="58.30792" lon="6.41707">
					<ele>148</ele>
					<time>0001-01-01T00:00:00Z</time>
				</trkpt>
				<trkpt lat="58.30863" lon="6.41401">
					<ele>141</ele>
					<time>0001-01-01T00:00:00Z</time>
				</trkpt>
				<trkpt lat="58.30887" lon="6.41282">
					<ele>141</ele>
					<time>0001-01-01T00:00:00Z</time>
				</trkpt>
				<trkpt lat="58.30896" lon="6.41186">
					<ele>141</ele>
					<time>0001-01-01T00:00:00Z</time>
				</trkpt>
				<trkpt lat="58.30852" lon="6.40984">
					<ele>141</ele>
					<time>0001-01-01T00:00:00Z</time>
				</trkpt>
				<trkpt lat="58.30771" lon="6.40782">
					<ele>143</ele>
					<time>0001-01-01T00:00:00Z</time>
				</trkpt>
				<trkpt lat="58.30754" lon="6.40760">
					<ele>143</ele>
					<time>0001-01-01T00:00:00Z</time>
				</trkpt>
				<trkpt lat="58.30716" lon="6.40755">
					<ele>145</ele>
					<time>0001-01-01T00:00:00Z</time>
				</trkpt>
				<trkpt lat="58.30659" lon="6.40825">
					<ele>148</ele>
					<time>0001-01-01T00:00:00Z</time>
				</trkpt>
				<trkpt lat="58.30620" lon="6.40829">
					<ele>151</ele>
					<time>0001-01-01T00:00:00Z</time>
				</trkpt>
				<trkpt lat="58.30597" lon="6.40771">
					<ele>154</ele>
					<time>0001-01-01T00:00:00Z</time>
				</trkpt>
				<trkpt lat="58.30597" lon="6.40698">
					<ele>156</ele>
					<time>0001-01-01T00:00:00Z</time>
				</trkpt>
				<trkpt lat="58.30616" lon="6.40642">
					<ele>160</ele>
					<time>0001-01-01T00:00:00Z</time>
				</trkpt>
				<trkpt lat="58.30647" lon="6.40602">
					<ele>163</ele>
					<time>0001-01-01T00:00:00Z</time>
				</trkpt>
				<trkpt lat="58.30681" lon="6.40538">
					<ele>167</ele>
					<time>0001-01-01T00:00:00Z</time>
				</trkpt>
				<trkpt lat="58.30694" lon="6.40458">
					<ele>171</ele>
					<time>0001-01-01T00:00:00Z</time>
				</trkpt>
				<trkpt lat="58.30702" lon="6.40342">
					<ele>175</ele>
					<time>0001-01-01T00:00:00Z</time>
				</trkpt>
				<trkpt lat="58.30714" lon="6.40254">
					<ele>180</ele>
					<time>0001-01-01T00:00:00Z</time>
				</trkpt>
				<trkpt lat="58.30722" lon="6.40247">
					<ele>181</ele>
					<time>0001-01-01T00:00:00Z</time>
				</trkpt>
				<trkpt lat="58.30739" lon="6.40206">
					<ele>186</ele>
					<time>0001-01-01T00:00:00Z</time>
				</trkpt>
				<trkpt lat="58.30697" lon="6.40222">
					<ele>190</ele>
					<time>0001-01-01T00:00:00Z</time>
				</trkpt>
				<trkpt lat="58.30665" lon="6.40244">
					<ele>195</ele>
					<time>0001-01-01T00:00:00Z</time>
				</trkpt>
				<trkpt lat="58.30665" lon="6.40219">
					<ele>196</ele>
					<time>0001-01-01T00:00:00Z</time>
				</trkpt>
				<trkpt lat="58.30703" lon="6.40176">
					<ele>200</ele>
					<time>0001-01-01T00:00:00Z</time>
				</trkpt>
				<trkpt lat="58.30717" lon="6.40102">
					<ele>205</ele>
					<time>0001-01-01T00:00:00Z</time>
				</trkpt>
				<trkpt lat="58.30730" lon="6.40015">
					<ele>209</ele>
					<time>0001-01-01T00:00:00Z</time>
				</trkpt>
				<trkpt lat="58.30741" lon="6.39938">
					<ele>213</ele>
					<time>0001-01-01T00:00:00Z</time>
				</trkpt>
				<trkpt lat="58.30720" lon="6.39893">
					<ele>214</ele>
					<time>0001-01-01T00:00:00Z</time>
				</trkpt>
				<trkpt lat="58.30708" lon="6.39902">
					<ele>216</ele>
					<time>0001-01-01T00:00:00Z</time>
				</trkpt>
				<trkpt lat="58.30686" lon="6.39968">
					<ele>221</ele>
					<time>0001-01-01T00:00:00Z</time>
				</trkpt>
				<trkpt lat="58.30659" lon="6.39941">
					<ele>225</ele>
					<time>0001-01-01T00:00:00Z</time>
				</trkpt>
				<trkpt lat="58.30644" lon="6.39900">
					<ele>225</ele>
					<time>0001-01-01T00:00:00Z</time>
				</trkpt>
				<trkpt lat="58.30623" lon="6.39748">
					<ele>223</ele>
					<time>0001-01-01T00:00:00Z</time>
				</trkpt>
				<trkpt lat="58.30586" lon="6.39546">
					<ele>219</ele>
					<time>0001-01-01T00:00:00Z</time>
				</trkpt>
				<trkpt lat="58.30541" lon="6.39363">
					<ele>219</ele>
					<time>0001-01-01T00:00:00Z</time>
				</trkpt>
				<trkpt lat="58.30552" lon="6.39239">
					<ele>219</ele>
					<time>0001-01-01T00:00:00Z</time>
				</trkpt>
				<trkpt lat="58.30579" lon="6.39125">
					<ele>219</ele>
					<time>0001-01-01T00:00:00Z</time>
				</trkpt>
				<trkpt lat="58.30593" lon="6.39075">
					<ele>218</ele>
					<time>0001-01-01T00:00:00Z</time>
				</trkpt>
				<trkpt lat="58.30611" lon="6.38978">
					<ele>220</ele>
					<time>0001-01-01T00:00:00Z</time>
				</trkpt>
				<trkpt lat="58.30651" lon="6.38905">
					<ele>221</ele>
					<time>0001-01-01T00:00:00Z</time>
				</trkpt>
				<trkpt lat="58.30686" lon="6.38910">
					<ele>222</ele>
					<time>0001-01-01T00:00:00Z</time>
				</trkpt>
				<trkpt lat="58.30736" lon="6.38960">
					<ele>224</ele>
					<time>0001-01-01T00:00:00Z</time>
				</trkpt>
				<trkpt lat="58.30763" lon="6.38913">
					<ele>228</ele>
					<time>0001-01-01T00:00:00Z</time>
				</trkpt>
				<trkpt lat="58.30791" lon="6.38823">
					<ele>233</ele>
					<time>0001-01-01T00:00:00Z</time>
				</trkpt>
				<trkpt lat="58.30820" lon="6.38746">
					<ele>238</ele>
					<time>0001-01-01T00:00:00Z</time>
				</trkpt>
				<trkpt lat="58.30837" lon="6.38711">
					<ele>239</ele>
					<time>0001-01-01T00:00:00Z</time>
				</trkpt>
				<trkpt lat="58.30824" lon="6.38677">
					<ele>241</ele>
					<time>0001-01-01T00:00:00Z</time>
				</trkpt>
				<trkpt lat="58.30770" lon="6.38652">
					<ele>248</ele>
					<time>0001-01-01T00:00:00Z</time>
				</trkpt>
				<trkpt lat="58.30731" lon="6.38605">
					<ele>253</ele>
					<time>0001-01-01T00:00:00Z</time>
				</trkpt>
				<trkpt lat="58.30689" lon="6.38552">
					<ele>258</ele>
					<time>0001-01-01T00:00:00Z</time>
				</trkpt>
				<trkpt lat="58.30650" lon="6.38571">
					<ele>262</ele>
					<time>0001-01-01T00:00:00Z</time>
				</trkpt>
				<trkpt lat="58.30617" lon="6.38601">
					<ele>266</ele>
					<time>0001-01-01T00:00:00Z</time>
				</trkpt>
				<trkpt lat="58.30599" lon="6.38561">
					<ele>268</ele>
					<time>0001-01-01T00:00:00Z</time>
				</trkpt>
				<trkpt lat="58.30566" lon="6.38470">
					<ele>271</ele>
					<time>0001-01-01T00:00:00Z</time>
				</trkpt>
				<trkpt lat="58.30556" lon="6.38439">
					<ele>271</ele>
					<time>0001-01-01T00:00:00Z</time>
				</trkpt>
				<trkpt lat="58.30559" lon="6.38391">
					<ele>271</ele>
					<time>0001-01-01T00:00:00Z</time>
				</trkpt>
				<trkpt lat="58.30599" lon="6.38251">
					<ele>265</ele>
					<time>0001-01-01T00:00:00Z</time>
				</trkpt>
				<trkpt lat="58.30616" lon="6.38206">
					<ele>265</ele>
					<time>0001-01-01T00:00:00Z</time>
				</trkpt>
				<trkpt lat="58.30642" lon="6.38097">
					<ele>264</ele>
					<time>0001-01-01T00:00:00Z</time>
				</trkpt>
				<trkpt lat="58.30668" lon="6.38050">
					<ele>264</ele>
					<time>0001-01-01T00:00:00Z</time>
				</trkpt>
				<trkpt lat="58.30720" lon="6.37948">
					<ele>260</ele>
					<time>0001-01-01T00:00:00Z</time>
				</trkpt>
				<trkpt lat="58.30725" lon="6.37812">
					<ele>251</ele>
					<time>0001-01-01T00:00:00Z</time>
				</trkpt>
				<trkpt lat="58.30707" lon="6.37704">
					<ele>247</ele>
					<time>0001-01-01T00:00:00Z</time>
				</trkpt>
				<trkpt lat="58.30720" lon="6.37678">
					<ele>243</ele>
					<time>0001-01-01T00:00:00Z</time>
				</trkpt>
				<trkpt lat="58.30732" lon="6.37698">
					<ele>242</ele>
					<time>0001-01-01T00:00:00Z</time>
				</trkpt>
				<trkpt lat="58.30752" lon="6.37737">
					<ele>239</ele>
					<time>0001-01-01T00:00:00Z</time>
				</trkpt>
				<trkpt lat="58.30771" lon="6.37782">
					<ele>237</ele>
					<time>0001-01-01T00:00:00Z</time>
				</trkpt>
				<trkpt lat="58.30807" lon="6.37746">
					<ele>235</ele>
					<time>0001-01-01T00:00:00Z</time>
				</trkpt>
				<trkpt lat="58.30812" lon="6.37627">
					<ele>230</ele>
					<time>0001-01-01T00:00:00Z</time>
				</trkpt>
				<trkpt lat="58.30802" lon="6.37592">
					<ele>227</ele>
					<time>0001-01-01T00:00:00Z</time>
				</trkpt>
				<trkpt lat="58.30814" lon="6.37534">
					<ele>223</ele>
					<time>0001-01-01T00:00:00Z</time>
				</trkpt>
				<trkpt lat="58.30822" lon="6.37538">
					<ele>222</ele>
					<time>0001-01-01T00:00:00Z</time>
				</trkpt>
				<trkpt lat="58.30846" lon="6.37554">
					<ele>220</ele>
					<time>0001-01-01T00:00:00Z</time>
				</trkpt>
				<trkpt lat="58.30876" lon="6.37566">
					<ele>219</ele>
					<time>0001-01-01T00:00:00Z</time>
				</trkpt>
				<trkpt lat="58.30918" lon="6.37561">
					<ele>218</ele>
					<time>0001-01-01T00:00:00Z</time>
				</trkpt>
				<trkpt lat="58.30942" lon="6.37492">
					<ele>216</ele>
					<time>0001-01-01T00:00:00Z</time>
				</trkpt>
				<trkpt lat="58.30985" lon="6.37316">
					<ele>217</ele>
					<time>0001-01-01T00:00:00Z</time>
				</trkpt>
				<trkpt lat="58.31024" lon="6.37159">
					<ele>220</ele>
					<time>0001-01-01T00:00:00Z</time>
				</trkpt>
				<trkpt lat="58.31064" lon="6.37104">
					<ele>217</ele>
					<time>0001-01-01T00:00:00Z</time>
				</trkpt>
				<trkpt lat="58.31100" lon="6.37092">
					<ele>214</ele>
					<time>0001-01-01T00:00:00Z</time>
				</trkpt>
				<trkpt lat="58.31227" lon="6.37115">
					<ele>213</ele>
					<time>0001-01-01T00:00:00Z</time>
				</trkpt>
				<trkpt lat="58.31256" lon="6.37096">
					<ele>213</ele>
					<time>0001-01-01T00:00:00Z</time>
				</trkpt>
				<trkpt lat="58.31366" lon="6.36994">
					<ele>211</ele>
					<time>0001-01-01T00:00:00Z</time>
				</trkpt>
				<trkpt lat="58.31464" lon="6.36864">
					<ele>210</ele>
					<time>0001-01-01T00:00:00Z</time>
				</trkpt>
				<trkpt lat="58.31526" lon="6.36852">
					<ele>210</ele>
					<time>0001-01-01T00:00:00Z</time>
				</trkpt>
				<trkpt lat="58.31563" lon="6.36816">
					<ele>208</ele>
					<time>0001-01-01T00:00:00Z</time>
				</trkpt>
				<trkpt lat="58.31581" lon="6.36734">
					<ele>206</ele>
					<time>0001-01-01T00:00:00Z</time>
				</trkpt>
				<trkpt lat="58.31582" lon="6.36731">
					<ele>206</ele>
					<time>0001-01-01T00:00:00Z</time>
				</trkpt>
				<trkpt lat="58.31643" lon="6.36652">
					<ele>205</ele>
					<time>0001-01-01T00:00:00Z</time>
				</trkpt>
				<trkpt lat="58.31664" lon="6.36542">
					<ele>201</ele>
					<time>0001-01-01T00:00:00Z</time>
				</trkpt>
				<trkpt lat="58.31720" lon="6.36347">
					<ele>194</ele>
					<time>0001-01-01T00:00:00Z</time>
				</trkpt>
				<trkpt lat="58.31727" lon="6.36239">
					<ele>187</ele>
					<time>0001-01-01T00:00:00Z</time>
				</trkpt>
				<trkpt lat="58.31686" lon="6.35915">
					<ele>174</ele>
					<time>0001-01-01T00:00:00Z</time>
				</trkpt>
				<trkpt lat="58.31630" lon="6.35633">
					<ele>162</ele>
					<time>0001-01-01T00:00:00Z</time>
				</trkpt>
				<trkpt lat="58.31612" lon="6.35533">
					<ele>160</ele>
					<time>0001-01-01T00:00:00Z</time>
				</trkpt>
				<trkpt lat="58.31626" lon="6.35453">
					<ele>159</ele>
					<time>0001-01-01T00:00:00Z</time>
				</trkpt>
				<trkpt lat="58.31628" lon="6.35281">
					<ele>153</ele>
					<time>0001-01-01T00:00:00Z</time>
				</trkpt>
				<trkpt lat="58.31573" lon="6.35210">
					<ele>143</ele>
					<time>0001-01-01T00:00:00Z</time>
				</trkpt>
				<trkpt lat="58.31536" lon="6.35208">
					<ele>137</ele>
					<time>0001-01-01T00:00:00Z</time>
				</trkpt>
				<trkpt lat="58.31488" lon="6.35172">
					<ele>130</ele>
					<time>0001-01-01T00:00:00Z</time>
				</trkpt>
				<trkpt lat="58.31426" lon="6.35122">
					<ele>122</ele>
					<time>0001-01-01T00:00:00Z</time>
				</trkpt>
				<trkpt lat="58.31416" lon="6.35086">
					<ele>120</ele>
					<time>0001-01-01T00:00:00Z</time>
				</trkpt>
				<trkpt lat="58.31406" lon="6.35024">
					<ele>119</ele>
					<time>0001-01-01T00:00:00Z</time>
				</trkpt>
				<trkpt lat="58.31380" lon="6.34731">
					<ele>118</ele>
					<time>0001-01-01T00:00:00Z</time>
				</trkpt>
				<trkpt lat="58.31405" lon="6.34667">
					<ele>118</ele>
					<time>0001-01-01T00:00:00Z</time>
				</trkpt>
				<trkpt lat="58.31536" lon="6.34327">
					<ele>115</ele>
					<time>0001-01-01T00:00:00Z</time>
				</trkpt>
				<trkpt lat="58.31510" lon="6.34387">
					<ele>108</ele>
					<time>0001-01-01T00:00:00Z</time>
				</trkpt>
				<trkpt lat="58.31491" lon="6.34510">
					<ele>50</ele>
					<time>0001-01-01T00:00:00Z</time>
				</trkpt>
				<trkpt lat="58.31492" lon="6.34533">
					<ele>50</ele>
					<time>0001-01-01T00:00:00Z</time>
				</trkpt>
				<trkpt lat="58.31507" lon="6.34720">
					<ele>54</ele>
					<time>0001-01-01T00:00:00Z</time>
				</trkpt>
				<trkpt lat="58.31508" lon="6.34738">
					<ele>53</ele>
					<time>0001-01-01T00:00:00Z</time>
				</trkpt>
				<trkpt lat="58.31475" lon="6.34688">
					<ele>50</ele>
					<time>0001-01-01T00:00:00Z</time>
				</trkpt>
				<trkpt lat="58.31539" lon="6.34545">
					<ele>43</ele>
					<time>0001-01-01T00:00:00Z</time>
				</trkpt>
				<trkpt lat="58.31574" lon="6.34489">
					<ele>41</ele>
					<time>0001-01-01T00:00:00Z</time>
				</trkpt>
				<trkpt lat="58.31614" lon="6.34477">
					<ele>39</ele>
					<time>0001-01-01T00:00:00Z</time>
				</trkpt>
				<trkpt lat="58.31657" lon="6.34503">
					<ele>35</ele>
					<time>0001-01-01T00:00:00Z</time>
				</trkpt>
				<trkpt lat="58.31732" lon="6.34526">
					<ele>32</ele>
					<time>0001-01-01T00:00:00Z</time>
				</trkpt>
				<trkpt lat="58.31761" lon="6.34569">
					<ele>32</ele>
					<time>0001-01-01T00:00:00Z</time>
				</trkpt>
				<trkpt lat="58.31765" lon="6.34630">
					<ele>32</ele>
					<time>0001-01-01T00:00:00Z</time>
				</trkpt>
				<trkpt lat="58.31749" lon="6.34679">
					<ele>32</ele>
					<time>0001-01-01T00:00:00Z</time>
				</trkpt>
				<trkpt lat="58.31786" lon="6.34745">
					<ele>29</ele>
					<time>0001-01-01T00:00:00Z</time>
				</trkpt>
				<trkpt lat="58.31798" lon="6.34751">
					<ele>29</ele>
					<time>0001-01-01T00:00:00Z</time>
				</trkpt>
				<trkpt lat="58.31912" lon="6.34830">
					<ele>26</ele>
					<time>0001-01-01T00:00:00Z</time>
				</trkpt>
				<trkpt lat="58.31948" lon="6.34830">
					<ele>26</ele>
					<time>0001-01-01T00:00:00Z</time>
				</trkpt>
				<trkpt lat="58.31998" lon="6.34814">
					<ele>24</ele>
					<time>0001-01-01T00:00:00Z</time>
				</trkpt>
				<trkpt lat="58.32022" lon="6.34816">
					<ele>23</ele>
					<time>0001-01-01T00:00:00Z</time>
				</trkpt>
				<trkpt lat="58.32059" lon="6.34854">
					<ele>23</ele>
					<time>0001-01-01T00:00:00Z</time>
				</trkpt>
				<trkpt lat="58.32148" lon="6.34928">
					<ele>22</ele>
					<time>0001-01-01T00:00:00Z</time>
				</trkpt>
				<trkpt lat="58.32157" lon="6.34943">
					<ele>22</ele>
					<time>0001-01-01T00:00:00Z</time>
				</trkpt>
				<trkpt lat="58.32175" lon="6.34952">
					<ele>22</ele>
					<time>0001-01-01T00:00:00Z</time>
				</trkpt>
				<trkpt lat="58.32211" lon="6.34989">
					<ele>22</ele>
					<time>0001-01-01T00:00:00Z</time>
				</trkpt>
				<trkpt lat="58.32298" lon="6.35060">
					<ele>22</ele>
					<time>0001-01-01T00:00:00Z</time>
				</trkpt>
				<trkpt lat="58.32351" lon="6.35144">
					<ele>22</ele>
					<time>0001-01-01T00:00:00Z</time>
				</trkpt>
				<trkpt lat="58.32372" lon="6.35167">
					<ele>21</ele>
					<time>0001-01-01T00:00:00Z</time>
				</trkpt>
				<trkpt lat="58.32452" lon="6.35267">
					<ele>17</ele>
					<time>0001-01-01T00:00:00Z</time>
				</trkpt>
				<trkpt lat="58.32503" lon="6.35257">
					<ele>17</ele>
					<time>0001-01-01T00:00:00Z</time>
				</trkpt>
				<trkpt lat="58.32557" lon="6.35216">
					<ele>13</ele>
					<time>0001-01-01T00:00:00Z</time>
				</trkpt>
				<trkpt lat="58.32698" lon="6.35284">
					<ele>14</ele>
					<time>0001-01-01T00:00:00Z</time>
				</trkpt>
				<trkpt lat="58.32756" lon="6.35344">
					<ele>14</ele>
					<time>0001-01-01T00:00:00Z</time>
				</trkpt>
				<trkpt lat="58.32799" lon="6.35405">
					<ele>14</ele>
					<time>0001-01-01T00:00:00Z</time>
				</trkpt>
				<trkpt lat="58.32828" lon="6.35447">
					<ele>13</ele>
					<time>0001-01-01T00:00:00Z</time>
				</trkpt>
				<trkpt lat="58.32842" lon="6.35475">
					<ele>13</ele>
					<time>0001-01-01T00:00:00Z</time>
				</trkpt>
				<trkpt lat="58.32954" lon="6.35668">
					<ele>13</ele>
					<time>0001-01-01T00:00:00Z</time>
				</trkpt>
				<trkpt lat="58.33028" lon="6.35778">
					<ele>14</ele>
					<time>0001-01-01T00:00:00Z</time>
				</trkpt>
				<trkpt lat="58.33076" lon="6.35801">
					<ele>15</ele>
					<time>0001-01-01T00:00:00Z</time>
				</trkpt>
				<trkpt lat="58.33144" lon="6.35807">
					<ele>19</ele>
					<time>0001-01-01T00:00:00Z</time>
				</trkpt>
				<trkpt lat="58.33198" lon="6.35802">
					<ele>22</ele>
					<time>0001-01-01T00:00:00Z</time>
				</trkpt>
				<trkpt lat="58.33250" lon="6.35792">
					<ele>22</ele>
					<time>0001-01-01T00:00:00Z</time>
				</trkpt>
				<trkpt lat="58.33268" lon="6.35824">
					<ele>24</ele>
					<time>0001-01-01T00:00:00Z</time>
				</trkpt>
				<trkpt lat="58.33255" lon="6.35852">
					<ele>25</ele>
					<time>0001-01-01T00:00:00Z</time>
				</trkpt>
				<trkpt lat="58.33232" lon="6.35908">
					<ele>39</ele>
					<time>0001-01-01T00:00:00Z</time>
				</trkpt>
				<trkpt lat="58.33229" lon="6.35928">
					<ele>39</ele>
					<time>0001-01-01T00:00:00Z</time>
				</trkpt>
				<trkpt lat="58.33191" lon="6.35966">
					<ele>39</ele>
					<time>0001-01-01T00:00:00Z</time>
				</trkpt>
				<trkpt lat="58.33212" lon="6.35943">
					<ele>40</ele>
					<time>0001-01-01T00:00:00Z</time>
				</trkpt>
				<trkpt lat="58.33261" lon="6.35857">
					<ele>39</ele>
					<time>0001-01-01T00:00:00Z</time>
				</trkpt>
				<trkpt lat="58.33280" lon="6.35851">
					<ele>39</ele>
					<time>0001-01-01T00:00:00Z</time>
				</trkpt>
				<trkpt lat="58.33348" lon="6.35949">
					<ele>44</ele>
					<time>0001-01-01T00:00:00Z</time>
				</trkpt>
				<trkpt lat="58.33337" lon="6.35774">
					<ele>50</ele>
					<time>0001-01-01T00:00:00Z</time>
				</trkpt>
				<trkpt lat="58.33170" lon="6.35503">
					<ele>52</ele>
					<time>0001-01-01T00:00:00Z</time>
				</trkpt>
				<trkpt lat="58.33121" lon="6.35455">
					<ele>120</ele>
					<time>0001-01-01T00:00:00Z</time>
				</trkpt>
				<trkpt lat="58.33116" lon="6.35394">
					<ele>127</ele>
					<time>0001-01-01T00:00:00Z</time>
				</trkpt>
				<trkpt lat="58.33107" lon="6.35331">
					<ele>131</ele>
					<time>0001-01-01T00:00:00Z</time>
				</trkpt>
				<trkpt lat="58.33093" lon="6.35264">
					<ele>135</ele>
					<time>0001-01-01T00:00:00Z</time>
				</trkpt>
				<trkpt lat="58.33100" lon="6.35192">
					<ele>137</ele>
					<time>0001-01-01T00:00:00Z</time>
				</trkpt>
				<trkpt lat="58.33090" lon="6.35125">
					<ele>140</ele>
					<time>0001-01-01T00:00:00Z</time>
				</trkpt>
				<trkpt lat="58.33064" lon="6.35047">
					<ele>143</ele>
					<time>0001-01-01T00:00:00Z</time>
				</trkpt>
				<trkpt lat="58.33024" lon="6.35055">
					<ele>147</ele>
					<time>0001-01-01T00:00:00Z</time>
				</trkpt>
				<trkpt lat="58.33017" lon="6.35048">
					<ele>148</ele>
					<time>0001-01-01T00:00:00Z</time>
				</trkpt>
				<trkpt lat="58.33089" lon="6.34995">
					<ele>150</ele>
					<time>0001-01-01T00:00:00Z</time>
				</trkpt>
				<trkpt lat="58.33131" lon="6.35004">
					<ele>153</ele>
					<time>0001-01-01T00:00:00Z</time>
				</trkpt>
				<trkpt lat="58.33169" lon="6.35025">
					<ele>155</ele>
					<time>0001-01-01T00:00:00Z</time>
				</trkpt>
				<trkpt lat="58.33193" lon="6.35064">
					<ele>160</ele>
					<time>0001-01-01T00:00:00Z</time>
				</trkpt>
				<trkpt lat="58.33227" lon="6.35050">
					<ele>162</ele>
					<time>0001-01-01T00:00:00Z</time>
				</trkpt>
				<trkpt lat="58.33300" lon="6.34972">
					<ele>162</ele>
					<time>0001-01-01T00:00:00Z</time>
				</trkpt>
				<trkpt lat="58.33407" lon="6.34898">
					<ele>164</ele>
					<time>0001-01-01T00:00:00Z</time>
				</trkpt>
				<trkpt lat="58.33452" lon="6.34899">
					<ele>165</ele>
					<time>0001-01-01T00:00:00Z</time>
				</trkpt>
				<trkpt lat="58.33498" lon="6.34888">
					<ele>168</ele>
					<time>0001-01-01T00:00:00Z</time>
				</trkpt>
				<trkpt lat="58.33564" lon="6.34896">
					<ele>169</ele>
					<time>0001-01-01T00:00:00Z</time>
				</trkpt>
				<trkpt lat="58.33687" lon="6.34884">
					<ele>168</ele>
					<time>0001-01-01T00:00:00Z</time>
				</trkpt>
				<trkpt lat="58.33696" lon="6.34883">
					<ele>168</ele>
					<time>0001-01-01T00:00:00Z</time>
				</trkpt>
				<trkpt lat="58.33856" lon="6.34915">
					<ele>168</ele>
					<time>0001-01-01T00:00:00Z</time>
				</trkpt>
				<trkpt lat="58.33889" lon="6.34909">
					<ele>169</ele>
					<time>0001-01-01T00:00:00Z</time>
				</trkpt>
				<trkpt lat="58.33924" lon="6.34865">
					<ele>168</ele>
					<time>0001-01-01T00:00:00Z</time>
				</trkpt>
				<trkpt lat="58.33970" lon="6.34867">
					<ele>167</ele>
					<time>0001-01-01T00:00:00Z</time>
				</trkpt>
				<trkpt lat="58.33978" lon="6.34878">
					<ele>167</ele>
					<time>0001-01-01T00:00:00Z</time>
				</trkpt>
				<trkpt lat="58.34045" lon="6.34920">
					<ele>166</ele>
					<time>0001-01-01T00:00:00Z</time>
				</trkpt>
				<trkpt lat="58.34085" lon="6.34875">
					<ele>164</ele>
					<time>0001-01-01T00:00:00Z</time>
				</trkpt>
				<trkpt lat="58.34123" lon="6.34783">
					<ele>161</ele>
					<time>0001-01-01T00:00:00Z</time>
				</trkpt>
				<trkpt lat="58.34156" lon="6.34715">
					<ele>158</ele>
					<time>0001-01-01T00:00:00Z</time>
				</trkpt>
				<trkpt lat="58.34213" lon="6.34653">
					<ele>155</ele>
					<time>0001-01-01T00:00:00Z</time>
				</trkpt>
				<trkpt lat="58.34210" lon="6.34671">
					<ele>155</ele>
					<time>0001-01-01T00:00:00Z</time>
				</trkpt>
				<trkpt lat="58.34217" lon="6.34709">
					<ele>153</ele>
					<time>0001-01-01T00:00:00Z</time>
				</trkpt>
				<trkpt lat="58.34233" lon="6.34757">
					<ele>152</ele>
					<time>0001-01-01T00:00:00Z</time>
				</trkpt>
				<trkpt lat="58.34322" lon="6.34894">
					<ele>140</ele>
					<time>0001-01-01T00:00:00Z</time>
				</trkpt>
				<trkpt lat="58.34347" lon="6.34918">
					<ele>139</ele>
					<time>0001-01-01T00:00:00Z</time>
				</trkpt>
				<trkpt lat="58.34360" lon="6.34909">
					<ele>137</ele>
					<time>0001-01-01T00:00:00Z</time>
				</trkpt>
				<trkpt lat="58.34400" lon="6.34903">
					<ele>136</ele>
					<time>0001-01-01T00:00:00Z</time>
				</trkpt>
				<trkpt lat="58.34571" lon="6.34641">
					<ele>129</ele>
					<time>0001-01-01T00:00:00Z</time>
				</trkpt>
				<trkpt lat="58.34585" lon="6.34627">
					<ele>129</ele>
					<time>0001-01-01T00:00:00Z</time>
				</trkpt>
				<trkpt lat="58.34620" lon="6.34403">
					<ele>121</ele>
					<time>0001-01-01T00:00:00Z</time>
				</trkpt>
				<trkpt lat="58.34620" lon="6.34183">
					<ele>117</ele>
					<time>0001-01-01T00:00:00Z</time>
				</trkpt>
				<trkpt lat="58.34624" lon="6.34126">
					<ele>115</ele>
					<time>0001-01-01T00:00:00Z</time>
				</trkpt>
				<trkpt lat="58.34618" lon="6.33890">
					<ele>109</ele>
					<time>0001-01-01T00:00:00Z</time>
				</trkpt>
				<trkpt lat="58.34635" lon="6.33580">
					<ele>106</ele>
					<time>0001-01-01T00:00:00Z</time>
				</trkpt>
				<trkpt lat="58.34673" lon="6.33170">
					<ele>106</ele>
					<time>0001-01-01T00:00:00Z</time>
				</trkpt>
				<trkpt lat="58.34685" lon="6.32872">
					<ele>8</ele>
					<time>0001-01-01T00:00:00Z</time>
				</trkpt>
				<trkpt lat="58.34682" lon="6.32604">
					<ele>10</ele>
					<time>0001-01-01T00:00:00Z</time>
				</trkpt>
				<trkpt lat="58.34663" lon="6.32312">
					<ele>10</ele>
					<time>0001-01-01T00:00:00Z</time>
				</trkpt>
				<trkpt lat="58.34660" lon="6.32288">
					<ele>10</ele>
					<time>0001-01-01T00:00:00Z</time>
				</trkpt>
				<trkpt lat="58.34627" lon="6.32121">
					<ele>10</ele>
					<time>0001-01-01T00:00:00Z</time>
				</trkpt>
				<trkpt lat="58.34565" lon="6.32036">
					<ele>10</ele>
					<time>0001-01-01T00:00:00Z</time>
				</trkpt>
				<trkpt lat="58.34543" lon="6.32001">
					<ele>10</ele>
					<time>0001-01-01T00:00:00Z</time>
				</trkpt>
				<trkpt lat="58.34480" lon="6.31780">
					<ele>11</ele>
					<time>0001-01-01T00:00:00Z</time>
				</trkpt>
				<trkpt lat="58.34462" lon="6.31725">
					<ele>11</ele>
					<time>0001-01-01T00:00:00Z</time>
				</trkpt>
				<trkpt lat="58.34413" lon="6.31627">
					<ele>10</ele>
					<time>0001-01-01T00:00:00Z</time>
				</trkpt>
				<trkpt lat="58.34395" lon="6.31539">
					<ele>10</ele>
					<time>0001-01-01T00:00:00Z</time>
				</trkpt>
				<trkpt lat="58.34437" lon="6.31318">
					<ele>9</ele>
					<time>0001-01-01T00:00:00Z</time>
				</trkpt>
				<trkpt lat="58.34453" lon="6.31119">
					<ele>9</ele>
					<time>0001-01-01T00:00:00Z</time>
				</trkpt>
				<trkpt lat="58.34422" lon="6.30940">
					<ele>8</ele>
					<time>0001-01-01T00:00:00Z</time>
				</trkpt>
				<trkpt lat="58.34372" lon="6.30702">
					<ele>7</ele>
					<time>0001-01-01T00:00:00Z</time>
				</trkpt>
				<trkpt lat="58.34375" lon="6.30502">
					<ele>7</ele>
					<time>0001-01-01T00:00:00Z</time>
				</trkpt>
				<trkpt lat="58.34413" lon="6.30275">
					<ele>9</ele>
					<time>0001-01-01T00:00:00Z</time>
				</trkpt>
				<trkpt lat="58.34458" lon="6.29949">
					<ele>7</ele>
					<time>0001-01-01T00:00:00Z</time>
				</trkpt>
				<trkpt lat="58.34484" lon="6.29585">
					<ele>6</ele>
					<time>0001-01-01T00:00:00Z</time>
				</trkpt>
				<trkpt lat="58.34507" lon="6.29226">
					<ele>5</ele>
					<time>0001-01-01T00:00:00Z</time>
				</trkpt>
				<trkpt lat="58.34482" lon="6.29060">
					<ele>6</ele>
					<time>0001-01-01T00:00:00Z</time>
				</trkpt>
				<trkpt lat="58.34408" lon="6.28896">
					<ele>7</ele>
					<time>0001-01-01T00:00:00Z</time>
				</trkpt>
				<trkpt lat="58.34355" lon="6.28816">
					<ele>12</ele>
					<time>0001-01-01T00:00:00Z</time>
				</trkpt>
				<trkpt lat="58.34285" lon="6.28729">
					<ele>15</ele>
					<time>0001-01-01T00:00:00Z</time>
				</trkpt>
				<trkpt lat="58.34244" lon="6.28593">
					<ele>14</ele>
					<time>0001-01-01T00:00:00Z</time>
				</trkpt>
				<trkpt lat="58.34251" lon="6.28511">
					<ele>11</ele>
					<time>0001-01-01T00:00:00Z</time>
				</trkpt>
				<trkpt lat="58.34260" lon="6.28467">
					<ele>9</ele>
					<time>0001-01-01T00:00:00Z</time>
				</trkpt>
				<trkpt lat="58.34322" lon="6.28285">
					<ele>8</ele>
					<time>0001-01-01T00:00:00Z</time>
				</trkpt>
				<trkpt lat="58.34376" lon="6.28117">
					<ele>11</ele>
					<time>0001-01-01T00:00:00Z</time>
				</trkpt>
				<trkpt lat="58.34422" lon="6.27976">
					<ele>14</ele>
					<time>0001-01-01T00:00:00Z</time>
				</trkpt>
				<trkpt lat="58.34485" lon="6.27862">
					<ele>16</ele>
					<time>0001-01-01T00:00:00Z</time>
				</trkpt>
				<trkpt lat="58.34525" lon="6.27796">
					<ele>18</ele>
					<time>0001-01-01T00:00:00Z</time>
				</trkpt>
				<trkpt lat="58.34568" lon="6.27659">
					<ele>23</ele>
					<time>0001-01-01T00:00:00Z</time>
				</trkpt>
				<trkpt lat="58.34617" lon="6.27550">
					<ele>28</ele>
					<time>0001-01-01T00:00:00Z</time>
				</trkpt>
				<trkpt lat="58.34691" lon="6.27461">
					<ele>32</ele>
					<time>0001-01-01T00:00:00Z</time>
				</trkpt>
				<trkpt lat="58.34765" lon="6.27370">
					<ele>36</ele>
					<time>0001-01-01T00:00:00Z</time>
				</trkpt>
				<trkpt lat="58.34877" lon="6.27244">
					<ele>40</ele>
					<time>0001-01-01T00:00:00Z</time>
				</trkpt>
				<trkpt lat="58.35003" lon="6.27166">
					<ele>41</ele>
					<time>0001-01-01T00:00:00Z</time>
				</trkpt>
				<trkpt lat="58.35103" lon="6.27107">
					<ele>45</ele>
					<time>0001-01-01T00:00:00Z</time>
				</trkpt>
				<trkpt lat="58.35180" lon="6.27060">
					<ele>50</ele>
					<time>0001-01-01T00:00:00Z</time>
				</trkpt>
				<trkpt lat="58.35270" lon="6.27021">
					<ele>51</ele>
					<time>0001-01-01T00:00:00Z</time>
				</trkpt>
				<trkpt lat="58.35353" lon="6.26999">
					<ele>53</ele>
					<time>0001-01-01T00:00:00Z</time>
				</trkpt>
				<trkpt lat="58.35465" lon="6.26974">
					<ele>58</ele>
					<time>0001-01-01T00:00:00Z</time>
				</trkpt>
				<trkpt lat="58.35568" lon="6.26951">
					<ele>59</ele>
					<time>0001-01-01T00:00:00Z</time>
				</trkpt>
				<trkpt lat="58.35894" lon="6.26869">
					<ele>62</ele>
					<time>0001-01-01T00:00:00Z</time>
				</trkpt>
				<trkpt lat="58.36041" lon="6.26773">
					<ele>63</ele>
					<time>0001-01-01T00:00:00Z</time>
				</trkpt>
				<trkpt lat="58.36268" lon="6.26680">
					<ele>65</ele>
					<time>0001-01-01T00:00:00Z</time>
				</trkpt>
				<trkpt lat="58.36299" lon="6.26669">
					<ele>66</ele>
					<time>0001-01-01T00:00:00Z</time>
				</trkpt>
				<trkpt lat="58.36405" lon="6.26636">
					<ele>69</ele>
					<time>0001-01-01T00:00:00Z</time>
				</trkpt>
				<trkpt lat="58.36481" lon="6.26596">
					<ele>79</ele>
					<time>0001-01-01T00:00:00Z</time>
				</trkpt>
				<trkpt lat="58.36539" lon="6.26525">
					<ele>84</ele>
					<time>0001-01-01T00:00:00Z</time>
				</trkpt>
				<trkpt lat="58.36583" lon="6.26413">
					<ele>90</ele>
					<time>0001-01-01T00:00:00Z</time>
				</trkpt>
				<trkpt lat="58.36595" lon="6.26357">
					<ele>91</ele>
					<time>0001-01-01T00:00:00Z</time>
				</trkpt>
				<trkpt lat="58.36602" lon="6.26175">
					<ele>96</ele>
					<time>0001-01-01T00:00:00Z</time>
				</trkpt>
				<trkpt lat="58.36573" lon="6.25976">
					<ele>97</ele>
					<time>0001-01-01T00:00:00Z</time>
				</trkpt>
				<trkpt lat="58.36571" lon="6.25964">
					<ele>98</ele>
					<time>0001-01-01T00:00:00Z</time>
				</trkpt>
				<trkpt lat="58.36568" lon="6.25862">
					<ele>99</ele>
					<time>0001-01-01T00:00:00Z</time>
				</trkpt>
				<trkpt lat="58.36578" lon="6.25781">
					<ele>102</ele>
					<time>0001-01-01T00:00:00Z</time>
				</trkpt>
				<trkpt lat="58.36582" lon="6.25764">
					<ele>102</ele>
					<time>0001-01-01T00:00:00Z</time>
				</trkpt>
				<trkpt lat="58.36615" lon="6.25655">
					<ele>107</ele>
					<time>0001-01-01T00:00:00Z</time>
				</trkpt>
				<trkpt lat="58.36667" lon="6.25535">
					<ele>109</ele>
					<time>0001-01-01T00:00:00Z</time>
				</trkpt>
				<trkpt lat="58.36730" lon="6.25419">
					<ele>110</ele>
					<time>0001-01-01T00:00:00Z</time>
				</trkpt>
				<trkpt lat="58.36736" lon="6.25410">
					<ele>110</ele>
					<time>0001-01-01T00:00:00Z</time>
				</trkpt>
				<trkpt lat="58.36864" lon="6.25320">
					<ele>107</ele>
					<time>0001-01-01T00:00:00Z</time>
				</trkpt>
				<trkpt lat="58.37008" lon="6.25226">
					<ele>107</ele>
					<time>0001-01-01T00:00:00Z</time>
				</trkpt>
				<trkpt lat="58.37144" lon="6.25098">
					<ele>106</ele>
					<time>0001-01-01T00:00:00Z</time>
				</trkpt>
				<trkpt lat="58.37241" lon="6.24979">
					<ele>110</ele>
					<time>0001-01-01T00:00:00Z</time>
				</trkpt>
				<trkpt lat="58.37291" lon="6.24903">
					<ele>114</ele>
					<time>0001-01-01T00:00:00Z</time>
				</trkpt>
				<trkpt lat="58.37356" lon="6.24782">
					<ele>116</ele>
					<time>0001-01-01T00:00:00Z</time>
				</trkpt>
				<trkpt lat="58.37413" lon="6.24649">
					<ele>121</ele>
					<time>0001-01-01T00:00:00Z</time>
				</trkpt>
				<trkpt lat="58.37468" lon="6.24509">
					<ele>125</ele>
					<time>0001-01-01T00:00:00Z</time>
				</trkpt>
				<trkpt lat="58.37530" lon="6.24413">
					<ele>131</ele>
					<time>0001-01-01T00:00:00Z</time>
				</trkpt>
				<trkpt lat="58.37682" lon="6.24257">
					<ele>140</ele>
					<time>0001-01-01T00:00:00Z</time>
				</trkpt>
				<trkpt lat="58.37721" lon="6.24138">
					<ele>143</ele>
					<time>0001-01-01T00:00:00Z</time>
				</trkpt>
				<trkpt lat="58.37716" lon="6.24010">
					<ele>146</ele>
					<time>0001-01-01T00:00:00Z</time>
				</trkpt>
				<trkpt lat="58.37697" lon="6.23963">
					<ele>144</ele>
					<time>0001-01-01T00:00:00Z</time>
				</trkpt>
				<trkpt lat="58.37693" lon="6.23958">
					<ele>144</ele>
					<time>0001-01-01T00:00:00Z</time>
				</trkpt>
				<trkpt lat="58.37670" lon="6.23922">
					<ele>144</ele>
					<time>0001-01-01T00:00:00Z</time>
				</trkpt>
				<trkpt lat="58.37662" lon="6.23913">
					<ele>144</ele>
					<time>0001-01-01T00:00:00Z</time>
				</trkpt>
				<trkpt lat="58.37547" lon="6.23830">
					<ele>146</ele>
					<time>0001-01-01T00:00:00Z</time>
				</trkpt>
				<trkpt lat="58.37434" lon="6.23718">
					<ele>152</ele>
					<time>0001-01-01T00:00:00Z</time>
				</trkpt>
				<trkpt lat="58.37347" lon="6.23595">
					<ele>158</ele>
					<time>0001-01-01T00:00:00Z</time>
				</trkpt>
				<trkpt lat="58.37324" lon="6.23536">
					<ele>161</ele>
					<time>0001-01-01T00:00:00Z</time>
				</trkpt>
				<trkpt lat="58.37309" lon="6.23346">
					<ele>164</ele>
					<time>0001-01-01T00:00:00Z</time>
				</trkpt>
				<trkpt lat="58.37344" lon="6.23174">
					<ele>164</ele>
					<time>0001-01-01T00:00:00Z</time>
				</trkpt>
				<trkpt lat="58.37433" lon="6.22942">
					<ele>165</ele>
					<time>0001-01-01T00:00:00Z</time>
				</trkpt>
				<trkpt lat="58.37502" lon="6.22761">
					<ele>169</ele>
					<time>0001-01-01T00:00:00Z</time>
				</trkpt>
				<trkpt lat="58.37546" lon="6.22582">
					<ele>171</ele>
					<time>0001-01-01T00:00:00Z</time>
				</trkpt>
				<trkpt lat="58.37563" lon="6.22387">
					<ele>173</ele>
					<time>0001-01-01T00:00:00Z</time>
				</trkpt>
				<trkpt lat="58.37599" lon="6.22193">
					<ele>179</ele>
					<time>0001-01-01T00:00:00Z</time>
				</trkpt>
				<trkpt lat="58.37669" lon="6.22010">
					<ele>182</ele>
					<time>0001-01-01T00:00:00Z</time>
				</trkpt>
				<trkpt lat="58.37733" lon="6.21807">
					<ele>182</ele>
					<time>0001-01-01T00:00:00Z</time>
				</trkpt>
				<trkpt lat="58.37769" lon="6.21625">
					<ele>184</ele>
					<time>0001-01-01T00:00:00Z</time>
				</trkpt>
				<trkpt lat="58.37814" lon="6.21427">
					<ele>190</ele>
					<time>0001-01-01T00:00:00Z</time>
				</trkpt>
				<trkpt lat="58.37833" lon="6.21225">
					<ele>196</ele>
					<time>0001-01-01T00:00:00Z</time>
				</trkpt>
				<trkpt lat="58.37822" lon="6.21001">
					<ele>197</ele>
					<time>0001-01-01T00:00:00Z</time>
				</trkpt>
				<trkpt lat="58.37814" lon="6.20737">
					<ele>198</ele>
					<time>0001-01-01T00:00:00Z</time>
				</trkpt>
				<trkpt lat="58.37805" lon="6.20503">
					<ele>198</ele>
					<time>0001-01-01T00:00:00Z</time>
				</trkpt>
				<trkpt lat="58.37808" lon="6.20241">
					<ele>200</ele>
					<time>0001-01-01T00:00:00Z</time>
				</trkpt>
				<trkpt lat="58.37842" lon="6.19884">
					<ele>202</ele>
					<time>0001-01-01T00:00:00Z</time>
				</trkpt>
				<trkpt lat="58.37874" lon="6.19598">
					<ele>195</ele>
					<time>0001-01-01T00:00:00Z</time>
				</trkpt>
				<trkpt lat="58.37909" lon="6.19496">
					<ele>194</ele>
					<time>0001-01-01T00:00:00Z</time>
				</trkpt>
				<trkpt lat="58.37989" lon="6.19362">
					<ele>198</ele>
					<time>0001-01-01T00:00:00Z</time>
				</trkpt>
				<trkpt lat="58.38025" lon="6.19222">
					<ele>198</ele>
					<time>0001-01-01T00:00:00Z</time>
				</trkpt>
				<trkpt lat="58.38027" lon="6.19168">
					<ele>198</ele>
					<time>0001-01-01T00:00:00Z</time>
				</trkpt>
				<trkpt lat="58.38010" lon="6.18894">
					<ele>197</ele>
					<time>0001-01-01T00:00:00Z</time>
				</trkpt>
				<trkpt lat="58.38016" lon="6.18829">
					<ele>197</ele>
					<time>0001-01-01T00:00:00Z</time>
				</trkpt>
				<trkpt lat="58.38082" lon="6.18642">
					<ele>199</ele>
					<time>0001-01-01T00:00:00Z</time>
				</trkpt>
				<trkpt lat="58.38099" lon="6.18599">
					<ele>198</ele>
					<time>0001-01-01T00:00:00Z</time>
				</trkpt>
				<trkpt lat="58.38112" lon="6.18495">
					<ele>196</ele>
					<time>0001-01-01T00:00:00Z</time>
				</trkpt>
				<trkpt lat="58.38103" lon="6.18405">
					<ele>196</ele>
					<time>0001-01-01T00:00:00Z</time>
				</trkpt>
				<trkpt lat="58.38001" lon="6.18066">
					<ele>189</ele>
					<time>0001-01-01T00:00:00Z</time>
				</trkpt>
				<trkpt lat="58.37985" lon="6.18011">
					<ele>188</ele>
					<time>0001-01-01T00:00:00Z</time>
				</trkpt>
				<trkpt lat="58.37883" lon="6.17832">
					<ele>184</ele>
					<time>0001-01-01T00:00:00Z</time>
				</trkpt>
				<trkpt lat="58.37838" lon="6.17781">
					<ele>182</ele>
					<time>0001-01-01T00:00:00Z</time>
				</trkpt>
				<trkpt lat="58.37789" lon="6.17615">
					<ele>173</ele>
					<time>0001-01-01T00:00:00Z</time>
				</trkpt>
				<trkpt lat="58.37769" lon="6.17391">
					<ele>167</ele>
					<time>0001-01-01T00:00:00Z</time>
				</trkpt>
				<trkpt lat="58.37801" lon="6.17179">
					<ele>163</ele>
					<time>0001-01-01T00:00:00Z</time>
				</trkpt>
				<trkpt lat="58.37906" lon="6.16959">
					<ele>163</ele>
					<time>0001-01-01T00:00:00Z</time>
				</trkpt>
				<trkpt lat="58.37918" lon="6.16931">
					<ele>164</ele>
					<time>0001-01-01T00:00:00Z</time>
				</trkpt>
				<trkpt lat="58.37953" lon="6.16696">
					<ele>161</ele>
					<time>0001-01-01T00:00:00Z</time>
				</trkpt>
				<trkpt lat="58.37948" lon="6.16511">
					<ele>158</ele>
					<time>0001-01-01T00:00:00Z</time>
				</trkpt>
				<trkpt lat="58.37925" lon="6.16407">
					<ele>155</ele>
					<time>0001-01-01T00:00:00Z</time>
				</trkpt>
				<trkpt lat="58.37785" lon="6.16048">
					<ele>150</ele>
					<time>0001-01-01T00:00:00Z</time>
				</trkpt>
				<trkpt lat="58.37731" lon="6.15818">
					<ele>145</ele>
					<time>0001-01-01T00:00:00Z</time>
				</trkpt>
				<trkpt lat="58.37759" lon="6.15537">
					<ele>139</ele>
					<time>0001-01-01T00:00:00Z</time>
				</trkpt>
				<trkpt lat="58.37794" lon="6.15257">
					<ele>127</ele>
					<time>0001-01-01T00:00:00Z</time>
				</trkpt>
				<trkpt lat="58.37855" lon="6.14900">
					<ele>122</ele>
					<time>0001-01-01T00:00:00Z</time>
				</trkpt>
				<trkpt lat="58.37881" lon="6.14719">
					<ele>123</ele>
					<time>0001-01-01T00:00:00Z</time>
				</trkpt>
				<trkpt lat="58.37886" lon="6.14634">
					<ele>123</ele>
					<time>0001-01-01T00:00:00Z</time>
				</trkpt>
				<trkpt lat="58.37864" lon="6.14446">
					<ele>116</ele>
					<time>0001-01-01T00:00:00Z</time>
				</trkpt>
				<trkpt lat="58.37854" lon="6.14352">
					<ele>114</ele>
					<time>0001-01-01T00:00:00Z</time>
				</trkpt>
				<trkpt lat="58.37861" lon="6.14048">
					<ele>111</ele>
					<time>0001-01-01T00:00:00Z</time>
				</trkpt>
				<trkpt lat="58.37836" lon="6.13786">
					<ele>109</ele>
					<time>0001-01-01T00:00:00Z</time>
				</trkpt>
				<trkpt lat="58.37833" lon="6.13579">
					<ele>109</ele>
					<time>0001-01-01T00:00:00Z</time>
				</trkpt>
				<trkpt lat="58.37850" lon="6.13210">
					<ele>109</ele>
					<time>0001-01-01T00:00:00Z</time>
				</trkpt>
				<trkpt lat="58.37827" lon="6.12902">
					<ele>107</ele>
					<time>0001-01-01T00:00:00Z</time>
				</trkpt>
				<trkpt lat="58.37815" lon="6.12723">
					<ele>104</ele>
					<time>0001-01-01T00:00:00Z</time>
				</trkpt>
				<trkpt lat="58.37842" lon="6.12438">
					<ele>99</ele>
					<time>0001-01-01T00:00:00Z</time>
				</trkpt>
				<trkpt lat="58.37853" lon="6.12324">
					<ele>91</ele>
					<time>0001-01-01T00:00:00Z</time>
				</trkpt>
				<trkpt lat="58.37824" lon="6.12159">
					<ele>83</ele>
					<time>0001-01-01T00:00:00Z</time>
				</trkpt>
				<trkpt lat="58.37835" lon="6.11981">
					<ele>76</ele>
					<time>0001-01-01T00:00:00Z</time>
				</trkpt>
				<trkpt lat="58.37842" lon="6.11958">
					<ele>76</ele>
					<time>0001-01-01T00:00:00Z</time>
				</trkpt>
				<trkpt lat="58.37931" lon="6.11671">
					<ele>69</ele>
					<time>0001-01-01T00:00:00Z</time>
				</trkpt>
				<trkpt lat="58.37998" lon="6.11392">
					<ele>64</ele>
					<time>0001-01-01T00:00:00Z</time>
				</trkpt>
				<trkpt lat="58.38061" lon="6.11242">
					<ele>61</ele>
					<time>0001-01-01T00:00:00Z</time>
				</trkpt>
				<trkpt lat="58.38227" lon="6.10970">
					<ele>58</ele>
					<time>0001-01-01T00:00:00Z</time>
				</trkpt>
				<trkpt lat="58.38287" lon="6.10806">
					<ele>55</ele>
					<time>0001-01-01T00:00:00Z</time>
				</trkpt>
				<trkpt lat="58.38331" lon="6.10574">
					<ele>56</ele>
					<time>0001-01-01T00:00:00Z</time>
				</trkpt>
				<trkpt lat="58.38362" lon="6.10520">
					<ele>56</ele>
					<time>0001-01-01T00:00:00Z</time>
				</trkpt>
				<trkpt lat="58.38479" lon="6.10353">
					<ele>53</ele>
					<time>0001-01-01T00:00:00Z</time>
				</trkpt>
				<trkpt lat="58.38583" lon="6.10106">
					<ele>53</ele>
					<time>0001-01-01T00:00:00Z</time>
				</trkpt>
				<trkpt lat="58.38699" lon="6.09890">
					<ele>53</ele>
					<time>0001-01-01T00:00:00Z</time>
				</trkpt>
				<trkpt lat="58.38715" lon="6.09808">
					<ele>53</ele>
					<time>0001-01-01T00:00:00Z</time>
				</trkpt>
				<trkpt lat="58.38719" lon="6.09747">
					<ele>53</ele>
					<time>0001-01-01T00:00:00Z</time>
				</trkpt>
				<trkpt lat="58.38726" lon="6.09718">
					<ele>53</ele>
					<time>0001-01-01T00:00:00Z</time>
				</trkpt>
				<trkpt lat="58.38782" lon="6.09641">
					<ele>53</ele>
					<time>0001-01-01T00:00:00Z</time>
				</trkpt>
				<trkpt lat="58.38908" lon="6.09556">
					<ele>53</ele>
					<time>0001-01-01T00:00:00Z</time>
				</trkpt>
				<trkpt lat="58.39004" lon="6.09393">
					<ele>53</ele>
					<time>0001-01-01T00:00:00Z</time>
				</trkpt>
				<trkpt lat="58.39104" lon="6.09134">
					<ele>51</ele>
					<time>0001-01-01T00:00:00Z</time>
				</trkpt>
				<trkpt lat="58.39163" lon="6.08887">
					<ele>50</ele>
					<time>0001-01-01T00:00:00Z</time>
				</trkpt>
				<trkpt lat="58.39165" lon="6.08869">
					<ele>50</ele>
					<time>0001-01-01T00:00:00Z</time>
				</trkpt>
				<trkpt lat="58.39160" lon="6.08778">
					<ele>49</ele>
					<time>0001-01-01T00:00:00Z</time>
				</trkpt>
				<trkpt lat="58.39092" lon="6.08474">
					<ele>47</ele>
					<time>0001-01-01T00:00:00Z</time>
				</trkpt>
				<trkpt lat="58.39110" lon="6.08336">
					<ele>45</ele>
					<time>0001-01-01T00:00:00Z</time>
				</trkpt>
				<trkpt lat="58.39123" lon="6.08311">
					<ele>45</ele>
					<time>0001-01-01T00:00:00Z</time>
				</trkpt>
				<trkpt lat="58.39177" lon="6.08226">
					<ele>46</ele>
					<time>0001-01-01T00:00:00Z</time>
				</trkpt>
				<trkpt lat="58.39200" lon="6.08095">
					<ele>45</ele>
					<time>0001-01-01T00:00:00Z</time>
				</trkpt>
				<trkpt lat="58.39190" lon="6.08027">
					<ele>43</ele>
					<time>0001-01-01T00:00:00Z</time>
				</trkpt>
				<trkpt lat="58.39132" lon="6.07799">
					<ele>36</ele>
					<time>0001-01-01T00:00:00Z</time>
				</trkpt>
				<trkpt lat="58.39084" lon="6.07563">
					<ele>29</ele>
					<time>0001-01-01T00:00:00Z</time>
				</trkpt>
				<trkpt lat="58.39049" lon="6.07477">
					<ele>26</ele>
					<time>0001-01-01T00:00:00Z</time>
				</trkpt>
				<trkpt lat="58.38926" lon="6.07307">
					<ele>22</ele>
					<time>0001-01-01T00:00:00Z</time>
				</trkpt>
				<trkpt lat="58.38741" lon="6.07062">
					<ele>14</ele>
					<time>0001-01-01T00:00:00Z</time>
				</trkpt>
				<trkpt lat="58.38714" lon="6.07011">
					<ele>13</ele>
					<time>0001-01-01T00:00:00Z</time>
				</trkpt>
				<trkpt lat="58.38633" lon="6.06746">
					<ele>11</ele>
					<time>0001-01-01T00:00:00Z</time>
				</trkpt>
				<trkpt lat="58.38633" lon="6.06746">
					<ele>11</ele>
					<time>0001-01-01T00:00:00Z</time>
				</trkpt>
				<trkpt lat="58.38510" lon="6.06424">
					<ele>12</ele>
					<time>0001-01-01T00:00:00Z</time>
				</trkpt>
				<trkpt lat="58.38512" lon="6.06407">
					<ele>12</ele>
					<time>0001-01-01T00:00:00Z</time>
				</trkpt>
				<trkpt lat="58.38410" lon="6.06105">
					<ele>10</ele>
					<time>0001-01-01T00:00:00Z</time>
				</trkpt>
				<trkpt lat="58.38373" lon="6.05944">
					<ele>12</ele>
					<time>0001-01-01T00:00:00Z</time>
				</trkpt>
				<trkpt lat="58.38310" lon="6.05638">
					<ele>12</ele>
					<time>0001-01-01T00:00:00Z</time>
				</trkpt>
				<trkpt lat="58.38307" lon="6.05613">
					<ele>12</ele>
					<time>0001-01-01T00:00:00Z</time>
				</trkpt>
				<trkpt lat="58.38305" lon="6.05573">
					<ele>14</ele>
					<time>0001-01-01T00:00:00Z</time>
				</trkpt>
				<trkpt lat="58.38323" lon="6.05445">
					<ele>15</ele>
					<time>0001-01-01T00:00:00Z</time>
				</trkpt>
				<trkpt lat="58.38374" lon="6.05351">
					<ele>15</ele>
					<time>0001-01-01T00:00:00Z</time>
				</trkpt>
				<trkpt lat="58.38462" lon="6.05265">
					<ele>15</ele>
					<time>0001-01-01T00:00:00Z</time>
				</trkpt>
				<trkpt lat="58.38490" lon="6.05233">
					<ele>17</ele>
					<time>0001-01-01T00:00:00Z</time>
				</trkpt>
				<trkpt lat="58.38524" lon="6.05171">
					<ele>20</ele>
					<time>0001-01-01T00:00:00Z</time>
				</trkpt>
				<trkpt lat="58.38550" lon="6.05017">
					<ele>25</ele>
					<time>0001-01-01T00:00:00Z</time>
				</trkpt>
				<trkpt lat="58.38562" lon="6.04960">
					<ele>26</ele>
					<time>0001-01-01T00:00:00Z</time>
				</trkpt>
				<trkpt lat="58.38581" lon="6.04917">
					<ele>27</ele>
					<time>0001-01-01T00:00:00Z</time>
				</trkpt>
				<trkpt lat="58.38657" lon="6.04870">
					<ele>29</ele>
					<time>0001-01-01T00:00:00Z</time>
				</trkpt>
				<trkpt lat="58.38788" lon="6.04822">
					<ele>29</ele>
					<time>0001-01-01T00:00:00Z</time>
				</trkpt>
				<trkpt lat="58.38892" lon="6.04797">
					<ele>30</ele>
					<time>0001-01-01T00:00:00Z</time>
				</trkpt>
				<trkpt lat="58.38964" lon="6.04723">
					<ele>35</ele>
					<time>0001-01-01T00:00:00Z</time>
				</trkpt>
				<trkpt lat="58.38997" lon="6.04578">
					<ele>37</ele>
					<time>0001-01-01T00:00:00Z</time>
				</trkpt>
				<trkpt lat="58.39011" lon="6.04457">
					<ele>40</ele>
					<time>0001-01-01T00:00:00Z</time>
				</trkpt>
				<trkpt lat="58.39042" lon="6.04396">
					<ele>42</ele>
					<time>0001-01-01T00:00:00Z</time>
				</trkpt>
				<trkpt lat="58.39138" lon="6.04328">
					<ele>46</ele>
					<time>0001-01-01T00:00:00Z</time>
				</trkpt>
				<trkpt lat="58.39151" lon="6.04317">
					<ele>47</ele>
					<time>0001-01-01T00:00:00Z</time>
				</trkpt>
				<trkpt lat="58.39216" lon="6.04187">
					<ele>50</ele>
					<time>0001-01-01T00:00:00Z</time>
				</trkpt>
				<trkpt lat="58.39301" lon="6.04016">
					<ele>51</ele>
					<time>0001-01-01T00:00:00Z</time>
				</trkpt>
				<trkpt lat="58.39392" lon="6.03973">
					<ele>53</ele>
					<time>0001-01-01T00:00:00Z</time>
				</trkpt>
				<trkpt lat="58.39579" lon="6.03974">
					<ele>53</ele>
					<time>0001-01-01T00:00:00Z</time>
				</trkpt>
				<trkpt lat="58.39707" lon="6.03913">
					<ele>53</ele>
					<time>0001-01-01T00:00:00Z</time>
				</trkpt>
				<trkpt lat="58.39839" lon="6.03790">
					<ele>52</ele>
					<time>0001-01-01T00:00:00Z</time>
				</trkpt>
				<trkpt lat="58.39980" lon="6.03658">
					<ele>46</ele>
					<time>0001-01-01T00:00:00Z</time>
				</trkpt>
				<trkpt lat="58.40151" lon="6.03496">
					<ele>43</ele>
					<time>0001-01-01T00:00:00Z</time>
				</trkpt>
				<trkpt lat="58.40211" lon="6.03429">
					<ele>45</ele>
					<time>0001-01-01T00:00:00Z</time>
				</trkpt>
				<trkpt lat="58.40298" lon="6.03287">
					<ele>45</ele>
					<time>0001-01-01T00:00:00Z</time>
				</trkpt>
				<trkpt lat="58.40390" lon="6.03181">
					<ele>45</ele>
					<time>0001-01-01T00:00:00Z</time>
				</trkpt>
				<trkpt lat="58.40503" lon="6.03089">
					<ele>46</ele>
					<time>0001-01-01T00:00:00Z</time>
				</trkpt>
				<trkpt lat="58.40631" lon="6.02977">
					<ele>46</ele>
					<time>0001-01-01T00:00:00Z</time>
				</trkpt>
				<trkpt lat="58.40660" lon="6.02937">
					<ele>46</ele>
					<time>0001-01-01T00:00:00Z</time>
				</trkpt>
				<trkpt lat="58.40751" lon="6.02789">
					<ele>42</ele>
					<time>0001-01-01T00:00:00Z</time>
				</trkpt>
				<trkpt lat="58.40914" lon="6.02663">
					<ele>38</ele>
					<time>0001-01-01T00:00:00Z</time>
				</trkpt>
				<trkpt lat="58.41035" lon="6.02623">
					<ele>37</ele>
					<time>0001-01-01T00:00:00Z</time>
				</trkpt>
				<trkpt lat="58.41170" lon="6.02601">
					<ele>39</ele>
					<time>0001-01-01T00:00:00Z</time>
				</trkpt>
				<trkpt lat="58.41218" lon="6.02577">
					<ele>40</ele>
					<time>0001-01-01T00:00:00Z</time>
				</trkpt>
				<trkpt lat="58.41342" lon="6.02455">
					<ele>40</ele>
					<time>0001-01-01T00:00:00Z</time>
				</trkpt>
				<trkpt lat="58.41493" lon="6.02296">
					<ele>40</ele>
					<time>0001-01-01T00:00:00Z</time>
				</trkpt>
				<trkpt lat="58.41630" lon="6.02183">
					<ele>38</ele>
					<time>0001-01-01T00:00:00Z</time>
				</trkpt>
				<trkpt lat="58.41732" lon="6.02144">
					<ele>37</ele>
					<time>0001-01-01T00:00:00Z</time>
				</trkpt>
				<trkpt lat="58.41890" lon="6.02027">
					<ele>37</ele>
					<time>0001-01-01T00:00:00Z</time>
				</trkpt>
				<trkpt lat="58.41981" lon="6.02060">
					<ele>38</ele>
					<time>0001-01-01T00:00:00Z</time>
				</trkpt>
				<trkpt lat="58.42053" lon="6.02149">
					<ele>36</ele>
					<time>0001-01-01T00:00:00Z</time>
				</trkpt>
				<trkpt lat="58.42137" lon="6.02154">
					<ele>35</ele>
					<time>0001-01-01T00:00:00Z</time>
				</trkpt>
				<trkpt lat="58.42173" lon="6.02103">
					<ele>34</ele>
					<time>0001-01-01T00:00:00Z</time>
				</trkpt>
				<trkpt lat="58.42216" lon="6.02000">
					<ele>32</ele>
					<time>0001-01-01T00:00:00Z</time>
				</trkpt>
				<trkpt lat="58.42278" lon="6.01935">
					<ele>30</ele>
					<time>0001-01-01T00:00:00Z</time>
				</trkpt>
				<trkpt lat="58.42387" lon="6.01871">
					<ele>28</ele>
					<time>0001-01-01T00:00:00Z</time>
				</trkpt>
				<trkpt lat="58.42494" lon="6.01701">
					<ele>24</ele>
					<time>0001-01-01T00:00:00Z</time>
				</trkpt>
				<trkpt lat="58.42591" lon="6.01581">
					<ele>21</ele>
					<time>0001-01-01T00:00:00Z</time>
				</trkpt>
				<trkpt lat="58.42693" lon="6.01482">
					<ele>17</ele>
					<time>0001-01-01T00:00:00Z</time>
				</trkpt>
				<trkpt lat="58.42789" lon="6.01352">
					<ele>15</ele>
					<time>0001-01-01T00:00:00Z</time>
				</trkpt>
				<trkpt lat="58.42944" lon="6.01273">
					<ele>10</ele>
					<time>0001-01-01T00:00:00Z</time>
				</trkpt>
				<trkpt lat="58.43095" lon="6.01257">
					<ele>5</ele>
					<time>0001-01-01T00:00:00Z</time>
				</trkpt>
				<trkpt lat="58.43229" lon="6.01294">
					<ele>3</ele>
					<time>0001-01-01T00:00:00Z</time>
				</trkpt>
				<trkpt lat="58.43343" lon="6.01245">
					<ele>3</ele>
					<time>0001-01-01T00:00:00Z</time>
				</trkpt>
				<trkpt lat="58.43462" lon="6.01138">
					<ele>4</ele>
					<time>0001-01-01T00:00:00Z</time>
				</trkpt>
				<trkpt lat="58.43593" lon="6.01117">
					<ele>4</ele>
					<time>0001-01-01T00:00:00Z</time>
				</trkpt>
				<trkpt lat="58.43711" lon="6.01092">
					<ele>4</ele>
					<time>0001-01-01T00:00:00Z</time>
				</trkpt>
				<trkpt lat="58.43835" lon="6.00987">
					<ele>4</ele>
					<time>0001-01-01T00:00:00Z</time>
				</trkpt>
				<trkpt lat="58.43972" lon="6.00842">
					<ele>2</ele>
					<time>0001-01-01T00:00:00Z</time>
				</trkpt>
				<trkpt lat="58.44099" lon="6.00755">
					<ele>3</ele>
					<time>0001-01-01T00:00:00Z</time>
				</trkpt>
				<trkpt lat="58.44237" lon="6.00690">
					<ele>5</ele>
					<time>0001-01-01T00:00:00Z</time>
				</trkpt>
				<trkpt lat="58.44334" lon="6.00655">
					<ele>7</ele>
					<time>0001-01-01T00:00:00Z</time>
				</trkpt>
				<trkpt lat="58.44460" lon="6.00599">
					<ele>12</ele>
					<time>0001-01-01T00:00:00Z</time>
				</trkpt>
				<trkpt lat="58.44578" lon="6.00573">
					<ele>14</ele>
					<time>0001-01-01T00:00:00Z</time>
				</trkpt>
				<trkpt lat="58.44703" lon="6.00582">
					<ele>10</ele>
					<time>0001-01-01T00:00:00Z</time>
				</trkpt>
				<trkpt lat="58.44880" lon="6.00590">
					<ele>10</ele>
					<time>0001-01-01T00:00:00Z</time>
				</trkpt>
				<trkpt lat="58.44915" lon="6.00588">
					<ele>9</ele>
					<time>0001-01-01T00:00:00Z</time>
				</trkpt>
				<trkpt lat="58.44925" lon="6.00588">
					<ele>8</ele>
					<time>0001-01-01T00:00:00Z</time>
				</trkpt>
				<trkpt lat="58.44959" lon="6.00592">
					<ele>8</ele>
					<time>0001-01-01T00:00:00Z</time>
				</trkpt>
				<trkpt lat="58.45056" lon="6.00591">
					<ele>8</ele>
					<time>0001-01-01T00:00:00Z</time>
				</trkpt>
				<trkpt lat="58.45077" lon="6.00627">
					<ele>7</ele>
					<time>0001-01-01T00:00:00Z</time>
				</trkpt>
				<trkpt lat="58.45107" lon="6.00642">
					<ele>5</ele>
					<time>0001-01-01T00:00:00Z</time>
				</trkpt>
				<trkpt lat="58.45111" lon="6.00634">
					<ele>5</ele>
					<time>0001-01-01T00:00:00Z</time>
				</trkpt>
				<trkpt lat="58.45160" lon="6.00515">
					<ele>5</ele>
					<time>0001-01-01T00:00:00Z</time>
				</trkpt>
				<trkpt lat="58.45178" lon="6.00471">
					<ele>6</ele>
					<time>0001-01-01T00:00:00Z</time>
				</trkpt>
				<trkpt lat="58.45223" lon="6.00359">
					<ele>6</ele>
					<time>0001-01-01T00:00:00Z</time>
				</trkpt>
				<trkpt lat="58.45225" lon="6.00342">
					<ele>5</ele>
					<time>0001-01-01T00:00:00Z</time>
				</trkpt>
				<trkpt lat="58.45212" lon="6.00286">
					<ele>4</ele>
					<time>0001-01-01T00:00:00Z</time>
				</trkpt>
				<trkpt lat="58.45224" lon="6.00223">
					<ele>4</ele>
					<time>0001-01-01T00:00:00Z</time>
				</trkpt>
				<trkpt lat="58.45245" lon="6.00187">
					<ele>4</ele>
					<time>0001-01-01T00:00:00Z</time>
				</trkpt>
				<trkpt lat="58.45289" lon="6.00198">
					<ele>4</ele>
					<time>0001-01-01T00:00:00Z</time>
				</trkpt>
				<trkpt lat="58.45293" lon="6.00206">
					<ele>4</ele>
					<time>0001-01-01T00:00:00Z</time>
				</trkpt>
				<trkpt lat="58.45309" lon="6.00249">
					<ele>4</ele>
					<time>0001-01-01T00:00:00Z</time>
				</trkpt>
				<trkpt lat="58.45336" lon="6.00270">
					<ele>3</ele>
					<time>0001-01-01T00:00:00Z</time>
				</trkpt>
				<trkpt lat="58.45406" lon="6.00301">
					<ele>4</ele>
					<time>0001-01-01T00:00:00Z</time>
				</trkpt>
				<trkpt lat="58.45504" lon="6.00289">
					<ele>3</ele>
					<time>0001-01-01T00:00:00Z</time>
				</trkpt>
				<trkpt lat="58.45584" lon="6.00277">
					<ele>3</ele>
					<time>0001-01-01T00:00:00Z</time>
				</trkpt>
				<trkpt lat="58.45709" lon="6.00350">
					<ele>6</ele>
					<time>0001-01-01T00:00:00Z</time>
				</trkpt>
				<trkpt lat="58.45837" lon="6.00416">
					<ele>8</ele>
					<time>0001-01-01T00:00:00Z</time>
				</trkpt>
				<trkpt lat="58.45898" lon="6.00424">
					<ele>6</ele>
					<time>0001-01-01T00:00:00Z</time>
				</trkpt>
				<trkpt lat="58.45910" lon="6.00427">
					<ele>6</ele>
					<time>0001-01-01T00:00:00Z</time>
				</trkpt>
				<trkpt lat="58.45976" lon="6.00391">
					<ele>8</ele>
					<time>0001-01-01T00:00:00Z</time>
				</trkpt>
				<trkpt lat="58.46048" lon="6.00321">
					<ele>8</ele>
					<time>0001-01-01T00:00:00Z</time>
				</trkpt>
				<trkpt lat="58.46072" lon="6.00314">
					<ele>9</ele>
					<time>0001-01-01T00:00:00Z</time>
				</trkpt>
				<trkpt lat="58.46084" lon="6.00271">
					<ele>10</ele>
					<time>0001-01-01T00:00:00Z</time>
				</trkpt>
				<trkpt lat="58.46084" lon="6.00247">
					<ele>10</ele>
					<time>0001-01-01T00:00:00Z</time>
				</trkpt>
				<trkpt lat="58.46096" lon="6.00113">
					<ele>16</ele>
					<time>0001-01-01T00:00:00Z</time>
				</trkpt>
				<trkpt lat="58.46122" lon="6.00083">
					<ele>19</ele>
					<time>0001-01-01T00:00:00Z</time>
				</trkpt>
				<trkpt lat="58.46173" lon="6.00087">
					<ele>17</ele>
					<time>0001-01-01T00:00:00Z</time>
				</trkpt>
				<trkpt lat="58.46212" lon="6.00043">
					<ele>14</ele>
					<time>0001-01-01T00:00:00Z</time>
				</trkpt>
				<trkpt lat="58.46278" lon="5.99846">
					<ele>8</ele>
					<time>0001-01-01T00:00:00Z</time>
				</trkpt>
				<trkpt lat="58.46324" lon="5.99800">
					<ele>7</ele>
					<time>0001-01-01T00:00:00Z</time>
				</trkpt>
				<trkpt lat="58.46398" lon="5.99787">
					<ele>4</ele>
					<time>0001-01-01T00:00:00Z</time>
				</trkpt>
				<trkpt lat="58.46511" lon="5.99699">
					<ele>2</ele>
					<time>0001-01-01T00:00:00Z</time>
				</trkpt>
				<trkpt lat="58.46529" lon="5.99691">
					<ele>2</ele>
					<time>0001-01-01T00:00:00Z</time>
				</trkpt>
				<trkpt lat="58.46667" lon="5.99777">
					<ele>2</ele>
					<time>0001-01-01T00:00:00Z</time>
				</trkpt>
				<trkpt lat="58.46764" lon="5.99759">
					<ele>0</ele>
					<time>0001-01-01T00:00:00Z</time>
				</trkpt>
				<trkpt lat="58.46946" lon="5.99748">
					<ele>1</ele>
					<time>0001-01-01T00:00:00Z</time>
				</trkpt>
				<trkpt lat="58.46971" lon="5.99743">
					<ele>1</ele>
					<time>0001-01-01T00:00:00Z</time>
				</trkpt>
				<trkpt lat="58.47001" lon="5.99721">
					<ele>0</ele>
					<time>0001-01-01T00:00:00Z</time>
				</trkpt>
				<trkpt lat="58.47036" lon="5.99686">
					<ele>0</ele>
					<time>0001-01-01T00:00:00Z</time>
				</trkpt>
				<trkpt lat="58.47157" lon="5.99693">
					<ele>1</ele>
					<time>0001-01-01T00:00:00Z</time>
				</trkpt>
				<trkpt lat="58.47272" lon="5.99738">
					<ele>0</ele>
					<time>0001-01-01T00:00:00Z</time>
				</trkpt>
				<trkpt lat="58.47294" lon="5.99729">
					<ele>0</ele>
					<time>0001-01-01T00:00:00Z</time>
				</trkpt>
				<trkpt lat="58.47362" lon="5.99664">
					<ele>1</ele>
					<time>0001-01-01T00:00:00Z</time>
				</trkpt>
				<trkpt lat="58.47470" lon="5.99686">
					<ele>0</ele>
					<time>0001-01-01T00:00:00Z</time>
				</trkpt>
				<trkpt lat="58.47536" lon="5.99691">
					<ele>0</ele>
					<time>0001-01-01T00:00:00Z</time>
				</trkpt>
				<trkpt lat="58.47549" lon="5.99703">
					<ele>0</ele>
					<time>0001-01-01T00:00:00Z</time>
				</trkpt>
				<trkpt lat="58.47627" lon="5.99715">
					<ele>0</ele>
					<time>0001-01-01T00:00:00Z</time>
				</trkpt>
				<trkpt lat="58.47735" lon="5.99678">
					<ele>-1</ele>
					<time>0001-01-01T00:00:00Z</time>
				</trkpt>
				<trkpt lat="58.47852" lon="5.99692">
					<ele>3</ele>
					<time>0001-01-01T00:00:00Z</time>
				</trkpt>
				<trkpt lat="58.47933" lon="5.99689">
					<ele>5</ele>
					<time>0001-01-01T00:00:00Z</time>
				</trkpt>
				<trkpt lat="58.47944" lon="5.99681">
					<ele>5</ele>
					<time>0001-01-01T00:00:00Z</time>
				</trkpt>
				<trkpt lat="58.47972" lon="5.99619">
					<ele>6</ele>
					<time>0001-01-01T00:00:00Z</time>
				</trkpt>
				<trkpt lat="58.48006" lon="5.99350">
					<ele>8</ele>
					<time>0001-01-01T00:00:00Z</time>
				</trkpt>
				<trkpt lat="58.48004" lon="5.99243">
					<ele>9</ele>
					<time>0001-01-01T00:00:00Z</time>
				</trkpt>
				<trkpt lat="58.47976" lon="5.99152">
					<ele>14</ele>
					<time>0001-01-01T00:00:00Z</time>
				</trkpt>
				<trkpt lat="58.47941" lon="5.99099">
					<ele>17</ele>
					<time>0001-01-01T00:00:00Z</time>
				</trkpt>
				<trkpt lat="58.47775" lon="5.98935">
					<ele>28</ele>
					<time>0001-01-01T00:00:00Z</time>
				</trkpt>
				<trkpt lat="58.47778" lon="5.98891">
					<ele>30</ele>
					<time>0001-01-01T00:00:00Z</time>
				</trkpt>
				<trkpt lat="58.47823" lon="5.98896">
					<ele>33</ele>
					<time>0001-01-01T00:00:00Z</time>
				</trkpt>
				<trkpt lat="58.47864" lon="5.98905">
					<ele>37</ele>
					<time>0001-01-01T00:00:00Z</time>
				</trkpt>
				<trkpt lat="58.47904" lon="5.98916">
					<ele>41</ele>
					<time>0001-01-01T00:00:00Z</time>
				</trkpt>
				<trkpt lat="58.47953" lon="5.98905">
					<ele>45</ele>
					<time>0001-01-01T00:00:00Z</time>
				</trkpt>
				<trkpt lat="58.48016" lon="5.98841">
					<ele>52</ele>
					<time>0001-01-01T00:00:00Z</time>
				</trkpt>
				<trkpt lat="58.48073" lon="5.98803">
					<ele>56</ele>
					<time>0001-01-01T00:00:00Z</time>
				</trkpt>
				<trkpt lat="58.48109" lon="5.98838">
					<ele>61</ele>
					<time>0001-01-01T00:00:00Z</time>
				</trkpt>
				<trkpt lat="58.48146" lon="5.98871">
					<ele>65</ele>
					<time>0001-01-01T00:00:00Z</time>
				</trkpt>
				<trkpt lat="58.48198" lon="5.98851">
					<ele>68</ele>
					<time>0001-01-01T00:00:00Z</time>
				</trkpt>
				<trkpt lat="58.48229" lon="5.98796">
					<ele>69</ele>
					<time>0001-01-01T00:00:00Z</time>
				</trkpt>
				<trkpt lat="58.48256" lon="5.98673">
					<ele>74</ele>
					<time>0001-01-01T00:00:00Z</time>
				</trkpt>
				<trkpt lat="58.48279" lon="5.98542">
					<ele>73</ele>
					<time>0001-01-01T00:00:00Z</time>
				</trkpt>
				<trkpt lat="58.48308" lon="5.98371">
					<ele>68</ele>
					<time>0001-01-01T00:00:00Z</time>
				</trkpt>
				<trkpt lat="58.48388" lon="5.98181">
					<ele>66</ele>
					<time>0001-01-01T00:00:00Z</time>
				</trkpt>
				<trkpt lat="58.48520" lon="5.97865">
					<ele>65</ele>
					<time>0001-01-01T00:00:00Z</time>
				</trkpt>
				<trkpt lat="58.48618" lon="5.97639">
					<ele>65</ele>
					<time>0001-01-01T00:00:00Z</time>
				</trkpt>
				<trkpt lat="58.48746" lon="5.97340">
					<ele>64</ele>
					<time>0001-01-01T00:00:00Z</time>
				</trkpt>
				<trkpt lat="58.48828" lon="5.97010">
					<ele>61</ele>
					<time>0001-01-01T00:00:00Z</time>
				</trkpt>
				<trkpt lat="58.48890" lon="5.96672">
					<ele>60</ele>
					<time>0001-01-01T00:00:00Z</time>
				</trkpt>
				<trkpt lat="58.48950" lon="5.96545">
					<ele>62</ele>
					<time>0001-01-01T00:00:00Z</time>
				</trkpt>
				<trkpt lat="58.48981" lon="5.96410">
					<ele>60</ele>
					<time>0001-01-01T00:00:00Z</time>
				</trkpt>
				<trkpt lat="58.48990" lon="5.96307">
					<ele>58</ele>
					<time>0001-01-01T00:00:00Z</time>
				</trkpt>
				<trkpt lat="58.49021" lon="5.96218">
					<ele>59</ele>
					<time>0001-01-01T00:00:00Z</time>
				</trkpt>
				<trkpt lat="58.49110" lon="5.96056">
					<ele>62</ele>
					<time>0001-01-01T00:00:00Z</time>
				</trkpt>
				<trkpt lat="58.49156" lon="5.95893">
					<ele>54</ele>
					<time>0001-01-01T00:00:00Z</time>
				</trkpt>
				<trkpt lat="58.49241" lon="5.95534">
					<ele>46</ele>
					<time>0001-01-01T00:00:00Z</time>
				</trkpt>
				<trkpt lat="58.49261" lon="5.95467">
					<ele>46</ele>
					<time>0001-01-01T00:00:00Z</time>
				</trkpt>
				<trkpt lat="58.49352" lon="5.95320">
					<ele>44</ele>
					<time>0001-01-01T00:00:00Z</time>
				</trkpt>
				<trkpt lat="58.49494" lon="5.95098">
					<ele>43</ele>
					<time>0001-01-01T00:00:00Z</time>
				</trkpt>
				<trkpt lat="58.49613" lon="5.94954">
					<ele>42</ele>
					<time>0001-01-01T00:00:00Z</time>
				</trkpt>
				<trkpt lat="58.49703" lon="5.94843">
					<ele>43</ele>
					<time>0001-01-01T00:00:00Z</time>
				</trkpt>
				<trkpt lat="58.49838" lon="5.94685">
					<ele>44</ele>
					<time>0001-01-01T00:00:00Z</time>
				</trkpt>
				<trkpt lat="58.49956" lon="5.94619">
					<ele>47</ele>
					<time>0001-01-01T00:00:00Z</time>
				</trkpt>
				<trkpt lat="58.50045" lon="5.94571">
					<ele>52</ele>
					<time>0001-01-01T00:00:00Z</time>
				</trkpt>
				<trkpt lat="58.50131" lon="5.94479">
					<ele>57</ele>
					<time>0001-01-01T00:00:00Z</time>
				</trkpt>
				<trkpt lat="58.50188" lon="5.94357">
					<ele>57</ele>
					<time>0001-01-01T00:00:00Z</time>
				</trkpt>
				<trkpt lat="58.50239" lon="5.94206">
					<ele>61</ele>
					<time>0001-01-01T00:00:00Z</time>
				</trkpt>
				<trkpt lat="58.50253" lon="5.94015">
					<ele>59</ele>
					<time>0001-01-01T00:00:00Z</time>
				</trkpt>
				<trkpt lat="58.50243" lon="5.93817">
					<ele>58</ele>
					<time>0001-01-01T00:00:00Z</time>
				</trkpt>
				<trkpt lat="58.50223" lon="5.93590">
					<ele>50</ele>
					<time>0001-01-01T00:00:00Z</time>
				</trkpt>
				<trkpt lat="58.50190" lon="5.93242">
					<ele>46</ele>
					<time>0001-01-01T00:00:00Z</time>
				</trkpt>
				<trkpt lat="58.50167" lon="5.93012">
					<ele>44</ele>
					<time>0001-01-01T00:00:00Z</time>
				</trkpt>
				<trkpt lat="58.50189" lon="5.92915">
					<ele>40</ele>
					<time>0001-01-01T00:00:00Z</time>
				</trkpt>
				<trkpt lat="58.50215" lon="5.92861">
					<ele>39</ele>
					<time>0001-01-01T00:00:00Z</time>
				</trkpt>
				<trkpt lat="58.50285" lon="5.92604">
					<ele>36</ele>
					<time>0001-01-01T00:00:00Z</time>
				</trkpt>
				<trkpt lat="58.50333" lon="5.92496">
					<ele>34</ele>
					<time>0001-01-01T00:00:00Z</time>
				</trkpt>
				<trkpt lat="58.50344" lon="5.92375">
					<ele>29</ele>
					<time>0001-01-01T00:00:00Z</time>
				</trkpt>
				<trkpt lat="58.50307" lon="5.91994">
					<ele>22</ele>
					<time>0001-01-01T00:00:00Z</time>
				</trkpt>
				<trkpt lat="58.50303" lon="5.91972">
					<ele>22</ele>
					<time>0001-01-01T00:00:00Z</time>
				</trkpt>
				<trkpt lat="58.50270" lon="5.91886">
					<ele>21</ele>
					<time>0001-01-01T00:00:00Z</time>
				</trkpt>
				<trkpt lat="58.50226" lon="5.91828">
					<ele>20</ele>
					<time>0001-01-01T00:00:00Z</time>
				</trkpt>
				<trkpt lat="58.50117" lon="5.91784">
					<ele>16</ele>
					<time>0001-01-01T00:00:00Z</time>
				</trkpt>
				<trkpt lat="58.50034" lon="5.91762">
					<ele>14</ele>
					<time>0001-01-01T00:00:00Z</time>
				</trkpt>
				<trkpt lat="58.49892" lon="5.91620">
					<ele>6</ele>
					<time>0001-01-01T00:00:00Z</time>
				</trkpt>
				<trkpt lat="58.49774" lon="5.91489">
					<ele>7</ele>
					<time>0001-01-01T00:00:00Z</time>
				</trkpt>
				<trkpt lat="58.49679" lon="5.91363">
					<ele>8</ele>
					<time>0001-01-01T00:00:00Z</time>
				</trkpt>
				<trkpt lat="58.49563" lon="5.91336">
					<ele>8</ele>
					<time>0001-01-01T00:00:00Z</time>
				</trkpt>
				<trkpt lat="58.49494" lon="5.91330">
					<ele>5</ele>
					<time>0001-01-01T00:00:00Z</time>
				</trkpt>
				<trkpt lat="58.49462" lon="5.91305">
					<ele>5</ele>
					<time>0001-01-01T00:00:00Z</time>
				</trkpt>
				<trkpt lat="58.49417" lon="5.91184">
					<ele>6</ele>
					<time>0001-01-01T00:00:00Z</time>
				</trkpt>
				<trkpt lat="58.49358" lon="5.90894">
					<ele>6</ele>
					<time>0001-01-01T00:00:00Z</time>
				</trkpt>
				<trkpt lat="58.49340" lon="5.90857">
					<ele>6</ele>
					<time>0001-01-01T00:00:00Z</time>
				</trkpt>
				<trkpt lat="58.49260" lon="5.90697">
					<ele>6</ele>
					<time>0001-01-01T00:00:00Z</time>
				</trkpt>
				<trkpt lat="58.49178" lon="5.90460">
					<ele>8</ele>
					<time>0001-01-01T00:00:00Z</time>
				</trkpt>
				<trkpt lat="58.49158" lon="5.90287">
					<ele>7</ele>
					<time>0001-01-01T00:00:00Z</time>
				</trkpt>
				<trkpt lat="58.49105" lon="5.90145">
					<ele>6</ele>
					<time>0001-01-01T00:00:00Z</time>
				</trkpt>
				<trkpt lat="58.48999" lon="5.89983">
					<ele>4</ele>
					<time>0001-01-01T00:00:00Z</time>
				</trkpt>
				<trkpt lat="58.48951" lon="5.89843">
					<ele>4</ele>
					<time>0001-01-01T00:00:00Z</time>
				</trkpt>
				<trkpt lat="58.48902" lon="5.89546">
					<ele>4</ele>
					<time>0001-01-01T00:00:00Z</time>
				</trkpt>
				<trkpt lat="58.48888" lon="5.89486">
					<ele>6</ele>
					<time>0001-01-01T00:00:00Z</time>
				</trkpt>
				<trkpt lat="58.48873" lon="5.89453">
					<ele>7</ele>
					<time>0001-01-01T00:00:00Z</time>
				</trkpt>
				<trkpt lat="58.48820" lon="5.89401">
					<ele>11</ele>
					<time>0001-01-01T00:00:00Z</time>
				</trkpt>
				<trkpt lat="58.48765" lon="5.89356">
					<ele>11</ele>
					<time>0001-01-01T00:00:00Z</time>
				</trkpt>
				<trkpt lat="58.48687" lon="5.89266">
					<ele>11</ele>
					<time>0001-01-01T00:00:00Z</time>
				</trkpt>
				<trkpt lat="58.48612" lon="5.89177">
					<ele>9</ele>
					<time>0001-01-01T00:00:00Z</time>
				</trkpt>
				<trkpt lat="58.48583" lon="5.89131">
					<ele>8</ele>
					<time>0001-01-01T00:00:00Z</time>
				</trkpt>
				<trkpt lat="58.48536" lon="5.88972">
					<ele>7</ele>
					<time>0001-01-01T00:00:00Z</time>
				</trkpt>
				<trkpt lat="58.48490" lon="5.88704">
					<ele>10</ele>
					<time>0001-01-01T00:00:00Z</time>
				</trkpt>
				<trkpt lat="58.48468" lon="5.88520">
					<ele>15</ele>
					<time>0001-01-01T00:00:00Z</time>
				</trkpt>
				<trkpt lat="58.48448" lon="5.88352">
					<ele>13</ele>
					<time>0001-01-01T00:00:00Z</time>
				</trkpt>
				<trkpt lat="58.48406" lon="5.88154">
					<ele>11</ele>
					<time>0001-01-01T00:00:00Z</time>
				</trkpt>
				<trkpt lat="58.48357" lon="5.87950">
					<ele>9</ele>
					<time>0001-01-01T00:00:00Z</time>
				</trkpt>
				<trkpt lat="58.48319" lon="5.87561">
					<ele>6</ele>
					<time>0001-01-01T00:00:00Z</time>
				</trkpt>
				<trkpt lat="58.48250" lon="5.87247">
					<ele>0</ele>
					<time>0001-01-01T00:00:00Z</time>
				</trkpt>
				<trkpt lat="58.48222" lon="5.87190">
					<ele>0</ele>
					<time>0001-01-01T00:00:00Z</time>
				</trkpt>
				<trkpt lat="58.48116" lon="5.87032">
					<ele>0</ele>
					<time>0001-01-01T00:00:00Z</time>
				</trkpt>
				<trkpt lat="58.48094" lon="5.86926">
					<ele>-2</ele>
					<time>0001-01-01T00:00:00Z</time>
				</trkpt>
				<trkpt lat="58.48058" lon="5.86623">
					<ele>-3</ele>
					<time>0001-01-01T00:00:00Z</time>
				</trkpt>
				<trkpt lat="58.48013" lon="5.86441">
					<ele>3</ele>
					<time>0001-01-01T00:00:00Z</time>
				</trkpt>
				<trkpt lat="58.47993" lon="5.86320">
					<ele>9</ele>
					<time>0001-01-01T00:00:00Z</time>
				</trkpt>
				<trkpt lat="58.48029" lon="5.86172">
					<ele>5</ele>
					<time>0001-01-01T00:00:00Z</time>
				</trkpt>
				<trkpt lat="58.48093" lon="5.85927">
					<ele>-1</ele>
					<time>0001-01-01T00:00:00Z</time>
				</trkpt>
				<trkpt lat="58.48106" lon="5.85865">
					<ele>-1</ele>
					<time>0001-01-01T00:00:00Z</time>
				</trkpt>
				<trkpt lat="58.48099" lon="5.85697">
					<ele>-2</ele>
					<time>0001-01-01T00:00:00Z</time>
				</trkpt>
				<trkpt lat="58.48067" lon="5.85609">
					<ele>-2</ele>
					<time>0001-01-01T00:00:00Z</time>
				</trkpt>
				<trkpt lat="58.47985" lon="5.85492">
					<ele>0</ele>
					<time>0001-01-01T00:00:00Z</time>
				</trkpt>
				<trkpt lat="58.47963" lon="5.85461">
					<ele>0</ele>
					<time>0001-01-01T00:00:00Z</time>
				</trkpt>
				<trkpt lat="58.47951" lon="5.85425">
					<ele>2</ele>
					<time>0001-01-01T00:00:00Z</time>
				</trkpt>
				<trkpt lat="58.47944" lon="5.85365">
					<ele>3</ele>
					<time>0001-01-01T00:00:00Z</time>
				</trkpt>
				<trkpt lat="58.47950" lon="5.85293">
					<ele>2</ele>
					<time>0001-01-01T00:00:00Z</time>
				</trkpt>
				<trkpt lat="58.47999" lon="5.85075">
					<ele>0</ele>
					<time>0001-01-01T00:00:00Z</time>
				</trkpt>
				<trkpt lat="58.48070" lon="5.84773">
					<ele>0</ele>
					<time>0001-01-01T00:00:00Z</time>
				</trkpt>
				<trkpt lat="58.48124" lon="5.84704">
					<ele>0</ele>
					<time>0001-01-01T00:00:00Z</time>
				</trkpt>
				<trkpt lat="58.48276" lon="5.84644">
					<ele>2</ele>
					<time>0001-01-01T00:00:00Z</time>
				</trkpt>
				<trkpt lat="58.48349" lon="5.84561">
					<ele>1</ele>
					<time>0001-01-01T00:00:00Z</time>
				</trkpt>
				<trkpt lat="58.48431" lon="5.84502">
					<ele>2</ele>
					<time>0001-01-01T00:00:00Z</time>
				</trkpt>
				<trkpt lat="58.48503" lon="5.84459">
					<ele>5</ele>
					<time>0001-01-01T00:00:00Z</time>
				</trkpt>
				<trkpt lat="58.48551" lon="5.84404">
					<ele>10</ele>
					<time>0001-01-01T00:00:00Z</time>
				</trkpt>
				<trkpt lat="58.48597" lon="5.84322">
					<ele>16</ele>
					<time>0001-01-01T00:00:00Z</time>
				</trkpt>
				<trkpt lat="58.48631" lon="5.84202">
					<ele>21</ele>
					<time>0001-01-01T00:00:00Z</time>
				</trkpt>
				<trkpt lat="58.48694" lon="5.84098">
					<ele>28</ele>
					<time>0001-01-01T00:00:00Z</time>
				</trkpt>
				<trkpt lat="58.48716" lon="5.84013">
					<ele>28</ele>
					<time>0001-01-01T00:00:00Z</time>
				</trkpt>
				<trkpt lat="58.48695" lon="5.83933">
					<ele>32</ele>
					<time>0001-01-01T00:00:00Z</time>
				</trkpt>
				<trkpt lat="58.48662" lon="5.83838">
					<ele>34</ele>
					<time>0001-01-01T00:00:00Z</time>
				</trkpt>
				<trkpt lat="58.48608" lon="5.83689">
					<ele>34</ele>
					<time>0001-01-01T00:00:00Z</time>
				</trkpt>
				<trkpt lat="58.48580" lon="5.83597">
					<ele>32</ele>
					<time>0001-01-01T00:00:00Z</time>
				</trkpt>
				<trkpt lat="58.48580" lon="5.83479">
					<ele>27</ele>
					<time>0001-01-01T00:00:00Z</time>
				</trkpt>
				<trkpt lat="58.48587" lon="5.83437">
					<ele>25</ele>
					<time>0001-01-01T00:00:00Z</time>
				</trkpt>
				<trkpt lat="58.48557" lon="5.83354">
					<ele>20</ele>
					<time>0001-01-01T00:00:00Z</time>
				</trkpt>
				<trkpt lat="58.48545" lon="5.83349">
					<ele>19</ele>
					<time>0001-01-01T00:00:00Z</time>
				</trkpt>
				<trkpt lat="58.48519" lon="5.83342">
					<ele>17</ele>
					<time>0001-01-01T00:00:00Z</time>
				</trkpt>
				<trkpt lat="58.48475" lon="5.83270">
					<ele>14</ele>
					<time>0001-01-01T00:00:00Z</time>
				</trkpt>
				<trkpt lat="58.48475" lon="5.83225">
					<ele>14</ele>
					<time>0001-01-01T00:00:00Z</time>
				</trkpt>
				<trkpt lat="58.48500" lon="5.82823">
					<ele>10</ele>
					<time>0001-01-01T00:00:00Z</time>
				</trkpt>
				<trkpt lat="58.48505" lon="5.82801">
					<ele>11</ele>
					<time>0001-01-01T00:00:00Z</time>
				</trkpt>
				<trkpt lat="58.48535" lon="5.82734">
					<ele>11</ele>
					<time>0001-01-01T00:00:00Z</time>
				</trkpt>
				<trkpt lat="58.48678" lon="5.82569">
					<ele>6</ele>
					<time>0001-01-01T00:00:00Z</time>
				</trkpt>
				<trkpt lat="58.48740" lon="5.82528">
					<ele>2</ele>
					<time>0001-01-01T00:00:00Z</time>
				</trkpt>
				<trkpt lat="58.48802" lon="5.82410">
					<ele>1</ele>
					<time>0001-01-01T00:00:00Z</time>
				</trkpt>
				<trkpt lat="58.48867" lon="5.82106">
					<ele>0</ele>
					<time>0001-01-01T00:00:00Z</time>
				</trkpt>
				<trkpt lat="58.48963" lon="5.81863">
					<ele>1</ele>
					<time>0001-01-01T00:00:00Z</time>
				</trkpt>
				<trkpt lat="58.49073" lon="5.81657">
					<ele>2</ele>
					<time>0001-01-01T00:00:00Z</time>
				</trkpt>
				<trkpt lat="58.49104" lon="5.81471">
					<ele>0</ele>
					<time>0001-01-01T00:00:00Z</time>
				</trkpt>
				<trkpt lat="58.49128" lon="5.81389">
					<ele>0</ele>
					<time>0001-01-01T00:00:00Z</time>
				</trkpt>
				<trkpt lat="58.49173" lon="5.81327">
					<ele>0</ele>
					<time>0001-01-01T00:00:00Z</time>
				</trkpt>
				<trkpt lat="58.49326" lon="5.81285">
					<ele>1</ele>
					<time>0001-01-01T00:00:00Z</time>
				</trkpt>
				<trkpt lat="58.49372" lon="5.81263">
					<ele>3</ele>
					<time>0001-01-01T00:00:00Z</time>
				</trkpt>
				<trkpt lat="58.49406" lon="5.81201">
					<ele>5</ele>
					<time>0001-01-01T00:00:00Z</time>
				</trkpt>
				<trkpt lat="58.49462" lon="5.80990">
					<ele>8</ele>
					<time>0001-01-01T00:00:00Z</time>
				</trkpt>
				<trkpt lat="58.49506" lon="5.80823">
					<ele>7</ele>
					<time>0001-01-01T00:00:00Z</time>
				</trkpt>
				<trkpt lat="58.49506" lon="5.80722">
					<ele>6</ele>
					<time>0001-01-01T00:00:00Z</time>
				</trkpt>
				<trkpt lat="58.49476" lon="5.80513">
					<ele>7</ele>
					<time>0001-01-01T00:00:00Z</time>
				</trkpt>
				<trkpt lat="58.49503" lon="5.80377">
					<ele>4</ele>
					<time>0001-01-01T00:00:00Z</time>
				</trkpt>
				<trkpt lat="58.49558" lon="5.80335">
					<ele>4</ele>
					<time>0001-01-01T00:00:00Z</time>
				</trkpt>
				<trkpt lat="58.49609" lon="5.80367">
					<ele>4</ele>
					<time>0001-01-01T00:00:00Z</time>
				</trkpt>
				<trkpt lat="58.49720" lon="5.80512">
					<ele>5</ele>
					<time>0001-01-01T00:00:00Z</time>
				</trkpt>
				<trkpt lat="58.49832" lon="5.80665">
					<ele>3</ele>
					<time>0001-01-01T00:00:00Z</time>
				</trkpt>
				<trkpt lat="58.49921" lon="5.80790">
					<ele>5</ele>
					<time>0001-01-01T00:00:00Z</time>
				</trkpt>
				<trkpt lat="58.50013" lon="5.80812">
					<ele>7</ele>
					<time>0001-01-01T00:00:00Z</time>
				</trkpt>
				<trkpt lat="58.50084" lon="5.80823">
					<ele>12</ele>
					<time>0001-01-01T00:00:00Z</time>
				</trkpt>
				<trkpt lat="58.50159" lon="5.80837">
					<ele>13</ele>
					<time>0001-01-01T00:00:00Z</time>
				</trkpt>
				<trkpt lat="58.50241" lon="5.80905">
					<ele>14</ele>
					<time>0001-01-01T00:00:00Z</time>
				</trkpt>
				<trkpt lat="58.50336" lon="5.80965">
					<ele>16</ele>
					<time>0001-01-01T00:00:00Z</time>
				</trkpt>
				<trkpt lat="58.50478" lon="5.81010">
					<ele>18</ele>
					<time>0001-01-01T00:00:00Z</time>
				</trkpt>
				<trkpt lat="58.50586" lon="5.81039">
					<ele>21</ele>
					<time>0001-01-01T00:00:00Z</time>
				</trkpt>
				<trkpt lat="58.50701" lon="5.81067">
					<ele>24</ele>
					<time>0001-01-01T00:00:00Z</time>
				</trkpt>
				<trkpt lat="58.50848" lon="5.81106">
					<ele>22</ele>
					<time>0001-01-01T00:00:00Z</time>
				</trkpt>
				<trkpt lat="58.51015" lon="5.81150">
					<ele>16</ele>
					<time>0001-01-01T00:00:00Z</time>
				</trkpt>
				<trkpt lat="58.51092" lon="5.81150">
					<ele>15</ele>
					<time>0001-01-01T00:00:00Z</time>
				</trkpt>
				<trkpt lat="58.51140" lon="5.81098">
					<ele>11</ele>
					<time>0001-01-01T00:00:00Z</time>
				</trkpt>
				<trkpt lat="58.51215" lon="5.80914">
					<ele>2</ele>
					<time>0001-01-01T00:00:00Z</time>
				</trkpt>
				<trkpt lat="58.51268" lon="5.80631">
					<ele>-1</ele>
					<time>0001-01-01T00:00:00Z</time>
				</trkpt>
				<trkpt lat="58.51330" lon="5.80542">
					<ele>-1</ele>
					<time>0001-01-01T00:00:00Z</time>
				</trkpt>
				<trkpt lat="58.51364" lon="5.80541">
					<ele>0</ele>
					<time>0001-01-01T00:00:00Z</time>
				</trkpt>
				<trkpt lat="58.51520" lon="5.80603">
					<ele>-2</ele>
					<time>0001-01-01T00:00:00Z</time>
				</trkpt>
				<trkpt lat="58.51663" lon="5.80642">
					<ele>0</ele>
					<time>0001-01-01T00:00:00Z</time>
				</trkpt>
				<trkpt lat="58.51795" lon="5.80600">
					<ele>0</ele>
					<time>0001-01-01T00:00:00Z</time>
				</trkpt>
				<trkpt lat="58.51918" lon="5.80502">
					<ele>1</ele>
					<time>0001-01-01T00:00:00Z</time>
				</trkpt>
				<trkpt lat="58.52054" lon="5.80316">
					<ele>1</ele>
					<time>0001-01-01T00:00:00Z</time>
				</trkpt>
				<trkpt lat="58.52060" lon="5.80308">
					<ele>1</ele>
					<time>0001-01-01T00:00:00Z</time>
				</trkpt>
				<trkpt lat="58.52083" lon="5.80252">
					<ele>2</ele>
					<time>0001-01-01T00:00:00Z</time>
				</trkpt>
				<trkpt lat="58.52156" lon="5.79990">
					<ele>1</ele>
					<time>0001-01-01T00:00:00Z</time>
				</trkpt>
				<trkpt lat="58.52251" lon="5.79704">
					<ele>3</ele>
					<time>0001-01-01T00:00:00Z</time>
				</trkpt>
				<trkpt lat="58.52358" lon="5.79420">
					<ele>3</ele>
					<time>0001-01-01T00:00:00Z</time>
				</trkpt>
				<trkpt lat="58.52474" lon="5.79117">
					<ele>3</ele>
					<time>0001-01-01T00:00:00Z</time>
				</trkpt>
				<trkpt lat="58.52599" lon="5.78795">
					<ele>0</ele>
					<time>0001-01-01T00:00:00Z</time>
				</trkpt>
				<trkpt lat="58.52747" lon="5.78430">
					<ele>2</ele>
					<time>0001-01-01T00:00:00Z</time>
				</trkpt>
				<trkpt lat="58.52845" lon="5.78278">
					<ele>4</ele>
					<time>0001-01-01T00:00:00Z</time>
				</trkpt>
				<trkpt lat="58.52908" lon="5.78208">
					<ele>9</ele>
					<time>0001-01-01T00:00:00Z</time>
				</trkpt>
				<trkpt lat="58.52966" lon="5.78143">
					<ele>13</ele>
					<time>0001-01-01T00:00:00Z</time>
				</trkpt>
				<trkpt lat="58.53031" lon="5.78064">
					<ele>15</ele>
					<time>0001-01-01T00:00:00Z</time>
				</trkpt>
				<trkpt lat="58.53086" lon="5.77951">
					<ele>13</ele>
					<time>0001-01-01T00:00:00Z</time>
				</trkpt>
				<trkpt lat="58.53125" lon="5.77754">
					<ele>11</ele>
					<time>0001-01-01T00:00:00Z</time>
				</trkpt>
				<trkpt lat="58.53128" lon="5.77596">
					<ele>13</ele>
					<time>0001-01-01T00:00:00Z</time>
				</trkpt>
				<trkpt lat="58.53145" lon="5.77512">
					<ele>11</ele>
					<time>0001-01-01T00:00:00Z</time>
				</trkpt>
				<trkpt lat="58.53246" lon="5.77236">
					<ele>3</ele>
					<time>0001-01-01T00:00:00Z</time>
				</trkpt>
				<trkpt lat="58.53377" lon="5.76883">
					<ele>1</ele>
					<time>0001-01-01T00:00:00Z</time>
				</trkpt>
				<trkpt lat="58.53525" lon="5.76472">
					<ele>1</ele>
					<time>0001-01-01T00:00:00Z</time>
				</trkpt>
				<trkpt lat="58.53657" lon="5.76024">
					<ele>0</ele>
					<time>0001-01-01T00:00:00Z</time>
				</trkpt>
				<trkpt lat="58.53773" lon="5.75611">
					<ele>-1</ele>
					<time>0001-01-01T00:00:00Z</time>
				</trkpt>
				<trkpt lat="58.53892" lon="5.75170">
					<ele>-1</ele>
					<time>0001-01-01T00:00:00Z</time>
				</trkpt>
				<trkpt lat="58.53940" lon="5.74839">
					<ele>-2</ele>
					<time>0001-01-01T00:00:00Z</time>
				</trkpt>
				<trkpt lat="58.53983" lon="5.74337">
					<ele>-2</ele>
					<time>0001-01-01T00:00:00Z</time>
				</trkpt>
				<trkpt lat="58.54022" lon="5.73881">
					<ele>-2</ele>
					<time>0001-01-01T00:00:00Z</time>
				</trkpt>
				<trkpt lat="58.54084" lon="5.73361">
					<ele>0</ele>
					<time>0001-01-01T00:00:00Z</time>
				</trkpt>
				<trkpt lat="58.54119" lon="5.73096">
					<ele>4</ele>
					<time>0001-01-01T00:00:00Z</time>
				</trkpt>
				<trkpt lat="58.54159" lon="5.72769">
					<ele>9</ele>
					<time>0001-01-01T00:00:00Z</time>
				</trkpt>
				<trkpt lat="58.54205" lon="5.72413">
					<ele>12</ele>
					<time>0001-01-01T00:00:00Z</time>
				</trkpt>
				<trkpt lat="58.54253" lon="5.72037">
					<ele>14</ele>
					<time>0001-01-01T00:00:00Z</time>
				</trkpt>
				<trkpt lat="58.54307" lon="5.71612">
					<ele>15</ele>
					<time>0001-01-01T00:00:00Z</time>
				</trkpt>
				<trkpt lat="58.54351" lon="5.71282">
					<ele>20</ele>
					<time>0001-01-01T00:00:00Z</time>
				</trkpt>
				<trkpt lat="58.54395" lon="5.70993">
					<ele>18</ele>
					<time>0001-01-01T00:00:00Z</time>
				</trkpt>
				<trkpt lat="58.54451" lon="5.70622">
					<ele>15</ele>
					<time>0001-01-01T00:00:00Z</time>
				</trkpt>
				<trkpt lat="58.54487" lon="5.70395">
					<ele>13</ele>
					<time>0001-01-01T00:00:00Z</time>
				</trkpt>
				<trkpt lat="58.54571" lon="5.69966">
					<ele>7</ele>
					<time>0001-01-01T00:00:00Z</time>
				</trkpt>
				<trkpt lat="58.54668" lon="5.69523">
					<ele>5</ele>
					<time>0001-01-01T00:00:00Z</time>
				</trkpt>
				<trkpt lat="58.54772" lon="5.69071">
					<ele>3</ele>
					<time>0001-01-01T00:00:00Z</time>
				</trkpt>
				<trkpt lat="58.54881" lon="5.68684">
					<ele>2</ele>
					<time>0001-01-01T00:00:00Z</time>
				</trkpt>
				<trkpt lat="58.54997" lon="5.68346">
					<ele>7</ele>
					<time>0001-01-01T00:00:00Z</time>
				</trkpt>
				<trkpt lat="58.55129" lon="5.67983">
					<ele>5</ele>
					<time>0001-01-01T00:00:00Z</time>
				</trkpt>
				<trkpt lat="58.55269" lon="5.67595">
					<ele>6</ele>
					<time>0001-01-01T00:00:00Z</time>
				</trkpt>
				<trkpt lat="58.55389" lon="5.67264">
					<ele>8</ele>
					<time>0001-01-01T00:00:00Z</time>
				</trkpt>
				<trkpt lat="58.55528" lon="5.66841">
					<ele>8</ele>
					<time>0001-01-01T00:00:00Z</time>
				</trkpt>
				<trkpt lat="58.55639" lon="5.66425">
					<ele>3</ele>
					<time>0001-01-01T00:00:00Z</time>
				</trkpt>
				<trkpt lat="58.55754" lon="5.66047">
					<ele>3</ele>
					<time>0001-01-01T00:00:00Z</time>
				</trkpt>
				<trkpt lat="58.55865" lon="5.65858">
					<ele>3</ele>
					<time>0001-01-01T00:00:00Z</time>
				</trkpt>
				<trkpt lat="58.55998" lon="5.65733">
					<ele>3</ele>
					<time>0001-01-01T00:00:00Z</time>
				</trkpt>
				<trkpt lat="58.56156" lon="5.65681">
					<ele>3</ele>
					<time>0001-01-01T00:00:00Z</time>
				</trkpt>
				<trkpt lat="58.56360" lon="5.65660">
					<ele>3</ele>
					<time>0001-01-01T00:00:00Z</time>
				</trkpt>
				<trkpt lat="58.56536" lon="5.65601">
					<ele>6</ele>
					<time>0001-01-01T00:00:00Z</time>
				</trkpt>
				<trkpt lat="58.56653" lon="5.65552">
					<ele>11</ele>
					<time>0001-01-01T00:00:00Z</time>
				</trkpt>
				<trkpt lat="58.56759" lon="5.65507">
					<ele>17</ele>
					<time>0001-01-01T00:00:00Z</time>
				</trkpt>
				<trkpt lat="58.56851" lon="5.65471">
					<ele>20</ele>
					<time>0001-01-01T00:00:00Z</time>
				</trkpt>
				<trkpt lat="58.56950" lon="5.65438">
					<ele>18</ele>
					<time>0001-01-01T00:00:00Z</time>
				</trkpt>
				<trkpt lat="58.57087" lon="5.65393">
					<ele>15</ele>
					<time>0001-01-01T00:00:00Z</time>
				</trkpt>
				<trkpt lat="58.57258" lon="5.65337">
					<ele>17</ele>
					<time>0001-01-01T00:00:00Z</time>
				</trkpt>
				<trkpt lat="58.57432" lon="5.65278">
					<ele>19</ele>
					<time>0001-01-01T00:00:00Z</time>
				</trkpt>
				<trkpt lat="58.57560" lon="5.65216">
					<ele>19</ele>
					<time>0001-01-01T00:00:00Z</time>
				</trkpt>
				<trkpt lat="58.57743" lon="5.65116">
					<ele>15</ele>
					<time>0001-01-01T00:00:00Z</time>
				</trkpt>
				<trkpt lat="58.57919" lon="5.65019">
					<ele>14</ele>
					<time>0001-01-01T00:00:00Z</time>
				</trkpt>
				<trkpt lat="58.58109" lon="5.64915">
					<ele>16</ele>
					<time>0001-01-01T00:00:00Z</time>
				</trkpt>
				<trkpt lat="58.58308" lon="5.64806">
					<ele>15</ele>
					<time>0001-01-01T00:00:00Z</time>
				</trkpt>
				<trkpt lat="58.58493" lon="5.64704">
					<ele>17</ele>
					<time>0001-01-01T00:00:00Z</time>
				</trkpt>
				<trkpt lat="58.58709" lon="5.64588">
					<ele>18</ele>
					<time>0001-01-01T00:00:00Z</time>
				</trkpt>
				<trkpt lat="58.58889" lon="5.64491">
					<ele>24</ele>
					<time>0001-01-01T00:00:00Z</time>
				</trkpt>
				<trkpt lat="58.59022" lon="5.64426">
					<ele>24</ele>
					<time>0001-01-01T00:00:00Z</time>
				</trkpt>
				<trkpt lat="58.59166" lon="5.64360">
					<ele>22</ele>
					<time>0001-01-01T00:00:00Z</time>
				</trkpt>
				<trkpt lat="58.59335" lon="5.64279">
					<ele>23</ele>
					<time>0001-01-01T00:00:00Z</time>
				</trkpt>
				<trkpt lat="58.59518" lon="5.64192">
					<ele>21</ele>
					<time>0001-01-01T00:00:00Z</time>
				</trkpt>
				<trkpt lat="58.59593" lon="5.64156">
					<ele>27</ele>
					<time>0001-01-01T00:00:00Z</time>
				</trkpt>
				<trkpt lat="58.59677" lon="5.64114">
					<ele>31</ele>
					<time>0001-01-01T00:00:00Z</time>
				</trkpt>
				<trkpt lat="58.59774" lon="5.64058">
					<ele>31</ele>
					<time>0001-01-01T00:00:00Z</time>
				</trkpt>
				<trkpt lat="58.59962" lon="5.63945">
					<ele>32</ele>
					<time>0001-01-01T00:00:00Z</time>
				</trkpt>
				<trkpt lat="58.60114" lon="5.63822">
					<ele>32</ele>
					<time>0001-01-01T00:00:00Z</time>
				</trkpt>
				<trkpt lat="58.60244" lon="5.63685">
					<ele>24</ele>
					<time>0001-01-01T00:00:00Z</time>
				</trkpt>
				<trkpt lat="58.60465" lon="5.63449">
					<ele>22</ele>
					<time>0001-01-01T00:00:00Z</time>
				</trkpt>
				<trkpt lat="58.60620" lon="5.63283">
					<ele>27</ele>
					<time>0001-01-01T00:00:00Z</time>
				</trkpt>
				<trkpt lat="58.60815" lon="5.63073">
					<ele>26</ele>
					<time>0001-01-01T00:00:00Z</time>
				</trkpt>
				<trkpt lat="58.60982" lon="5.62886">
					<ele>19</ele>
					<time>0001-01-01T00:00:00Z</time>
				</trkpt>
				<trkpt lat="58.61164" lon="5.62688">
					<ele>19</ele>
					<time>0001-01-01T00:00:00Z</time>
				</trkpt>
				<trkpt lat="58.61363" lon="5.62461">
					<ele>19</ele>
					<time>0001-01-01T00:00:00Z</time>
				</trkpt>
				<trkpt lat="58.61462" lon="5.62370">
					<ele>23</ele>
					<time>0001-01-01T00:00:00Z</time>
				</trkpt>
				<trkpt lat="58.61579" lon="5.62309">
					<ele>27</ele>
					<time>0001-01-01T00:00:00Z</time>
				</trkpt>
				<trkpt lat="58.61695" lon="5.62262">
					<ele>28</ele>
					<time>0001-01-01T00:00:00Z</time>
				</trkpt>
				<trkpt lat="58.61871" lon="5.62190">
					<ele>28</ele>
					<time>0001-01-01T00:00:00Z</time>
				</trkpt>
				<trkpt lat="58.62036" lon="5.62118">
					<ele>24</ele>
					<time>0001-01-01T00:00:00Z</time>
				</trkpt>
				<trkpt lat="58.62185" lon="5.62034">
					<ele>26</ele>
					<time>0001-01-01T00:00:00Z</time>
				</trkpt>
				<trkpt lat="58.62324" lon="5.61927">
					<ele>27</ele>
					<time>0001-01-01T00:00:00Z</time>
				</trkpt>
				<trkpt lat="58.62445" lon="5.61766">
					<ele>25</ele>
					<time>0001-01-01T00:00:00Z</time>
				</trkpt>
				<trkpt lat="58.62576" lon="5.61600">
					<ele>25</ele>
					<time>0001-01-01T00:00:00Z</time>
				</trkpt>
				<trkpt lat="58.62697" lon="5.61502">
					<ele>24</ele>
					<time>0001-01-01T00:00:00Z</time>
				</trkpt>
				<trkpt lat="58.62875" lon="5.61391">
					<ele>22</ele>
					<time>0001-01-01T00:00:00Z</time>
				</trkpt>
				<trkpt lat="58.63061" lon="5.61275">
					<ele>24</ele>
					<time>0001-01-01T00:00:00Z</time>
				</trkpt>
				<trkpt lat="58.63255" lon="5.61154">
					<ele>26</ele>
					<time>0001-01-01T00:00:00Z</time>
				</trkpt>
				<trkpt lat="58.63412" lon="5.61058">
					<ele>23</ele>
					<time>0001-01-01T00:00:00Z</time>
				</trkpt>
				<trkpt lat="58.63593" lon="5.60950">
					<ele>25</ele>
					<time>0001-01-01T00:00:00Z</time>
				</trkpt>
				<trkpt lat="58.63743" lon="5.60849">
					<ele>27</ele>
					<time>0001-01-01T00:00:00Z</time>
				</trkpt>
				<trkpt lat="58.63933" lon="5.60731">
					<ele>27</ele>
					<time>0001-01-01T00:00:00Z</time>
				</trkpt>
				<trkpt lat="58.64109" lon="5.60610">
					<ele>22</ele>
					<time>0001-01-01T00:00:00Z</time>
				</trkpt>
				<trkpt lat="58.64267" lon="5.60495">
					<ele>24</ele>
					<time>0001-01-01T00:00:00Z</time>
				</trkpt>
				<trkpt lat="58.64463" lon="5.60353">
					<ele>21</ele>
					<time>0001-01-01T00:00:00Z</time>
				</trkpt>
				<trkpt lat="58.64657" lon="5.60227">
					<ele>21</ele>
					<time>0001-01-01T00:00:00Z</time>
				</trkpt>
				<trkpt lat="58.64876" lon="5.60108">
					<ele>20</ele>
					<time>0001-01-01T00:00:00Z</time>
				</trkpt>
				<trkpt lat="58.65077" lon="5.60030">
					<ele>21</ele>
					<time>0001-01-01T00:00:00Z</time>
				</trkpt>
				<trkpt lat="58.65264" lon="5.59997">
					<ele>22</ele>
					<time>0001-01-01T00:00:00Z</time>
				</trkpt>
				<trkpt lat="58.65472" lon="5.59959">
					<ele>26</ele>
					<time>0001-01-01T00:00:00Z</time>
				</trkpt>
				<trkpt lat="58.65691" lon="5.59919">
					<ele>29</ele>
					<time>0001-01-01T00:00:00Z</time>
				</trkpt>
				<trkpt lat="58.65874" lon="5.59887">
					<ele>30</ele>
					<time>0001-01-01T00:00:00Z</time>
				</trkpt>
				<trkpt lat="58.66043" lon="5.59845">
					<ele>25</ele>
					<time>0001-01-01T00:00:00Z</time>
				</trkpt>
				<trkpt lat="58.66300" lon="5.59767">
					<ele>20</ele>
					<time>0001-01-01T00:00:00Z</time>
				</trkpt>
				<trkpt lat="58.66505" lon="5.59739">
					<ele>16</ele>
					<time>0001-01-01T00:00:00Z</time>
				</trkpt>
				<trkpt lat="58.66730" lon="5.59733">
					<ele>13</ele>
					<time>0001-01-01T00:00:00Z</time>
				</trkpt>
				<trkpt lat="58.66922" lon="5.59728">
					<ele>10</ele>
					<time>0001-01-01T00:00:00Z</time>
				</trkpt>
				<trkpt lat="58.67102" lon="5.59692">
					<ele>10</ele>
					<time>0001-01-01T00:00:00Z</time>
				</trkpt>
				<trkpt lat="58.67229" lon="5.59577">
					<ele>11</ele>
					<time>0001-01-01T00:00:00Z</time>
				</trkpt>
				<trkpt lat="58.67345" lon="5.59394">
					<ele>11</ele>
					<time>0001-01-01T00:00:00Z</time>
				</trkpt>
				<trkpt lat="58.67490" lon="5.59165">
					<ele>9</ele>
					<time>0001-01-01T00:00:00Z</time>
				</trkpt>
				<trkpt lat="58.67627" lon="5.59029">
					<ele>9</ele>
					<time>0001-01-01T00:00:00Z</time>
				</trkpt>
				<trkpt lat="58.67760" lon="5.58956">
					<ele>8</ele>
					<time>0001-01-01T00:00:00Z</time>
				</trkpt>
				<trkpt lat="58.67874" lon="5.58968">
					<ele>10</ele>
					<time>0001-01-01T00:00:00Z</time>
				</trkpt>
				<trkpt lat="58.67951" lon="5.59019">
					<ele>13</ele>
					<time>0001-01-01T00:00:00Z</time>
				</trkpt>
				<trkpt lat="58.68034" lon="5.59090">
					<ele>12</ele>
					<time>0001-01-01T00:00:00Z</time>
				</trkpt>
				<trkpt lat="58.68200" lon="5.59231">
					<ele>13</ele>
					<time>0001-01-01T00:00:00Z</time>
				</trkpt>
				<trkpt lat="58.68347" lon="5.59329">
					<ele>14</ele>
					<time>0001-01-01T00:00:00Z</time>
				</trkpt>
				<trkpt lat="58.68453" lon="5.59398">
					<ele>17</ele>
					<time>0001-01-01T00:00:00Z</time>
				</trkpt>
				<trkpt lat="58.68582" lon="5.59482">
					<ele>16</ele>
					<time>0001-01-01T00:00:00Z</time>
				</trkpt>
				<trkpt lat="58.68746" lon="5.59589">
					<ele>15</ele>
					<time>0001-01-01T00:00:00Z</time>
				</trkpt>
				<trkpt lat="58.68886" lon="5.59679">
					<ele>17</ele>
					<time>0001-01-01T00:00:00Z</time>
				</trkpt>
				<trkpt lat="58.69032" lon="5.59771">
					<ele>20</ele>
					<time>0001-01-01T00:00:00Z</time>
				</trkpt>
				<trkpt lat="58.69132" lon="5.59826">
					<ele>19</ele>
					<time>0001-01-01T00:00:00Z</time>
				</trkpt>
				<trkpt lat="58.69278" lon="5.59907">
					<ele>18</ele>
					<time>0001-01-01T00:00:00Z</time>
				</trkpt>
				<trkpt lat="58.69381" lon="5.59965">
					<ele>21</ele>
					<time>0001-01-01T00:00:00Z</time>
				</trkpt>
				<trkpt lat="58.69506" lon="5.60039">
					<ele>24</ele>
					<time>0001-01-01T00:00:00Z</time>
				</trkpt>
				<trkpt lat="58.69615" lon="5.60127">
					<ele>20</ele>
					<time>0001-01-01T00:00:00Z</time>
				</trkpt>
				<trkpt lat="58.69731" lon="5.60255">
					<ele>14</ele>
					<time>0001-01-01T00:00:00Z</time>
				</trkpt>
				<trkpt lat="58.69836" lon="5.60398">
					<ele>16</ele>
					<time>0001-01-01T00:00:00Z</time>
				</trkpt>
				<trkpt lat="58.69926" lon="5.60524">
					<ele>20</ele>
					<time>0001-01-01T00:00:00Z</time>
				</trkpt>
				<trkpt lat="58.70034" lon="5.60639">
					<ele>20</ele>
					<time>0001-01-01T00:00:00Z</time>
				</trkpt>
				<trkpt lat="58.70162" lon="5.60758">
					<ele>16</ele>
					<time>0001-01-01T00:00:00Z</time>
				</trkpt>
				<trkpt lat="58.70334" lon="5.60921">
					<ele>14</ele>
					<time>0001-01-01T00:00:00Z</time>
				</trkpt>
				<trkpt lat="58.70532" lon="5.61107">
					<ele>10</ele>
					<time>0001-01-01T00:00:00Z</time>
				</trkpt>
				<trkpt lat="58.70703" lon="5.61268">
					<ele>10</ele>
					<time>0001-01-01T00:00:00Z</time>
				</trkpt>
				<trkpt lat="58.70849" lon="5.61407">
					<ele>12</ele>
					<time>0001-01-01T00:00:00Z</time>
				</trkpt>
				<trkpt lat="58.70994" lon="5.61559">
					<ele>14</ele>
					<time>0001-01-01T00:00:00Z</time>
				</trkpt>
				<trkpt lat="58.71069" lon="5.61640">
					<ele>17</ele>
					<time>0001-01-01T00:00:00Z</time>
				</trkpt>
				<trkpt lat="58.71147" lon="5.61720">
					<ele>19</ele>
					<time>0001-01-01T00:00:00Z</time>
				</trkpt>
				<trkpt lat="58.71253" lon="5.61815">
					<ele>16</ele>
					<time>0001-01-01T00:00:00Z</time>
				</trkpt>
				<trkpt lat="58.71400" lon="5.61946">
					<ele>15</ele>
					<time>0001-01-01T00:00:00Z</time>
				</trkpt>
				<trkpt lat="58.71502" lon="5.62037">
					<ele>18</ele>
					<time>0001-01-01T00:00:00Z</time>
				</trkpt>
				<trkpt lat="58.71607" lon="5.62131">
					<ele>22</ele>
					<time>0001-01-01T00:00:00Z</time>
				</trkpt>
				<trkpt lat="58.71705" lon="5.62218">
					<ele>24</ele>
					<time>0001-01-01T00:00:00Z</time>
				</trkpt>
				<trkpt lat="58.71763" lon="5.62274">
					<ele>24</ele>
					<time>0001-01-01T00:00:00Z</time>
				</trkpt>
				<trkpt lat="58.71764" lon="5.62275">
					<ele>26</ele>
					<time>0001-01-01T00:00:00Z</time>
				</trkpt>
				<trkpt lat="58.71799" lon="5.62299">
					<ele>24</ele>
					<time>0001-01-01T00:00:00Z</time>
				</trkpt>
				<trkpt lat="58.71882" lon="5.62372">
					<ele>19</ele>
					<time>0001-01-01T00:00:00Z</time>
				</trkpt>
				<trkpt lat="58.72011" lon="5.62484">
					<ele>20</ele>
					<time>0001-01-01T00:00:00Z</time>
				</trkpt>
				<trkpt lat="58.72168" lon="5.62621">
					<ele>18</ele>
					<time>0001-01-01T00:00:00Z</time>
				</trkpt>
				<trkpt lat="58.72275" lon="5.62715">
					<ele>18</ele>
					<time>0001-01-01T00:00:00Z</time>
				</trkpt>
				<trkpt lat="58.72364" lon="5.62794">
					<ele>21</ele>
					<time>0001-01-01T00:00:00Z</time>
				</trkpt>
				<trkpt lat="58.72421" lon="5.62841">
					<ele>27</ele>
					<time>0001-01-01T00:00:00Z</time>
				</trkpt>
				<trkpt lat="58.72526" lon="5.62932">
					<ele>28</ele>
					<time>0001-01-01T00:00:00Z</time>
				</trkpt>
				<trkpt lat="58.72592" lon="5.62993">
					<ele>33</ele>
					<time>0001-01-01T00:00:00Z</time>
				</trkpt>
				<trkpt lat="58.72677" lon="5.63090">
					<ele>35</ele>
					<time>0001-01-01T00:00:00Z</time>
				</trkpt>
				<trkpt lat="58.72763" lon="5.63193">
					<ele>38</ele>
					<time>0001-01-01T00:00:00Z</time>
				</trkpt>
				<trkpt lat="58.72852" lon="5.63298">
					<ele>34</ele>
					<time>0001-01-01T00:00:00Z</time>
				</trkpt>
				<trkpt lat="58.72958" lon="5.63378">
					<ele>29</ele>
					<time>0001-01-01T00:00:00Z</time>
				</trkpt>
				<trkpt lat="58.73085" lon="5.63374">
					<ele>25</ele>
					<time>0001-01-01T00:00:00Z</time>
				</trkpt>
				<trkpt lat="58.73250" lon="5.63408">
					<ele>20</ele>
					<time>0001-01-01T00:00:00Z</time>
				</trkpt>
				<trkpt lat="58.73389" lon="5.63507">
					<ele>19</ele>
					<time>0001-01-01T00:00:00Z</time>
				</trkpt>
				<trkpt lat="58.73500" lon="5.63641">
					<ele>20</ele>
					<time>0001-01-01T00:00:00Z</time>
				</trkpt>
				<trkpt lat="58.73537" lon="5.63677">
					<ele>21</ele>
					<time>0001-01-01T00:00:00Z</time>
				</trkpt>
				<trkpt lat="58.73554" lon="5.63702">
					<ele>21</ele>
					<time>0001-01-01T00:00:00Z</time>
				</trkpt>
				<trkpt lat="58.73602" lon="5.63783">
					<ele>21</ele>
					<time>0001-01-01T00:00:00Z</time>
				</trkpt>
				<trkpt lat="58.73707" lon="5.63937">
					<ele>22</ele>
					<time>0001-01-01T00:00:00Z</time>
				</trkpt>
				<trkpt lat="58.73755" lon="5.64010">
					<ele>23</ele>
					<time>0001-01-01T00:00:00Z</time>
				</trkpt>
				<trkpt lat="58.73762" lon="5.64020">
					<ele>23</ele>
					<time>0001-01-01T00:00:00Z</time>
				</trkpt>
				<trkpt lat="58.73780" lon="5.64031">
					<ele>23</ele>
					<time>0001-01-01T00:00:00Z</time>
				</trkpt>
				<trkpt lat="58.73867" lon="5.64063">
					<ele>24</ele>
					<time>0001-01-01T00:00:00Z</time>
				</trkpt>
				<trkpt lat="58.73960" lon="5.64031">
					<ele>26</ele>
					<time>0001-01-01T00:00:00Z</time>
				</trkpt>
				<trkpt lat="58.74080" lon="5.63924">
					<ele>28</ele>
					<time>0001-01-01T00:00:00Z</time>
				</trkpt>
				<trkpt lat="58.74166" lon="5.63847">
					<ele>32</ele>
					<time>0001-01-01T00:00:00Z</time>
				</trkpt>
				<trkpt lat="58.74175" lon="5.63841">
					<ele>32</ele>
					<time>0001-01-01T00:00:00Z</time>
				</trkpt>
				<trkpt lat="58.74195" lon="5.63815">
					<ele>33</ele>
					<time>0001-01-01T00:00:00Z</time>
				</trkpt>
				<trkpt lat="58.74301" lon="5.63702">
					<ele>38</ele>
					<time>0001-01-01T00:00:00Z</time>
				</trkpt>
				<trkpt lat="58.74404" lon="5.63590">
					<ele>40</ele>
					<time>0001-01-01T00:00:00Z</time>
				</trkpt>
				<trkpt lat="58.74457" lon="5.63540">
					<ele>40</ele>
					<time>0001-01-01T00:00:00Z</time>
				</trkpt>
				<trkpt lat="58.74477" lon="5.63505">
					<ele>40</ele>
					<time>0001-01-01T00:00:00Z</time>
				</trkpt>
				<trkpt lat="58.74611" lon="5.63319">
					<ele>38</ele>
					<time>0001-01-01T00:00:00Z</time>
				</trkpt>
				<trkpt lat="58.74773" lon="5.63096">
					<ele>35</ele>
					<time>0001-01-01T00:00:00Z</time>
				</trkpt>
				<trkpt lat="58.74944" lon="5.62917">
					<ele>32</ele>
					<time>0001-01-01T00:00:00Z</time>
				</trkpt>
				<trkpt lat="58.75110" lon="5.62773">
					<ele>34</ele>
					<time>0001-01-01T00:00:00Z</time>
				</trkpt>
				<trkpt lat="58.75297" lon="5.62611">
					<ele>37</ele>
					<time>0001-01-01T00:00:00Z</time>
				</trkpt>
				<trkpt lat="58.75417" lon="5.62508">
					<ele>40</ele>
					<time>0001-01-01T00:00:00Z</time>
				</trkpt>
				<trkpt lat="58.75528" lon="5.62412">
					<ele>40</ele>
					<time>0001-01-01T00:00:00Z</time>
				</trkpt>
				<trkpt lat="58.75667" lon="5.62316">
					<ele>43</ele>
					<time>0001-01-01T00:00:00Z</time>
				</trkpt>
				<trkpt lat="58.75794" lon="5.62310">
					<ele>46</ele>
					<time>0001-01-01T00:00:00Z</time>
				</trkpt>
				<trkpt lat="58.75947" lon="5.62308">
					<ele>45</ele>
					<time>0001-01-01T00:00:00Z</time>
				</trkpt>
				<trkpt lat="58.76090" lon="5.62303">
					<ele>48</ele>
					<time>0001-01-01T00:00:00Z</time>
				</trkpt>
				<trkpt lat="58.76168" lon="5.62343">
					<ele>50</ele>
					<time>0001-01-01T00:00:00Z</time>
				</trkpt>
				<trkpt lat="58.76264" lon="5.62428">
					<ele>53</ele>
					<time>0001-01-01T00:00:00Z</time>
				</trkpt>
				<trkpt lat="58.76385" lon="5.62535">
					<ele>54</ele>
					<time>0001-01-01T00:00:00Z</time>
				</trkpt>
				<trkpt lat="58.76519" lon="5.62655">
					<ele>53</ele>
					<time>0001-01-01T00:00:00Z</time>
				</trkpt>
				<trkpt lat="58.76649" lon="5.62772">
					<ele>50</ele>
					<time>0001-01-01T00:00:00Z</time>
				</trkpt>
				<trkpt lat="58.76682" lon="5.62804">
					<ele>48</ele>
					<time>0001-01-01T00:00:00Z</time>
				</trkpt>
				<trkpt lat="58.76720" lon="5.62845">
					<ele>48</ele>
					<time>0001-01-01T00:00:00Z</time>
				</trkpt>
				<trkpt lat="58.76830" lon="5.62907">
					<ele>49</ele>
					<time>0001-01-01T00:00:00Z</time>
				</trkpt>
				<trkpt lat="58.76966" lon="5.62963">
					<ele>46</ele>
					<time>0001-01-01T00:00:00Z</time>
				</trkpt>
				<trkpt lat="58.77154" lon="5.62990">
					<ele>44</ele>
					<time>0001-01-01T00:00:00Z</time>
				</trkpt>
				<trkpt lat="58.77304" lon="5.62961">
					<ele>41</ele>
					<time>0001-01-01T00:00:00Z</time>
				</trkpt>
				<trkpt lat="58.77405" lon="5.62925">
					<ele>40</ele>
					<time>0001-01-01T00:00:00Z</time>
				</trkpt>
				<trkpt lat="58.77417" lon="5.62929">
					<ele>40</ele>
					<time>0001-01-01T00:00:00Z</time>
				</trkpt>
				<trkpt lat="58.77459" lon="5.62910">
					<ele>41</ele>
					<time>0001-01-01T00:00:00Z</time>
				</trkpt>
				<trkpt lat="58.77471" lon="5.62915">
					<ele>41</ele>
					<time>0001-01-01T00:00:00Z</time>
				</trkpt>
				<trkpt lat="58.77572" lon="5.62991">
					<ele>37</ele>
					<time>0001-01-01T00:00:00Z</time>
				</trkpt>
				<trkpt lat="58.77696" lon="5.63152">
					<ele>35</ele>
					<time>0001-01-01T00:00:00Z</time>
				</trkpt>
				<trkpt lat="58.77848" lon="5.63348">
					<ele>34</ele>
					<time>0001-01-01T00:00:00Z</time>
				</trkpt>
				<trkpt lat="58.77930" lon="5.63446">
					<ele>36</ele>
					<time>0001-01-01T00:00:00Z</time>
				</trkpt>
				<trkpt lat="58.78063" lon="5.63579">
					<ele>36</ele>
					<time>0001-01-01T00:00:00Z</time>
				</trkpt>
				<trkpt lat="58.78110" lon="5.63629">
					<ele>36</ele>
					<time>0001-01-01T00:00:00Z</time>
				</trkpt>
				<trkpt lat="58.78198" lon="5.63730">
					<ele>34</ele>
					<time>0001-01-01T00:00:00Z</time>
				</trkpt>
				<trkpt lat="58.78250" lon="5.63777">
					<ele>36</ele>
					<time>0001-01-01T00:00:00Z</time>
				</trkpt>
				<trkpt lat="58.78263" lon="5.63784">
					<ele>37</ele>
					<time>0001-01-01T00:00:00Z</time>
				</trkpt>
				<trkpt lat="58.78368" lon="5.63877">
					<ele>34</ele>
					<time>0001-01-01T00:00:00Z</time>
				</trkpt>
				<trkpt lat="58.78473" lon="5.63999">
					<ele>34</ele>
					<time>0001-01-01T00:00:00Z</time>
				</trkpt>
				<trkpt lat="58.78545" lon="5.64199">
					<ele>32</ele>
					<time>0001-01-01T00:00:00Z</time>
				</trkpt>
				<trkpt lat="58.78659" lon="5.64547">
					<ele>28</ele>
					<time>0001-01-01T00:00:00Z</time>
				</trkpt>
				<trkpt lat="58.78751" lon="5.64838">
					<ele>26</ele>
					<time>0001-01-01T00:00:00Z</time>
				</trkpt>
				<trkpt lat="58.78842" lon="5.65002">
					<ele>24</ele>
					<time>0001-01-01T00:00:00Z</time>
				</trkpt>
				<trkpt lat="58.78903" lon="5.65176">
					<ele>18</ele>
					<time>0001-01-01T00:00:00Z</time>
				</trkpt>
				<trkpt lat="58.78968" lon="5.65401">
					<ele>18</ele>
					<time>0001-01-01T00:00:00Z</time>
				</trkpt>
				<trkpt lat="58.79059" lon="5.65558">
					<ele>13</ele>
					<time>0001-01-01T00:00:00Z</time>
				</trkpt>
				<trkpt lat="58.79066" lon="5.65571">
					<ele>13</ele>
					<time>0001-01-01T00:00:00Z</time>
				</trkpt>
				<trkpt lat="58.79089" lon="5.65629">
					<ele>12</ele>
					<time>0001-01-01T00:00:00Z</time>
				</trkpt>
				<trkpt lat="58.79181" lon="5.65854">
					<ele>12</ele>
					<time>0001-01-01T00:00:00Z</time>
				</trkpt>
				<trkpt lat="58.79247" lon="5.66056">
					<ele>12</ele>
					<time>0001-01-01T00:00:00Z</time>
				</trkpt>
				<trkpt lat="58.79310" lon="5.66263">
					<ele>11</ele>
					<time>0001-01-01T00:00:00Z</time>
				</trkpt>
				<trkpt lat="58.79392" lon="5.66534">
					<ele>11</ele>
					<time>0001-01-01T00:00:00Z</time>
				</trkpt>
				<trkpt lat="58.79467" lon="5.66737">
					<ele>11</ele>
					<time>0001-01-01T00:00:00Z</time>
				</trkpt>
				<trkpt lat="58.79542" lon="5.66881">
					<ele>11</ele>
					<time>0001-01-01T00:00:00Z</time>
				</trkpt>
				<trkpt lat="58.79645" lon="5.67014">
					<ele>12</ele>
					<time>0001-01-01T00:00:00Z</time>
				</trkpt>
				<trkpt lat="58.79762" lon="5.67139">
					<ele>12</ele>
					<time>0001-01-01T00:00:00Z</time>
				</trkpt>
				<trkpt lat="58.79800" lon="5.67186">
					<ele>13</ele>
					<time>0001-01-01T00:00:00Z</time>
				</trkpt>
				<trkpt lat="58.79818" lon="5.67199">
					<ele>13</ele>
					<time>0001-01-01T00:00:00Z</time>
				</trkpt>
				<trkpt lat="58.79910" lon="5.67305">
					<ele>13</ele>
					<time>0001-01-01T00:00:00Z</time>
				</trkpt>
				<trkpt lat="58.79936" lon="5.67318">
					<ele>10</ele>
					<time>0001-01-01T00:00:00Z</time>
				</trkpt>
				<trkpt lat="58.79951" lon="5.67326">
					<ele>11</ele>
					<time>0001-01-01T00:00:00Z</time>
				</trkpt>
				<trkpt lat="58.79977" lon="5.67355">
					<ele>13</ele>
					<time>0001-01-01T00:00:00Z</time>
				</trkpt>
				<trkpt lat="58.79985" lon="5.67362">
					<ele>13</ele>
					<time>0001-01-01T00:00:00Z</time>
				</trkpt>
				<trkpt lat="58.80056" lon="5.67430">
					<ele>14</ele>
					<time>0001-01-01T00:00:00Z</time>
				</trkpt>
				<trkpt lat="58.80114" lon="5.67526">
					<ele>16</ele>
					<time>0001-01-01T00:00:00Z</time>
				</trkpt>
				<trkpt lat="58.80192" lon="5.67641">
					<ele>18</ele>
					<time>0001-01-01T00:00:00Z</time>
				</trkpt>
				<trkpt lat="58.80260" lon="5.67761">
					<ele>15</ele>
					<time>0001-01-01T00:00:00Z</time>
				</trkpt>
				<trkpt lat="58.80278" lon="5.67803">
					<ele>15</ele>
					<time>0001-01-01T00:00:00Z</time>
				</trkpt>
				<trkpt lat="58.80300" lon="5.67847">
					<ele>14</ele>
					<time>0001-01-01T00:00:00Z</time>
				</trkpt>
				<trkpt lat="58.80418" lon="5.68011">
					<ele>15</ele>
					<time>0001-01-01T00:00:00Z</time>
				</trkpt>
				<trkpt lat="58.80486" lon="5.68125">
					<ele>16</ele>
					<time>0001-01-01T00:00:00Z</time>
				</trkpt>
				<trkpt lat="58.80572" lon="5.68217">
					<ele>17</ele>
					<time>0001-01-01T00:00:00Z</time>
				</trkpt>
				<trkpt lat="58.80593" lon="5.68286">
					<ele>19</ele>
					<time>0001-01-01T00:00:00Z</time>
				</trkpt>
				<trkpt lat="58.80590" lon="5.68410">
					<ele>25</ele>
					<time>0001-01-01T00:00:00Z</time>
				</trkpt>
				<trkpt lat="58.80581" lon="5.68537">
					<ele>26</ele>
					<time>0001-01-01T00:00:00Z</time>
				</trkpt>
				<trkpt lat="58.80581" lon="5.68558">
					<ele>27</ele>
					<time>0001-01-01T00:00:00Z</time>
				</trkpt>
				<trkpt lat="58.80609" lon="5.68686">
					<ele>27</ele>
					<time>0001-01-01T00:00:00Z</time>
				</trkpt>
				<trkpt lat="58.80638" lon="5.68829">
					<ele>28</ele>
					<time>0001-01-01T00:00:00Z</time>
				</trkpt>
				<trkpt lat="58.80635" lon="5.68853">
					<ele>28</ele>
					<time>0001-01-01T00:00:00Z</time>
				</trkpt>
				<trkpt lat="58.80653" lon="5.68929">
					<ele>29</ele>
					<time>0001-01-01T00:00:00Z</time>
				</trkpt>
				<trkpt lat="58.80748" lon="5.69114">
					<ele>29</ele>
					<time>0001-01-01T00:00:00Z</time>
				</trkpt>
				<trkpt lat="58.80854" lon="5.69286">
					<ele>32</ele>
					<time>0001-01-01T00:00:00Z</time>
				</trkpt>
				<trkpt lat="58.80979" lon="5.69456">
					<ele>34</ele>
					<time>0001-01-01T00:00:00Z</time>
				</trkpt>
				<trkpt lat="58.81100" lon="5.69618">
					<ele>34</ele>
					<time>0001-01-01T00:00:00Z</time>
				</trkpt>
				<trkpt lat="58.81182" lon="5.69730">
					<ele>33</ele>
					<time>0001-01-01T00:00:00Z</time>
				</trkpt>
				<trkpt lat="58.81313" lon="5.69902">
					<ele>33</ele>
					<time>0001-01-01T00:00:00Z</time>
				</trkpt>
				<trkpt lat="58.81423" lon="5.70050">
					<ele>36</ele>
					<time>0001-01-01T00:00:00Z</time>
				</trkpt>
				<trkpt lat="58.81546" lon="5.70214">
					<ele>39</ele>
					<time>0001-01-01T00:00:00Z</time>
				</trkpt>
				<trkpt lat="58.81682" lon="5.70391">
					<ele>40</ele>
					<time>0001-01-01T00:00:00Z</time>
				</trkpt>
				<trkpt lat="58.81785" lon="5.70522">
					<ele>35</ele>
					<time>0001-01-01T00:00:00Z</time>
				</trkpt>
				<trkpt lat="58.81929" lon="5.70706">
					<ele>36</ele>
					<time>0001-01-01T00:00:00Z</time>
				</trkpt>
				<trkpt lat="58.81938" lon="5.70720">
					<ele>36</ele>
					<time>0001-01-01T00:00:00Z</time>
				</trkpt>
				<trkpt lat="58.81950" lon="5.70744">
					<ele>36</ele>
					<time>0001-01-01T00:00:00Z</time>
				</trkpt>
				<trkpt lat="58.81972" lon="5.70765">
					<ele>36</ele>
					<time>0001-01-01T00:00:00Z</time>
				</trkpt>
				<trkpt lat="58.82076" lon="5.70891">
					<ele>35</ele>
					<time>0001-01-01T00:00:00Z</time>
				</trkpt>
				<trkpt lat="58.82220" lon="5.71074">
					<ele>36</ele>
					<time>0001-01-01T00:00:00Z</time>
				</trkpt>
				<trkpt lat="58.82370" lon="5.71266">
					<ele>33</ele>
					<time>0001-01-01T00:00:00Z</time>
				</trkpt>
				<trkpt lat="58.82480" lon="5.71405">
					<ele>31</ele>
					<time>0001-01-01T00:00:00Z</time>
				</trkpt>
				<trkpt lat="58.82493" lon="5.71429">
					<ele>32</ele>
					<time>0001-01-01T00:00:00Z</time>
				</trkpt>
				<trkpt lat="58.82554" lon="5.71484">
					<ele>32</ele>
					<time>0001-01-01T00:00:00Z</time>
				</trkpt>
				<trkpt lat="58.82666" lon="5.71545">
					<ele>29</ele>
					<time>0001-01-01T00:00:00Z</time>
				</trkpt>
				<trkpt lat="58.82810" lon="5.71619">
					<ele>29</ele>
					<time>0001-01-01T00:00:00Z</time>
				</trkpt>
				<trkpt lat="58.82954" lon="5.71692">
					<ele>31</ele>
					<time>0001-01-01T00:00:00Z</time>
				</trkpt>
				<trkpt lat="58.82981" lon="5.71713">
					<ele>30</ele>
					<time>0001-01-01T00:00:00Z</time>
				</trkpt>
				<trkpt lat="58.83112" lon="5.71780">
					<ele>24</ele>
					<time>0001-01-01T00:00:00Z</time>
				</trkpt>
				<trkpt lat="58.83330" lon="5.71895">
					<ele>12</ele>
					<time>0001-01-01T00:00:00Z</time>
				</trkpt>
				<trkpt lat="58.83406" lon="5.71980">
					<ele>15</ele>
					<time>0001-01-01T00:00:00Z</time>
				</trkpt>
				<trkpt lat="58.83476" lon="5.72061">
					<ele>20</ele>
					<time>0001-01-01T00:00:00Z</time>
				</trkpt>
				<trkpt lat="58.83552" lon="5.72130">
					<ele>23</ele>
					<time>0001-01-01T00:00:00Z</time>
				</trkpt>
				<trkpt lat="58.83631" lon="5.72177">
					<ele>26</ele>
					<time>0001-01-01T00:00:00Z</time>
				</trkpt>
				<trkpt lat="58.83649" lon="5.72193">
					<ele>26</ele>
					<time>0001-01-01T00:00:00Z</time>
				</trkpt>
				<trkpt lat="58.83674" lon="5.72220">
					<ele>27</ele>
					<time>0001-01-01T00:00:00Z</time>
				</trkpt>
				<trkpt lat="58.83772" lon="5.72283">
					<ele>28</ele>
					<time>0001-01-01T00:00:00Z</time>
				</trkpt>
				<trkpt lat="58.83887" lon="5.72368">
					<ele>25</ele>
					<time>0001-01-01T00:00:00Z</time>
				</trkpt>
				<trkpt lat="58.84037" lon="5.72467">
					<ele>24</ele>
					<time>0001-01-01T00:00:00Z</time>
				</trkpt>
				<trkpt lat="58.84172" lon="5.72594">
					<ele>24</ele>
					<time>0001-01-01T00:00:00Z</time>
				</trkpt>
				<trkpt lat="58.84298" lon="5.72718">
					<ele>16</ele>
					<time>0001-01-01T00:00:00Z</time>
				</trkpt>
				<trkpt lat="58.84441" lon="5.72819">
					<ele>10</ele>
					<time>0001-01-01T00:00:00Z</time>
				</trkpt>
				<trkpt lat="58.84589" lon="5.72888">
					<ele>8</ele>
					<time>0001-01-01T00:00:00Z</time>
				</trkpt>
				<trkpt lat="58.84732" lon="5.72939">
					<ele>7</ele>
					<time>0001-01-01T00:00:00Z</time>
				</trkpt>
				<trkpt lat="58.84795" lon="5.72957">
					<ele>6</ele>
					<time>0001-01-01T00:00:00Z</time>
				</trkpt>
				<trkpt lat="58.84818" lon="5.72986">
					<ele>5</ele>
					<time>0001-01-01T00:00:00Z</time>
				</trkpt>
				<trkpt lat="58.84860" lon="5.73058">
					<ele>4</ele>
					<time>0001-01-01T00:00:00Z</time>
				</trkpt>
				<trkpt lat="58.84952" lon="5.73246">
					<ele>3</ele>
					<time>0001-01-01T00:00:00Z</time>
				</trkpt>
				<trkpt lat="58.84961" lon="5.73263">
					<ele>3</ele>
					<time>0001-01-01T00:00:00Z</time>
				</trkpt>
				<trkpt lat="58.84962" lon="5.73306">
					<ele>3</ele>
					<time>0001-01-01T00:00:00Z</time>
				</trkpt>
				<trkpt lat="58.84937" lon="5.73362">
					<ele>3</ele>
					<time>0001-01-01T00:00:00Z</time>
				</trkpt>
				<trkpt lat="58.84915" lon="5.73391">
					<ele>3</ele>
					<time>0001-01-01T00:00:00Z</time>
				</trkpt>
				<trkpt lat="58.84908" lon="5.73409">
					<ele>2</ele>
					<time>0001-01-01T00:00:00Z</time>
				</trkpt>
				<trkpt lat="58.84922" lon="5.73463">
					<ele>3</ele>
					<time>0001-01-01T00:00:00Z</time>
				</trkpt>
				<trkpt lat="58.84926" lon="5.73496">
					<ele>3</ele>
					<time>0001-01-01T00:00:00Z</time>
				</trkpt>
				<trkpt lat="58.84928" lon="5.73515">
					<ele>3</ele>
					<time>0001-01-01T00:00:00Z</time>
				</trkpt>
				<trkpt lat="58.84936" lon="5.73555">
					<ele>3</ele>
					<time>0001-01-01T00:00:00Z</time>
				</trkpt>
				<trkpt lat="58.84955" lon="5.73657">
					<ele>3</ele>
					<time>0001-01-01T00:00:00Z</time>
				</trkpt>
				<trkpt lat="58.84969" lon="5.73697">
					<ele>4</ele>
					<time>0001-01-01T00:00:00Z</time>
				</trkpt>
				<trkpt lat="58.85026" lon="5.73805">
					<ele>3</ele>
					<time>0001-01-01T00:00:00Z</time>
				</trkpt>
				<trkpt lat="58.85037" lon="5.73820">
					<ele>3</ele>
					<time>0001-01-01T00:00:00Z</time>
				</trkpt>
				<trkpt lat="58.85070" lon="5.73849">
					<ele>3</ele>
					<time>0001-01-01T00:00:00Z</time>
				</trkpt>
				<trkpt lat="58.85140" lon="5.73910">
					<ele>6</ele>
					<time>0001-01-01T00:00:00Z</time>
				</trkpt>
				<trkpt lat="58.85237" lon="5.73995">
					<ele>6</ele>
					<time>0001-01-01T00:00:00Z</time>
				</trkpt>
				<trkpt lat="58.85251" lon="5.74018">
					<ele>5</ele>
					<time>0001-01-01T00:00:00Z</time>
				</trkpt>
				<trkpt lat="58.85275" lon="5.74032">
					<ele>5</ele>
					<time>0001-01-01T00:00:00Z</time>
				</trkpt>
				<trkpt lat="58.85388" lon="5.74120">
					<ele>4</ele>
					<time>0001-01-01T00:00:00Z</time>
				</trkpt>
				<trkpt lat="58.85544" lon="5.74243">
					<ele>3</ele>
					<time>0001-01-01T00:00:00Z</time>
				</trkpt>
				<trkpt lat="58.85695" lon="5.74351">
					<ele>3</ele>
					<time>0001-01-01T00:00:00Z</time>
				</trkpt>
				<trkpt lat="58.85860" lon="5.74454">
					<ele>4</ele>
					<time>0001-01-01T00:00:00Z</time>
				</trkpt>
				<trkpt lat="58.86006" lon="5.74502">
					<ele>5</ele>
					<time>0001-01-01T00:00:00Z</time>
				</trkpt>
				<trkpt lat="58.86179" lon="5.74544">
					<ele>3</ele>
					<time>0001-01-01T00:00:00Z</time>
				</trkpt>
				<trkpt lat="58.86320" lon="5.74558">
					<ele>3</ele>
					<time>0001-01-01T00:00:00Z</time>
				</trkpt>
				<trkpt lat="58.86421" lon="5.74563">
					<ele>5</ele>
					<time>0001-01-01T00:00:00Z</time>
				</trkpt>
				<trkpt lat="58.86543" lon="5.74506">
					<ele>5</ele>
					<time>0001-01-01T00:00:00Z</time>
				</trkpt>
				<trkpt lat="58.86647" lon="5.74462">
					<ele>9</ele>
					<time>0001-01-01T00:00:00Z</time>
				</trkpt>
				<trkpt lat="58.86765" lon="5.74436">
					<ele>7</ele>
					<time>0001-01-01T00:00:00Z</time>
				</trkpt>
				<trkpt lat="58.86937" lon="5.74417">
					<ele>7</ele>
					<time>0001-01-01T00:00:00Z</time>
				</trkpt>
				<trkpt lat="58.87041" lon="5.74360">
					<ele>9</ele>
					<time>0001-01-01T00:00:00Z</time>
				</trkpt>
				<trkpt lat="58.87060" lon="5.74297">
					<ele>11</ele>
					<time>0001-01-01T00:00:00Z</time>
				</trkpt>
				<trkpt lat="58.87093" lon="5.74123">
					<ele>10</ele>
					<time>0001-01-01T00:00:00Z</time>
				</trkpt>
				<trkpt lat="58.87109" lon="5.74059">
					<ele>9</ele>
					<time>0001-01-01T00:00:00Z</time>
				</trkpt>
				<trkpt lat="58.87137" lon="5.73966">
					<ele>9</ele>
					<time>0001-01-01T00:00:00Z</time>
				</trkpt>
				<trkpt lat="58.87207" lon="5.73779">
					<ele>10</ele>
					<time>0001-01-01T00:00:00Z</time>
				</trkpt>
				<trkpt lat="58.87301" lon="5.73536">
					<ele>15</ele>
					<time>0001-01-01T00:00:00Z</time>
				</trkpt>
				<trkpt lat="58.87445" lon="5.73087">
					<ele>18</ele>
					<time>0001-01-01T00:00:00Z</time>
				</trkpt>
				<trkpt lat="58.87438" lon="5.72882">
					<ele>18</ele>
					<time>0001-01-01T00:00:00Z</time>
				</trkpt>
				<trkpt lat="58.87410" lon="5.72620">
					<ele>20</ele>
					<time>0001-01-01T00:00:00Z</time>
				</trkpt>
				<trkpt lat="58.87410" lon="5.72582">
					<ele>20</ele>
					<time>0001-01-01T00:00:00Z</time>
				</trkpt>
				<trkpt lat="58.87430" lon="5.72540">
					<ele>20</ele>
					<time>0001-01-01T00:00:00Z</time>
				</trkpt>
				<trkpt lat="58.87567" lon="5.72468">
					<ele>20</ele>
					<time>0001-01-01T00:00:00Z</time>
				</trkpt>
				<trkpt lat="58.87644" lon="5.72482">
					<ele>20</ele>
					<time>0001-01-01T00:00:00Z</time>
				</trkpt>
				<trkpt lat="58.87953" lon="5.72602">
					<ele>17</ele>
					<time>0001-01-01T00:00:00Z</time>
				</trkpt>
				<trkpt lat="58.88127" lon="5.72664">
					<ele>17</ele>
					<time>0001-01-01T00:00:00Z</time>
				</trkpt>
				<trkpt lat="58.88321" lon="5.72733">
					<ele>15</ele>
					<time>0001-01-01T00:00:00Z</time>
				</trkpt>
				<trkpt lat="58.88535" lon="5.72817">
					<ele>12</ele>
					<time>0001-01-01T00:00:00Z</time>
				</trkpt>
				<trkpt lat="58.88711" lon="5.72874">
					<ele>12</ele>
					<time>0001-01-01T00:00:00Z</time>
				</trkpt>
				<trkpt lat="58.88870" lon="5.72959">
					<ele>14</ele>
					<time>0001-01-01T00:00:00Z</time>
				</trkpt>
				<trkpt lat="58.88985" lon="5.73117">
					<ele>16</ele>
					<time>0001-01-01T00:00:00Z</time>
				</trkpt>
				<trkpt lat="58.89115" lon="5.73307">
					<ele>16</ele>
					<time>0001-01-01T00:00:00Z</time>
				</trkpt>
				<trkpt lat="58.89174" lon="5.73406">
					<ele>15</ele>
					<time>0001-01-01T00:00:00Z</time>
				</trkpt>
				<trkpt lat="58.89199" lon="5.73433">
					<ele>15</ele>
					<time>0001-01-01T00:00:00Z</time>
				</trkpt>
				<trkpt lat="58.89308" lon="5.73586">
					<ele>16</ele>
					<time>0001-01-01T00:00:00Z</time>
				</trkpt>
				<trkpt lat="58.89424" lon="5.73759">
					<ele>17</ele>
					<time>0001-01-01T00:00:00Z</time>
				</trkpt>
				<trkpt lat="58.89521" lon="5.73875">
					<ele>18</ele>
					<time>0001-01-01T00:00:00Z</time>
				</trkpt>
				<trkpt lat="58.89667" lon="5.73982">
					<ele>20</ele>
					<time>0001-01-01T00:00:00Z</time>
				</trkpt>
				<trkpt lat="58.89683" lon="5.74000">
					<ele>20</ele>
					<time>0001-01-01T00:00:00Z</time>
				</trkpt>
				<trkpt lat="58.89709" lon="5.74010">
					<ele>20</ele>
					<time>0001-01-01T00:00:00Z</time>
				</trkpt>
				<trkpt lat="58.89847" lon="5.73990">
					<ele>18</ele>
					<time>0001-01-01T00:00:00Z</time>
				</trkpt>
				<trkpt lat="58.90042" lon="5.73943">
					<ele>18</ele>
					<time>0001-01-01T00:00:00Z</time>
				</trkpt>
				<trkpt lat="58.90197" lon="5.73907">
					<ele>21</ele>
					<time>0001-01-01T00:00:00Z</time>
				</trkpt>
				<trkpt lat="58.90329" lon="5.73876">
					<ele>26</ele>
					<time>0001-01-01T00:00:00Z</time>
				</trkpt>
				<trkpt lat="58.90432" lon="5.73805">
					<ele>28</ele>
					<time>0001-01-01T00:00:00Z</time>
				</trkpt>
				<trkpt lat="58.90516" lon="5.73654">
					<ele>28</ele>
					<time>0001-01-01T00:00:00Z</time>
				</trkpt>
				<trkpt lat="58.90616" lon="5.73384">
					<ele>30</ele>
					<time>0001-01-01T00:00:00Z</time>
				</trkpt>
				<trkpt lat="58.90624" lon="5.73364">
					<ele>30</ele>
					<time>0001-01-01T00:00:00Z</time>
				</trkpt>
				<trkpt lat="58.90700" lon="5.73168">
					<ele>32</ele>
					<time>0001-01-01T00:00:00Z</time>
				</trkpt>
				<trkpt lat="58.90780" lon="5.72931">
					<ele>29</ele>
					<time>0001-01-01T00:00:00Z</time>
				</trkpt>
				<trkpt lat="58.90818" lon="5.72886">
					<ele>29</ele>
					<time>0001-01-01T00:00:00Z</time>
				</trkpt>
				<trkpt lat="58.91018" lon="5.72734">
					<ele>25</ele>
					<time>0001-01-01T00:00:00Z</time>
				</trkpt>
				<trkpt lat="58.91071" lon="5.72707">
					<ele>24</ele>
					<time>0001-01-01T00:00:00Z</time>
				</trkpt>
				<trkpt lat="58.91198" lon="5.72652">
					<ele>21</ele>
					<time>0001-01-01T00:00:00Z</time>
				</trkpt>
				<trkpt lat="58.91300" lon="5.72626">
					<ele>15</ele>
					<time>0001-01-01T00:00:00Z</time>
				</trkpt>
				<trkpt lat="58.91329" lon="5.72620">
					<ele>14</ele>
					<time>0001-01-01T00:00:00Z</time>
				</trkpt>
				<trkpt lat="58.91366" lon="5.72596">
					<ele>13</ele>
					<time>0001-01-01T00:00:00Z</time>
				</trkpt>
				<trkpt lat="58.91385" lon="5.72591">
					<ele>14</ele>
					<time>0001-01-01T00:00:00Z</time>
				</trkpt>
				<trkpt lat="58.91414" lon="5.72596">
					<ele>13</ele>
					<time>0001-01-01T00:00:00Z</time>
				</trkpt>
				<trkpt lat="58.91545" lon="5.72564">
					<ele>12</ele>
					<time>0001-01-01T00:00:00Z</time>
				</trkpt>
				<trkpt lat="58.91728" lon="5.72513">
					<ele>11</ele>
					<time>0001-01-01T00:00:00Z</time>
				</trkpt>
				<trkpt lat="58.91937" lon="5.72454">
					<ele>7</ele>
					<time>0001-01-01T00:00:00Z</time>
				</trkpt>
				<trkpt lat="58.92082" lon="5.72410">
					<ele>8</ele>
					<time>0001-01-01T00:00:00Z</time>
				</trkpt>
				<trkpt lat="58.92104" lon="5.72408">
					<ele>8</ele>
					<time>0001-01-01T00:00:00Z</time>
				</trkpt>
				<trkpt lat="58.92152" lon="5.72444">
					<ele>8</ele>
					<time>0001-01-01T00:00:00Z</time>
				</trkpt>
				<trkpt lat="58.92200" lon="5.72516">
					<ele>7</ele>
					<time>0001-01-01T00:00:00Z</time>
				</trkpt>
				<trkpt lat="58.92218" lon="5.72574">
					<ele>7</ele>
					<time>0001-01-01T00:00:00Z</time>
				</trkpt>
				<trkpt lat="58.92228" lon="5.72665">
					<ele>9</ele>
					<time>0001-01-01T00:00:00Z</time>
				</trkpt>
				<trkpt lat="58.92239" lon="5.72701">
					<ele>9</ele>
					<time>0001-01-01T00:00:00Z</time>
				</trkpt>
				<trkpt lat="58.92294" lon="5.72946">
					<ele>13</ele>
					<time>0001-01-01T00:00:00Z</time>
				</trkpt>
				<trkpt lat="58.92329" lon="5.73083">
					<ele>14</ele>
					<time>0001-01-01T00:00:00Z</time>
				</trkpt>
				<trkpt lat="58.92358" lon="5.73273">
					<ele>15</ele>
					<time>0001-01-01T00:00:00Z</time>
				</trkpt>
				<trkpt lat="58.92369" lon="5.73323">
					<ele>17</ele>
					<time>0001-01-01T00:00:00Z</time>
				</trkpt>
				<trkpt lat="58.92427" lon="5.73448">
					<ele>18</ele>
					<time>0001-01-01T00:00:00Z</time>
				</trkpt>
				<trkpt lat="58.92546" lon="5.73468">
					<ele>22</ele>
					<time>0001-01-01T00:00:00Z</time>
				</trkpt>
				<trkpt lat="58.92691" lon="5.73419">
					<ele>24</ele>
					<time>0001-01-01T00:00:00Z</time>
				</trkpt>
				<trkpt lat="58.92698" lon="5.73415">
					<ele>24</ele>
					<time>0001-01-01T00:00:00Z</time>
				</trkpt>
				<trkpt lat="58.92742" lon="5.73418">
					<ele>26</ele>
					<time>0001-01-01T00:00:00Z</time>
				</trkpt>
				<trkpt lat="58.92774" lon="5.73445">
					<ele>27</ele>
					<time>0001-01-01T00:00:00Z</time>
				</trkpt>
				<trkpt lat="58.92898" lon="5.73609">
					<ele>30</ele>
					<time>0001-01-01T00:00:00Z</time>
				</trkpt>
				<trkpt lat="58.93034" lon="5.73725">
					<ele>29</ele>
					<time>0001-01-01T00:00:00Z</time>
				</trkpt>
				<trkpt lat="58.93230" lon="5.73892">
					<ele>24</ele>
					<time>0001-01-01T00:00:00Z</time>
				</trkpt>
				<trkpt lat="58.93379" lon="5.74019">
					<ele>25</ele>
					<time>0001-01-01T00:00:00Z</time>
				</trkpt>
				<trkpt lat="58.93385" lon="5.74024">
					<ele>25</ele>
					<time>0001-01-01T00:00:00Z</time>
				</trkpt>
				<trkpt lat="58.93396" lon="5.74040">
					<ele>25</ele>
					<time>0001-01-01T00:00:00Z</time>
				</trkpt>
				<trkpt lat="58.93481" lon="5.74104">
					<ele>25</ele>
					<time>0001-01-01T00:00:00Z</time>
				</trkpt>
				<trkpt lat="58.93639" lon="5.74244">
					<ele>24</ele>
					<time>0001-01-01T00:00:00Z</time>
				</trkpt>
				<trkpt lat="58.93803" lon="5.74376">
					<ele>24</ele>
					<time>0001-01-01T00:00:00Z</time>
				</trkpt>
				<trkpt lat="58.93945" lon="5.74494">
					<ele>27</ele>
					<time>0001-01-01T00:00:00Z</time>
				</trkpt>
				<trkpt lat="58.94052" lon="5.74583">
					<ele>27</ele>
					<time>0001-01-01T00:00:00Z</time>
				</trkpt>
				<trkpt lat="58.94162" lon="5.74594">
					<ele>27</ele>
					<time>0001-01-01T00:00:00Z</time>
				</trkpt>
				<trkpt lat="58.94296" lon="5.74548">
					<ele>28</ele>
					<time>0001-01-01T00:00:00Z</time>
				</trkpt>
				<trkpt lat="58.94324" lon="5.74527">
					<ele>28</ele>
					<time>0001-01-01T00:00:00Z</time>
				</trkpt>
				<trkpt lat="58.94449" lon="5.74472">
					<ele>28</ele>
					<time>0001-01-01T00:00:00Z</time>
				</trkpt>
				<trkpt lat="58.94482" lon="5.74457">
					<ele>28</ele>
					<time>0001-01-01T00:00:00Z</time>
				</trkpt>
				<trkpt lat="58.94595" lon="5.74404">
					<ele>29</ele>
					<time>0001-01-01T00:00:00Z</time>
				</trkpt>
				<trkpt lat="58.94759" lon="5.74337">
					<ele>28</ele>
					<time>0001-01-01T00:00:00Z</time>
				</trkpt>
				<trkpt lat="58.94776" lon="5.74334">
					<ele>27</ele>
					<time>0001-01-01T00:00:00Z</time>
				</trkpt>
				<trkpt lat="58.94810" lon="5.74319">
					<ele>26</ele>
					<time>0001-01-01T00:00:00Z</time>
				</trkpt>
				<trkpt lat="58.94866" lon="5.74299">
					<ele>23</ele>
					<time>0001-01-01T00:00:00Z</time>
				</trkpt>
				<trkpt lat="58.94887" lon="5.74299">
					<ele>26</ele>
					<time>0001-01-01T00:00:00Z</time>
				</trkpt>
				<trkpt lat="58.95040" lon="5.74247">
					<ele>22</ele>
					<time>0001-01-01T00:00:00Z</time>
				</trkpt>
				<trkpt lat="58.95083" lon="5.74244">
					<ele>22</ele>
					<time>0001-01-01T00:00:00Z</time>
				</trkpt>
				<trkpt lat="58.95113" lon="5.74228">
					<ele>21</ele>
					<time>0001-01-01T00:00:00Z</time>
				</trkpt>
				<trkpt lat="58.95162" lon="5.74223">
					<ele>20</ele>
					<time>0001-01-01T00:00:00Z</time>
				</trkpt>
				<trkpt lat="58.95181" lon="5.74230">
					<ele>21</ele>
					<time>0001-01-01T00:00:00Z</time>
				</trkpt>
				<trkpt lat="58.95280" lon="5.74235">
					<ele>23</ele>
					<time>0001-01-01T00:00:00Z</time>
				</trkpt>
				<trkpt lat="58.95447" lon="5.74200">
					<ele>22</ele>
					<time>0001-01-01T00:00:00Z</time>
				</trkpt>
				<trkpt lat="58.95455" lon="5.74202">
					<ele>22</ele>
					<time>0001-01-01T00:00:00Z</time>
				</trkpt>
				<trkpt lat="58.95470" lon="5.74194">
					<ele>21</ele>
					<time>0001-01-01T00:00:00Z</time>
				</trkpt>
				<trkpt lat="58.95525" lon="5.74443">
					<ele>16</ele>
					<time>0001-01-01T00:00:00Z</time>
				</trkpt>
				<trkpt lat="58.95584" lon="5.74703">
					<ele>15</ele>
					<time>0001-01-01T00:00:00Z</time>
				</trkpt>
				<trkpt lat="58.96578" lon="5.75660">
					<ele>16</ele>
					<time>0001-01-01T00:00:00Z</time>
				</trkpt>
				<trkpt lat="58.96556" lon="5.75715">
					<ele>16</ele>
					<time>0001-01-01T00:00:00Z</time>
				</trkpt>
				<trkpt lat="58.96561" lon="5.75733">
					<ele>16</ele>
					<time>0001-01-01T00:00:00Z</time>
				</trkpt>
				<trkpt lat="58.96576" lon="5.75780">
					<ele>15</ele>
					<time>0001-01-01T00:00:00Z</time>
				</trkpt>
				<trkpt lat="58.96576" lon="5.75908">
					<ele>7</ele>
					<time>0001-01-01T00:00:00Z</time>
				</trkpt>
				<trkpt lat="58.96575" lon="5.75928">
					<ele>6</ele>
					<time>0001-01-01T00:00:00Z</time>
				</trkpt>
				<trkpt lat="58.96597" lon="5.75951">
					<ele>6</ele>
					<time>0001-01-01T00:00:00Z</time>
				</trkpt>
				<trkpt lat="58.96644" lon="5.75944">
					<ele>7</ele>
					<time>0001-01-01T00:00:00Z</time>
				</trkpt>
				<trkpt lat="58.96670" lon="5.75925">
					<ele>7</ele>
					<time>0001-01-01T00:00:00Z</time>
				</trkpt>
				<trkpt lat="58.96728" lon="5.75853">
					<ele>9</ele>
					<time>0001-01-01T00:00:00Z</time>
				</trkpt>
				<trkpt lat="58.96738" lon="5.75821">
					<ele>10</ele>
					<time>0001-01-01T00:00:00Z</time>
				</trkpt>
				<trkpt lat="58.96801" lon="5.75691">
					<ele>12</ele>
					<time>0001-01-01T00:00:00Z</time>
				</trkpt>
				<trkpt lat="58.96869" lon="5.75490">
					<ele>14</ele>
					<time>0001-01-01T00:00:00Z</time>
				</trkpt>
				<trkpt lat="58.96937" lon="5.75285">
					<ele>15</ele>
					<time>0001-01-01T00:00:00Z</time>
				</trkpt>
				<trkpt lat="58.96978" lon="5.75155">
					<ele>15</ele>
					<time>0001-01-01T00:00:00Z</time>
				</trkpt>
				<trkpt lat="58.96986" lon="5.75115">
					<ele>16</ele>
					<time>0001-01-01T00:00:00Z</time>
				</trkpt>
				<trkpt lat="58.97006" lon="5.75080">
					<ele>16</ele>
					<time>0001-01-01T00:00:00Z</time>
				</trkpt>
				<trkpt lat="58.97063" lon="5.75037">
					<ele>15</ele>
					<time>0001-01-01T00:00:00Z</time>
				</trkpt>
				<trkpt lat="58.97066" lon="5.75029">
					<ele>15</ele>
					<time>0001-01-01T00:00:00Z</time>
				</trkpt>
				<trkpt lat="58.97062" lon="5.74980">
					<ele>14</ele>
					<time>0001-01-01T00:00:00Z</time>
				</trkpt>
				<trkpt lat="58.97125" lon="5.74949">
					<ele>14</ele>
					<time>0001-01-01T00:00:00Z</time>
				</trkpt>
				<trkpt lat="58.97207" lon="5.74929">
					<ele>11</ele>
					<time>0001-01-01T00:00:00Z</time>
				</trkpt>
				<trkpt lat="58.97239" lon="5.74948">
					<ele>11</ele>
					<time>0001-01-01T00:00:00Z</time>
				</trkpt>
				<trkpt lat="58.97269" lon="5.74934">
					<ele>11</ele>
					<time>0001-01-01T00:00:00Z</time>
				</trkpt>
				<trkpt lat="58.97273" lon="5.74930">
					<ele>10</ele>
					<time>0001-01-01T00:00:00Z</time>
				</trkpt>
				<trkpt lat="58.97288" lon="5.74934">
					<ele>9</ele>
					<time>0001-01-01T00:00:00Z</time>
				</trkpt>
				<trkpt lat="58.97307" lon="5.74945">
					<ele>8</ele>
					<time>0001-01-01T00:00:00Z</time>
				</trkpt>
		</trkseg>
	</trk>
</gpx>
